<?xml version="1.0" encoding="UTF-8" standalone="no" ?>
<gpx xmlns="http://www.topografix.com/GPX/1/1" xmlns:xsi="http://www.w3.org/2001/XMLSchema-instance" xsi:schemaLocation="http://www.topografix.com/GPX/1/1 http://www.topografix.com/GPX/1/1/gpx.xsd" version="1.1" creator="VisuGPX - https://www.visugpx.com">
  <metadata>
    <name>77L3426  Rando mosaïque Chateau de Lugny 20 km par Jean Marc IBP 50</name>
    <desc><![CDATA[[img]https://blogger.googleusercontent.com/img/b/R29vZ2xl/AVvXsEgtxJOGU48crAHxM9XYTfJGVDofllJPoKWzKNFy1wpVypHy4YmHDpPH9xwotriO_Hys3IbzmX5bRrEhK_soXYVgpCI1b1FTXKfj24mCXbUaW4NFqiP5foC7Yv_Er2OgPF222X9Ku5GiqWFoGHTkfXRj5NjHgajEKI-QnEJXNqXH2Pkuc1XIg3_MG2NiRhjG/w400-h266/Blanc%20avec%20Pastel%20Rayures%20Bordure%20Badge%20(4).jpg[/img] 


[img]https://blogger.googleusercontent.com/img/b/R29vZ2xl/AVvXsEhyvuHuSjCnJfzIoSGZR2uCGIVkETMBEY4tFocprqxvjqS91HNZcaXlRpQzvJTLXcG69GcyqERVukDYAYUlZ4i4PZMq9Nrf_b5owv9W_8xhBuQOUsL64U_sh9zV80VVq4ZDnpcr5oWwLTn4oQbyd4nNY26KvX4TT9epzNKumAL2kIdi3BiTugT3H0aE-aLv/s100/Sans%20titre%20(100%20x%20100%20px).jpg[/img]   [b]Rando Club Yerrois[/b]

[img]https://blogger.googleusercontent.com/img/b/R29vZ2xl/AVvXsEisi-VCznprvDLvJTlGk5ZHUUj5yKrsElOgMzt8ZYerzNaNt4s6I63SEOjiyhOhZ79ZCPxjkCWOeBZVT0IfKD9x5cefBKGtWs0HffsRVNBZ_GzPYFVErrhJ-zni0IwzT6lZB9LelozK_h3Vxf6ZGan-fO04zJXTJPzvOFFMGQuZ7ozZxAYlTT7U7G062SCB/s320/Animateur%20%282%29.jpg[/img] [b]Dimanche 31 mai 2026 2026 [/b]
[img]https://blogger.googleusercontent.com/img/b/R29vZ2xl/AVvXsEgLiyi8DByeS3i7Ou4F9krchrsaam-BzjGlHuK7eNSe_7AJuLd5jUWTQdCggn9odJ9fmjqMOcucBLci-qUgj1g1NM2wK2aLvYXOnm5phdzMlYBBt9xKSrCUORYm5b1pQyRO8GdcDjNbzq7w_zn3stIXah3Zbr1uuDsp1qCuGszvlALy0GSl-R6VNyb297QF/s320/Animateur%20%285%29.jpg[/img] Jean Marc
[img]https://blogger.googleusercontent.com/img/b/R29vZ2xl/AVvXsEgFqA__k0dEq3JY-oznl3CprwE9o8zv7MAf5L8hc080yDG3kiv1D5FW-w06fRognG7kP0fdaGHobn_7-vKxwfvoxhwcqfGchPXaAEWfgWBcDKe6xRMWTNRkL596gfBSxFIJO-7t1BSkByGALZv5QZsPR94pLR2Gixc-2pFqXQeknAzgonGgv-FUlZC1J3PM/s320/Animateur%20%284%29.jpg[/img] 16
[img]https://blogger.googleusercontent.com/img/b/R29vZ2xl/AVvXsEiXyNFSKONmIWva9q1OH5UrSlMDxrajCo4dLvQm5jbx-Wk-TheBAsAlZzBIggtXvQD4URVcl_BcGknoH3rsQ1es5f4PGTS0SH_1J2X9smZxjZVQ2JF4I1HHYQOKhcYGEgPUjnAJ55BKZqaTvPA7QJWC_lBmyjkZlIZOUuWkK-LFZ3bbYrc7ENwf-G9FSZjz/s320/Animateur%20%283%29.jpg[/img]  Pas de difficulté sur le terrain - Arrêt prolongé au château de Lugny pour repas avec les autres groupes du club




[b]Avertissement[/b] Toutes les randonnées répertoriées dans la randothèque du [b]R[/b]ando [b]C[/b]lub [b]Y[/b]errois ont été tracées par l'un de nos animateurs, puis reconnues et enfin effectuées avec un groupe. Pour votre sécurité, regardez toujours la date à laquelle la sortie a été effectuée - Nous tachons de mentionner des conditions météos particulières ou les difficultés éventuelles. N'oubliez jamais les consignes supplémentaires de sécurité]]></desc>
  </metadata>
  <trk>
    <name><![CDATA[SityTrail - Rando mosaïque Chateau de Lugny]]></name>
    <trkseg>
      <trkpt lat="48.64325" lon="2.50544">
        <ele>72</ele>
        <time>2026-05-31T07:25:16.823+00:00</time>
      </trkpt>
      <trkpt lat="48.64325" lon="2.50543">
        <ele>72</ele>
        <time>2026-05-31T07:25:46.320+00:00</time>
      </trkpt>
      <trkpt lat="48.64329" lon="2.50545">
        <ele>72</ele>
        <time>2026-05-31T07:25:50.712+00:00</time>
      </trkpt>
      <trkpt lat="48.64333" lon="2.50551">
        <ele>72</ele>
        <time>2026-05-31T07:25:54.799+00:00</time>
      </trkpt>
      <trkpt lat="48.64336" lon="2.50561">
        <ele>72</ele>
        <time>2026-05-31T07:25:59.212+00:00</time>
      </trkpt>
      <trkpt lat="48.64337" lon="2.50569">
        <ele>72</ele>
        <time>2026-05-31T07:26:03.335+00:00</time>
      </trkpt>
      <trkpt lat="48.64337" lon="2.50577">
        <ele>74</ele>
        <time>2026-05-31T07:26:07.846+00:00</time>
      </trkpt>
      <trkpt lat="48.64341" lon="2.50576">
        <ele>74</ele>
        <time>2026-05-31T07:26:12.335+00:00</time>
      </trkpt>
      <trkpt lat="48.64346" lon="2.50575">
        <ele>74</ele>
        <time>2026-05-31T07:26:16.616+00:00</time>
      </trkpt>
      <trkpt lat="48.64348" lon="2.50573">
        <ele>73</ele>
        <time>2026-05-31T07:26:20.990+00:00</time>
      </trkpt>
      <trkpt lat="48.64353" lon="2.50577">
        <ele>73</ele>
        <time>2026-05-31T07:26:25.355+00:00</time>
      </trkpt>
      <trkpt lat="48.64356" lon="2.50585">
        <ele>73</ele>
        <time>2026-05-31T07:26:29.451+00:00</time>
      </trkpt>
      <trkpt lat="48.64358" lon="2.50593">
        <ele>73</ele>
        <time>2026-05-31T07:26:33.671+00:00</time>
      </trkpt>
      <trkpt lat="48.64363" lon="2.50599">
        <ele>74</ele>
        <time>2026-05-31T07:26:38.823+00:00</time>
      </trkpt>
      <trkpt lat="48.64365" lon="2.5059">
        <ele>73</ele>
        <time>2026-05-31T07:27:01.822+00:00</time>
      </trkpt>
      <trkpt lat="48.64367" lon="2.5059">
        <ele>73</ele>
        <time>2026-05-31T07:27:06.822+00:00</time>
      </trkpt>
      <trkpt lat="48.64367" lon="2.5059">
        <ele>73</ele>
        <time>2026-05-31T07:27:11.438+00:00</time>
      </trkpt>
      <trkpt lat="48.64368" lon="2.50589">
        <ele>73</ele>
        <time>2026-05-31T07:27:15.822+00:00</time>
      </trkpt>
      <trkpt lat="48.64373" lon="2.5059">
        <ele>73</ele>
        <time>2026-05-31T07:27:20.467+00:00</time>
      </trkpt>
      <trkpt lat="48.64378" lon="2.5059">
        <ele>70</ele>
        <time>2026-05-31T07:27:24.821+00:00</time>
      </trkpt>
      <trkpt lat="48.64384" lon="2.50591">
        <ele>70</ele>
        <time>2026-05-31T07:27:29.469+00:00</time>
      </trkpt>
      <trkpt lat="48.64389" lon="2.50592">
        <ele>70</ele>
        <time>2026-05-31T07:27:33.690+00:00</time>
      </trkpt>
      <trkpt lat="48.64394" lon="2.50589">
        <ele>70</ele>
        <time>2026-05-31T07:27:37.821+00:00</time>
      </trkpt>
      <trkpt lat="48.64393" lon="2.50584">
        <ele>70</ele>
        <time>2026-05-31T07:27:59.822+00:00</time>
      </trkpt>
      <trkpt lat="48.64393" lon="2.50584">
        <ele>70</ele>
        <time>2026-05-31T07:28:03.821+00:00</time>
      </trkpt>
      <trkpt lat="48.64395" lon="2.5059">
        <ele>70</ele>
        <time>2026-05-31T07:28:08.405+00:00</time>
      </trkpt>
      <trkpt lat="48.644" lon="2.50592">
        <ele>70</ele>
        <time>2026-05-31T07:28:12.822+00:00</time>
      </trkpt>
      <trkpt lat="48.64405" lon="2.50593">
        <ele>68</ele>
        <time>2026-05-31T07:28:17.321+00:00</time>
      </trkpt>
      <trkpt lat="48.6441" lon="2.50592">
        <ele>68</ele>
        <time>2026-05-31T07:28:21.821+00:00</time>
      </trkpt>
      <trkpt lat="48.64415" lon="2.50588">
        <ele>68</ele>
        <time>2026-05-31T07:28:26.101+00:00</time>
      </trkpt>
      <trkpt lat="48.6442" lon="2.50587">
        <ele>68</ele>
        <time>2026-05-31T07:28:30.342+00:00</time>
      </trkpt>
      <trkpt lat="48.64425" lon="2.50586">
        <ele>68</ele>
        <time>2026-05-31T07:28:34.688+00:00</time>
      </trkpt>
      <trkpt lat="48.6443" lon="2.50586">
        <ele>68</ele>
        <time>2026-05-31T07:28:39.005+00:00</time>
      </trkpt>
      <trkpt lat="48.64435" lon="2.50587">
        <ele>65</ele>
        <time>2026-05-31T07:28:43.362+00:00</time>
      </trkpt>
      <trkpt lat="48.64441" lon="2.50589">
        <ele>65</ele>
        <time>2026-05-31T07:28:47.583+00:00</time>
      </trkpt>
      <trkpt lat="48.64446" lon="2.50591">
        <ele>65</ele>
        <time>2026-05-31T07:28:51.814+00:00</time>
      </trkpt>
      <trkpt lat="48.64449" lon="2.50593">
        <ele>65</ele>
        <time>2026-05-31T07:28:56.036+00:00</time>
      </trkpt>
      <trkpt lat="48.64454" lon="2.50598">
        <ele>66</ele>
        <time>2026-05-31T07:29:00.391+00:00</time>
      </trkpt>
      <trkpt lat="48.64458" lon="2.50604">
        <ele>66</ele>
        <time>2026-05-31T07:29:04.709+00:00</time>
      </trkpt>
      <trkpt lat="48.64461" lon="2.5061">
        <ele>64</ele>
        <time>2026-05-31T07:29:08.835+00:00</time>
      </trkpt>
      <trkpt lat="48.64468" lon="2.50607">
        <ele>64</ele>
        <time>2026-05-31T07:29:12.822+00:00</time>
      </trkpt>
      <trkpt lat="48.64472" lon="2.50604">
        <ele>64</ele>
        <time>2026-05-31T07:29:17.508+00:00</time>
      </trkpt>
      <trkpt lat="48.64477" lon="2.50598">
        <ele>64</ele>
        <time>2026-05-31T07:29:21.822+00:00</time>
      </trkpt>
      <trkpt lat="48.64485" lon="2.506">
        <ele>64</ele>
        <time>2026-05-31T07:29:26.730+00:00</time>
      </trkpt>
      <trkpt lat="48.6449" lon="2.50602">
        <ele>63</ele>
        <time>2026-05-31T07:29:30.821+00:00</time>
      </trkpt>
      <trkpt lat="48.64495" lon="2.50605">
        <ele>63</ele>
        <time>2026-05-31T07:29:35.268+00:00</time>
      </trkpt>
      <trkpt lat="48.64499" lon="2.50608">
        <ele>63</ele>
        <time>2026-05-31T07:29:39.431+00:00</time>
      </trkpt>
      <trkpt lat="48.64504" lon="2.50612">
        <ele>63</ele>
        <time>2026-05-31T07:29:43.652+00:00</time>
      </trkpt>
      <trkpt lat="48.64509" lon="2.50612">
        <ele>63</ele>
        <time>2026-05-31T07:29:47.821+00:00</time>
      </trkpt>
      <trkpt lat="48.64514" lon="2.50613">
        <ele>63</ele>
        <time>2026-05-31T07:29:51.821+00:00</time>
      </trkpt>
      <trkpt lat="48.64519" lon="2.50617">
        <ele>63</ele>
        <time>2026-05-31T07:29:56.573+00:00</time>
      </trkpt>
      <trkpt lat="48.64523" lon="2.50624">
        <ele>63</ele>
        <time>2026-05-31T07:30:01.487+00:00</time>
      </trkpt>
      <trkpt lat="48.64527" lon="2.50629">
        <ele>63</ele>
        <time>2026-05-31T07:30:05.728+00:00</time>
      </trkpt>
      <trkpt lat="48.64532" lon="2.50632">
        <ele>63</ele>
        <time>2026-05-31T07:30:09.822+00:00</time>
      </trkpt>
      <trkpt lat="48.64538" lon="2.50634">
        <ele>63</ele>
        <time>2026-05-31T07:30:14.509+00:00</time>
      </trkpt>
      <trkpt lat="48.64543" lon="2.50636">
        <ele>63</ele>
        <time>2026-05-31T07:30:18.821+00:00</time>
      </trkpt>
      <trkpt lat="48.64549" lon="2.50638">
        <ele>63</ele>
        <time>2026-05-31T07:30:23.634+00:00</time>
      </trkpt>
      <trkpt lat="48.64555" lon="2.5064">
        <ele>63</ele>
        <time>2026-05-31T07:30:27.814+00:00</time>
      </trkpt>
      <trkpt lat="48.6456" lon="2.50641">
        <ele>63</ele>
        <time>2026-05-31T07:30:31.822+00:00</time>
      </trkpt>
      <trkpt lat="48.64566" lon="2.50641">
        <ele>63</ele>
        <time>2026-05-31T07:30:35.822+00:00</time>
      </trkpt>
      <trkpt lat="48.64571" lon="2.5064">
        <ele>63</ele>
        <time>2026-05-31T07:30:40.449+00:00</time>
      </trkpt>
      <trkpt lat="48.64577" lon="2.50641">
        <ele>63</ele>
        <time>2026-05-31T07:30:44.774+00:00</time>
      </trkpt>
      <trkpt lat="48.64582" lon="2.50642">
        <ele>63</ele>
        <time>2026-05-31T07:30:48.822+00:00</time>
      </trkpt>
      <trkpt lat="48.64587" lon="2.50638">
        <ele>63</ele>
        <time>2026-05-31T07:30:53.447+00:00</time>
      </trkpt>
      <trkpt lat="48.64593" lon="2.50632">
        <ele>63</ele>
        <time>2026-05-31T07:30:58.468+00:00</time>
      </trkpt>
      <trkpt lat="48.64598" lon="2.50628">
        <ele>63</ele>
        <time>2026-05-31T07:31:02.651+00:00</time>
      </trkpt>
      <trkpt lat="48.64603" lon="2.50626">
        <ele>63</ele>
        <time>2026-05-31T07:31:06.822+00:00</time>
      </trkpt>
      <trkpt lat="48.64608" lon="2.50623">
        <ele>64</ele>
        <time>2026-05-31T07:31:11.295+00:00</time>
      </trkpt>
      <trkpt lat="48.64614" lon="2.50623">
        <ele>64</ele>
        <time>2026-05-31T07:31:15.574+00:00</time>
      </trkpt>
      <trkpt lat="48.64618" lon="2.50628">
        <ele>63</ele>
        <time>2026-05-31T07:31:19.812+00:00</time>
      </trkpt>
      <trkpt lat="48.64622" lon="2.50632">
        <ele>63</ele>
        <time>2026-05-31T07:31:23.821+00:00</time>
      </trkpt>
      <trkpt lat="48.64626" lon="2.50637">
        <ele>64</ele>
        <time>2026-05-31T07:31:28.215+00:00</time>
      </trkpt>
      <trkpt lat="48.64628" lon="2.50644">
        <ele>64</ele>
        <time>2026-05-31T07:31:32.512+00:00</time>
      </trkpt>
      <trkpt lat="48.64631" lon="2.50651">
        <ele>64</ele>
        <time>2026-05-31T07:31:36.791+00:00</time>
      </trkpt>
      <trkpt lat="48.64633" lon="2.50658">
        <ele>62</ele>
        <time>2026-05-31T07:31:40.821+00:00</time>
      </trkpt>
      <trkpt lat="48.64635" lon="2.50666">
        <ele>62</ele>
        <time>2026-05-31T07:31:45.252+00:00</time>
      </trkpt>
      <trkpt lat="48.64636" lon="2.50674">
        <ele>62</ele>
        <time>2026-05-31T07:31:49.511+00:00</time>
      </trkpt>
      <trkpt lat="48.64637" lon="2.50682">
        <ele>61</ele>
        <time>2026-05-31T07:31:53.674+00:00</time>
      </trkpt>
      <trkpt lat="48.64636" lon="2.50692">
        <ele>61</ele>
        <time>2026-05-31T07:31:58.098+00:00</time>
      </trkpt>
      <trkpt lat="48.64636" lon="2.50701">
        <ele>61</ele>
        <time>2026-05-31T07:32:02.510+00:00</time>
      </trkpt>
      <trkpt lat="48.64636" lon="2.50709">
        <ele>59</ele>
        <time>2026-05-31T07:32:06.808+00:00</time>
      </trkpt>
      <trkpt lat="48.64637" lon="2.50718">
        <ele>59</ele>
        <time>2026-05-31T07:32:11.250+00:00</time>
      </trkpt>
      <trkpt lat="48.64637" lon="2.50726">
        <ele>59</ele>
        <time>2026-05-31T07:32:15.529+00:00</time>
      </trkpt>
      <trkpt lat="48.64638" lon="2.50735">
        <ele>59</ele>
        <time>2026-05-31T07:32:19.821+00:00</time>
      </trkpt>
      <trkpt lat="48.64638" lon="2.50744">
        <ele>59</ele>
        <time>2026-05-31T07:32:24.634+00:00</time>
      </trkpt>
      <trkpt lat="48.6464" lon="2.50752">
        <ele>59</ele>
        <time>2026-05-31T07:32:28.691+00:00</time>
      </trkpt>
      <trkpt lat="48.64641" lon="2.50754">
        <ele>59</ele>
        <time>2026-05-31T07:32:32.795+00:00</time>
      </trkpt>
      <trkpt lat="48.64642" lon="2.5076">
        <ele>59</ele>
        <time>2026-05-31T07:32:36.821+00:00</time>
      </trkpt>
      <trkpt lat="48.64637" lon="2.50773">
        <ele>60</ele>
        <time>2026-05-31T07:32:41.813+00:00</time>
      </trkpt>
      <trkpt lat="48.6464" lon="2.50783">
        <ele>60</ele>
        <time>2026-05-31T07:32:46.112+00:00</time>
      </trkpt>
      <trkpt lat="48.64645" lon="2.5079">
        <ele>60</ele>
        <time>2026-05-31T07:32:50.429+00:00</time>
      </trkpt>
      <trkpt lat="48.6465" lon="2.50796">
        <ele>62</ele>
        <time>2026-05-31T07:32:54.774+00:00</time>
      </trkpt>
      <trkpt lat="48.64654" lon="2.50801">
        <ele>62</ele>
        <time>2026-05-31T07:32:59.169+00:00</time>
      </trkpt>
      <trkpt lat="48.64658" lon="2.50806">
        <ele>62</ele>
        <time>2026-05-31T07:33:03.408+00:00</time>
      </trkpt>
      <trkpt lat="48.64662" lon="2.50811">
        <ele>62</ele>
        <time>2026-05-31T07:33:07.384+00:00</time>
      </trkpt>
      <trkpt lat="48.64667" lon="2.50817">
        <ele>62</ele>
        <time>2026-05-31T07:33:11.821+00:00</time>
      </trkpt>
      <trkpt lat="48.64673" lon="2.50821">
        <ele>64</ele>
        <time>2026-05-31T07:33:16.322+00:00</time>
      </trkpt>
      <trkpt lat="48.64678" lon="2.50824">
        <ele>64</ele>
        <time>2026-05-31T07:33:20.617+00:00</time>
      </trkpt>
      <trkpt lat="48.64683" lon="2.50825">
        <ele>66</ele>
        <time>2026-05-31T07:33:24.821+00:00</time>
      </trkpt>
      <trkpt lat="48.6469" lon="2.50827">
        <ele>66</ele>
        <time>2026-05-31T07:33:29.116+00:00</time>
      </trkpt>
      <trkpt lat="48.64696" lon="2.50831">
        <ele>66</ele>
        <time>2026-05-31T07:33:33.317+00:00</time>
      </trkpt>
      <trkpt lat="48.64703" lon="2.50835">
        <ele>66</ele>
        <time>2026-05-31T07:33:37.596+00:00</time>
      </trkpt>
      <trkpt lat="48.64709" lon="2.50835">
        <ele>66</ele>
        <time>2026-05-31T07:33:41.721+00:00</time>
      </trkpt>
      <trkpt lat="48.64714" lon="2.50839">
        <ele>66</ele>
        <time>2026-05-31T07:33:46.056+00:00</time>
      </trkpt>
      <trkpt lat="48.64718" lon="2.50846">
        <ele>66</ele>
        <time>2026-05-31T07:33:50.536+00:00</time>
      </trkpt>
      <trkpt lat="48.64721" lon="2.50853">
        <ele>67</ele>
        <time>2026-05-31T07:33:54.821+00:00</time>
      </trkpt>
      <trkpt lat="48.64723" lon="2.50864">
        <ele>67</ele>
        <time>2026-05-31T07:33:59.556+00:00</time>
      </trkpt>
      <trkpt lat="48.64725" lon="2.50874">
        <ele>67</ele>
        <time>2026-05-31T07:34:04.614+00:00</time>
      </trkpt>
      <trkpt lat="48.64728" lon="2.50882">
        <ele>67</ele>
        <time>2026-05-31T07:34:08.821+00:00</time>
      </trkpt>
      <trkpt lat="48.6473" lon="2.5089">
        <ele>67</ele>
        <time>2026-05-31T07:34:13.201+00:00</time>
      </trkpt>
      <trkpt lat="48.64731" lon="2.509">
        <ele>67</ele>
        <time>2026-05-31T07:34:17.537+00:00</time>
      </trkpt>
      <trkpt lat="48.64731" lon="2.50909">
        <ele>66</ele>
        <time>2026-05-31T07:34:21.821+00:00</time>
      </trkpt>
      <trkpt lat="48.64732" lon="2.50919">
        <ele>66</ele>
        <time>2026-05-31T07:34:26.497+00:00</time>
      </trkpt>
      <trkpt lat="48.64731" lon="2.50928">
        <ele>66</ele>
        <time>2026-05-31T07:34:30.820+00:00</time>
      </trkpt>
      <trkpt lat="48.6473" lon="2.50938">
        <ele>67</ele>
        <time>2026-05-31T07:34:35.631+00:00</time>
      </trkpt>
      <trkpt lat="48.64729" lon="2.50947">
        <ele>67</ele>
        <time>2026-05-31T07:34:39.821+00:00</time>
      </trkpt>
      <trkpt lat="48.64728" lon="2.50955">
        <ele>67</ele>
        <time>2026-05-31T07:34:44.352+00:00</time>
      </trkpt>
      <trkpt lat="48.64729" lon="2.50962">
        <ele>68</ele>
        <time>2026-05-31T07:34:48.716+00:00</time>
      </trkpt>
      <trkpt lat="48.64729" lon="2.50969">
        <ele>68</ele>
        <time>2026-05-31T07:34:52.821+00:00</time>
      </trkpt>
      <trkpt lat="48.64727" lon="2.50975">
        <ele>68</ele>
        <time>2026-05-31T07:34:56.821+00:00</time>
      </trkpt>
      <trkpt lat="48.64729" lon="2.50969">
        <ele>68</ele>
        <time>2026-05-31T07:35:01.821+00:00</time>
      </trkpt>
      <trkpt lat="48.64731" lon="2.50962">
        <ele>68</ele>
        <time>2026-05-31T07:35:06.081+00:00</time>
      </trkpt>
      <trkpt lat="48.64736" lon="2.50975">
        <ele>68</ele>
        <time>2026-05-31T07:35:10.821+00:00</time>
      </trkpt>
      <trkpt lat="48.64739" lon="2.5099">
        <ele>64</ele>
        <time>2026-05-31T07:35:15.011+00:00</time>
      </trkpt>
      <trkpt lat="48.64741" lon="2.51003">
        <ele>64</ele>
        <time>2026-05-31T07:35:19.357+00:00</time>
      </trkpt>
      <trkpt lat="48.64744" lon="2.51013">
        <ele>64</ele>
        <time>2026-05-31T07:35:23.577+00:00</time>
      </trkpt>
      <trkpt lat="48.64749" lon="2.51018">
        <ele>67</ele>
        <time>2026-05-31T07:35:27.821+00:00</time>
      </trkpt>
      <trkpt lat="48.64754" lon="2.51022">
        <ele>67</ele>
        <time>2026-05-31T07:35:32+00:00</time>
      </trkpt>
      <trkpt lat="48.64757" lon="2.51027">
        <ele>67</ele>
        <time>2026-05-31T07:35:36.296+00:00</time>
      </trkpt>
      <trkpt lat="48.64761" lon="2.51033">
        <ele>67</ele>
        <time>2026-05-31T07:35:40.498+00:00</time>
      </trkpt>
      <trkpt lat="48.64765" lon="2.51039">
        <ele>64</ele>
        <time>2026-05-31T07:35:44.717+00:00</time>
      </trkpt>
      <trkpt lat="48.64768" lon="2.51046">
        <ele>66</ele>
        <time>2026-05-31T07:35:48.821+00:00</time>
      </trkpt>
      <trkpt lat="48.64771" lon="2.51053">
        <ele>66</ele>
        <time>2026-05-31T07:35:53.034+00:00</time>
      </trkpt>
      <trkpt lat="48.64775" lon="2.51062">
        <ele>66</ele>
        <time>2026-05-31T07:35:57.456+00:00</time>
      </trkpt>
      <trkpt lat="48.64779" lon="2.51069">
        <ele>66</ele>
        <time>2026-05-31T07:36:01.843+00:00</time>
      </trkpt>
      <trkpt lat="48.64781" lon="2.51078">
        <ele>68</ele>
        <time>2026-05-31T07:36:06.408+00:00</time>
      </trkpt>
      <trkpt lat="48.64783" lon="2.51087">
        <ele>68</ele>
        <time>2026-05-31T07:36:10.821+00:00</time>
      </trkpt>
      <trkpt lat="48.64787" lon="2.51094">
        <ele>68</ele>
        <time>2026-05-31T07:36:15.162+00:00</time>
      </trkpt>
      <trkpt lat="48.6479" lon="2.51103">
        <ele>68</ele>
        <time>2026-05-31T07:36:19.579+00:00</time>
      </trkpt>
      <trkpt lat="48.64792" lon="2.51111">
        <ele>68</ele>
        <time>2026-05-31T07:36:23.781+00:00</time>
      </trkpt>
      <trkpt lat="48.64794" lon="2.5112">
        <ele>66</ele>
        <time>2026-05-31T07:36:27.820+00:00</time>
      </trkpt>
      <trkpt lat="48.64796" lon="2.51128">
        <ele>68</ele>
        <time>2026-05-31T07:36:32.762+00:00</time>
      </trkpt>
      <trkpt lat="48.64796" lon="2.51136">
        <ele>68</ele>
        <time>2026-05-31T07:36:37.821+00:00</time>
      </trkpt>
      <trkpt lat="48.64797" lon="2.51138">
        <ele>68</ele>
        <time>2026-05-31T07:36:40.821+00:00</time>
      </trkpt>
      <trkpt lat="48.64799" lon="2.51137">
        <ele>68</ele>
        <time>2026-05-31T07:36:55.820+00:00</time>
      </trkpt>
      <trkpt lat="48.64801" lon="2.51144">
        <ele>68</ele>
        <time>2026-05-31T07:37:00.701+00:00</time>
      </trkpt>
      <trkpt lat="48.64807" lon="2.51147">
        <ele>68</ele>
        <time>2026-05-31T07:37:05.074+00:00</time>
      </trkpt>
      <trkpt lat="48.64811" lon="2.51153">
        <ele>68</ele>
        <time>2026-05-31T07:37:09.820+00:00</time>
      </trkpt>
      <trkpt lat="48.64812" lon="2.51162">
        <ele>69</ele>
        <time>2026-05-31T07:37:14.836+00:00</time>
      </trkpt>
      <trkpt lat="48.64812" lon="2.51168">
        <ele>69</ele>
        <time>2026-05-31T07:37:19.200+00:00</time>
      </trkpt>
      <trkpt lat="48.6481" lon="2.51175">
        <ele>69</ele>
        <time>2026-05-31T07:37:23.595+00:00</time>
      </trkpt>
      <trkpt lat="48.64808" lon="2.51181">
        <ele>70</ele>
        <time>2026-05-31T07:37:27.820+00:00</time>
      </trkpt>
      <trkpt lat="48.64806" lon="2.5119">
        <ele>70</ele>
        <time>2026-05-31T07:37:32.166+00:00</time>
      </trkpt>
      <trkpt lat="48.64804" lon="2.512">
        <ele>70</ele>
        <time>2026-05-31T07:37:36.441+00:00</time>
      </trkpt>
      <trkpt lat="48.64801" lon="2.51209">
        <ele>70</ele>
        <time>2026-05-31T07:37:40.757+00:00</time>
      </trkpt>
      <trkpt lat="48.64796" lon="2.51215">
        <ele>70</ele>
        <time>2026-05-31T07:37:45.141+00:00</time>
      </trkpt>
      <trkpt lat="48.64791" lon="2.51221">
        <ele>68</ele>
        <time>2026-05-31T07:37:49.664+00:00</time>
      </trkpt>
      <trkpt lat="48.64786" lon="2.51225">
        <ele>68</ele>
        <time>2026-05-31T07:37:54.256+00:00</time>
      </trkpt>
      <trkpt lat="48.64782" lon="2.5123">
        <ele>68</ele>
        <time>2026-05-31T07:37:58.682+00:00</time>
      </trkpt>
      <trkpt lat="48.6478" lon="2.51238">
        <ele>68</ele>
        <time>2026-05-31T07:38:03.161+00:00</time>
      </trkpt>
      <trkpt lat="48.6478" lon="2.51246">
        <ele>68</ele>
        <time>2026-05-31T07:38:07.815+00:00</time>
      </trkpt>
      <trkpt lat="48.64779" lon="2.51253">
        <ele>68</ele>
        <time>2026-05-31T07:38:11.820+00:00</time>
      </trkpt>
      <trkpt lat="48.64781" lon="2.51259">
        <ele>68</ele>
        <time>2026-05-31T07:38:16.534+00:00</time>
      </trkpt>
      <trkpt lat="48.64777" lon="2.51269">
        <ele>69</ele>
        <time>2026-05-31T07:38:20.820+00:00</time>
      </trkpt>
      <trkpt lat="48.64775" lon="2.51275">
        <ele>69</ele>
        <time>2026-05-31T07:38:25.173+00:00</time>
      </trkpt>
      <trkpt lat="48.64774" lon="2.51284">
        <ele>69</ele>
        <time>2026-05-31T07:38:29.634+00:00</time>
      </trkpt>
      <trkpt lat="48.64775" lon="2.51292">
        <ele>69</ele>
        <time>2026-05-31T07:38:33.654+00:00</time>
      </trkpt>
      <trkpt lat="48.64776" lon="2.51298">
        <ele>70</ele>
        <time>2026-05-31T07:38:37.766+00:00</time>
      </trkpt>
      <trkpt lat="48.64779" lon="2.51304">
        <ele>70</ele>
        <time>2026-05-31T07:38:42.210+00:00</time>
      </trkpt>
      <trkpt lat="48.64779" lon="2.51315">
        <ele>70</ele>
        <time>2026-05-31T07:38:46.729+00:00</time>
      </trkpt>
      <trkpt lat="48.64778" lon="2.51325">
        <ele>71</ele>
        <time>2026-05-31T07:38:51.171+00:00</time>
      </trkpt>
      <trkpt lat="48.64777" lon="2.51334">
        <ele>71</ele>
        <time>2026-05-31T07:38:55.612+00:00</time>
      </trkpt>
      <trkpt lat="48.64777" lon="2.51342">
        <ele>71</ele>
        <time>2026-05-31T07:38:59.820+00:00</time>
      </trkpt>
      <trkpt lat="48.64776" lon="2.5135">
        <ele>71</ele>
        <time>2026-05-31T07:39:04.091+00:00</time>
      </trkpt>
      <trkpt lat="48.64776" lon="2.51359">
        <ele>71</ele>
        <time>2026-05-31T07:39:08.554+00:00</time>
      </trkpt>
      <trkpt lat="48.64775" lon="2.51369">
        <ele>71</ele>
        <time>2026-05-31T07:39:13.553+00:00</time>
      </trkpt>
      <trkpt lat="48.64776" lon="2.51378">
        <ele>72</ele>
        <time>2026-05-31T07:39:17.820+00:00</time>
      </trkpt>
      <trkpt lat="48.64776" lon="2.51388">
        <ele>72</ele>
        <time>2026-05-31T07:39:22.274+00:00</time>
      </trkpt>
      <trkpt lat="48.64775" lon="2.51396">
        <ele>72</ele>
        <time>2026-05-31T07:39:26.820+00:00</time>
      </trkpt>
      <trkpt lat="48.64772" lon="2.51404">
        <ele>74</ele>
        <time>2026-05-31T07:39:31.398+00:00</time>
      </trkpt>
      <trkpt lat="48.64768" lon="2.51411">
        <ele>74</ele>
        <time>2026-05-31T07:39:35.830+00:00</time>
      </trkpt>
      <trkpt lat="48.64764" lon="2.51417">
        <ele>70</ele>
        <time>2026-05-31T07:39:40.404+00:00</time>
      </trkpt>
      <trkpt lat="48.6476" lon="2.51423">
        <ele>70</ele>
        <time>2026-05-31T07:39:44.771+00:00</time>
      </trkpt>
      <trkpt lat="48.64754" lon="2.51427">
        <ele>70</ele>
        <time>2026-05-31T07:39:48.820+00:00</time>
      </trkpt>
      <trkpt lat="48.64751" lon="2.51431">
        <ele>72</ele>
        <time>2026-05-31T07:39:53.414+00:00</time>
      </trkpt>
      <trkpt lat="48.6475" lon="2.51435">
        <ele>72</ele>
        <time>2026-05-31T07:39:57.452+00:00</time>
      </trkpt>
      <trkpt lat="48.64747" lon="2.5144">
        <ele>72</ele>
        <time>2026-05-31T07:40:01.470+00:00</time>
      </trkpt>
      <trkpt lat="48.64745" lon="2.51447">
        <ele>72</ele>
        <time>2026-05-31T07:40:05.820+00:00</time>
      </trkpt>
      <trkpt lat="48.64743" lon="2.51455">
        <ele>72</ele>
        <time>2026-05-31T07:40:10.507+00:00</time>
      </trkpt>
      <trkpt lat="48.64738" lon="2.51459">
        <ele>74</ele>
        <time>2026-05-31T07:40:14.820+00:00</time>
      </trkpt>
      <trkpt lat="48.64739" lon="2.51455">
        <ele>72</ele>
        <time>2026-05-31T07:40:19.820+00:00</time>
      </trkpt>
      <trkpt lat="48.64737" lon="2.51454">
        <ele>72</ele>
        <time>2026-05-31T07:40:24.005+00:00</time>
      </trkpt>
      <trkpt lat="48.6473" lon="2.51458">
        <ele>69</ele>
        <time>2026-05-31T07:40:28.370+00:00</time>
      </trkpt>
      <trkpt lat="48.64724" lon="2.5146">
        <ele>72</ele>
        <time>2026-05-31T07:40:32.746+00:00</time>
      </trkpt>
      <trkpt lat="48.64719" lon="2.51462">
        <ele>72</ele>
        <time>2026-05-31T07:40:36.820+00:00</time>
      </trkpt>
      <trkpt lat="48.64714" lon="2.51465">
        <ele>72</ele>
        <time>2026-05-31T07:40:41.396+00:00</time>
      </trkpt>
      <trkpt lat="48.6471" lon="2.51467">
        <ele>72</ele>
        <time>2026-05-31T07:40:45.685+00:00</time>
      </trkpt>
      <trkpt lat="48.64706" lon="2.51467">
        <ele>69</ele>
        <time>2026-05-31T07:40:50.013+00:00</time>
      </trkpt>
      <trkpt lat="48.64702" lon="2.51468">
        <ele>69</ele>
        <time>2026-05-31T07:40:54.233+00:00</time>
      </trkpt>
      <trkpt lat="48.64697" lon="2.51472">
        <ele>69</ele>
        <time>2026-05-31T07:40:58.552+00:00</time>
      </trkpt>
      <trkpt lat="48.64695" lon="2.5148">
        <ele>69</ele>
        <time>2026-05-31T07:41:02.732+00:00</time>
      </trkpt>
      <trkpt lat="48.64691" lon="2.51484">
        <ele>69</ele>
        <time>2026-05-31T07:41:07.191+00:00</time>
      </trkpt>
      <trkpt lat="48.64687" lon="2.51486">
        <ele>69</ele>
        <time>2026-05-31T07:41:11.229+00:00</time>
      </trkpt>
      <trkpt lat="48.64682" lon="2.5149">
        <ele>72</ele>
        <time>2026-05-31T07:41:15.269+00:00</time>
      </trkpt>
      <trkpt lat="48.64678" lon="2.51495">
        <ele>70</ele>
        <time>2026-05-31T07:41:19.688+00:00</time>
      </trkpt>
      <trkpt lat="48.64673" lon="2.51501">
        <ele>70</ele>
        <time>2026-05-31T07:41:24.169+00:00</time>
      </trkpt>
      <trkpt lat="48.64669" lon="2.51506">
        <ele>70</ele>
        <time>2026-05-31T07:41:28.572+00:00</time>
      </trkpt>
      <trkpt lat="48.64664" lon="2.51512">
        <ele>70</ele>
        <time>2026-05-31T07:41:32.995+00:00</time>
      </trkpt>
      <trkpt lat="48.6466" lon="2.51518">
        <ele>75</ele>
        <time>2026-05-31T07:41:37.533+00:00</time>
      </trkpt>
      <trkpt lat="48.64654" lon="2.51522">
        <ele>75</ele>
        <time>2026-05-31T07:41:42.090+00:00</time>
      </trkpt>
      <trkpt lat="48.64649" lon="2.51527">
        <ele>74</ele>
        <time>2026-05-31T07:41:46.590+00:00</time>
      </trkpt>
      <trkpt lat="48.64645" lon="2.51531">
        <ele>74</ele>
        <time>2026-05-31T07:41:50.819+00:00</time>
      </trkpt>
      <trkpt lat="48.6464" lon="2.51532">
        <ele>74</ele>
        <time>2026-05-31T07:41:55.454+00:00</time>
      </trkpt>
      <trkpt lat="48.64637" lon="2.51531">
        <ele>74</ele>
        <time>2026-05-31T07:41:59.492+00:00</time>
      </trkpt>
      <trkpt lat="48.64633" lon="2.51537">
        <ele>74</ele>
        <time>2026-05-31T07:42:04.009+00:00</time>
      </trkpt>
      <trkpt lat="48.64628" lon="2.51543">
        <ele>78</ele>
        <time>2026-05-31T07:42:08.819+00:00</time>
      </trkpt>
      <trkpt lat="48.64623" lon="2.51544">
        <ele>77</ele>
        <time>2026-05-31T07:42:13.433+00:00</time>
      </trkpt>
      <trkpt lat="48.64618" lon="2.51542">
        <ele>77</ele>
        <time>2026-05-31T07:42:17.806+00:00</time>
      </trkpt>
      <trkpt lat="48.64613" lon="2.51544">
        <ele>77</ele>
        <time>2026-05-31T07:42:21.820+00:00</time>
      </trkpt>
      <trkpt lat="48.64608" lon="2.51545">
        <ele>77</ele>
        <time>2026-05-31T07:42:26.633+00:00</time>
      </trkpt>
      <trkpt lat="48.64603" lon="2.51543">
        <ele>77</ele>
        <time>2026-05-31T07:42:31.094+00:00</time>
      </trkpt>
      <trkpt lat="48.64598" lon="2.51541">
        <ele>73</ele>
        <time>2026-05-31T07:42:35.526+00:00</time>
      </trkpt>
      <trkpt lat="48.64592" lon="2.51539">
        <ele>72</ele>
        <time>2026-05-31T07:42:40.151+00:00</time>
      </trkpt>
      <trkpt lat="48.64587" lon="2.51539">
        <ele>72</ele>
        <time>2026-05-31T07:42:44.612+00:00</time>
      </trkpt>
      <trkpt lat="48.64582" lon="2.51542">
        <ele>75</ele>
        <time>2026-05-31T07:42:49.113+00:00</time>
      </trkpt>
      <trkpt lat="48.64578" lon="2.51546">
        <ele>75</ele>
        <time>2026-05-31T07:42:53.155+00:00</time>
      </trkpt>
      <trkpt lat="48.64574" lon="2.51553">
        <ele>75</ele>
        <time>2026-05-31T07:42:57.609+00:00</time>
      </trkpt>
      <trkpt lat="48.64571" lon="2.51558">
        <ele>75</ele>
        <time>2026-05-31T07:43:02.071+00:00</time>
      </trkpt>
      <trkpt lat="48.64566" lon="2.51561">
        <ele>72</ele>
        <time>2026-05-31T07:43:06.532+00:00</time>
      </trkpt>
      <trkpt lat="48.6456" lon="2.51564">
        <ele>72</ele>
        <time>2026-05-31T07:43:10.973+00:00</time>
      </trkpt>
      <trkpt lat="48.64555" lon="2.51566">
        <ele>72</ele>
        <time>2026-05-31T07:43:15.069+00:00</time>
      </trkpt>
      <trkpt lat="48.64552" lon="2.51571">
        <ele>74</ele>
        <time>2026-05-31T07:43:19.328+00:00</time>
      </trkpt>
      <trkpt lat="48.64549" lon="2.51579">
        <ele>74</ele>
        <time>2026-05-31T07:43:23.732+00:00</time>
      </trkpt>
      <trkpt lat="48.64544" lon="2.51581">
        <ele>74</ele>
        <time>2026-05-31T07:43:28.810+00:00</time>
      </trkpt>
      <trkpt lat="48.64539" lon="2.51585">
        <ele>71</ele>
        <time>2026-05-31T07:43:32.819+00:00</time>
      </trkpt>
      <trkpt lat="48.64534" lon="2.5159">
        <ele>71</ele>
        <time>2026-05-31T07:43:37.306+00:00</time>
      </trkpt>
      <trkpt lat="48.64532" lon="2.51598">
        <ele>73</ele>
        <time>2026-05-31T07:43:41.819+00:00</time>
      </trkpt>
      <trkpt lat="48.64531" lon="2.51608">
        <ele>73</ele>
        <time>2026-05-31T07:43:46.449+00:00</time>
      </trkpt>
      <trkpt lat="48.6453" lon="2.51616">
        <ele>73</ele>
        <time>2026-05-31T07:43:50.818+00:00</time>
      </trkpt>
      <trkpt lat="48.64528" lon="2.51625">
        <ele>73</ele>
        <time>2026-05-31T07:43:55.315+00:00</time>
      </trkpt>
      <trkpt lat="48.64526" lon="2.51633">
        <ele>75</ele>
        <time>2026-05-31T07:43:59.669+00:00</time>
      </trkpt>
      <trkpt lat="48.64524" lon="2.5164">
        <ele>75</ele>
        <time>2026-05-31T07:44:04.034+00:00</time>
      </trkpt>
      <trkpt lat="48.64523" lon="2.51649">
        <ele>75</ele>
        <time>2026-05-31T07:44:08.611+00:00</time>
      </trkpt>
      <trkpt lat="48.64522" lon="2.51658">
        <ele>77</ele>
        <time>2026-05-31T07:44:13.187+00:00</time>
      </trkpt>
      <trkpt lat="48.64522" lon="2.51667">
        <ele>77</ele>
        <time>2026-05-31T07:44:17.812+00:00</time>
      </trkpt>
      <trkpt lat="48.64522" lon="2.51677">
        <ele>77</ele>
        <time>2026-05-31T07:44:22.551+00:00</time>
      </trkpt>
      <trkpt lat="48.64523" lon="2.51685">
        <ele>78</ele>
        <time>2026-05-31T07:44:26.819+00:00</time>
      </trkpt>
      <trkpt lat="48.64524" lon="2.51693">
        <ele>78</ele>
        <time>2026-05-31T07:44:31.754+00:00</time>
      </trkpt>
      <trkpt lat="48.64525" lon="2.51701">
        <ele>78</ele>
        <time>2026-05-31T07:44:36.166+00:00</time>
      </trkpt>
      <trkpt lat="48.64526" lon="2.51708">
        <ele>78</ele>
        <time>2026-05-31T07:44:40.685+00:00</time>
      </trkpt>
      <trkpt lat="48.64525" lon="2.51716">
        <ele>78</ele>
        <time>2026-05-31T07:44:44.819+00:00</time>
      </trkpt>
      <trkpt lat="48.64523" lon="2.51725">
        <ele>78</ele>
        <time>2026-05-31T07:44:49.819+00:00</time>
      </trkpt>
      <trkpt lat="48.64521" lon="2.51733">
        <ele>78</ele>
        <time>2026-05-31T07:44:54.325+00:00</time>
      </trkpt>
      <trkpt lat="48.64522" lon="2.51742">
        <ele>78</ele>
        <time>2026-05-31T07:44:58.530+00:00</time>
      </trkpt>
      <trkpt lat="48.64522" lon="2.5175">
        <ele>78</ele>
        <time>2026-05-31T07:45:02.614+00:00</time>
      </trkpt>
      <trkpt lat="48.64519" lon="2.51759">
        <ele>78</ele>
        <time>2026-05-31T07:45:07.211+00:00</time>
      </trkpt>
      <trkpt lat="48.64516" lon="2.51765">
        <ele>78</ele>
        <time>2026-05-31T07:45:11.819+00:00</time>
      </trkpt>
      <trkpt lat="48.64517" lon="2.51771">
        <ele>78</ele>
        <time>2026-05-31T07:45:16.769+00:00</time>
      </trkpt>
      <trkpt lat="48.64523" lon="2.51777">
        <ele>78</ele>
        <time>2026-05-31T07:47:02.819+00:00</time>
      </trkpt>
      <trkpt lat="48.64523" lon="2.51776">
        <ele>78</ele>
        <time>2026-05-31T07:47:06.819+00:00</time>
      </trkpt>
      <trkpt lat="48.64524" lon="2.51776">
        <ele>78</ele>
        <time>2026-05-31T07:47:10.818+00:00</time>
      </trkpt>
      <trkpt lat="48.6452" lon="2.51779">
        <ele>78</ele>
        <time>2026-05-31T07:47:15.755+00:00</time>
      </trkpt>
      <trkpt lat="48.64513" lon="2.51788">
        <ele>76</ele>
        <time>2026-05-31T07:47:20.168+00:00</time>
      </trkpt>
      <trkpt lat="48.64509" lon="2.51795">
        <ele>76</ele>
        <time>2026-05-31T07:47:24.819+00:00</time>
      </trkpt>
      <trkpt lat="48.64506" lon="2.51803">
        <ele>76</ele>
        <time>2026-05-31T07:47:29.648+00:00</time>
      </trkpt>
      <trkpt lat="48.64502" lon="2.51806">
        <ele>76</ele>
        <time>2026-05-31T07:47:34.071+00:00</time>
      </trkpt>
      <trkpt lat="48.64504" lon="2.51806">
        <ele>76</ele>
        <time>2026-05-31T07:47:38.818+00:00</time>
      </trkpt>
      <trkpt lat="48.64507" lon="2.51801">
        <ele>76</ele>
        <time>2026-05-31T07:47:59.819+00:00</time>
      </trkpt>
      <trkpt lat="48.64512" lon="2.51793">
        <ele>76</ele>
        <time>2026-05-31T07:48:03.819+00:00</time>
      </trkpt>
      <trkpt lat="48.64521" lon="2.51788">
        <ele>78</ele>
        <time>2026-05-31T07:48:08.233+00:00</time>
      </trkpt>
      <trkpt lat="48.64521" lon="2.51789">
        <ele>78</ele>
        <time>2026-05-31T07:48:12.254+00:00</time>
      </trkpt>
      <trkpt lat="48.64521" lon="2.51789">
        <ele>78</ele>
        <time>2026-05-31T07:48:16.494+00:00</time>
      </trkpt>
      <trkpt lat="48.64517" lon="2.51792">
        <ele>78</ele>
        <time>2026-05-31T07:49:45.819+00:00</time>
      </trkpt>
      <trkpt lat="48.64514" lon="2.51799">
        <ele>76</ele>
        <time>2026-05-31T07:49:50.819+00:00</time>
      </trkpt>
      <trkpt lat="48.64517" lon="2.51803">
        <ele>78</ele>
        <time>2026-05-31T07:49:55.290+00:00</time>
      </trkpt>
      <trkpt lat="48.6452" lon="2.51804">
        <ele>78</ele>
        <time>2026-05-31T07:49:59.471+00:00</time>
      </trkpt>
      <trkpt lat="48.6452" lon="2.51813">
        <ele>78</ele>
        <time>2026-05-31T07:50:03.508+00:00</time>
      </trkpt>
      <trkpt lat="48.64519" lon="2.51821">
        <ele>77</ele>
        <time>2026-05-31T07:50:07.818+00:00</time>
      </trkpt>
      <trkpt lat="48.64518" lon="2.5183">
        <ele>77</ele>
        <time>2026-05-31T07:50:12.434+00:00</time>
      </trkpt>
      <trkpt lat="48.64519" lon="2.51841">
        <ele>77</ele>
        <time>2026-05-31T07:50:16.818+00:00</time>
      </trkpt>
      <trkpt lat="48.64518" lon="2.51852">
        <ele>78</ele>
        <time>2026-05-31T07:50:21.515+00:00</time>
      </trkpt>
      <trkpt lat="48.64515" lon="2.51861">
        <ele>78</ele>
        <time>2026-05-31T07:50:25.818+00:00</time>
      </trkpt>
      <trkpt lat="48.64515" lon="2.51869">
        <ele>78</ele>
        <time>2026-05-31T07:50:30.476+00:00</time>
      </trkpt>
      <trkpt lat="48.64517" lon="2.51878">
        <ele>78</ele>
        <time>2026-05-31T07:50:34.817+00:00</time>
      </trkpt>
      <trkpt lat="48.64516" lon="2.51887">
        <ele>78</ele>
        <time>2026-05-31T07:50:39.475+00:00</time>
      </trkpt>
      <trkpt lat="48.64515" lon="2.51896">
        <ele>78</ele>
        <time>2026-05-31T07:50:43.818+00:00</time>
      </trkpt>
      <trkpt lat="48.64515" lon="2.51904">
        <ele>79</ele>
        <time>2026-05-31T07:50:48.454+00:00</time>
      </trkpt>
      <trkpt lat="48.64518" lon="2.51911">
        <ele>79</ele>
        <time>2026-05-31T07:50:52.817+00:00</time>
      </trkpt>
      <trkpt lat="48.64521" lon="2.51918">
        <ele>79</ele>
        <time>2026-05-31T07:50:57.512+00:00</time>
      </trkpt>
      <trkpt lat="48.6452" lon="2.51926">
        <ele>79</ele>
        <time>2026-05-31T07:51:01.818+00:00</time>
      </trkpt>
      <trkpt lat="48.64518" lon="2.51932">
        <ele>78</ele>
        <time>2026-05-31T07:51:06.452+00:00</time>
      </trkpt>
      <trkpt lat="48.64516" lon="2.51939">
        <ele>78</ele>
        <time>2026-05-31T07:51:10.818+00:00</time>
      </trkpt>
      <trkpt lat="48.64514" lon="2.51946">
        <ele>78</ele>
        <time>2026-05-31T07:51:14.953+00:00</time>
      </trkpt>
      <trkpt lat="48.64513" lon="2.51952">
        <ele>78</ele>
        <time>2026-05-31T07:51:19.036+00:00</time>
      </trkpt>
      <trkpt lat="48.64512" lon="2.51959">
        <ele>78</ele>
        <time>2026-05-31T07:51:23.818+00:00</time>
      </trkpt>
      <trkpt lat="48.6451" lon="2.51966">
        <ele>78</ele>
        <time>2026-05-31T07:51:27.976+00:00</time>
      </trkpt>
      <trkpt lat="48.64509" lon="2.51975">
        <ele>78</ele>
        <time>2026-05-31T07:51:32.070+00:00</time>
      </trkpt>
      <trkpt lat="48.64509" lon="2.51983">
        <ele>78</ele>
        <time>2026-05-31T07:51:36.156+00:00</time>
      </trkpt>
      <trkpt lat="48.64508" lon="2.51985">
        <ele>78</ele>
        <time>2026-05-31T07:51:40.614+00:00</time>
      </trkpt>
      <trkpt lat="48.64507" lon="2.51991">
        <ele>76</ele>
        <time>2026-05-31T07:51:44.713+00:00</time>
      </trkpt>
      <trkpt lat="48.64506" lon="2.51998">
        <ele>76</ele>
        <time>2026-05-31T07:51:48.787+00:00</time>
      </trkpt>
      <trkpt lat="48.64506" lon="2.52011">
        <ele>76</ele>
        <time>2026-05-31T07:51:53.399+00:00</time>
      </trkpt>
      <trkpt lat="48.64506" lon="2.52012">
        <ele>76</ele>
        <time>2026-05-31T07:51:57.817+00:00</time>
      </trkpt>
      <trkpt lat="48.64509" lon="2.52017">
        <ele>77</ele>
        <time>2026-05-31T07:52:02.536+00:00</time>
      </trkpt>
      <trkpt lat="48.64511" lon="2.52026">
        <ele>77</ele>
        <time>2026-05-31T07:52:07.690+00:00</time>
      </trkpt>
      <trkpt lat="48.64512" lon="2.52033">
        <ele>77</ele>
        <time>2026-05-31T07:52:11.728+00:00</time>
      </trkpt>
      <trkpt lat="48.64513" lon="2.5204">
        <ele>77</ele>
        <time>2026-05-31T07:52:15.818+00:00</time>
      </trkpt>
      <trkpt lat="48.64513" lon="2.52049">
        <ele>76</ele>
        <time>2026-05-31T07:52:20.476+00:00</time>
      </trkpt>
      <trkpt lat="48.64513" lon="2.52056">
        <ele>76</ele>
        <time>2026-05-31T07:52:25.091+00:00</time>
      </trkpt>
      <trkpt lat="48.64513" lon="2.52065">
        <ele>76</ele>
        <time>2026-05-31T07:52:29.687+00:00</time>
      </trkpt>
      <trkpt lat="48.64516" lon="2.52072">
        <ele>79</ele>
        <time>2026-05-31T07:52:34.330+00:00</time>
      </trkpt>
      <trkpt lat="48.6452" lon="2.52078">
        <ele>79</ele>
        <time>2026-05-31T07:52:38.818+00:00</time>
      </trkpt>
      <trkpt lat="48.64521" lon="2.52086">
        <ele>79</ele>
        <time>2026-05-31T07:52:43.406+00:00</time>
      </trkpt>
      <trkpt lat="48.64521" lon="2.52095">
        <ele>79</ele>
        <time>2026-05-31T07:52:47.817+00:00</time>
      </trkpt>
      <trkpt lat="48.6452" lon="2.52102">
        <ele>77</ele>
        <time>2026-05-31T07:52:52.320+00:00</time>
      </trkpt>
      <trkpt lat="48.64519" lon="2.52111">
        <ele>77</ele>
        <time>2026-05-31T07:52:56.587+00:00</time>
      </trkpt>
      <trkpt lat="48.64521" lon="2.52117">
        <ele>77</ele>
        <time>2026-05-31T07:53:00.711+00:00</time>
      </trkpt>
      <trkpt lat="48.64522" lon="2.52126">
        <ele>77</ele>
        <time>2026-05-31T07:53:04.818+00:00</time>
      </trkpt>
      <trkpt lat="48.64522" lon="2.52133">
        <ele>77</ele>
        <time>2026-05-31T07:53:09.815+00:00</time>
      </trkpt>
      <trkpt lat="48.64525" lon="2.5214">
        <ele>77</ele>
        <time>2026-05-31T07:53:13.818+00:00</time>
      </trkpt>
      <trkpt lat="48.64526" lon="2.52148">
        <ele>77</ele>
        <time>2026-05-31T07:53:18.727+00:00</time>
      </trkpt>
      <trkpt lat="48.64526" lon="2.52157">
        <ele>77</ele>
        <time>2026-05-31T07:53:23.170+00:00</time>
      </trkpt>
      <trkpt lat="48.64528" lon="2.52162">
        <ele>77</ele>
        <time>2026-05-31T07:53:27.560+00:00</time>
      </trkpt>
      <trkpt lat="48.64533" lon="2.52165">
        <ele>77</ele>
        <time>2026-05-31T07:53:31.818+00:00</time>
      </trkpt>
      <trkpt lat="48.64538" lon="2.5216">
        <ele>77</ele>
        <time>2026-05-31T07:53:36.485+00:00</time>
      </trkpt>
      <trkpt lat="48.64542" lon="2.52165">
        <ele>81</ele>
        <time>2026-05-31T07:53:40.552+00:00</time>
      </trkpt>
      <trkpt lat="48.64539" lon="2.52173">
        <ele>77</ele>
        <time>2026-05-31T07:53:44.944+00:00</time>
      </trkpt>
      <trkpt lat="48.64539" lon="2.52182">
        <ele>78</ele>
        <time>2026-05-31T07:53:48.953+00:00</time>
      </trkpt>
      <trkpt lat="48.64541" lon="2.52189">
        <ele>78</ele>
        <time>2026-05-31T07:53:53.346+00:00</time>
      </trkpt>
      <trkpt lat="48.64542" lon="2.52195">
        <ele>78</ele>
        <time>2026-05-31T07:53:57.672+00:00</time>
      </trkpt>
      <trkpt lat="48.64541" lon="2.52203">
        <ele>78</ele>
        <time>2026-05-31T07:54:01.817+00:00</time>
      </trkpt>
      <trkpt lat="48.64541" lon="2.5221">
        <ele>78</ele>
        <time>2026-05-31T07:54:06.227+00:00</time>
      </trkpt>
      <trkpt lat="48.64546" lon="2.52216">
        <ele>81</ele>
        <time>2026-05-31T07:54:10.264+00:00</time>
      </trkpt>
      <trkpt lat="48.64545" lon="2.52223">
        <ele>81</ele>
        <time>2026-05-31T07:54:14.817+00:00</time>
      </trkpt>
      <trkpt lat="48.64543" lon="2.5223">
        <ele>81</ele>
        <time>2026-05-31T07:54:18.965+00:00</time>
      </trkpt>
      <trkpt lat="48.64541" lon="2.52235">
        <ele>78</ele>
        <time>2026-05-31T07:54:23.724+00:00</time>
      </trkpt>
      <trkpt lat="48.64537" lon="2.52237">
        <ele>78</ele>
        <time>2026-05-31T07:54:28.464+00:00</time>
      </trkpt>
      <trkpt lat="48.64532" lon="2.52241">
        <ele>78</ele>
        <time>2026-05-31T07:54:32.752+00:00</time>
      </trkpt>
      <trkpt lat="48.6453" lon="2.52247">
        <ele>78</ele>
        <time>2026-05-31T07:54:37.125+00:00</time>
      </trkpt>
      <trkpt lat="48.64529" lon="2.52255">
        <ele>78</ele>
        <time>2026-05-31T07:54:41.323+00:00</time>
      </trkpt>
      <trkpt lat="48.64529" lon="2.52262">
        <ele>78</ele>
        <time>2026-05-31T07:54:45.566+00:00</time>
      </trkpt>
      <trkpt lat="48.64528" lon="2.52271">
        <ele>78</ele>
        <time>2026-05-31T07:54:49.728+00:00</time>
      </trkpt>
      <trkpt lat="48.64528" lon="2.52278">
        <ele>78</ele>
        <time>2026-05-31T07:54:54.397+00:00</time>
      </trkpt>
      <trkpt lat="48.64528" lon="2.52285">
        <ele>78</ele>
        <time>2026-05-31T07:54:58.818+00:00</time>
      </trkpt>
      <trkpt lat="48.64529" lon="2.52292">
        <ele>79</ele>
        <time>2026-05-31T07:55:03.486+00:00</time>
      </trkpt>
      <trkpt lat="48.64528" lon="2.523">
        <ele>79</ele>
        <time>2026-05-31T07:55:08.188+00:00</time>
      </trkpt>
      <trkpt lat="48.64527" lon="2.52308">
        <ele>79</ele>
        <time>2026-05-31T07:55:12.225+00:00</time>
      </trkpt>
      <trkpt lat="48.64527" lon="2.52315">
        <ele>79</ele>
        <time>2026-05-31T07:55:16.401+00:00</time>
      </trkpt>
      <trkpt lat="48.64528" lon="2.52322">
        <ele>79</ele>
        <time>2026-05-31T07:55:20.818+00:00</time>
      </trkpt>
      <trkpt lat="48.64529" lon="2.52329">
        <ele>79</ele>
        <time>2026-05-31T07:55:25.405+00:00</time>
      </trkpt>
      <trkpt lat="48.64531" lon="2.52336">
        <ele>79</ele>
        <time>2026-05-31T07:55:29.818+00:00</time>
      </trkpt>
      <trkpt lat="48.64533" lon="2.52343">
        <ele>79</ele>
        <time>2026-05-31T07:55:33.950+00:00</time>
      </trkpt>
      <trkpt lat="48.64534" lon="2.52352">
        <ele>80</ele>
        <time>2026-05-31T07:55:38.325+00:00</time>
      </trkpt>
      <trkpt lat="48.64534" lon="2.5236">
        <ele>80</ele>
        <time>2026-05-31T07:55:42.429+00:00</time>
      </trkpt>
      <trkpt lat="48.64533" lon="2.5237">
        <ele>80</ele>
        <time>2026-05-31T07:55:46.506+00:00</time>
      </trkpt>
      <trkpt lat="48.64531" lon="2.52377">
        <ele>81</ele>
        <time>2026-05-31T07:55:50.630+00:00</time>
      </trkpt>
      <trkpt lat="48.64528" lon="2.52385">
        <ele>81</ele>
        <time>2026-05-31T07:55:55.167+00:00</time>
      </trkpt>
      <trkpt lat="48.64526" lon="2.52393">
        <ele>81</ele>
        <time>2026-05-31T07:55:59.817+00:00</time>
      </trkpt>
      <trkpt lat="48.64525" lon="2.52401">
        <ele>81</ele>
        <time>2026-05-31T07:56:04.030+00:00</time>
      </trkpt>
      <trkpt lat="48.64523" lon="2.52409">
        <ele>82</ele>
        <time>2026-05-31T07:56:08.491+00:00</time>
      </trkpt>
      <trkpt lat="48.64518" lon="2.52414">
        <ele>82</ele>
        <time>2026-05-31T07:56:12.818+00:00</time>
      </trkpt>
      <trkpt lat="48.64516" lon="2.52422">
        <ele>82</ele>
        <time>2026-05-31T07:56:17.269+00:00</time>
      </trkpt>
      <trkpt lat="48.64518" lon="2.5243">
        <ele>82</ele>
        <time>2026-05-31T07:56:21.692+00:00</time>
      </trkpt>
      <trkpt lat="48.6452" lon="2.52435">
        <ele>83</ele>
        <time>2026-05-31T07:56:25.818+00:00</time>
      </trkpt>
      <trkpt lat="48.64518" lon="2.52444">
        <ele>83</ele>
        <time>2026-05-31T07:56:30.585+00:00</time>
      </trkpt>
      <trkpt lat="48.64513" lon="2.52447">
        <ele>81</ele>
        <time>2026-05-31T07:56:34.818+00:00</time>
      </trkpt>
      <trkpt lat="48.64508" lon="2.52451">
        <ele>81</ele>
        <time>2026-05-31T07:56:38.967+00:00</time>
      </trkpt>
      <trkpt lat="48.64504" lon="2.52455">
        <ele>81</ele>
        <time>2026-05-31T07:56:43.766+00:00</time>
      </trkpt>
      <trkpt lat="48.645" lon="2.52458">
        <ele>81</ele>
        <time>2026-05-31T07:56:47.889+00:00</time>
      </trkpt>
      <trkpt lat="48.64495" lon="2.52459">
        <ele>82</ele>
        <time>2026-05-31T07:56:52.818+00:00</time>
      </trkpt>
      <trkpt lat="48.64491" lon="2.52462">
        <ele>82</ele>
        <time>2026-05-31T07:56:57.335+00:00</time>
      </trkpt>
      <trkpt lat="48.64485" lon="2.52462">
        <ele>79</ele>
        <time>2026-05-31T07:57:01.818+00:00</time>
      </trkpt>
      <trkpt lat="48.64478" lon="2.52461">
        <ele>79</ele>
        <time>2026-05-31T07:57:06.369+00:00</time>
      </trkpt>
      <trkpt lat="48.64474" lon="2.52463">
        <ele>79</ele>
        <time>2026-05-31T07:57:10.754+00:00</time>
      </trkpt>
      <trkpt lat="48.6447" lon="2.5247">
        <ele>79</ele>
        <time>2026-05-31T07:57:14.817+00:00</time>
      </trkpt>
      <trkpt lat="48.64465" lon="2.52473">
        <ele>79</ele>
        <time>2026-05-31T07:57:19.474+00:00</time>
      </trkpt>
      <trkpt lat="48.64459" lon="2.52471">
        <ele>79</ele>
        <time>2026-05-31T07:57:23.817+00:00</time>
      </trkpt>
      <trkpt lat="48.64452" lon="2.5247">
        <ele>77</ele>
        <time>2026-05-31T07:57:28.272+00:00</time>
      </trkpt>
      <trkpt lat="48.64446" lon="2.52471">
        <ele>77</ele>
        <time>2026-05-31T07:57:32.772+00:00</time>
      </trkpt>
      <trkpt lat="48.64441" lon="2.52474">
        <ele>77</ele>
        <time>2026-05-31T07:57:37.233+00:00</time>
      </trkpt>
      <trkpt lat="48.64437" lon="2.52479">
        <ele>77</ele>
        <time>2026-05-31T07:57:41.810+00:00</time>
      </trkpt>
      <trkpt lat="48.64433" lon="2.52484">
        <ele>77</ele>
        <time>2026-05-31T07:57:46.232+00:00</time>
      </trkpt>
      <trkpt lat="48.64429" lon="2.52488">
        <ele>80</ele>
        <time>2026-05-31T07:57:50.693+00:00</time>
      </trkpt>
      <trkpt lat="48.64424" lon="2.52494">
        <ele>80</ele>
        <time>2026-05-31T07:57:55.173+00:00</time>
      </trkpt>
      <trkpt lat="48.64422" lon="2.52502">
        <ele>80</ele>
        <time>2026-05-31T07:57:59.731+00:00</time>
      </trkpt>
      <trkpt lat="48.64425" lon="2.52511">
        <ele>80</ele>
        <time>2026-05-31T07:58:04.270+00:00</time>
      </trkpt>
      <trkpt lat="48.64427" lon="2.52519">
        <ele>81</ele>
        <time>2026-05-31T07:58:08.768+00:00</time>
      </trkpt>
      <trkpt lat="48.64429" lon="2.52527">
        <ele>81</ele>
        <time>2026-05-31T07:58:13.269+00:00</time>
      </trkpt>
      <trkpt lat="48.64428" lon="2.52534">
        <ele>81</ele>
        <time>2026-05-31T07:58:17.729+00:00</time>
      </trkpt>
      <trkpt lat="48.64425" lon="2.5254">
        <ele>81</ele>
        <time>2026-05-31T07:58:22.267+00:00</time>
      </trkpt>
      <trkpt lat="48.64422" lon="2.52546">
        <ele>82</ele>
        <time>2026-05-31T07:58:26.817+00:00</time>
      </trkpt>
      <trkpt lat="48.64418" lon="2.52552">
        <ele>82</ele>
        <time>2026-05-31T07:58:30.987+00:00</time>
      </trkpt>
      <trkpt lat="48.64411" lon="2.52553">
        <ele>82</ele>
        <time>2026-05-31T07:58:35.168+00:00</time>
      </trkpt>
      <trkpt lat="48.64405" lon="2.52553">
        <ele>82</ele>
        <time>2026-05-31T07:58:39.736+00:00</time>
      </trkpt>
      <trkpt lat="48.644" lon="2.52555">
        <ele>82</ele>
        <time>2026-05-31T07:58:43.817+00:00</time>
      </trkpt>
      <trkpt lat="48.64396" lon="2.52559">
        <ele>82</ele>
        <time>2026-05-31T07:58:48.754+00:00</time>
      </trkpt>
      <trkpt lat="48.64391" lon="2.52561">
        <ele>82</ele>
        <time>2026-05-31T07:58:53.386+00:00</time>
      </trkpt>
      <trkpt lat="48.64386" lon="2.52563">
        <ele>82</ele>
        <time>2026-05-31T07:58:57.817+00:00</time>
      </trkpt>
      <trkpt lat="48.64373" lon="2.52569">
        <ele>87</ele>
        <time>2026-05-31T07:59:01.816+00:00</time>
      </trkpt>
      <trkpt lat="48.64372" lon="2.52569">
        <ele>87</ele>
        <time>2026-05-31T07:59:06.271+00:00</time>
      </trkpt>
      <trkpt lat="48.64367" lon="2.52573">
        <ele>87</ele>
        <time>2026-05-31T07:59:10.712+00:00</time>
      </trkpt>
      <trkpt lat="48.6436" lon="2.52573">
        <ele>87</ele>
        <time>2026-05-31T07:59:27.817+00:00</time>
      </trkpt>
      <trkpt lat="48.64353" lon="2.52568">
        <ele>83</ele>
        <time>2026-05-31T07:59:32.517+00:00</time>
      </trkpt>
      <trkpt lat="48.64346" lon="2.52565">
        <ele>84</ele>
        <time>2026-05-31T07:59:36.816+00:00</time>
      </trkpt>
      <trkpt lat="48.64339" lon="2.52562">
        <ele>84</ele>
        <time>2026-05-31T07:59:40.820+00:00</time>
      </trkpt>
      <trkpt lat="48.64331" lon="2.5256">
        <ele>84</ele>
        <time>2026-05-31T07:59:45.717+00:00</time>
      </trkpt>
      <trkpt lat="48.64326" lon="2.52557">
        <ele>84</ele>
        <time>2026-05-31T07:59:50.121+00:00</time>
      </trkpt>
      <trkpt lat="48.64321" lon="2.52551">
        <ele>84</ele>
        <time>2026-05-31T07:59:54.582+00:00</time>
      </trkpt>
      <trkpt lat="48.64317" lon="2.52554">
        <ele>82</ele>
        <time>2026-05-31T07:59:58.817+00:00</time>
      </trkpt>
      <trkpt lat="48.64314" lon="2.52557">
        <ele>82</ele>
        <time>2026-05-31T08:00:02.816+00:00</time>
      </trkpt>
      <trkpt lat="48.64309" lon="2.52555">
        <ele>82</ele>
        <time>2026-05-31T08:00:07.817+00:00</time>
      </trkpt>
      <trkpt lat="48.64303" lon="2.52557">
        <ele>82</ele>
        <time>2026-05-31T08:00:12.503+00:00</time>
      </trkpt>
      <trkpt lat="48.64299" lon="2.52559">
        <ele>82</ele>
        <time>2026-05-31T08:00:16.781+00:00</time>
      </trkpt>
      <trkpt lat="48.64296" lon="2.52564">
        <ele>82</ele>
        <time>2026-05-31T08:00:20.817+00:00</time>
      </trkpt>
      <trkpt lat="48.64294" lon="2.5257">
        <ele>86</ele>
        <time>2026-05-31T08:00:25.135+00:00</time>
      </trkpt>
      <trkpt lat="48.6429" lon="2.52578">
        <ele>85</ele>
        <time>2026-05-31T08:00:29.422+00:00</time>
      </trkpt>
      <trkpt lat="48.64286" lon="2.52586">
        <ele>85</ele>
        <time>2026-05-31T08:00:34.094+00:00</time>
      </trkpt>
      <trkpt lat="48.64284" lon="2.52594">
        <ele>85</ele>
        <time>2026-05-31T08:00:38.141+00:00</time>
      </trkpt>
      <trkpt lat="48.64283" lon="2.52603">
        <ele>87</ele>
        <time>2026-05-31T08:00:42.817+00:00</time>
      </trkpt>
      <trkpt lat="48.64285" lon="2.52611">
        <ele>87</ele>
        <time>2026-05-31T08:00:47.816+00:00</time>
      </trkpt>
      <trkpt lat="48.64286" lon="2.52619">
        <ele>87</ele>
        <time>2026-05-31T08:00:52.537+00:00</time>
      </trkpt>
      <trkpt lat="48.64283" lon="2.52628">
        <ele>89</ele>
        <time>2026-05-31T08:00:56.816+00:00</time>
      </trkpt>
      <trkpt lat="48.64279" lon="2.52632">
        <ele>89</ele>
        <time>2026-05-31T08:01:00.817+00:00</time>
      </trkpt>
      <trkpt lat="48.64275" lon="2.52638">
        <ele>89</ele>
        <time>2026-05-31T08:01:05.418+00:00</time>
      </trkpt>
      <trkpt lat="48.64274" lon="2.52645">
        <ele>89</ele>
        <time>2026-05-31T08:01:10.061+00:00</time>
      </trkpt>
      <trkpt lat="48.64274" lon="2.52653">
        <ele>89</ele>
        <time>2026-05-31T08:01:14.356+00:00</time>
      </trkpt>
      <trkpt lat="48.64272" lon="2.52659">
        <ele>89</ele>
        <time>2026-05-31T08:01:18.694+00:00</time>
      </trkpt>
      <trkpt lat="48.6427" lon="2.52665">
        <ele>89</ele>
        <time>2026-05-31T08:01:22.817+00:00</time>
      </trkpt>
      <trkpt lat="48.64269" lon="2.52673">
        <ele>89</ele>
        <time>2026-05-31T08:01:27.616+00:00</time>
      </trkpt>
      <trkpt lat="48.64268" lon="2.5268">
        <ele>89</ele>
        <time>2026-05-31T08:01:31.817+00:00</time>
      </trkpt>
      <trkpt lat="48.64265" lon="2.52685">
        <ele>89</ele>
        <time>2026-05-31T08:01:35.817+00:00</time>
      </trkpt>
      <trkpt lat="48.64262" lon="2.5269">
        <ele>87</ele>
        <time>2026-05-31T08:01:40.518+00:00</time>
      </trkpt>
      <trkpt lat="48.64267" lon="2.52697">
        <ele>89</ele>
        <time>2026-05-31T08:01:44.602+00:00</time>
      </trkpt>
      <trkpt lat="48.64271" lon="2.52706">
        <ele>89</ele>
        <time>2026-05-31T08:01:48.817+00:00</time>
      </trkpt>
      <trkpt lat="48.64275" lon="2.52715">
        <ele>89</ele>
        <time>2026-05-31T08:04:13.440+00:00</time>
      </trkpt>
      <trkpt lat="48.64278" lon="2.52725">
        <ele>89</ele>
        <time>2026-05-31T08:04:17.676+00:00</time>
      </trkpt>
      <trkpt lat="48.6428" lon="2.52732">
        <ele>89</ele>
        <time>2026-05-31T08:04:22.272+00:00</time>
      </trkpt>
      <trkpt lat="48.64284" lon="2.52736">
        <ele>89</ele>
        <time>2026-05-31T08:04:26.811+00:00</time>
      </trkpt>
      <trkpt lat="48.64288" lon="2.52741">
        <ele>89</ele>
        <time>2026-05-31T08:04:31.734+00:00</time>
      </trkpt>
      <trkpt lat="48.64292" lon="2.52747">
        <ele>90</ele>
        <time>2026-05-31T08:04:36.395+00:00</time>
      </trkpt>
      <trkpt lat="48.64296" lon="2.52753">
        <ele>90</ele>
        <time>2026-05-31T08:04:40.599+00:00</time>
      </trkpt>
      <trkpt lat="48.643" lon="2.52757">
        <ele>90</ele>
        <time>2026-05-31T08:04:44.815+00:00</time>
      </trkpt>
      <trkpt lat="48.64304" lon="2.52762">
        <ele>90</ele>
        <time>2026-05-31T08:04:49.153+00:00</time>
      </trkpt>
      <trkpt lat="48.64308" lon="2.5277">
        <ele>90</ele>
        <time>2026-05-31T08:04:53.672+00:00</time>
      </trkpt>
      <trkpt lat="48.64312" lon="2.52777">
        <ele>90</ele>
        <time>2026-05-31T08:04:57.816+00:00</time>
      </trkpt>
      <trkpt lat="48.64316" lon="2.52785">
        <ele>90</ele>
        <time>2026-05-31T08:05:02.555+00:00</time>
      </trkpt>
      <trkpt lat="48.6432" lon="2.52793">
        <ele>93</ele>
        <time>2026-05-31T08:05:07.056+00:00</time>
      </trkpt>
      <trkpt lat="48.64324" lon="2.52798">
        <ele>93</ele>
        <time>2026-05-31T08:05:11.516+00:00</time>
      </trkpt>
      <trkpt lat="48.64328" lon="2.52804">
        <ele>93</ele>
        <time>2026-05-31T08:05:16.054+00:00</time>
      </trkpt>
      <trkpt lat="48.64332" lon="2.52807">
        <ele>93</ele>
        <time>2026-05-31T08:05:20.477+00:00</time>
      </trkpt>
      <trkpt lat="48.64336" lon="2.52812">
        <ele>93</ele>
        <time>2026-05-31T08:05:24.816+00:00</time>
      </trkpt>
      <trkpt lat="48.6434" lon="2.52818">
        <ele>93</ele>
        <time>2026-05-31T08:05:29.313+00:00</time>
      </trkpt>
      <trkpt lat="48.64343" lon="2.52823">
        <ele>92</ele>
        <time>2026-05-31T08:05:33.656+00:00</time>
      </trkpt>
      <trkpt lat="48.64347" lon="2.5283">
        <ele>92</ele>
        <time>2026-05-31T08:05:38.117+00:00</time>
      </trkpt>
      <trkpt lat="48.64351" lon="2.52837">
        <ele>94</ele>
        <time>2026-05-31T08:05:42.542+00:00</time>
      </trkpt>
      <trkpt lat="48.64355" lon="2.52843">
        <ele>94</ele>
        <time>2026-05-31T08:05:46.816+00:00</time>
      </trkpt>
      <trkpt lat="48.64359" lon="2.52848">
        <ele>93</ele>
        <time>2026-05-31T08:05:51.390+00:00</time>
      </trkpt>
      <trkpt lat="48.64362" lon="2.52853">
        <ele>93</ele>
        <time>2026-05-31T08:05:55.815+00:00</time>
      </trkpt>
      <trkpt lat="48.64366" lon="2.52858">
        <ele>93</ele>
        <time>2026-05-31T08:06:00.297+00:00</time>
      </trkpt>
      <trkpt lat="48.64369" lon="2.52863">
        <ele>93</ele>
        <time>2026-05-31T08:06:04.702+00:00</time>
      </trkpt>
      <trkpt lat="48.64372" lon="2.52869">
        <ele>93</ele>
        <time>2026-05-31T08:06:09.093+00:00</time>
      </trkpt>
      <trkpt lat="48.64376" lon="2.52877">
        <ele>93</ele>
        <time>2026-05-31T08:06:13.574+00:00</time>
      </trkpt>
      <trkpt lat="48.64379" lon="2.52884">
        <ele>93</ele>
        <time>2026-05-31T08:06:17.816+00:00</time>
      </trkpt>
      <trkpt lat="48.64382" lon="2.52892">
        <ele>93</ele>
        <time>2026-05-31T08:06:22.774+00:00</time>
      </trkpt>
      <trkpt lat="48.64383" lon="2.52902">
        <ele>93</ele>
        <time>2026-05-31T08:06:27.737+00:00</time>
      </trkpt>
      <trkpt lat="48.6438" lon="2.52912">
        <ele>93</ele>
        <time>2026-05-31T08:06:32.111+00:00</time>
      </trkpt>
      <trkpt lat="48.64375" lon="2.52919">
        <ele>93</ele>
        <time>2026-05-31T08:06:36.514+00:00</time>
      </trkpt>
      <trkpt lat="48.6437" lon="2.52922">
        <ele>92</ele>
        <time>2026-05-31T08:06:40.816+00:00</time>
      </trkpt>
      <trkpt lat="48.64363" lon="2.52928">
        <ele>92</ele>
        <time>2026-05-31T08:06:45.274+00:00</time>
      </trkpt>
      <trkpt lat="48.64357" lon="2.52935">
        <ele>92</ele>
        <time>2026-05-31T08:06:49.636+00:00</time>
      </trkpt>
      <trkpt lat="48.64352" lon="2.52943">
        <ele>92</ele>
        <time>2026-05-31T08:06:53.920+00:00</time>
      </trkpt>
      <trkpt lat="48.64348" lon="2.5295">
        <ele>92</ele>
        <time>2026-05-31T08:06:59.523+00:00</time>
      </trkpt>
      <trkpt lat="48.64341" lon="2.52952">
        <ele>92</ele>
        <time>2026-05-31T08:07:03.816+00:00</time>
      </trkpt>
      <trkpt lat="48.64337" lon="2.52958">
        <ele>92</ele>
        <time>2026-05-31T08:07:08.492+00:00</time>
      </trkpt>
      <trkpt lat="48.64334" lon="2.52965">
        <ele>93</ele>
        <time>2026-05-31T08:07:12.816+00:00</time>
      </trkpt>
      <trkpt lat="48.64329" lon="2.5297">
        <ele>93</ele>
        <time>2026-05-31T08:07:17.810+00:00</time>
      </trkpt>
      <trkpt lat="48.64324" lon="2.52977">
        <ele>93</ele>
        <time>2026-05-31T08:07:22.532+00:00</time>
      </trkpt>
      <trkpt lat="48.6432" lon="2.52983">
        <ele>93</ele>
        <time>2026-05-31T08:07:27.591+00:00</time>
      </trkpt>
      <trkpt lat="48.64316" lon="2.5299">
        <ele>92</ele>
        <time>2026-05-31T08:07:31.816+00:00</time>
      </trkpt>
      <trkpt lat="48.64312" lon="2.52995">
        <ele>92</ele>
        <time>2026-05-31T08:07:36.628+00:00</time>
      </trkpt>
      <trkpt lat="48.64307" lon="2.53">
        <ele>92</ele>
        <time>2026-05-31T08:07:40.829+00:00</time>
      </trkpt>
      <trkpt lat="48.64302" lon="2.53005">
        <ele>92</ele>
        <time>2026-05-31T08:07:45.790+00:00</time>
      </trkpt>
      <trkpt lat="48.64297" lon="2.5301">
        <ele>92</ele>
        <time>2026-05-31T08:07:49.816+00:00</time>
      </trkpt>
      <trkpt lat="48.64291" lon="2.53013">
        <ele>91</ele>
        <time>2026-05-31T08:07:54.190+00:00</time>
      </trkpt>
      <trkpt lat="48.64286" lon="2.53019">
        <ele>91</ele>
        <time>2026-05-31T08:07:58.816+00:00</time>
      </trkpt>
      <trkpt lat="48.64282" lon="2.53025">
        <ele>91</ele>
        <time>2026-05-31T08:08:03.164+00:00</time>
      </trkpt>
      <trkpt lat="48.64278" lon="2.53031">
        <ele>91</ele>
        <time>2026-05-31T08:08:07.470+00:00</time>
      </trkpt>
      <trkpt lat="48.64274" lon="2.53037">
        <ele>91</ele>
        <time>2026-05-31T08:08:11.750+00:00</time>
      </trkpt>
      <trkpt lat="48.6427" lon="2.53043">
        <ele>91</ele>
        <time>2026-05-31T08:08:15.816+00:00</time>
      </trkpt>
      <trkpt lat="48.64266" lon="2.53048">
        <ele>91</ele>
        <time>2026-05-31T08:08:20.189+00:00</time>
      </trkpt>
      <trkpt lat="48.64262" lon="2.53052">
        <ele>90</ele>
        <time>2026-05-31T08:08:24.468+00:00</time>
      </trkpt>
      <trkpt lat="48.64258" lon="2.53057">
        <ele>90</ele>
        <time>2026-05-31T08:08:28.841+00:00</time>
      </trkpt>
      <trkpt lat="48.64254" lon="2.53063">
        <ele>90</ele>
        <time>2026-05-31T08:08:33.592+00:00</time>
      </trkpt>
      <trkpt lat="48.6425" lon="2.53067">
        <ele>90</ele>
        <time>2026-05-31T08:08:37.687+00:00</time>
      </trkpt>
      <trkpt lat="48.64245" lon="2.53071">
        <ele>90</ele>
        <time>2026-05-31T08:08:41.816+00:00</time>
      </trkpt>
      <trkpt lat="48.64241" lon="2.53076">
        <ele>90</ele>
        <time>2026-05-31T08:08:46.349+00:00</time>
      </trkpt>
      <trkpt lat="48.64237" lon="2.53081">
        <ele>90</ele>
        <time>2026-05-31T08:08:50.811+00:00</time>
      </trkpt>
      <trkpt lat="48.64233" lon="2.53086">
        <ele>88</ele>
        <time>2026-05-31T08:08:54.816+00:00</time>
      </trkpt>
      <trkpt lat="48.64229" lon="2.53092">
        <ele>88</ele>
        <time>2026-05-31T08:08:59.329+00:00</time>
      </trkpt>
      <trkpt lat="48.64225" lon="2.53098">
        <ele>88</ele>
        <time>2026-05-31T08:09:03.566+00:00</time>
      </trkpt>
      <trkpt lat="48.6422" lon="2.53103">
        <ele>88</ele>
        <time>2026-05-31T08:09:07.816+00:00</time>
      </trkpt>
      <trkpt lat="48.64216" lon="2.53107">
        <ele>88</ele>
        <time>2026-05-31T08:09:12.131+00:00</time>
      </trkpt>
      <trkpt lat="48.64212" lon="2.53113">
        <ele>88</ele>
        <time>2026-05-31T08:09:16.410+00:00</time>
      </trkpt>
      <trkpt lat="48.64207" lon="2.53118">
        <ele>87</ele>
        <time>2026-05-31T08:09:20.802+00:00</time>
      </trkpt>
      <trkpt lat="48.64203" lon="2.53123">
        <ele>87</ele>
        <time>2026-05-31T08:09:24.816+00:00</time>
      </trkpt>
      <trkpt lat="48.64198" lon="2.53129">
        <ele>86</ele>
        <time>2026-05-31T08:09:29.398+00:00</time>
      </trkpt>
      <trkpt lat="48.64194" lon="2.53134">
        <ele>86</ele>
        <time>2026-05-31T08:09:33.723+00:00</time>
      </trkpt>
      <trkpt lat="48.64189" lon="2.53139">
        <ele>86</ele>
        <time>2026-05-31T08:09:37.816+00:00</time>
      </trkpt>
      <trkpt lat="48.64183" lon="2.53142">
        <ele>86</ele>
        <time>2026-05-31T08:09:42.443+00:00</time>
      </trkpt>
      <trkpt lat="48.64179" lon="2.53147">
        <ele>85</ele>
        <time>2026-05-31T08:09:46.730+00:00</time>
      </trkpt>
      <trkpt lat="48.64175" lon="2.53154">
        <ele>84</ele>
        <time>2026-05-31T08:09:51.029+00:00</time>
      </trkpt>
      <trkpt lat="48.64172" lon="2.53161">
        <ele>84</ele>
        <time>2026-05-31T08:09:55.344+00:00</time>
      </trkpt>
      <trkpt lat="48.64169" lon="2.53167">
        <ele>84</ele>
        <time>2026-05-31T08:09:59.633+00:00</time>
      </trkpt>
      <trkpt lat="48.64165" lon="2.53172">
        <ele>84</ele>
        <time>2026-05-31T08:10:03.815+00:00</time>
      </trkpt>
      <trkpt lat="48.64161" lon="2.53178">
        <ele>84</ele>
        <time>2026-05-31T08:10:08.332+00:00</time>
      </trkpt>
      <trkpt lat="48.64157" lon="2.53182">
        <ele>81</ele>
        <time>2026-05-31T08:10:12.687+00:00</time>
      </trkpt>
      <trkpt lat="48.64152" lon="2.53187">
        <ele>81</ele>
        <time>2026-05-31T08:10:16.816+00:00</time>
      </trkpt>
      <trkpt lat="48.64148" lon="2.53193">
        <ele>81</ele>
        <time>2026-05-31T08:10:21.403+00:00</time>
      </trkpt>
      <trkpt lat="48.64146" lon="2.532">
        <ele>81</ele>
        <time>2026-05-31T08:10:25.751+00:00</time>
      </trkpt>
      <trkpt lat="48.64143" lon="2.53208">
        <ele>80</ele>
        <time>2026-05-31T08:10:29.816+00:00</time>
      </trkpt>
      <trkpt lat="48.64143" lon="2.53217">
        <ele>80</ele>
        <time>2026-05-31T08:10:34.287+00:00</time>
      </trkpt>
      <trkpt lat="48.64144" lon="2.53226">
        <ele>80</ele>
        <time>2026-05-31T08:10:38.254+00:00</time>
      </trkpt>
      <trkpt lat="48.64145" lon="2.53235">
        <ele>80</ele>
        <time>2026-05-31T08:10:42.816+00:00</time>
      </trkpt>
      <trkpt lat="48.64146" lon="2.53244">
        <ele>79</ele>
        <time>2026-05-31T08:10:47.324+00:00</time>
      </trkpt>
      <trkpt lat="48.64147" lon="2.53252">
        <ele>79</ele>
        <time>2026-05-31T08:10:51.688+00:00</time>
      </trkpt>
      <trkpt lat="48.6415" lon="2.53258">
        <ele>79</ele>
        <time>2026-05-31T08:10:55.966+00:00</time>
      </trkpt>
      <trkpt lat="48.64153" lon="2.53266">
        <ele>80</ele>
        <time>2026-05-31T08:11:00.427+00:00</time>
      </trkpt>
      <trkpt lat="48.64155" lon="2.53272">
        <ele>80</ele>
        <time>2026-05-31T08:11:04.843+00:00</time>
      </trkpt>
      <trkpt lat="48.64155" lon="2.5328">
        <ele>80</ele>
        <time>2026-05-31T08:11:09.329+00:00</time>
      </trkpt>
      <trkpt lat="48.64155" lon="2.53288">
        <ele>80</ele>
        <time>2026-05-31T08:11:13.816+00:00</time>
      </trkpt>
      <trkpt lat="48.64155" lon="2.53296">
        <ele>81</ele>
        <time>2026-05-31T08:11:17.816+00:00</time>
      </trkpt>
      <trkpt lat="48.64154" lon="2.53304">
        <ele>81</ele>
        <time>2026-05-31T08:11:22.287+00:00</time>
      </trkpt>
      <trkpt lat="48.64153" lon="2.53312">
        <ele>81</ele>
        <time>2026-05-31T08:11:26.815+00:00</time>
      </trkpt>
      <trkpt lat="48.64153" lon="2.53319">
        <ele>81</ele>
        <time>2026-05-31T08:11:31.815+00:00</time>
      </trkpt>
      <trkpt lat="48.64154" lon="2.53327">
        <ele>80</ele>
        <time>2026-05-31T08:11:35.815+00:00</time>
      </trkpt>
      <trkpt lat="48.64151" lon="2.53334">
        <ele>77</ele>
        <time>2026-05-31T08:11:40.429+00:00</time>
      </trkpt>
      <trkpt lat="48.64145" lon="2.53339">
        <ele>77</ele>
        <time>2026-05-31T08:11:44.467+00:00</time>
      </trkpt>
      <trkpt lat="48.64141" lon="2.53345">
        <ele>77</ele>
        <time>2026-05-31T08:11:48.687+00:00</time>
      </trkpt>
      <trkpt lat="48.64139" lon="2.53354">
        <ele>77</ele>
        <time>2026-05-31T08:11:52.815+00:00</time>
      </trkpt>
      <trkpt lat="48.6414" lon="2.53364">
        <ele>77</ele>
        <time>2026-05-31T08:11:57.446+00:00</time>
      </trkpt>
      <trkpt lat="48.64144" lon="2.53365">
        <ele>77</ele>
        <time>2026-05-31T08:12:01.790+00:00</time>
      </trkpt>
      <trkpt lat="48.64145" lon="2.53366">
        <ele>77</ele>
        <time>2026-05-31T08:12:06.068+00:00</time>
      </trkpt>
      <trkpt lat="48.64146" lon="2.53368">
        <ele>77</ele>
        <time>2026-05-31T08:12:10.491+00:00</time>
      </trkpt>
      <trkpt lat="48.64144" lon="2.53382">
        <ele>78</ele>
        <time>2026-05-31T08:12:23.815+00:00</time>
      </trkpt>
      <trkpt lat="48.64144" lon="2.53394">
        <ele>78</ele>
        <time>2026-05-31T08:12:28.815+00:00</time>
      </trkpt>
      <trkpt lat="48.64143" lon="2.53405">
        <ele>78</ele>
        <time>2026-05-31T08:12:33.344+00:00</time>
      </trkpt>
      <trkpt lat="48.64145" lon="2.53416">
        <ele>78</ele>
        <time>2026-05-31T08:12:37.815+00:00</time>
      </trkpt>
      <trkpt lat="48.64145" lon="2.53424">
        <ele>78</ele>
        <time>2026-05-31T08:12:42.410+00:00</time>
      </trkpt>
      <trkpt lat="48.64146" lon="2.53431">
        <ele>79</ele>
        <time>2026-05-31T08:12:46.815+00:00</time>
      </trkpt>
      <trkpt lat="48.64146" lon="2.53439">
        <ele>79</ele>
        <time>2026-05-31T08:12:51.564+00:00</time>
      </trkpt>
      <trkpt lat="48.64146" lon="2.53448">
        <ele>79</ele>
        <time>2026-05-31T08:12:56.149+00:00</time>
      </trkpt>
      <trkpt lat="48.64145" lon="2.53454">
        <ele>79</ele>
        <time>2026-05-31T08:13:00.574+00:00</time>
      </trkpt>
      <trkpt lat="48.64146" lon="2.53461">
        <ele>80</ele>
        <time>2026-05-31T08:13:04.814+00:00</time>
      </trkpt>
      <trkpt lat="48.64148" lon="2.53469">
        <ele>80</ele>
        <time>2026-05-31T08:13:09.312+00:00</time>
      </trkpt>
      <trkpt lat="48.64149" lon="2.53476">
        <ele>80</ele>
        <time>2026-05-31T08:13:13.794+00:00</time>
      </trkpt>
      <trkpt lat="48.64149" lon="2.53485">
        <ele>80</ele>
        <time>2026-05-31T08:13:18.165+00:00</time>
      </trkpt>
      <trkpt lat="48.64148" lon="2.53493">
        <ele>81</ele>
        <time>2026-05-31T08:13:22.472+00:00</time>
      </trkpt>
      <trkpt lat="48.64147" lon="2.53502">
        <ele>81</ele>
        <time>2026-05-31T08:13:26.808+00:00</time>
      </trkpt>
      <trkpt lat="48.64147" lon="2.53511">
        <ele>81</ele>
        <time>2026-05-31T08:13:31.124+00:00</time>
      </trkpt>
      <trkpt lat="48.64149" lon="2.53519">
        <ele>81</ele>
        <time>2026-05-31T08:13:35.509+00:00</time>
      </trkpt>
      <trkpt lat="48.6415" lon="2.53524">
        <ele>81</ele>
        <time>2026-05-31T08:13:39.815+00:00</time>
      </trkpt>
      <trkpt lat="48.64157" lon="2.53535">
        <ele>80</ele>
        <time>2026-05-31T08:13:44.323+00:00</time>
      </trkpt>
      <trkpt lat="48.64159" lon="2.53545">
        <ele>79</ele>
        <time>2026-05-31T08:13:48.784+00:00</time>
      </trkpt>
      <trkpt lat="48.64163" lon="2.53553">
        <ele>79</ele>
        <time>2026-05-31T08:13:52.815+00:00</time>
      </trkpt>
      <trkpt lat="48.64157" lon="2.53579">
        <ele>78</ele>
        <time>2026-05-31T08:14:11.465+00:00</time>
      </trkpt>
      <trkpt lat="48.64161" lon="2.53582">
        <ele>78</ele>
        <time>2026-05-31T08:14:15.814+00:00</time>
      </trkpt>
      <trkpt lat="48.6416" lon="2.53587">
        <ele>78</ele>
        <time>2026-05-31T08:14:20.818+00:00</time>
      </trkpt>
      <trkpt lat="48.6416" lon="2.53587">
        <ele>78</ele>
        <time>2026-05-31T08:14:25.407+00:00</time>
      </trkpt>
      <trkpt lat="48.64159" lon="2.53586">
        <ele>78</ele>
        <time>2026-05-31T08:14:29.815+00:00</time>
      </trkpt>
      <trkpt lat="48.64155" lon="2.53583">
        <ele>78</ele>
        <time>2026-05-31T08:15:04.815+00:00</time>
      </trkpt>
      <trkpt lat="48.64148" lon="2.53582">
        <ele>79</ele>
        <time>2026-05-31T08:15:09.491+00:00</time>
      </trkpt>
      <trkpt lat="48.64143" lon="2.53579">
        <ele>79</ele>
        <time>2026-05-31T08:15:13.653+00:00</time>
      </trkpt>
      <trkpt lat="48.64137" lon="2.53583">
        <ele>79</ele>
        <time>2026-05-31T08:15:17.815+00:00</time>
      </trkpt>
      <trkpt lat="48.64133" lon="2.53589">
        <ele>79</ele>
        <time>2026-05-31T08:15:22.104+00:00</time>
      </trkpt>
      <trkpt lat="48.64129" lon="2.53597">
        <ele>79</ele>
        <time>2026-05-31T08:15:26.431+00:00</time>
      </trkpt>
      <trkpt lat="48.6413" lon="2.53604">
        <ele>79</ele>
        <time>2026-05-31T08:15:31.510+00:00</time>
      </trkpt>
      <trkpt lat="48.6413" lon="2.53611">
        <ele>79</ele>
        <time>2026-05-31T08:15:36.029+00:00</time>
      </trkpt>
      <trkpt lat="48.6413" lon="2.53619">
        <ele>79</ele>
        <time>2026-05-31T08:15:40.808+00:00</time>
      </trkpt>
      <trkpt lat="48.64132" lon="2.5363">
        <ele>79</ele>
        <time>2026-05-31T08:15:44.815+00:00</time>
      </trkpt>
      <trkpt lat="48.64133" lon="2.53639">
        <ele>79</ele>
        <time>2026-05-31T08:15:49.182+00:00</time>
      </trkpt>
      <trkpt lat="48.64133" lon="2.53649">
        <ele>79</ele>
        <time>2026-05-31T08:15:53.814+00:00</time>
      </trkpt>
      <trkpt lat="48.64132" lon="2.53656">
        <ele>79</ele>
        <time>2026-05-31T08:15:58.413+00:00</time>
      </trkpt>
      <trkpt lat="48.64132" lon="2.53664">
        <ele>79</ele>
        <time>2026-05-31T08:16:02.990+00:00</time>
      </trkpt>
      <trkpt lat="48.64131" lon="2.53671">
        <ele>79</ele>
        <time>2026-05-31T08:16:07.814+00:00</time>
      </trkpt>
      <trkpt lat="48.64131" lon="2.5368">
        <ele>79</ele>
        <time>2026-05-31T08:16:11.923+00:00</time>
      </trkpt>
      <trkpt lat="48.64131" lon="2.53687">
        <ele>79</ele>
        <time>2026-05-31T08:16:16.529+00:00</time>
      </trkpt>
      <trkpt lat="48.6413" lon="2.53695">
        <ele>79</ele>
        <time>2026-05-31T08:16:21.087+00:00</time>
      </trkpt>
      <trkpt lat="48.6413" lon="2.53701">
        <ele>79</ele>
        <time>2026-05-31T08:16:25.586+00:00</time>
      </trkpt>
      <trkpt lat="48.64131" lon="2.53709">
        <ele>78</ele>
        <time>2026-05-31T08:16:29.815+00:00</time>
      </trkpt>
      <trkpt lat="48.6413" lon="2.53717">
        <ele>78</ele>
        <time>2026-05-31T08:16:34.548+00:00</time>
      </trkpt>
      <trkpt lat="48.64131" lon="2.53725">
        <ele>78</ele>
        <time>2026-05-31T08:16:38.815+00:00</time>
      </trkpt>
      <trkpt lat="48.64133" lon="2.53732">
        <ele>78</ele>
        <time>2026-05-31T08:16:43.443+00:00</time>
      </trkpt>
      <trkpt lat="48.64133" lon="2.5374">
        <ele>78</ele>
        <time>2026-05-31T08:16:47.750+00:00</time>
      </trkpt>
      <trkpt lat="48.64132" lon="2.53748">
        <ele>78</ele>
        <time>2026-05-31T08:16:52.143+00:00</time>
      </trkpt>
      <trkpt lat="48.64132" lon="2.53756">
        <ele>78</ele>
        <time>2026-05-31T08:16:56.663+00:00</time>
      </trkpt>
      <trkpt lat="48.64132" lon="2.53762">
        <ele>78</ele>
        <time>2026-05-31T08:17:01.211+00:00</time>
      </trkpt>
      <trkpt lat="48.64131" lon="2.53771">
        <ele>78</ele>
        <time>2026-05-31T08:17:05.814+00:00</time>
      </trkpt>
      <trkpt lat="48.64131" lon="2.53779">
        <ele>78</ele>
        <time>2026-05-31T08:17:10.384+00:00</time>
      </trkpt>
      <trkpt lat="48.64131" lon="2.53786">
        <ele>78</ele>
        <time>2026-05-31T08:17:14.383+00:00</time>
      </trkpt>
      <trkpt lat="48.64129" lon="2.53794">
        <ele>79</ele>
        <time>2026-05-31T08:17:19.404+00:00</time>
      </trkpt>
      <trkpt lat="48.64127" lon="2.53802">
        <ele>79</ele>
        <time>2026-05-31T08:17:23.815+00:00</time>
      </trkpt>
      <trkpt lat="48.64126" lon="2.53809">
        <ele>79</ele>
        <time>2026-05-31T08:17:27.923+00:00</time>
      </trkpt>
      <trkpt lat="48.64125" lon="2.53818">
        <ele>78</ele>
        <time>2026-05-31T08:17:32.404+00:00</time>
      </trkpt>
      <trkpt lat="48.64124" lon="2.53826">
        <ele>78</ele>
        <time>2026-05-31T08:17:36.606+00:00</time>
      </trkpt>
      <trkpt lat="48.64123" lon="2.53833">
        <ele>78</ele>
        <time>2026-05-31T08:17:41.086+00:00</time>
      </trkpt>
      <trkpt lat="48.64121" lon="2.53842">
        <ele>78</ele>
        <time>2026-05-31T08:17:45.568+00:00</time>
      </trkpt>
      <trkpt lat="48.6412" lon="2.5385">
        <ele>78</ele>
        <time>2026-05-31T08:17:49.814+00:00</time>
      </trkpt>
      <trkpt lat="48.64119" lon="2.53858">
        <ele>78</ele>
        <time>2026-05-31T08:17:53.922+00:00</time>
      </trkpt>
      <trkpt lat="48.64118" lon="2.53866">
        <ele>78</ele>
        <time>2026-05-31T08:17:58.813+00:00</time>
      </trkpt>
      <trkpt lat="48.64115" lon="2.53874">
        <ele>78</ele>
        <time>2026-05-31T08:18:03.490+00:00</time>
      </trkpt>
      <trkpt lat="48.64113" lon="2.53882">
        <ele>78</ele>
        <time>2026-05-31T08:18:07.814+00:00</time>
      </trkpt>
      <trkpt lat="48.64111" lon="2.53891">
        <ele>78</ele>
        <time>2026-05-31T08:18:12.443+00:00</time>
      </trkpt>
      <trkpt lat="48.6411" lon="2.53899">
        <ele>78</ele>
        <time>2026-05-31T08:18:17.013+00:00</time>
      </trkpt>
      <trkpt lat="48.64106" lon="2.53906">
        <ele>78</ele>
        <time>2026-05-31T08:18:21.425+00:00</time>
      </trkpt>
      <trkpt lat="48.64105" lon="2.53913">
        <ele>78</ele>
        <time>2026-05-31T08:18:25.813+00:00</time>
      </trkpt>
      <trkpt lat="48.64105" lon="2.53921">
        <ele>78</ele>
        <time>2026-05-31T08:18:30.444+00:00</time>
      </trkpt>
      <trkpt lat="48.64102" lon="2.53929">
        <ele>78</ele>
        <time>2026-05-31T08:18:34.814+00:00</time>
      </trkpt>
      <trkpt lat="48.641" lon="2.53936">
        <ele>79</ele>
        <time>2026-05-31T08:18:39.685+00:00</time>
      </trkpt>
      <trkpt lat="48.64098" lon="2.53944">
        <ele>79</ele>
        <time>2026-05-31T08:18:43.814+00:00</time>
      </trkpt>
      <trkpt lat="48.64096" lon="2.53952">
        <ele>78</ele>
        <time>2026-05-31T08:18:48.813+00:00</time>
      </trkpt>
      <trkpt lat="48.64093" lon="2.5396">
        <ele>78</ele>
        <time>2026-05-31T08:18:53.523+00:00</time>
      </trkpt>
      <trkpt lat="48.64091" lon="2.53967">
        <ele>78</ele>
        <time>2026-05-31T08:18:57.814+00:00</time>
      </trkpt>
      <trkpt lat="48.64089" lon="2.53975">
        <ele>78</ele>
        <time>2026-05-31T08:19:02.427+00:00</time>
      </trkpt>
      <trkpt lat="48.64086" lon="2.53981">
        <ele>78</ele>
        <time>2026-05-31T08:19:06.813+00:00</time>
      </trkpt>
      <trkpt lat="48.64083" lon="2.53989">
        <ele>78</ele>
        <time>2026-05-31T08:19:11.583+00:00</time>
      </trkpt>
      <trkpt lat="48.6408" lon="2.53997">
        <ele>78</ele>
        <time>2026-05-31T08:19:16.025+00:00</time>
      </trkpt>
      <trkpt lat="48.64077" lon="2.54004">
        <ele>78</ele>
        <time>2026-05-31T08:19:20.543+00:00</time>
      </trkpt>
      <trkpt lat="48.64076" lon="2.54012">
        <ele>78</ele>
        <time>2026-05-31T08:19:24.814+00:00</time>
      </trkpt>
      <trkpt lat="48.64076" lon="2.54021">
        <ele>79</ele>
        <time>2026-05-31T08:19:29.813+00:00</time>
      </trkpt>
      <trkpt lat="48.64074" lon="2.54027">
        <ele>79</ele>
        <time>2026-05-31T08:19:34.391+00:00</time>
      </trkpt>
      <trkpt lat="48.64071" lon="2.54034">
        <ele>79</ele>
        <time>2026-05-31T08:19:38.813+00:00</time>
      </trkpt>
      <trkpt lat="48.64069" lon="2.54041">
        <ele>77</ele>
        <time>2026-05-31T08:19:43.472+00:00</time>
      </trkpt>
      <trkpt lat="48.64067" lon="2.5405">
        <ele>78</ele>
        <time>2026-05-31T08:19:47.469+00:00</time>
      </trkpt>
      <trkpt lat="48.64064" lon="2.54057">
        <ele>78</ele>
        <time>2026-05-31T08:19:51.566+00:00</time>
      </trkpt>
      <trkpt lat="48.64062" lon="2.54064">
        <ele>78</ele>
        <time>2026-05-31T08:19:55.814+00:00</time>
      </trkpt>
      <trkpt lat="48.6406" lon="2.54073">
        <ele>78</ele>
        <time>2026-05-31T08:20:00.467+00:00</time>
      </trkpt>
      <trkpt lat="48.64058" lon="2.5408">
        <ele>78</ele>
        <time>2026-05-31T08:20:04.814+00:00</time>
      </trkpt>
      <trkpt lat="48.64057" lon="2.54088">
        <ele>78</ele>
        <time>2026-05-31T08:20:08.814+00:00</time>
      </trkpt>
      <trkpt lat="48.64054" lon="2.54095">
        <ele>78</ele>
        <time>2026-05-31T08:20:13.168+00:00</time>
      </trkpt>
      <trkpt lat="48.6405" lon="2.54102">
        <ele>79</ele>
        <time>2026-05-31T08:20:17.591+00:00</time>
      </trkpt>
      <trkpt lat="48.64047" lon="2.54107">
        <ele>79</ele>
        <time>2026-05-31T08:20:21.668+00:00</time>
      </trkpt>
      <trkpt lat="48.64042" lon="2.54111">
        <ele>79</ele>
        <time>2026-05-31T08:20:26.186+00:00</time>
      </trkpt>
      <trkpt lat="48.64038" lon="2.54112">
        <ele>78</ele>
        <time>2026-05-31T08:20:30.802+00:00</time>
      </trkpt>
      <trkpt lat="48.64039" lon="2.54119">
        <ele>78</ele>
        <time>2026-05-31T08:20:34.814+00:00</time>
      </trkpt>
      <trkpt lat="48.6404" lon="2.54124">
        <ele>78</ele>
        <time>2026-05-31T08:20:39.205+00:00</time>
      </trkpt>
      <trkpt lat="48.64041" lon="2.54131">
        <ele>79</ele>
        <time>2026-05-31T08:20:43.814+00:00</time>
      </trkpt>
      <trkpt lat="48.64042" lon="2.54136">
        <ele>79</ele>
        <time>2026-05-31T08:20:48.740+00:00</time>
      </trkpt>
      <trkpt lat="48.64045" lon="2.54137">
        <ele>79</ele>
        <time>2026-05-31T08:20:52.813+00:00</time>
      </trkpt>
      <trkpt lat="48.64045" lon="2.54137">
        <ele>79</ele>
        <time>2026-05-31T08:20:57.813+00:00</time>
      </trkpt>
      <trkpt lat="48.64045" lon="2.54138">
        <ele>79</ele>
        <time>2026-05-31T08:21:01.814+00:00</time>
      </trkpt>
      <trkpt lat="48.64042" lon="2.54142">
        <ele>79</ele>
        <time>2026-05-31T08:21:11.814+00:00</time>
      </trkpt>
      <trkpt lat="48.64037" lon="2.54149">
        <ele>79</ele>
        <time>2026-05-31T08:21:16.641+00:00</time>
      </trkpt>
      <trkpt lat="48.64033" lon="2.54155">
        <ele>79</ele>
        <time>2026-05-31T08:21:20.697+00:00</time>
      </trkpt>
      <trkpt lat="48.64032" lon="2.54162">
        <ele>79</ele>
        <time>2026-05-31T08:21:24.813+00:00</time>
      </trkpt>
      <trkpt lat="48.64036" lon="2.54161">
        <ele>79</ele>
        <time>2026-05-31T08:21:29.141+00:00</time>
      </trkpt>
      <trkpt lat="48.6404" lon="2.54165">
        <ele>79</ele>
        <time>2026-05-31T08:21:33.206+00:00</time>
      </trkpt>
      <trkpt lat="48.64054" lon="2.54174">
        <ele>79</ele>
        <time>2026-05-31T08:21:37.522+00:00</time>
      </trkpt>
      <trkpt lat="48.64056" lon="2.5418">
        <ele>79</ele>
        <time>2026-05-31T08:21:41.801+00:00</time>
      </trkpt>
      <trkpt lat="48.64057" lon="2.54187">
        <ele>79</ele>
        <time>2026-05-31T08:21:46.022+00:00</time>
      </trkpt>
      <trkpt lat="48.64055" lon="2.54191">
        <ele>79</ele>
        <time>2026-05-31T08:22:09.882+00:00</time>
      </trkpt>
      <trkpt lat="48.64057" lon="2.54193">
        <ele>79</ele>
        <time>2026-05-31T08:22:14.701+00:00</time>
      </trkpt>
      <trkpt lat="48.64058" lon="2.54193">
        <ele>79</ele>
        <time>2026-05-31T08:22:19.297+00:00</time>
      </trkpt>
      <trkpt lat="48.64056" lon="2.54185">
        <ele>79</ele>
        <time>2026-05-31T08:22:22.813+00:00</time>
      </trkpt>
      <trkpt lat="48.64052" lon="2.54185">
        <ele>79</ele>
        <time>2026-05-31T08:22:27.829+00:00</time>
      </trkpt>
      <trkpt lat="48.64047" lon="2.54189">
        <ele>79</ele>
        <time>2026-05-31T08:22:31.813+00:00</time>
      </trkpt>
      <trkpt lat="48.64043" lon="2.54191">
        <ele>79</ele>
        <time>2026-05-31T08:22:36.813+00:00</time>
      </trkpt>
      <trkpt lat="48.64038" lon="2.54197">
        <ele>80</ele>
        <time>2026-05-31T08:22:40.813+00:00</time>
      </trkpt>
      <trkpt lat="48.64035" lon="2.54207">
        <ele>80</ele>
        <time>2026-05-31T08:22:45.086+00:00</time>
      </trkpt>
      <trkpt lat="48.64031" lon="2.54213">
        <ele>80</ele>
        <time>2026-05-31T08:22:49.443+00:00</time>
      </trkpt>
      <trkpt lat="48.64029" lon="2.54221">
        <ele>80</ele>
        <time>2026-05-31T08:22:53.812+00:00</time>
      </trkpt>
      <trkpt lat="48.6403" lon="2.54229">
        <ele>80</ele>
        <time>2026-05-31T08:22:58.812+00:00</time>
      </trkpt>
      <trkpt lat="48.64033" lon="2.54236">
        <ele>80</ele>
        <time>2026-05-31T08:23:03.517+00:00</time>
      </trkpt>
      <trkpt lat="48.64038" lon="2.54242">
        <ele>80</ele>
        <time>2026-05-31T08:23:08.114+00:00</time>
      </trkpt>
      <trkpt lat="48.64041" lon="2.5425">
        <ele>80</ele>
        <time>2026-05-31T08:23:12.248+00:00</time>
      </trkpt>
      <trkpt lat="48.64041" lon="2.54258">
        <ele>80</ele>
        <time>2026-05-31T08:23:16.672+00:00</time>
      </trkpt>
      <trkpt lat="48.64042" lon="2.54266">
        <ele>80</ele>
        <time>2026-05-31T08:23:21.076+00:00</time>
      </trkpt>
      <trkpt lat="48.64041" lon="2.54273">
        <ele>80</ele>
        <time>2026-05-31T08:23:25.510+00:00</time>
      </trkpt>
      <trkpt lat="48.6404" lon="2.54281">
        <ele>80</ele>
        <time>2026-05-31T08:23:30.174+00:00</time>
      </trkpt>
      <trkpt lat="48.6404" lon="2.54289">
        <ele>80</ele>
        <time>2026-05-31T08:23:34.712+00:00</time>
      </trkpt>
      <trkpt lat="48.64038" lon="2.54298">
        <ele>80</ele>
        <time>2026-05-31T08:23:38.813+00:00</time>
      </trkpt>
      <trkpt lat="48.64038" lon="2.54306">
        <ele>80</ele>
        <time>2026-05-31T08:23:43.334+00:00</time>
      </trkpt>
      <trkpt lat="48.64038" lon="2.54315">
        <ele>80</ele>
        <time>2026-05-31T08:23:47.813+00:00</time>
      </trkpt>
      <trkpt lat="48.64038" lon="2.54324">
        <ele>80</ele>
        <time>2026-05-31T08:23:52.675+00:00</time>
      </trkpt>
      <trkpt lat="48.64037" lon="2.54331">
        <ele>80</ele>
        <time>2026-05-31T08:23:57.098+00:00</time>
      </trkpt>
      <trkpt lat="48.64036" lon="2.54338">
        <ele>80</ele>
        <time>2026-05-31T08:24:01.617+00:00</time>
      </trkpt>
      <trkpt lat="48.64035" lon="2.54348">
        <ele>80</ele>
        <time>2026-05-31T08:24:06.117+00:00</time>
      </trkpt>
      <trkpt lat="48.64033" lon="2.54355">
        <ele>80</ele>
        <time>2026-05-31T08:24:10.675+00:00</time>
      </trkpt>
      <trkpt lat="48.64032" lon="2.54363">
        <ele>80</ele>
        <time>2026-05-31T08:24:14.813+00:00</time>
      </trkpt>
      <trkpt lat="48.64029" lon="2.5437">
        <ele>80</ele>
        <time>2026-05-31T08:24:19.637+00:00</time>
      </trkpt>
      <trkpt lat="48.64027" lon="2.54378">
        <ele>80</ele>
        <time>2026-05-31T08:24:23.813+00:00</time>
      </trkpt>
      <trkpt lat="48.64024" lon="2.54385">
        <ele>80</ele>
        <time>2026-05-31T08:24:27.972+00:00</time>
      </trkpt>
      <trkpt lat="48.64021" lon="2.54391">
        <ele>80</ele>
        <time>2026-05-31T08:24:32.433+00:00</time>
      </trkpt>
      <trkpt lat="48.64019" lon="2.54399">
        <ele>80</ele>
        <time>2026-05-31T08:24:36.875+00:00</time>
      </trkpt>
      <trkpt lat="48.64019" lon="2.54408">
        <ele>80</ele>
        <time>2026-05-31T08:24:41.318+00:00</time>
      </trkpt>
      <trkpt lat="48.6402" lon="2.54414">
        <ele>80</ele>
        <time>2026-05-31T08:24:45.813+00:00</time>
      </trkpt>
      <trkpt lat="48.64018" lon="2.54422">
        <ele>80</ele>
        <time>2026-05-31T08:24:50.269+00:00</time>
      </trkpt>
      <trkpt lat="48.64015" lon="2.54431">
        <ele>80</ele>
        <time>2026-05-31T08:24:54.384+00:00</time>
      </trkpt>
      <trkpt lat="48.64011" lon="2.54438">
        <ele>80</ele>
        <time>2026-05-31T08:24:58.380+00:00</time>
      </trkpt>
      <trkpt lat="48.64008" lon="2.54445">
        <ele>80</ele>
        <time>2026-05-31T08:25:02.574+00:00</time>
      </trkpt>
      <trkpt lat="48.64005" lon="2.54451">
        <ele>80</ele>
        <time>2026-05-31T08:25:07.614+00:00</time>
      </trkpt>
      <trkpt lat="48.64002" lon="2.54458">
        <ele>80</ele>
        <time>2026-05-31T08:25:12.036+00:00</time>
      </trkpt>
      <trkpt lat="48.64001" lon="2.54465">
        <ele>80</ele>
        <time>2026-05-31T08:25:16.556+00:00</time>
      </trkpt>
      <trkpt lat="48.64" lon="2.54473">
        <ele>80</ele>
        <time>2026-05-31T08:25:20.813+00:00</time>
      </trkpt>
      <trkpt lat="48.64" lon="2.54481">
        <ele>80</ele>
        <time>2026-05-31T08:25:25.315+00:00</time>
      </trkpt>
      <trkpt lat="48.64" lon="2.54489">
        <ele>81</ele>
        <time>2026-05-31T08:25:29.485+00:00</time>
      </trkpt>
      <trkpt lat="48.63999" lon="2.54497">
        <ele>81</ele>
        <time>2026-05-31T08:25:34.112+00:00</time>
      </trkpt>
      <trkpt lat="48.63997" lon="2.54505">
        <ele>81</ele>
        <time>2026-05-31T08:25:38.632+00:00</time>
      </trkpt>
      <trkpt lat="48.63993" lon="2.54509">
        <ele>81</ele>
        <time>2026-05-31T08:25:42.813+00:00</time>
      </trkpt>
      <trkpt lat="48.6399" lon="2.54516">
        <ele>80</ele>
        <time>2026-05-31T08:25:47.523+00:00</time>
      </trkpt>
      <trkpt lat="48.63986" lon="2.54525">
        <ele>80</ele>
        <time>2026-05-31T08:25:51.813+00:00</time>
      </trkpt>
      <trkpt lat="48.63982" lon="2.54531">
        <ele>80</ele>
        <time>2026-05-31T08:25:56.035+00:00</time>
      </trkpt>
      <trkpt lat="48.6398" lon="2.54538">
        <ele>80</ele>
        <time>2026-05-31T08:26:00.698+00:00</time>
      </trkpt>
      <trkpt lat="48.63979" lon="2.54546">
        <ele>81</ele>
        <time>2026-05-31T08:30:28.742+00:00</time>
      </trkpt>
      <trkpt lat="48.63978" lon="2.54555">
        <ele>81</ele>
        <time>2026-05-31T08:30:32.811+00:00</time>
      </trkpt>
      <trkpt lat="48.63976" lon="2.54564">
        <ele>81</ele>
        <time>2026-05-31T08:30:36.812+00:00</time>
      </trkpt>
      <trkpt lat="48.63979" lon="2.54575">
        <ele>82</ele>
        <time>2026-05-31T08:30:41.441+00:00</time>
      </trkpt>
      <trkpt lat="48.63977" lon="2.54585">
        <ele>82</ele>
        <time>2026-05-31T08:30:45.812+00:00</time>
      </trkpt>
      <trkpt lat="48.63975" lon="2.54591">
        <ele>82</ele>
        <time>2026-05-31T08:30:50.538+00:00</time>
      </trkpt>
      <trkpt lat="48.63975" lon="2.54598">
        <ele>83</ele>
        <time>2026-05-31T08:30:54.812+00:00</time>
      </trkpt>
      <trkpt lat="48.63974" lon="2.54606">
        <ele>83</ele>
        <time>2026-05-31T08:30:59.517+00:00</time>
      </trkpt>
      <trkpt lat="48.63974" lon="2.54612">
        <ele>83</ele>
        <time>2026-05-31T08:31:03.811+00:00</time>
      </trkpt>
      <trkpt lat="48.63973" lon="2.54622">
        <ele>83</ele>
        <time>2026-05-31T08:31:08.461+00:00</time>
      </trkpt>
      <trkpt lat="48.63969" lon="2.54635">
        <ele>83</ele>
        <time>2026-05-31T08:31:12.826+00:00</time>
      </trkpt>
      <trkpt lat="48.63966" lon="2.54644">
        <ele>83</ele>
        <time>2026-05-31T08:31:16.812+00:00</time>
      </trkpt>
      <trkpt lat="48.63966" lon="2.54651">
        <ele>83</ele>
        <time>2026-05-31T08:31:21.811+00:00</time>
      </trkpt>
      <trkpt lat="48.63966" lon="2.54661">
        <ele>82</ele>
        <time>2026-05-31T08:31:34.746+00:00</time>
      </trkpt>
      <trkpt lat="48.63967" lon="2.54669">
        <ele>82</ele>
        <time>2026-05-31T08:31:38.802+00:00</time>
      </trkpt>
      <trkpt lat="48.63968" lon="2.54678">
        <ele>82</ele>
        <time>2026-05-31T08:31:42.812+00:00</time>
      </trkpt>
      <trkpt lat="48.63968" lon="2.54687">
        <ele>83</ele>
        <time>2026-05-31T08:31:47.724+00:00</time>
      </trkpt>
      <trkpt lat="48.63969" lon="2.54696">
        <ele>83</ele>
        <time>2026-05-31T08:31:52.118+00:00</time>
      </trkpt>
      <trkpt lat="48.63969" lon="2.54704">
        <ele>83</ele>
        <time>2026-05-31T08:31:56.561+00:00</time>
      </trkpt>
      <trkpt lat="48.63968" lon="2.54712">
        <ele>84</ele>
        <time>2026-05-31T08:32:00.812+00:00</time>
      </trkpt>
      <trkpt lat="48.63967" lon="2.54721">
        <ele>84</ele>
        <time>2026-05-31T08:32:05.337+00:00</time>
      </trkpt>
      <trkpt lat="48.63968" lon="2.54729">
        <ele>84</ele>
        <time>2026-05-31T08:32:09.626+00:00</time>
      </trkpt>
      <trkpt lat="48.63968" lon="2.54738">
        <ele>85</ele>
        <time>2026-05-31T08:32:14.002+00:00</time>
      </trkpt>
      <trkpt lat="48.63967" lon="2.54746">
        <ele>85</ele>
        <time>2026-05-31T08:32:18.298+00:00</time>
      </trkpt>
      <trkpt lat="48.63965" lon="2.54753">
        <ele>85</ele>
        <time>2026-05-31T08:32:22.811+00:00</time>
      </trkpt>
      <trkpt lat="48.63966" lon="2.5476">
        <ele>85</ele>
        <time>2026-05-31T08:32:27.277+00:00</time>
      </trkpt>
      <trkpt lat="48.63965" lon="2.54767">
        <ele>84</ele>
        <time>2026-05-31T08:32:31.812+00:00</time>
      </trkpt>
      <trkpt lat="48.63963" lon="2.54775">
        <ele>84</ele>
        <time>2026-05-31T08:32:36.325+00:00</time>
      </trkpt>
      <trkpt lat="48.63963" lon="2.54784">
        <ele>84</ele>
        <time>2026-05-31T08:32:40.811+00:00</time>
      </trkpt>
      <trkpt lat="48.63963" lon="2.54793">
        <ele>85</ele>
        <time>2026-05-31T08:32:45.286+00:00</time>
      </trkpt>
      <trkpt lat="48.63966" lon="2.54799">
        <ele>85</ele>
        <time>2026-05-31T08:32:49.661+00:00</time>
      </trkpt>
      <trkpt lat="48.63966" lon="2.54807">
        <ele>85</ele>
        <time>2026-05-31T08:32:54.141+00:00</time>
      </trkpt>
      <trkpt lat="48.63964" lon="2.54818">
        <ele>85</ele>
        <time>2026-05-31T08:32:58.680+00:00</time>
      </trkpt>
      <trkpt lat="48.63962" lon="2.54826">
        <ele>86</ele>
        <time>2026-05-31T08:33:02.811+00:00</time>
      </trkpt>
      <trkpt lat="48.63961" lon="2.54834">
        <ele>86</ele>
        <time>2026-05-31T08:33:06.863+00:00</time>
      </trkpt>
      <trkpt lat="48.63959" lon="2.54841">
        <ele>86</ele>
        <time>2026-05-31T08:33:11.811+00:00</time>
      </trkpt>
      <trkpt lat="48.63956" lon="2.54848">
        <ele>84</ele>
        <time>2026-05-31T08:33:16.361+00:00</time>
      </trkpt>
      <trkpt lat="48.63953" lon="2.54854">
        <ele>84</ele>
        <time>2026-05-31T08:33:20.802+00:00</time>
      </trkpt>
      <trkpt lat="48.6395" lon="2.54862">
        <ele>84</ele>
        <time>2026-05-31T08:33:24.810+00:00</time>
      </trkpt>
      <trkpt lat="48.63949" lon="2.54868">
        <ele>84</ele>
        <time>2026-05-31T08:33:29.618+00:00</time>
      </trkpt>
      <trkpt lat="48.63951" lon="2.54876">
        <ele>83</ele>
        <time>2026-05-31T08:33:33.811+00:00</time>
      </trkpt>
      <trkpt lat="48.63957" lon="2.54884">
        <ele>83</ele>
        <time>2026-05-31T08:33:38.724+00:00</time>
      </trkpt>
      <trkpt lat="48.63958" lon="2.54888">
        <ele>83</ele>
        <time>2026-05-31T08:33:42.782+00:00</time>
      </trkpt>
      <trkpt lat="48.63955" lon="2.54897">
        <ele>83</ele>
        <time>2026-05-31T08:33:46.811+00:00</time>
      </trkpt>
      <trkpt lat="48.63949" lon="2.54904">
        <ele>82</ele>
        <time>2026-05-31T08:33:51.626+00:00</time>
      </trkpt>
      <trkpt lat="48.63945" lon="2.54911">
        <ele>82</ele>
        <time>2026-05-31T08:33:55.811+00:00</time>
      </trkpt>
      <trkpt lat="48.63943" lon="2.54917">
        <ele>82</ele>
        <time>2026-05-31T08:34:00.520+00:00</time>
      </trkpt>
      <trkpt lat="48.63941" lon="2.54926">
        <ele>82</ele>
        <time>2026-05-31T08:34:04.810+00:00</time>
      </trkpt>
      <trkpt lat="48.6394" lon="2.54934">
        <ele>81</ele>
        <time>2026-05-31T08:34:09.037+00:00</time>
      </trkpt>
      <trkpt lat="48.63941" lon="2.54942">
        <ele>81</ele>
        <time>2026-05-31T08:34:13.121+00:00</time>
      </trkpt>
      <trkpt lat="48.63942" lon="2.54948">
        <ele>81</ele>
        <time>2026-05-31T08:34:17.844+00:00</time>
      </trkpt>
      <trkpt lat="48.63945" lon="2.54952">
        <ele>81</ele>
        <time>2026-05-31T08:34:22.604+00:00</time>
      </trkpt>
      <trkpt lat="48.63948" lon="2.54955">
        <ele>81</ele>
        <time>2026-05-31T08:34:27.219+00:00</time>
      </trkpt>
      <trkpt lat="48.63951" lon="2.54958">
        <ele>81</ele>
        <time>2026-05-31T08:34:31.584+00:00</time>
      </trkpt>
      <trkpt lat="48.63951" lon="2.54963">
        <ele>80</ele>
        <time>2026-05-31T08:34:35.958+00:00</time>
      </trkpt>
      <trkpt lat="48.6395" lon="2.54971">
        <ele>80</ele>
        <time>2026-05-31T08:34:40.329+00:00</time>
      </trkpt>
      <trkpt lat="48.63951" lon="2.54977">
        <ele>80</ele>
        <time>2026-05-31T08:34:44.811+00:00</time>
      </trkpt>
      <trkpt lat="48.63954" lon="2.54983">
        <ele>80</ele>
        <time>2026-05-31T08:34:49.178+00:00</time>
      </trkpt>
      <trkpt lat="48.63957" lon="2.54989">
        <ele>80</ele>
        <time>2026-05-31T08:34:53.726+00:00</time>
      </trkpt>
      <trkpt lat="48.6396" lon="2.54995">
        <ele>80</ele>
        <time>2026-05-31T08:34:57.811+00:00</time>
      </trkpt>
      <trkpt lat="48.6396" lon="2.55004">
        <ele>80</ele>
        <time>2026-05-31T08:35:02.469+00:00</time>
      </trkpt>
      <trkpt lat="48.63961" lon="2.55011">
        <ele>80</ele>
        <time>2026-05-31T08:35:06.507+00:00</time>
      </trkpt>
      <trkpt lat="48.63959" lon="2.55019">
        <ele>81</ele>
        <time>2026-05-31T08:35:10.811+00:00</time>
      </trkpt>
      <trkpt lat="48.63954" lon="2.55026">
        <ele>81</ele>
        <time>2026-05-31T08:35:15.801+00:00</time>
      </trkpt>
      <trkpt lat="48.63951" lon="2.55036">
        <ele>81</ele>
        <time>2026-05-31T08:35:20.301+00:00</time>
      </trkpt>
      <trkpt lat="48.63947" lon="2.55046">
        <ele>82</ele>
        <time>2026-05-31T08:35:24.602+00:00</time>
      </trkpt>
      <trkpt lat="48.63945" lon="2.55053">
        <ele>82</ele>
        <time>2026-05-31T08:35:28.810+00:00</time>
      </trkpt>
      <trkpt lat="48.63944" lon="2.55062">
        <ele>82</ele>
        <time>2026-05-31T08:35:33.602+00:00</time>
      </trkpt>
      <trkpt lat="48.63944" lon="2.55072">
        <ele>82</ele>
        <time>2026-05-31T08:35:38.621+00:00</time>
      </trkpt>
      <trkpt lat="48.63944" lon="2.5508">
        <ele>82</ele>
        <time>2026-05-31T08:35:43.323+00:00</time>
      </trkpt>
      <trkpt lat="48.63945" lon="2.55089">
        <ele>82</ele>
        <time>2026-05-31T08:35:47.765+00:00</time>
      </trkpt>
      <trkpt lat="48.63945" lon="2.55097">
        <ele>82</ele>
        <time>2026-05-31T08:35:52.708+00:00</time>
      </trkpt>
      <trkpt lat="48.63945" lon="2.55106">
        <ele>82</ele>
        <time>2026-05-31T08:35:57.043+00:00</time>
      </trkpt>
      <trkpt lat="48.63946" lon="2.55113">
        <ele>82</ele>
        <time>2026-05-31T08:36:01.398+00:00</time>
      </trkpt>
      <trkpt lat="48.63943" lon="2.55121">
        <ele>82</ele>
        <time>2026-05-31T08:36:05.622+00:00</time>
      </trkpt>
      <trkpt lat="48.63939" lon="2.55128">
        <ele>82</ele>
        <time>2026-05-31T08:36:09.763+00:00</time>
      </trkpt>
      <trkpt lat="48.63939" lon="2.55136">
        <ele>82</ele>
        <time>2026-05-31T08:36:13.945+00:00</time>
      </trkpt>
      <trkpt lat="48.63939" lon="2.55144">
        <ele>82</ele>
        <time>2026-05-31T08:36:18.444+00:00</time>
      </trkpt>
      <trkpt lat="48.63937" lon="2.5515">
        <ele>82</ele>
        <time>2026-05-31T08:36:23.044+00:00</time>
      </trkpt>
      <trkpt lat="48.63936" lon="2.55158">
        <ele>82</ele>
        <time>2026-05-31T08:36:27.561+00:00</time>
      </trkpt>
      <trkpt lat="48.63935" lon="2.55166">
        <ele>82</ele>
        <time>2026-05-31T08:36:31.811+00:00</time>
      </trkpt>
      <trkpt lat="48.63935" lon="2.55175">
        <ele>82</ele>
        <time>2026-05-31T08:36:35.811+00:00</time>
      </trkpt>
      <trkpt lat="48.63934" lon="2.55183">
        <ele>82</ele>
        <time>2026-05-31T08:36:40.587+00:00</time>
      </trkpt>
      <trkpt lat="48.63932" lon="2.55191">
        <ele>82</ele>
        <time>2026-05-31T08:36:44.811+00:00</time>
      </trkpt>
      <trkpt lat="48.63932" lon="2.55199">
        <ele>82</ele>
        <time>2026-05-31T08:36:49.346+00:00</time>
      </trkpt>
      <trkpt lat="48.63931" lon="2.55209">
        <ele>82</ele>
        <time>2026-05-31T08:36:53.586+00:00</time>
      </trkpt>
      <trkpt lat="48.6393" lon="2.55216">
        <ele>83</ele>
        <time>2026-05-31T08:36:57.811+00:00</time>
      </trkpt>
      <trkpt lat="48.63929" lon="2.55224">
        <ele>83</ele>
        <time>2026-05-31T08:37:02.306+00:00</time>
      </trkpt>
      <trkpt lat="48.63929" lon="2.55232">
        <ele>83</ele>
        <time>2026-05-31T08:37:06.786+00:00</time>
      </trkpt>
      <trkpt lat="48.63929" lon="2.55241">
        <ele>81</ele>
        <time>2026-05-31T08:37:11.064+00:00</time>
      </trkpt>
      <trkpt lat="48.63929" lon="2.55249">
        <ele>81</ele>
        <time>2026-05-31T08:37:15.506+00:00</time>
      </trkpt>
      <trkpt lat="48.6393" lon="2.55257">
        <ele>81</ele>
        <time>2026-05-31T08:37:19.811+00:00</time>
      </trkpt>
      <trkpt lat="48.63932" lon="2.55265">
        <ele>81</ele>
        <time>2026-05-31T08:37:24.188+00:00</time>
      </trkpt>
      <trkpt lat="48.63933" lon="2.55273">
        <ele>81</ele>
        <time>2026-05-31T08:37:28.523+00:00</time>
      </trkpt>
      <trkpt lat="48.63933" lon="2.55282">
        <ele>81</ele>
        <time>2026-05-31T08:37:32.811+00:00</time>
      </trkpt>
      <trkpt lat="48.63932" lon="2.55289">
        <ele>81</ele>
        <time>2026-05-31T08:37:37.322+00:00</time>
      </trkpt>
      <trkpt lat="48.6393" lon="2.55297">
        <ele>79</ele>
        <time>2026-05-31T08:37:41.666+00:00</time>
      </trkpt>
      <trkpt lat="48.63929" lon="2.55306">
        <ele>79</ele>
        <time>2026-05-31T08:37:45.810+00:00</time>
      </trkpt>
      <trkpt lat="48.6393" lon="2.55314">
        <ele>79</ele>
        <time>2026-05-31T08:37:50.540+00:00</time>
      </trkpt>
      <trkpt lat="48.63929" lon="2.55322">
        <ele>79</ele>
        <time>2026-05-31T08:37:54.944+00:00</time>
      </trkpt>
      <trkpt lat="48.63927" lon="2.55329">
        <ele>79</ele>
        <time>2026-05-31T08:37:59.263+00:00</time>
      </trkpt>
      <trkpt lat="48.63925" lon="2.55338">
        <ele>79</ele>
        <time>2026-05-31T08:38:03.269+00:00</time>
      </trkpt>
      <trkpt lat="48.63924" lon="2.55346">
        <ele>79</ele>
        <time>2026-05-31T08:38:07.788+00:00</time>
      </trkpt>
      <trkpt lat="48.63923" lon="2.55354">
        <ele>80</ele>
        <time>2026-05-31T08:38:11.811+00:00</time>
      </trkpt>
      <trkpt lat="48.63923" lon="2.55362">
        <ele>80</ele>
        <time>2026-05-31T08:38:16.565+00:00</time>
      </trkpt>
      <trkpt lat="48.63922" lon="2.55369">
        <ele>80</ele>
        <time>2026-05-31T08:38:20.810+00:00</time>
      </trkpt>
      <trkpt lat="48.63921" lon="2.55378">
        <ele>80</ele>
        <time>2026-05-31T08:38:25.305+00:00</time>
      </trkpt>
      <trkpt lat="48.6392" lon="2.55387">
        <ele>80</ele>
        <time>2026-05-31T08:38:29.708+00:00</time>
      </trkpt>
      <trkpt lat="48.63918" lon="2.55394">
        <ele>80</ele>
        <time>2026-05-31T08:38:33.811+00:00</time>
      </trkpt>
      <trkpt lat="48.63916" lon="2.55403">
        <ele>81</ele>
        <time>2026-05-31T08:38:37.811+00:00</time>
      </trkpt>
      <trkpt lat="48.63914" lon="2.55411">
        <ele>81</ele>
        <time>2026-05-31T08:38:42.668+00:00</time>
      </trkpt>
      <trkpt lat="48.63913" lon="2.55419">
        <ele>81</ele>
        <time>2026-05-31T08:38:46.811+00:00</time>
      </trkpt>
      <trkpt lat="48.63909" lon="2.55428">
        <ele>81</ele>
        <time>2026-05-31T08:38:51.262+00:00</time>
      </trkpt>
      <trkpt lat="48.63907" lon="2.55434">
        <ele>81</ele>
        <time>2026-05-31T08:38:55.608+00:00</time>
      </trkpt>
      <trkpt lat="48.63905" lon="2.55442">
        <ele>81</ele>
        <time>2026-05-31T08:38:59.810+00:00</time>
      </trkpt>
      <trkpt lat="48.63903" lon="2.55449">
        <ele>81</ele>
        <time>2026-05-31T08:39:04.781+00:00</time>
      </trkpt>
      <trkpt lat="48.639" lon="2.55457">
        <ele>81</ele>
        <time>2026-05-31T08:39:08.810+00:00</time>
      </trkpt>
      <trkpt lat="48.63898" lon="2.55465">
        <ele>80</ele>
        <time>2026-05-31T08:39:13.289+00:00</time>
      </trkpt>
      <trkpt lat="48.63896" lon="2.55472">
        <ele>80</ele>
        <time>2026-05-31T08:39:17.701+00:00</time>
      </trkpt>
      <trkpt lat="48.63894" lon="2.55481">
        <ele>80</ele>
        <time>2026-05-31T08:39:22.067+00:00</time>
      </trkpt>
      <trkpt lat="48.63893" lon="2.55488">
        <ele>79</ele>
        <time>2026-05-31T08:39:26.507+00:00</time>
      </trkpt>
      <trkpt lat="48.63891" lon="2.55496">
        <ele>79</ele>
        <time>2026-05-31T08:39:30.810+00:00</time>
      </trkpt>
      <trkpt lat="48.6389" lon="2.55504">
        <ele>79</ele>
        <time>2026-05-31T08:39:35.401+00:00</time>
      </trkpt>
      <trkpt lat="48.63888" lon="2.55512">
        <ele>79</ele>
        <time>2026-05-31T08:39:39.785+00:00</time>
      </trkpt>
      <trkpt lat="48.63886" lon="2.5552">
        <ele>79</ele>
        <time>2026-05-31T08:39:44.082+00:00</time>
      </trkpt>
      <trkpt lat="48.63883" lon="2.55527">
        <ele>79</ele>
        <time>2026-05-31T08:39:48.467+00:00</time>
      </trkpt>
      <trkpt lat="48.63881" lon="2.55534">
        <ele>79</ele>
        <time>2026-05-31T08:39:52.725+00:00</time>
      </trkpt>
      <trkpt lat="48.6388" lon="2.55543">
        <ele>80</ele>
        <time>2026-05-31T08:39:57.128+00:00</time>
      </trkpt>
      <trkpt lat="48.63879" lon="2.55552">
        <ele>80</ele>
        <time>2026-05-31T08:40:01.426+00:00</time>
      </trkpt>
      <trkpt lat="48.63877" lon="2.5556">
        <ele>80</ele>
        <time>2026-05-31T08:40:05.762+00:00</time>
      </trkpt>
      <trkpt lat="48.63875" lon="2.55567">
        <ele>80</ele>
        <time>2026-05-31T08:40:10.107+00:00</time>
      </trkpt>
      <trkpt lat="48.63873" lon="2.55576">
        <ele>81</ele>
        <time>2026-05-31T08:40:14.443+00:00</time>
      </trkpt>
      <trkpt lat="48.63871" lon="2.55583">
        <ele>81</ele>
        <time>2026-05-31T08:40:18.769+00:00</time>
      </trkpt>
      <trkpt lat="48.63868" lon="2.55592">
        <ele>81</ele>
        <time>2026-05-31T08:40:22.813+00:00</time>
      </trkpt>
      <trkpt lat="48.63866" lon="2.556">
        <ele>82</ele>
        <time>2026-05-31T08:40:27.528+00:00</time>
      </trkpt>
      <trkpt lat="48.63864" lon="2.55607">
        <ele>82</ele>
        <time>2026-05-31T08:40:31.810+00:00</time>
      </trkpt>
      <trkpt lat="48.63861" lon="2.55615">
        <ele>82</ele>
        <time>2026-05-31T08:40:36.267+00:00</time>
      </trkpt>
      <trkpt lat="48.63858" lon="2.55621">
        <ele>82</ele>
        <time>2026-05-31T08:40:40.544+00:00</time>
      </trkpt>
      <trkpt lat="48.63857" lon="2.55629">
        <ele>82</ele>
        <time>2026-05-31T08:40:44.810+00:00</time>
      </trkpt>
      <trkpt lat="48.63854" lon="2.55637">
        <ele>82</ele>
        <time>2026-05-31T08:40:49.341+00:00</time>
      </trkpt>
      <trkpt lat="48.63851" lon="2.55643">
        <ele>82</ele>
        <time>2026-05-31T08:40:53.809+00:00</time>
      </trkpt>
      <trkpt lat="48.63848" lon="2.55649">
        <ele>82</ele>
        <time>2026-05-31T08:40:58.341+00:00</time>
      </trkpt>
      <trkpt lat="48.63846" lon="2.55656">
        <ele>81</ele>
        <time>2026-05-31T08:41:02.810+00:00</time>
      </trkpt>
      <trkpt lat="48.63843" lon="2.55664">
        <ele>81</ele>
        <time>2026-05-31T08:41:07.321+00:00</time>
      </trkpt>
      <trkpt lat="48.63841" lon="2.55672">
        <ele>81</ele>
        <time>2026-05-31T08:41:11.743+00:00</time>
      </trkpt>
      <trkpt lat="48.6384" lon="2.55681">
        <ele>82</ele>
        <time>2026-05-31T08:41:16.089+00:00</time>
      </trkpt>
      <trkpt lat="48.63839" lon="2.5569">
        <ele>82</ele>
        <time>2026-05-31T08:41:20.483+00:00</time>
      </trkpt>
      <trkpt lat="48.6384" lon="2.55698">
        <ele>82</ele>
        <time>2026-05-31T08:41:24.841+00:00</time>
      </trkpt>
      <trkpt lat="48.63839" lon="2.55706">
        <ele>82</ele>
        <time>2026-05-31T08:41:29.548+00:00</time>
      </trkpt>
      <trkpt lat="48.63836" lon="2.55714">
        <ele>81</ele>
        <time>2026-05-31T08:41:34.049+00:00</time>
      </trkpt>
      <trkpt lat="48.63836" lon="2.55722">
        <ele>81</ele>
        <time>2026-05-31T08:41:38.460+00:00</time>
      </trkpt>
      <trkpt lat="48.63835" lon="2.5573">
        <ele>81</ele>
        <time>2026-05-31T08:41:42.941+00:00</time>
      </trkpt>
      <trkpt lat="48.63834" lon="2.55739">
        <ele>80</ele>
        <time>2026-05-31T08:41:47.810+00:00</time>
      </trkpt>
      <trkpt lat="48.63835" lon="2.55747">
        <ele>80</ele>
        <time>2026-05-31T08:41:52.288+00:00</time>
      </trkpt>
      <trkpt lat="48.63834" lon="2.55756">
        <ele>80</ele>
        <time>2026-05-31T08:41:56.442+00:00</time>
      </trkpt>
      <trkpt lat="48.63833" lon="2.55765">
        <ele>80</ele>
        <time>2026-05-31T08:42:00.786+00:00</time>
      </trkpt>
      <trkpt lat="48.63835" lon="2.55775">
        <ele>80</ele>
        <time>2026-05-31T08:42:04.900+00:00</time>
      </trkpt>
      <trkpt lat="48.63836" lon="2.55782">
        <ele>80</ele>
        <time>2026-05-31T08:42:09.320+00:00</time>
      </trkpt>
      <trkpt lat="48.63837" lon="2.5579">
        <ele>80</ele>
        <time>2026-05-31T08:42:13.485+00:00</time>
      </trkpt>
      <trkpt lat="48.63839" lon="2.55799">
        <ele>80</ele>
        <time>2026-05-31T08:42:18.563+00:00</time>
      </trkpt>
      <trkpt lat="48.63841" lon="2.55806">
        <ele>80</ele>
        <time>2026-05-31T08:42:22.725+00:00</time>
      </trkpt>
      <trkpt lat="48.63839" lon="2.55814">
        <ele>80</ele>
        <time>2026-05-31T08:42:27.167+00:00</time>
      </trkpt>
      <trkpt lat="48.63836" lon="2.5582">
        <ele>80</ele>
        <time>2026-05-31T08:42:31.609+00:00</time>
      </trkpt>
      <trkpt lat="48.63832" lon="2.55831">
        <ele>80</ele>
        <time>2026-05-31T08:42:35.810+00:00</time>
      </trkpt>
      <trkpt lat="48.63832" lon="2.55831">
        <ele>80</ele>
        <time>2026-05-31T08:42:40.685+00:00</time>
      </trkpt>
      <trkpt lat="48.63831" lon="2.55835">
        <ele>80</ele>
        <time>2026-05-31T08:42:45.426+00:00</time>
      </trkpt>
      <trkpt lat="48.6383" lon="2.55842">
        <ele>80</ele>
        <time>2026-05-31T08:43:20.810+00:00</time>
      </trkpt>
      <trkpt lat="48.63828" lon="2.55849">
        <ele>81</ele>
        <time>2026-05-31T08:43:27.764+00:00</time>
      </trkpt>
      <trkpt lat="48.63827" lon="2.55855">
        <ele>81</ele>
        <time>2026-05-31T08:43:31.810+00:00</time>
      </trkpt>
      <trkpt lat="48.63823" lon="2.5586">
        <ele>81</ele>
        <time>2026-05-31T08:43:35.810+00:00</time>
      </trkpt>
      <trkpt lat="48.63817" lon="2.55861">
        <ele>81</ele>
        <time>2026-05-31T08:43:40.347+00:00</time>
      </trkpt>
      <trkpt lat="48.63811" lon="2.5586">
        <ele>81</ele>
        <time>2026-05-31T08:43:44.810+00:00</time>
      </trkpt>
      <trkpt lat="48.63806" lon="2.55859">
        <ele>81</ele>
        <time>2026-05-31T08:43:49.464+00:00</time>
      </trkpt>
      <trkpt lat="48.63801" lon="2.55859">
        <ele>81</ele>
        <time>2026-05-31T08:43:53.810+00:00</time>
      </trkpt>
      <trkpt lat="48.63796" lon="2.55862">
        <ele>81</ele>
        <time>2026-05-31T08:43:58.643+00:00</time>
      </trkpt>
      <trkpt lat="48.63794" lon="2.55871">
        <ele>81</ele>
        <time>2026-05-31T08:44:03.046+00:00</time>
      </trkpt>
      <trkpt lat="48.63792" lon="2.55877">
        <ele>82</ele>
        <time>2026-05-31T08:44:07.509+00:00</time>
      </trkpt>
      <trkpt lat="48.6379" lon="2.55885">
        <ele>82</ele>
        <time>2026-05-31T08:44:11.976+00:00</time>
      </trkpt>
      <trkpt lat="48.63788" lon="2.55894">
        <ele>82</ele>
        <time>2026-05-31T08:44:16.787+00:00</time>
      </trkpt>
      <trkpt lat="48.63786" lon="2.55902">
        <ele>82</ele>
        <time>2026-05-31T08:44:20.810+00:00</time>
      </trkpt>
      <trkpt lat="48.63783" lon="2.55909">
        <ele>82</ele>
        <time>2026-05-31T08:44:25.810+00:00</time>
      </trkpt>
      <trkpt lat="48.63782" lon="2.55916">
        <ele>82</ele>
        <time>2026-05-31T08:44:30.584+00:00</time>
      </trkpt>
      <trkpt lat="48.6378" lon="2.55924">
        <ele>82</ele>
        <time>2026-05-31T08:44:35.643+00:00</time>
      </trkpt>
      <trkpt lat="48.63776" lon="2.5593">
        <ele>82</ele>
        <time>2026-05-31T08:44:39.810+00:00</time>
      </trkpt>
      <trkpt lat="48.63773" lon="2.55937">
        <ele>82</ele>
        <time>2026-05-31T08:44:43.810+00:00</time>
      </trkpt>
      <trkpt lat="48.6377" lon="2.55942">
        <ele>82</ele>
        <time>2026-05-31T08:44:48.189+00:00</time>
      </trkpt>
      <trkpt lat="48.63764" lon="2.55947">
        <ele>82</ele>
        <time>2026-05-31T08:44:52.645+00:00</time>
      </trkpt>
      <trkpt lat="48.6376" lon="2.5595">
        <ele>81</ele>
        <time>2026-05-31T08:44:56.667+00:00</time>
      </trkpt>
      <trkpt lat="48.63756" lon="2.55956">
        <ele>81</ele>
        <time>2026-05-31T08:45:00.809+00:00</time>
      </trkpt>
      <trkpt lat="48.63752" lon="2.55962">
        <ele>81</ele>
        <time>2026-05-31T08:45:05.562+00:00</time>
      </trkpt>
      <trkpt lat="48.63749" lon="2.5597">
        <ele>81</ele>
        <time>2026-05-31T08:45:09.809+00:00</time>
      </trkpt>
      <trkpt lat="48.63747" lon="2.55976">
        <ele>81</ele>
        <time>2026-05-31T08:45:14.281+00:00</time>
      </trkpt>
      <trkpt lat="48.63743" lon="2.55982">
        <ele>81</ele>
        <time>2026-05-31T08:45:18.626+00:00</time>
      </trkpt>
      <trkpt lat="48.63739" lon="2.55987">
        <ele>81</ele>
        <time>2026-05-31T08:45:23.125+00:00</time>
      </trkpt>
      <trkpt lat="48.63734" lon="2.55991">
        <ele>82</ele>
        <time>2026-05-31T08:45:27.594+00:00</time>
      </trkpt>
      <trkpt lat="48.63729" lon="2.55995">
        <ele>82</ele>
        <time>2026-05-31T08:45:31.809+00:00</time>
      </trkpt>
      <trkpt lat="48.63725" lon="2.55999">
        <ele>82</ele>
        <time>2026-05-31T08:45:35.902+00:00</time>
      </trkpt>
      <trkpt lat="48.63722" lon="2.56005">
        <ele>82</ele>
        <time>2026-05-31T08:45:40.306+00:00</time>
      </trkpt>
      <trkpt lat="48.6372" lon="2.56015">
        <ele>82</ele>
        <time>2026-05-31T08:45:44.323+00:00</time>
      </trkpt>
      <trkpt lat="48.63717" lon="2.56021">
        <ele>82</ele>
        <time>2026-05-31T08:45:48.726+00:00</time>
      </trkpt>
      <trkpt lat="48.63713" lon="2.56027">
        <ele>82</ele>
        <time>2026-05-31T08:45:52.809+00:00</time>
      </trkpt>
      <trkpt lat="48.63709" lon="2.56033">
        <ele>82</ele>
        <time>2026-05-31T08:45:57.765+00:00</time>
      </trkpt>
      <trkpt lat="48.63705" lon="2.56038">
        <ele>81</ele>
        <time>2026-05-31T08:46:01.809+00:00</time>
      </trkpt>
      <trkpt lat="48.63702" lon="2.56045">
        <ele>81</ele>
        <time>2026-05-31T08:46:06.368+00:00</time>
      </trkpt>
      <trkpt lat="48.63699" lon="2.56051">
        <ele>81</ele>
        <time>2026-05-31T08:46:10.783+00:00</time>
      </trkpt>
      <trkpt lat="48.63695" lon="2.56056">
        <ele>81</ele>
        <time>2026-05-31T08:46:15.185+00:00</time>
      </trkpt>
      <trkpt lat="48.63689" lon="2.5606">
        <ele>81</ele>
        <time>2026-05-31T08:46:19.666+00:00</time>
      </trkpt>
      <trkpt lat="48.63685" lon="2.56065">
        <ele>81</ele>
        <time>2026-05-31T08:46:24.205+00:00</time>
      </trkpt>
      <trkpt lat="48.63681" lon="2.5607">
        <ele>81</ele>
        <time>2026-05-31T08:46:28.588+00:00</time>
      </trkpt>
      <trkpt lat="48.63678" lon="2.56077">
        <ele>81</ele>
        <time>2026-05-31T08:46:33.108+00:00</time>
      </trkpt>
      <trkpt lat="48.63675" lon="2.56084">
        <ele>81</ele>
        <time>2026-05-31T08:46:37.627+00:00</time>
      </trkpt>
      <trkpt lat="48.63672" lon="2.56091">
        <ele>81</ele>
        <time>2026-05-31T08:46:42.108+00:00</time>
      </trkpt>
      <trkpt lat="48.63668" lon="2.56097">
        <ele>82</ele>
        <time>2026-05-31T08:46:46.401+00:00</time>
      </trkpt>
      <trkpt lat="48.63665" lon="2.56104">
        <ele>82</ele>
        <time>2026-05-31T08:46:50.809+00:00</time>
      </trkpt>
      <trkpt lat="48.63664" lon="2.56112">
        <ele>82</ele>
        <time>2026-05-31T08:46:55.723+00:00</time>
      </trkpt>
      <trkpt lat="48.63664" lon="2.56119">
        <ele>82</ele>
        <time>2026-05-31T08:47:00.069+00:00</time>
      </trkpt>
      <trkpt lat="48.63664" lon="2.56128">
        <ele>83</ele>
        <time>2026-05-31T08:47:04.105+00:00</time>
      </trkpt>
      <trkpt lat="48.63662" lon="2.56136">
        <ele>83</ele>
        <time>2026-05-31T08:47:08.547+00:00</time>
      </trkpt>
      <trkpt lat="48.6366" lon="2.56143">
        <ele>83</ele>
        <time>2026-05-31T08:47:12.809+00:00</time>
      </trkpt>
      <trkpt lat="48.63657" lon="2.56152">
        <ele>83</ele>
        <time>2026-05-31T08:47:17.267+00:00</time>
      </trkpt>
      <trkpt lat="48.63654" lon="2.56158">
        <ele>83</ele>
        <time>2026-05-31T08:47:21.728+00:00</time>
      </trkpt>
      <trkpt lat="48.63652" lon="2.56166">
        <ele>82</ele>
        <time>2026-05-31T08:47:25.809+00:00</time>
      </trkpt>
      <trkpt lat="48.6365" lon="2.56174">
        <ele>82</ele>
        <time>2026-05-31T08:47:30.564+00:00</time>
      </trkpt>
      <trkpt lat="48.63647" lon="2.5618">
        <ele>82</ele>
        <time>2026-05-31T08:47:34.809+00:00</time>
      </trkpt>
      <trkpt lat="48.63643" lon="2.56188">
        <ele>81</ele>
        <time>2026-05-31T08:47:39.343+00:00</time>
      </trkpt>
      <trkpt lat="48.63639" lon="2.56195">
        <ele>81</ele>
        <time>2026-05-31T08:47:43.809+00:00</time>
      </trkpt>
      <trkpt lat="48.63637" lon="2.56202">
        <ele>81</ele>
        <time>2026-05-31T08:47:48.447+00:00</time>
      </trkpt>
      <trkpt lat="48.63635" lon="2.56211">
        <ele>81</ele>
        <time>2026-05-31T08:47:53.546+00:00</time>
      </trkpt>
      <trkpt lat="48.63635" lon="2.56219">
        <ele>81</ele>
        <time>2026-05-31T08:47:57.967+00:00</time>
      </trkpt>
      <trkpt lat="48.63634" lon="2.56227">
        <ele>81</ele>
        <time>2026-05-31T08:48:02.342+00:00</time>
      </trkpt>
      <trkpt lat="48.63631" lon="2.56235">
        <ele>81</ele>
        <time>2026-05-31T08:48:06.808+00:00</time>
      </trkpt>
      <trkpt lat="48.63631" lon="2.56243">
        <ele>82</ele>
        <time>2026-05-31T08:48:11.265+00:00</time>
      </trkpt>
      <trkpt lat="48.63631" lon="2.56251">
        <ele>82</ele>
        <time>2026-05-31T08:48:15.621+00:00</time>
      </trkpt>
      <trkpt lat="48.63635" lon="2.56258">
        <ele>82</ele>
        <time>2026-05-31T08:48:19.809+00:00</time>
      </trkpt>
      <trkpt lat="48.63641" lon="2.56261">
        <ele>82</ele>
        <time>2026-05-31T08:48:24.395+00:00</time>
      </trkpt>
      <trkpt lat="48.63646" lon="2.56263">
        <ele>82</ele>
        <time>2026-05-31T08:48:28.809+00:00</time>
      </trkpt>
      <trkpt lat="48.63651" lon="2.56265">
        <ele>85</ele>
        <time>2026-05-31T08:48:33.322+00:00</time>
      </trkpt>
      <trkpt lat="48.63656" lon="2.56268">
        <ele>84</ele>
        <time>2026-05-31T08:48:37.723+00:00</time>
      </trkpt>
      <trkpt lat="48.63661" lon="2.56274">
        <ele>84</ele>
        <time>2026-05-31T08:48:42.040+00:00</time>
      </trkpt>
      <trkpt lat="48.63666" lon="2.56279">
        <ele>84</ele>
        <time>2026-05-31T08:48:46.400+00:00</time>
      </trkpt>
      <trkpt lat="48.6367" lon="2.56283">
        <ele>84</ele>
        <time>2026-05-31T08:48:50.809+00:00</time>
      </trkpt>
      <trkpt lat="48.63675" lon="2.56287">
        <ele>84</ele>
        <time>2026-05-31T08:48:55.289+00:00</time>
      </trkpt>
      <trkpt lat="48.6368" lon="2.56291">
        <ele>84</ele>
        <time>2026-05-31T08:48:59.682+00:00</time>
      </trkpt>
      <trkpt lat="48.63684" lon="2.56295">
        <ele>85</ele>
        <time>2026-05-31T08:49:04.070+00:00</time>
      </trkpt>
      <trkpt lat="48.63688" lon="2.56301">
        <ele>85</ele>
        <time>2026-05-31T08:49:08.565+00:00</time>
      </trkpt>
      <trkpt lat="48.63693" lon="2.56307">
        <ele>85</ele>
        <time>2026-05-31T08:49:12.808+00:00</time>
      </trkpt>
      <trkpt lat="48.63696" lon="2.56315">
        <ele>85</ele>
        <time>2026-05-31T08:49:16.809+00:00</time>
      </trkpt>
      <trkpt lat="48.63698" lon="2.56323">
        <ele>86</ele>
        <time>2026-05-31T08:49:21.809+00:00</time>
      </trkpt>
      <trkpt lat="48.637" lon="2.5633">
        <ele>86</ele>
        <time>2026-05-31T08:49:26.343+00:00</time>
      </trkpt>
      <trkpt lat="48.63702" lon="2.56336">
        <ele>86</ele>
        <time>2026-05-31T08:49:30.804+00:00</time>
      </trkpt>
      <trkpt lat="48.63706" lon="2.56341">
        <ele>86</ele>
        <time>2026-05-31T08:49:35.045+00:00</time>
      </trkpt>
      <trkpt lat="48.63709" lon="2.56349">
        <ele>85</ele>
        <time>2026-05-31T08:49:39.101+00:00</time>
      </trkpt>
      <trkpt lat="48.63708" lon="2.56356">
        <ele>88</ele>
        <time>2026-05-31T08:49:43.264+00:00</time>
      </trkpt>
      <trkpt lat="48.63707" lon="2.56364">
        <ele>88</ele>
        <time>2026-05-31T08:49:47.635+00:00</time>
      </trkpt>
      <trkpt lat="48.63706" lon="2.56371">
        <ele>88</ele>
        <time>2026-05-31T08:49:52.283+00:00</time>
      </trkpt>
      <trkpt lat="48.63704" lon="2.56379">
        <ele>87</ele>
        <time>2026-05-31T08:49:56.744+00:00</time>
      </trkpt>
      <trkpt lat="48.63703" lon="2.56387">
        <ele>87</ele>
        <time>2026-05-31T08:50:01.205+00:00</time>
      </trkpt>
      <trkpt lat="48.63702" lon="2.56395">
        <ele>87</ele>
        <time>2026-05-31T08:50:05.647+00:00</time>
      </trkpt>
      <trkpt lat="48.63701" lon="2.56404">
        <ele>86</ele>
        <time>2026-05-31T08:50:10.089+00:00</time>
      </trkpt>
      <trkpt lat="48.63701" lon="2.56411">
        <ele>86</ele>
        <time>2026-05-31T08:50:14.627+00:00</time>
      </trkpt>
      <trkpt lat="48.637" lon="2.56419">
        <ele>86</ele>
        <time>2026-05-31T08:50:19.127+00:00</time>
      </trkpt>
      <trkpt lat="48.63699" lon="2.56428">
        <ele>86</ele>
        <time>2026-05-31T08:50:23.570+00:00</time>
      </trkpt>
      <trkpt lat="48.63697" lon="2.56435">
        <ele>85</ele>
        <time>2026-05-31T08:50:27.809+00:00</time>
      </trkpt>
      <trkpt lat="48.63695" lon="2.56445">
        <ele>85</ele>
        <time>2026-05-31T08:50:32.390+00:00</time>
      </trkpt>
      <trkpt lat="48.63694" lon="2.56452">
        <ele>85</ele>
        <time>2026-05-31T08:50:36.789+00:00</time>
      </trkpt>
      <trkpt lat="48.63692" lon="2.56459">
        <ele>84</ele>
        <time>2026-05-31T08:50:40.809+00:00</time>
      </trkpt>
      <trkpt lat="48.63691" lon="2.56466">
        <ele>84</ele>
        <time>2026-05-31T08:50:45.741+00:00</time>
      </trkpt>
      <trkpt lat="48.63689" lon="2.56473">
        <ele>84</ele>
        <time>2026-05-31T08:50:49.809+00:00</time>
      </trkpt>
      <trkpt lat="48.63687" lon="2.5648">
        <ele>84</ele>
        <time>2026-05-31T08:50:54.161+00:00</time>
      </trkpt>
      <trkpt lat="48.63684" lon="2.56488">
        <ele>85</ele>
        <time>2026-05-31T08:50:58.320+00:00</time>
      </trkpt>
      <trkpt lat="48.63681" lon="2.56493">
        <ele>85</ele>
        <time>2026-05-31T08:51:02.785+00:00</time>
      </trkpt>
      <trkpt lat="48.63679" lon="2.56499">
        <ele>85</ele>
        <time>2026-05-31T08:51:06.809+00:00</time>
      </trkpt>
      <trkpt lat="48.63676" lon="2.56505">
        <ele>85</ele>
        <time>2026-05-31T08:51:11.809+00:00</time>
      </trkpt>
      <trkpt lat="48.63677" lon="2.5651">
        <ele>85</ele>
        <time>2026-05-31T08:51:16.303+00:00</time>
      </trkpt>
      <trkpt lat="48.63678" lon="2.56516">
        <ele>85</ele>
        <time>2026-05-31T08:51:20.482+00:00</time>
      </trkpt>
      <trkpt lat="48.63678" lon="2.56523">
        <ele>85</ele>
        <time>2026-05-31T08:51:24.705+00:00</time>
      </trkpt>
      <trkpt lat="48.63678" lon="2.5653">
        <ele>85</ele>
        <time>2026-05-31T08:51:28.704+00:00</time>
      </trkpt>
      <trkpt lat="48.63679" lon="2.56537">
        <ele>85</ele>
        <time>2026-05-31T08:51:32.808+00:00</time>
      </trkpt>
      <trkpt lat="48.6368" lon="2.56544">
        <ele>85</ele>
        <time>2026-05-31T08:51:37.390+00:00</time>
      </trkpt>
      <trkpt lat="48.6368" lon="2.5655">
        <ele>85</ele>
        <time>2026-05-31T08:51:41.547+00:00</time>
      </trkpt>
      <trkpt lat="48.63681" lon="2.56557">
        <ele>84</ele>
        <time>2026-05-31T08:51:46.182+00:00</time>
      </trkpt>
      <trkpt lat="48.6368" lon="2.56564">
        <ele>85</ele>
        <time>2026-05-31T08:51:50.789+00:00</time>
      </trkpt>
      <trkpt lat="48.63682" lon="2.56571">
        <ele>84</ele>
        <time>2026-05-31T08:51:54.807+00:00</time>
      </trkpt>
      <trkpt lat="48.63685" lon="2.56578">
        <ele>84</ele>
        <time>2026-05-31T08:51:59.364+00:00</time>
      </trkpt>
      <trkpt lat="48.63687" lon="2.56586">
        <ele>84</ele>
        <time>2026-05-31T08:52:03.380+00:00</time>
      </trkpt>
      <trkpt lat="48.63688" lon="2.56595">
        <ele>84</ele>
        <time>2026-05-31T08:52:07.808+00:00</time>
      </trkpt>
      <trkpt lat="48.63688" lon="2.56602">
        <ele>85</ele>
        <time>2026-05-31T08:52:12.468+00:00</time>
      </trkpt>
      <trkpt lat="48.63687" lon="2.56608">
        <ele>85</ele>
        <time>2026-05-31T08:52:16.807+00:00</time>
      </trkpt>
      <trkpt lat="48.63686" lon="2.56614">
        <ele>85</ele>
        <time>2026-05-31T08:52:20.928+00:00</time>
      </trkpt>
      <trkpt lat="48.63682" lon="2.56618">
        <ele>85</ele>
        <time>2026-05-31T08:52:25.361+00:00</time>
      </trkpt>
      <trkpt lat="48.63677" lon="2.56621">
        <ele>85</ele>
        <time>2026-05-31T08:52:29.369+00:00</time>
      </trkpt>
      <trkpt lat="48.63674" lon="2.56623">
        <ele>85</ele>
        <time>2026-05-31T08:52:33.399+00:00</time>
      </trkpt>
      <trkpt lat="48.63671" lon="2.56629">
        <ele>84</ele>
        <time>2026-05-31T08:52:37.588+00:00</time>
      </trkpt>
      <trkpt lat="48.63669" lon="2.56637">
        <ele>84</ele>
        <time>2026-05-31T08:52:42.808+00:00</time>
      </trkpt>
      <trkpt lat="48.63667" lon="2.56643">
        <ele>84</ele>
        <time>2026-05-31T08:52:47.222+00:00</time>
      </trkpt>
      <trkpt lat="48.63664" lon="2.56647">
        <ele>84</ele>
        <time>2026-05-31T08:52:51.348+00:00</time>
      </trkpt>
      <trkpt lat="48.6366" lon="2.56651">
        <ele>84</ele>
        <time>2026-05-31T08:52:55.808+00:00</time>
      </trkpt>
      <trkpt lat="48.63655" lon="2.56652">
        <ele>84</ele>
        <time>2026-05-31T08:53:00.242+00:00</time>
      </trkpt>
      <trkpt lat="48.6365" lon="2.56656">
        <ele>83</ele>
        <time>2026-05-31T08:53:04.808+00:00</time>
      </trkpt>
      <trkpt lat="48.63644" lon="2.56659">
        <ele>83</ele>
        <time>2026-05-31T08:53:09.683+00:00</time>
      </trkpt>
      <trkpt lat="48.63639" lon="2.56663">
        <ele>83</ele>
        <time>2026-05-31T08:53:13.807+00:00</time>
      </trkpt>
      <trkpt lat="48.63634" lon="2.56666">
        <ele>83</ele>
        <time>2026-05-31T08:53:18.587+00:00</time>
      </trkpt>
      <trkpt lat="48.63629" lon="2.56667">
        <ele>83</ele>
        <time>2026-05-31T08:53:22.663+00:00</time>
      </trkpt>
      <trkpt lat="48.63625" lon="2.56669">
        <ele>83</ele>
        <time>2026-05-31T08:53:27.261+00:00</time>
      </trkpt>
      <trkpt lat="48.6362" lon="2.56674">
        <ele>83</ele>
        <time>2026-05-31T08:53:31.280+00:00</time>
      </trkpt>
      <trkpt lat="48.63617" lon="2.56679">
        <ele>83</ele>
        <time>2026-05-31T08:53:35.385+00:00</time>
      </trkpt>
      <trkpt lat="48.63613" lon="2.56684">
        <ele>83</ele>
        <time>2026-05-31T08:53:39.943+00:00</time>
      </trkpt>
      <trkpt lat="48.63608" lon="2.56689">
        <ele>83</ele>
        <time>2026-05-31T08:53:44.560+00:00</time>
      </trkpt>
      <trkpt lat="48.63604" lon="2.56693">
        <ele>83</ele>
        <time>2026-05-31T08:53:48.646+00:00</time>
      </trkpt>
      <trkpt lat="48.636" lon="2.56697">
        <ele>83</ele>
        <time>2026-05-31T08:53:53.341+00:00</time>
      </trkpt>
      <trkpt lat="48.63596" lon="2.56702">
        <ele>85</ele>
        <time>2026-05-31T08:53:57.484+00:00</time>
      </trkpt>
      <trkpt lat="48.63592" lon="2.56706">
        <ele>85</ele>
        <time>2026-05-31T08:54:01.808+00:00</time>
      </trkpt>
      <trkpt lat="48.63587" lon="2.5671">
        <ele>85</ele>
        <time>2026-05-31T08:54:06.641+00:00</time>
      </trkpt>
      <trkpt lat="48.63584" lon="2.56714">
        <ele>85</ele>
        <time>2026-05-31T08:54:10.706+00:00</time>
      </trkpt>
      <trkpt lat="48.63579" lon="2.56719">
        <ele>85</ele>
        <time>2026-05-31T08:54:14.807+00:00</time>
      </trkpt>
      <trkpt lat="48.63574" lon="2.56723">
        <ele>85</ele>
        <time>2026-05-31T08:54:19.467+00:00</time>
      </trkpt>
      <trkpt lat="48.63569" lon="2.56728">
        <ele>86</ele>
        <time>2026-05-31T08:54:23.929+00:00</time>
      </trkpt>
      <trkpt lat="48.63565" lon="2.56733">
        <ele>86</ele>
        <time>2026-05-31T08:54:28.448+00:00</time>
      </trkpt>
      <trkpt lat="48.6356" lon="2.56737">
        <ele>85</ele>
        <time>2026-05-31T08:54:32.808+00:00</time>
      </trkpt>
      <trkpt lat="48.63555" lon="2.5674">
        <ele>85</ele>
        <time>2026-05-31T08:54:37.401+00:00</time>
      </trkpt>
      <trkpt lat="48.6355" lon="2.56744">
        <ele>85</ele>
        <time>2026-05-31T08:54:41.863+00:00</time>
      </trkpt>
      <trkpt lat="48.63545" lon="2.56749">
        <ele>85</ele>
        <time>2026-05-31T08:54:46.508+00:00</time>
      </trkpt>
      <trkpt lat="48.6354" lon="2.56753">
        <ele>85</ele>
        <time>2026-05-31T08:54:51.067+00:00</time>
      </trkpt>
      <trkpt lat="48.63536" lon="2.56757">
        <ele>85</ele>
        <time>2026-05-31T08:54:55.702+00:00</time>
      </trkpt>
      <trkpt lat="48.63532" lon="2.56759">
        <ele>85</ele>
        <time>2026-05-31T08:55:00.165+00:00</time>
      </trkpt>
      <trkpt lat="48.63528" lon="2.56762">
        <ele>85</ele>
        <time>2026-05-31T08:55:04.808+00:00</time>
      </trkpt>
      <trkpt lat="48.63524" lon="2.56767">
        <ele>83</ele>
        <time>2026-05-31T08:55:09.341+00:00</time>
      </trkpt>
      <trkpt lat="48.63519" lon="2.56772">
        <ele>83</ele>
        <time>2026-05-31T08:55:13.427+00:00</time>
      </trkpt>
      <trkpt lat="48.63515" lon="2.56777">
        <ele>83</ele>
        <time>2026-05-31T08:55:17.522+00:00</time>
      </trkpt>
      <trkpt lat="48.63511" lon="2.56782">
        <ele>82</ele>
        <time>2026-05-31T08:55:21.808+00:00</time>
      </trkpt>
      <trkpt lat="48.63506" lon="2.56787">
        <ele>82</ele>
        <time>2026-05-31T08:55:26.387+00:00</time>
      </trkpt>
      <trkpt lat="48.63502" lon="2.56791">
        <ele>82</ele>
        <time>2026-05-31T08:55:30.808+00:00</time>
      </trkpt>
      <trkpt lat="48.63491" lon="2.56803">
        <ele>81</ele>
        <time>2026-05-31T08:55:34.848+00:00</time>
      </trkpt>
      <trkpt lat="48.63491" lon="2.56803">
        <ele>81</ele>
        <time>2026-05-31T08:55:39.406+00:00</time>
      </trkpt>
      <trkpt lat="48.63489" lon="2.56805">
        <ele>81</ele>
        <time>2026-05-31T08:55:43.520+00:00</time>
      </trkpt>
      <trkpt lat="48.63485" lon="2.56809">
        <ele>83</ele>
        <time>2026-05-31T09:09:11.805+00:00</time>
      </trkpt>
      <trkpt lat="48.63481" lon="2.56811">
        <ele>83</ele>
        <time>2026-05-31T09:09:18.451+00:00</time>
      </trkpt>
      <trkpt lat="48.63477" lon="2.56815">
        <ele>83</ele>
        <time>2026-05-31T09:09:22.804+00:00</time>
      </trkpt>
      <trkpt lat="48.63473" lon="2.56817">
        <ele>83</ele>
        <time>2026-05-31T09:09:27.230+00:00</time>
      </trkpt>
      <trkpt lat="48.6347" lon="2.5682">
        <ele>83</ele>
        <time>2026-05-31T09:09:31.805+00:00</time>
      </trkpt>
      <trkpt lat="48.63466" lon="2.56823">
        <ele>83</ele>
        <time>2026-05-31T09:09:36.154+00:00</time>
      </trkpt>
      <trkpt lat="48.63462" lon="2.56826">
        <ele>83</ele>
        <time>2026-05-31T09:09:40.673+00:00</time>
      </trkpt>
      <trkpt lat="48.63457" lon="2.5683">
        <ele>85</ele>
        <time>2026-05-31T09:09:44.805+00:00</time>
      </trkpt>
      <trkpt lat="48.63453" lon="2.56833">
        <ele>85</ele>
        <time>2026-05-31T09:09:49.115+00:00</time>
      </trkpt>
      <trkpt lat="48.63448" lon="2.56836">
        <ele>85</ele>
        <time>2026-05-31T09:09:53.351+00:00</time>
      </trkpt>
      <trkpt lat="48.63444" lon="2.56839">
        <ele>85</ele>
        <time>2026-05-31T09:09:57.452+00:00</time>
      </trkpt>
      <trkpt lat="48.63441" lon="2.56836">
        <ele>85</ele>
        <time>2026-05-31T09:10:01.632+00:00</time>
      </trkpt>
      <trkpt lat="48.63437" lon="2.56835">
        <ele>85</ele>
        <time>2026-05-31T09:10:06.190+00:00</time>
      </trkpt>
      <trkpt lat="48.63431" lon="2.56846">
        <ele>85</ele>
        <time>2026-05-31T09:10:10.690+00:00</time>
      </trkpt>
      <trkpt lat="48.63425" lon="2.56849">
        <ele>85</ele>
        <time>2026-05-31T09:10:15.451+00:00</time>
      </trkpt>
      <trkpt lat="48.6342" lon="2.56851">
        <ele>85</ele>
        <time>2026-05-31T09:10:19.634+00:00</time>
      </trkpt>
      <trkpt lat="48.63417" lon="2.56855">
        <ele>85</ele>
        <time>2026-05-31T09:10:24.114+00:00</time>
      </trkpt>
      <trkpt lat="48.63412" lon="2.56859">
        <ele>85</ele>
        <time>2026-05-31T09:10:28.598+00:00</time>
      </trkpt>
      <trkpt lat="48.63406" lon="2.56862">
        <ele>85</ele>
        <time>2026-05-31T09:10:33.191+00:00</time>
      </trkpt>
      <trkpt lat="48.63401" lon="2.56863">
        <ele>85</ele>
        <time>2026-05-31T09:10:37.561+00:00</time>
      </trkpt>
      <trkpt lat="48.63396" lon="2.56866">
        <ele>85</ele>
        <time>2026-05-31T09:10:41.803+00:00</time>
      </trkpt>
      <trkpt lat="48.63391" lon="2.56869">
        <ele>85</ele>
        <time>2026-05-31T09:10:46.317+00:00</time>
      </trkpt>
      <trkpt lat="48.63386" lon="2.56872">
        <ele>85</ele>
        <time>2026-05-31T09:10:50.710+00:00</time>
      </trkpt>
      <trkpt lat="48.63381" lon="2.56876">
        <ele>84</ele>
        <time>2026-05-31T09:10:54.804+00:00</time>
      </trkpt>
      <trkpt lat="48.63376" lon="2.56878">
        <ele>84</ele>
        <time>2026-05-31T09:10:59.470+00:00</time>
      </trkpt>
      <trkpt lat="48.63372" lon="2.5688">
        <ele>83</ele>
        <time>2026-05-31T09:11:03.804+00:00</time>
      </trkpt>
      <trkpt lat="48.63367" lon="2.56881">
        <ele>83</ele>
        <time>2026-05-31T09:11:08.578+00:00</time>
      </trkpt>
      <trkpt lat="48.63362" lon="2.56883">
        <ele>83</ele>
        <time>2026-05-31T09:11:12.653+00:00</time>
      </trkpt>
      <trkpt lat="48.63357" lon="2.56884">
        <ele>83</ele>
        <time>2026-05-31T09:11:16.804+00:00</time>
      </trkpt>
      <trkpt lat="48.63352" lon="2.56887">
        <ele>83</ele>
        <time>2026-05-31T09:11:21.452+00:00</time>
      </trkpt>
      <trkpt lat="48.63347" lon="2.56889">
        <ele>83</ele>
        <time>2026-05-31T09:11:25.804+00:00</time>
      </trkpt>
      <trkpt lat="48.63342" lon="2.56891">
        <ele>83</ele>
        <time>2026-05-31T09:11:30.336+00:00</time>
      </trkpt>
      <trkpt lat="48.63338" lon="2.56896">
        <ele>83</ele>
        <time>2026-05-31T09:11:34.691+00:00</time>
      </trkpt>
      <trkpt lat="48.63334" lon="2.56899">
        <ele>83</ele>
        <time>2026-05-31T09:11:39.317+00:00</time>
      </trkpt>
      <trkpt lat="48.6333" lon="2.56904">
        <ele>82</ele>
        <time>2026-05-31T09:11:43.803+00:00</time>
      </trkpt>
      <trkpt lat="48.63326" lon="2.56909">
        <ele>82</ele>
        <time>2026-05-31T09:11:48.356+00:00</time>
      </trkpt>
      <trkpt lat="48.63322" lon="2.56916">
        <ele>82</ele>
        <time>2026-05-31T09:11:52.751+00:00</time>
      </trkpt>
      <trkpt lat="48.6332" lon="2.56922">
        <ele>82</ele>
        <time>2026-05-31T09:11:57.097+00:00</time>
      </trkpt>
      <trkpt lat="48.63317" lon="2.56929">
        <ele>83</ele>
        <time>2026-05-31T09:12:01.453+00:00</time>
      </trkpt>
      <trkpt lat="48.63314" lon="2.56935">
        <ele>82</ele>
        <time>2026-05-31T09:12:05.804+00:00</time>
      </trkpt>
      <trkpt lat="48.63311" lon="2.56941">
        <ele>82</ele>
        <time>2026-05-31T09:12:10.211+00:00</time>
      </trkpt>
      <trkpt lat="48.63309" lon="2.56948">
        <ele>82</ele>
        <time>2026-05-31T09:12:14.712+00:00</time>
      </trkpt>
      <trkpt lat="48.63308" lon="2.56955">
        <ele>82</ele>
        <time>2026-05-31T09:12:19.116+00:00</time>
      </trkpt>
      <trkpt lat="48.63306" lon="2.56963">
        <ele>82</ele>
        <time>2026-05-31T09:12:23.578+00:00</time>
      </trkpt>
      <trkpt lat="48.63304" lon="2.56971">
        <ele>82</ele>
        <time>2026-05-31T09:12:27.803+00:00</time>
      </trkpt>
      <trkpt lat="48.63302" lon="2.56978">
        <ele>82</ele>
        <time>2026-05-31T09:12:31.804+00:00</time>
      </trkpt>
      <trkpt lat="48.633" lon="2.56984">
        <ele>82</ele>
        <time>2026-05-31T09:12:36.803+00:00</time>
      </trkpt>
      <trkpt lat="48.63298" lon="2.56991">
        <ele>82</ele>
        <time>2026-05-31T09:12:41.232+00:00</time>
      </trkpt>
      <trkpt lat="48.63297" lon="2.56998">
        <ele>82</ele>
        <time>2026-05-31T09:12:45.597+00:00</time>
      </trkpt>
      <trkpt lat="48.63296" lon="2.57002">
        <ele>82</ele>
        <time>2026-05-31T09:12:49.804+00:00</time>
      </trkpt>
      <trkpt lat="48.63301" lon="2.57008">
        <ele>82</ele>
        <time>2026-05-31T09:12:54.804+00:00</time>
      </trkpt>
      <trkpt lat="48.63303" lon="2.57014">
        <ele>83</ele>
        <time>2026-05-31T09:12:59.631+00:00</time>
      </trkpt>
      <trkpt lat="48.63303" lon="2.57014">
        <ele>83</ele>
        <time>2026-05-31T09:13:03.804+00:00</time>
      </trkpt>
      <trkpt lat="48.63303" lon="2.57014">
        <ele>83</ele>
        <time>2026-05-31T09:13:13.808+00:00</time>
      </trkpt>
      <trkpt lat="48.63308" lon="2.57017">
        <ele>83</ele>
        <time>2026-05-31T09:13:17.804+00:00</time>
      </trkpt>
      <trkpt lat="48.63314" lon="2.5702">
        <ele>83</ele>
        <time>2026-05-31T09:13:21.804+00:00</time>
      </trkpt>
      <trkpt lat="48.63309" lon="2.57016">
        <ele>83</ele>
        <time>2026-05-31T09:13:26.804+00:00</time>
      </trkpt>
      <trkpt lat="48.63304" lon="2.57013">
        <ele>82</ele>
        <time>2026-05-31T09:13:31.609+00:00</time>
      </trkpt>
      <trkpt lat="48.63302" lon="2.5701">
        <ele>82</ele>
        <time>2026-05-31T09:13:52.803+00:00</time>
      </trkpt>
      <trkpt lat="48.633" lon="2.57018">
        <ele>83</ele>
        <time>2026-05-31T09:13:57.111+00:00</time>
      </trkpt>
      <trkpt lat="48.63295" lon="2.57018">
        <ele>83</ele>
        <time>2026-05-31T09:14:01.275+00:00</time>
      </trkpt>
      <trkpt lat="48.63291" lon="2.5702">
        <ele>84</ele>
        <time>2026-05-31T09:14:05.574+00:00</time>
      </trkpt>
      <trkpt lat="48.63292" lon="2.57024">
        <ele>83</ele>
        <time>2026-05-31T09:14:09.804+00:00</time>
      </trkpt>
      <trkpt lat="48.63296" lon="2.57026">
        <ele>83</ele>
        <time>2026-05-31T09:15:13.802+00:00</time>
      </trkpt>
      <trkpt lat="48.633" lon="2.57031">
        <ele>83</ele>
        <time>2026-05-31T09:15:18.300+00:00</time>
      </trkpt>
      <trkpt lat="48.63303" lon="2.57037">
        <ele>83</ele>
        <time>2026-05-31T09:15:22.522+00:00</time>
      </trkpt>
      <trkpt lat="48.63305" lon="2.57044">
        <ele>83</ele>
        <time>2026-05-31T09:15:26.742+00:00</time>
      </trkpt>
      <trkpt lat="48.63308" lon="2.57052">
        <ele>83</ele>
        <time>2026-05-31T09:15:31.434+00:00</time>
      </trkpt>
      <trkpt lat="48.63309" lon="2.5706">
        <ele>83</ele>
        <time>2026-05-31T09:15:35.803+00:00</time>
      </trkpt>
      <trkpt lat="48.63308" lon="2.57069">
        <ele>82</ele>
        <time>2026-05-31T09:15:40.618+00:00</time>
      </trkpt>
      <trkpt lat="48.63307" lon="2.57078">
        <ele>82</ele>
        <time>2026-05-31T09:15:45.234+00:00</time>
      </trkpt>
      <trkpt lat="48.63306" lon="2.57087">
        <ele>82</ele>
        <time>2026-05-31T09:15:49.581+00:00</time>
      </trkpt>
      <trkpt lat="48.63307" lon="2.57095">
        <ele>82</ele>
        <time>2026-05-31T09:15:54.041+00:00</time>
      </trkpt>
      <trkpt lat="48.63308" lon="2.57103">
        <ele>82</ele>
        <time>2026-05-31T09:15:58.582+00:00</time>
      </trkpt>
      <trkpt lat="48.63307" lon="2.57112">
        <ele>82</ele>
        <time>2026-05-31T09:16:02.803+00:00</time>
      </trkpt>
      <trkpt lat="48.63307" lon="2.57119">
        <ele>82</ele>
        <time>2026-05-31T09:16:07.494+00:00</time>
      </trkpt>
      <trkpt lat="48.63307" lon="2.57127">
        <ele>82</ele>
        <time>2026-05-31T09:16:11.803+00:00</time>
      </trkpt>
      <trkpt lat="48.63307" lon="2.57136">
        <ele>82</ele>
        <time>2026-05-31T09:16:16.418+00:00</time>
      </trkpt>
      <trkpt lat="48.63307" lon="2.57143">
        <ele>82</ele>
        <time>2026-05-31T09:16:20.802+00:00</time>
      </trkpt>
      <trkpt lat="48.63307" lon="2.57152">
        <ele>82</ele>
        <time>2026-05-31T09:16:25.293+00:00</time>
      </trkpt>
      <trkpt lat="48.63307" lon="2.57159">
        <ele>82</ele>
        <time>2026-05-31T09:16:29.735+00:00</time>
      </trkpt>
      <trkpt lat="48.63309" lon="2.57166">
        <ele>82</ele>
        <time>2026-05-31T09:16:33.803+00:00</time>
      </trkpt>
      <trkpt lat="48.6331" lon="2.57173">
        <ele>82</ele>
        <time>2026-05-31T09:16:38.003+00:00</time>
      </trkpt>
      <trkpt lat="48.6331" lon="2.57181">
        <ele>82</ele>
        <time>2026-05-31T09:16:42.321+00:00</time>
      </trkpt>
      <trkpt lat="48.6331" lon="2.57189">
        <ele>82</ele>
        <time>2026-05-31T09:16:46.342+00:00</time>
      </trkpt>
      <trkpt lat="48.6331" lon="2.57196">
        <ele>82</ele>
        <time>2026-05-31T09:16:50.744+00:00</time>
      </trkpt>
      <trkpt lat="48.6331" lon="2.57203">
        <ele>82</ele>
        <time>2026-05-31T09:16:54.803+00:00</time>
      </trkpt>
      <trkpt lat="48.6331" lon="2.57211">
        <ele>83</ele>
        <time>2026-05-31T09:16:59.027+00:00</time>
      </trkpt>
      <trkpt lat="48.63311" lon="2.57219">
        <ele>83</ele>
        <time>2026-05-31T09:17:03.565+00:00</time>
      </trkpt>
      <trkpt lat="48.63311" lon="2.57226">
        <ele>83</ele>
        <time>2026-05-31T09:17:07.802+00:00</time>
      </trkpt>
      <trkpt lat="48.63308" lon="2.57233">
        <ele>83</ele>
        <time>2026-05-31T09:17:12.586+00:00</time>
      </trkpt>
      <trkpt lat="48.63302" lon="2.57234">
        <ele>83</ele>
        <time>2026-05-31T09:17:16.803+00:00</time>
      </trkpt>
      <trkpt lat="48.63296" lon="2.57233">
        <ele>83</ele>
        <time>2026-05-31T09:17:20.803+00:00</time>
      </trkpt>
      <trkpt lat="48.63294" lon="2.57241">
        <ele>84</ele>
        <time>2026-05-31T09:17:25.802+00:00</time>
      </trkpt>
      <trkpt lat="48.63292" lon="2.5725">
        <ele>84</ele>
        <time>2026-05-31T09:17:30.686+00:00</time>
      </trkpt>
      <trkpt lat="48.63289" lon="2.57257">
        <ele>83</ele>
        <time>2026-05-31T09:17:34.803+00:00</time>
      </trkpt>
      <trkpt lat="48.63283" lon="2.57262">
        <ele>83</ele>
        <time>2026-05-31T09:17:56.399+00:00</time>
      </trkpt>
      <trkpt lat="48.63279" lon="2.57267">
        <ele>83</ele>
        <time>2026-05-31T09:18:00.803+00:00</time>
      </trkpt>
      <trkpt lat="48.63275" lon="2.57273">
        <ele>83</ele>
        <time>2026-05-31T09:18:05.803+00:00</time>
      </trkpt>
      <trkpt lat="48.63274" lon="2.5728">
        <ele>83</ele>
        <time>2026-05-31T09:18:10.803+00:00</time>
      </trkpt>
      <trkpt lat="48.63275" lon="2.57286">
        <ele>83</ele>
        <time>2026-05-31T09:18:15.808+00:00</time>
      </trkpt>
      <trkpt lat="48.63272" lon="2.57295">
        <ele>83</ele>
        <time>2026-05-31T09:18:20.801+00:00</time>
      </trkpt>
      <trkpt lat="48.63269" lon="2.57303">
        <ele>83</ele>
        <time>2026-05-31T09:18:25.803+00:00</time>
      </trkpt>
      <trkpt lat="48.63266" lon="2.5731">
        <ele>83</ele>
        <time>2026-05-31T09:18:30.432+00:00</time>
      </trkpt>
      <trkpt lat="48.63263" lon="2.57317">
        <ele>82</ele>
        <time>2026-05-31T09:18:34.803+00:00</time>
      </trkpt>
      <trkpt lat="48.63263" lon="2.57324">
        <ele>82</ele>
        <time>2026-05-31T09:18:39.803+00:00</time>
      </trkpt>
      <trkpt lat="48.63268" lon="2.57327">
        <ele>81</ele>
        <time>2026-05-31T09:18:44.361+00:00</time>
      </trkpt>
      <trkpt lat="48.63274" lon="2.57329">
        <ele>81</ele>
        <time>2026-05-31T09:18:48.570+00:00</time>
      </trkpt>
      <trkpt lat="48.63278" lon="2.57333">
        <ele>81</ele>
        <time>2026-05-31T09:18:53.071+00:00</time>
      </trkpt>
      <trkpt lat="48.63281" lon="2.57339">
        <ele>81</ele>
        <time>2026-05-31T09:18:57.573+00:00</time>
      </trkpt>
      <trkpt lat="48.63283" lon="2.57347">
        <ele>81</ele>
        <time>2026-05-31T09:19:01.802+00:00</time>
      </trkpt>
      <trkpt lat="48.63288" lon="2.57356">
        <ele>80</ele>
        <time>2026-05-31T09:19:06.421+00:00</time>
      </trkpt>
      <trkpt lat="48.63289" lon="2.57356">
        <ele>80</ele>
        <time>2026-05-31T09:19:10.802+00:00</time>
      </trkpt>
      <trkpt lat="48.63289" lon="2.57357">
        <ele>80</ele>
        <time>2026-05-31T09:19:14.873+00:00</time>
      </trkpt>
      <trkpt lat="48.63293" lon="2.57358">
        <ele>81</ele>
        <time>2026-05-31T09:19:19.459+00:00</time>
      </trkpt>
      <trkpt lat="48.63298" lon="2.57365">
        <ele>81</ele>
        <time>2026-05-31T09:19:23.802+00:00</time>
      </trkpt>
      <trkpt lat="48.63296" lon="2.57373">
        <ele>81</ele>
        <time>2026-05-31T09:19:28.354+00:00</time>
      </trkpt>
      <trkpt lat="48.63295" lon="2.57381">
        <ele>80</ele>
        <time>2026-05-31T09:19:43.801+00:00</time>
      </trkpt>
      <trkpt lat="48.63299" lon="2.57386">
        <ele>80</ele>
        <time>2026-05-31T09:19:48.802+00:00</time>
      </trkpt>
      <trkpt lat="48.63304" lon="2.57385">
        <ele>80</ele>
        <time>2026-05-31T09:19:53.255+00:00</time>
      </trkpt>
      <trkpt lat="48.6331" lon="2.57384">
        <ele>80</ele>
        <time>2026-05-31T09:19:57.352+00:00</time>
      </trkpt>
      <trkpt lat="48.63315" lon="2.57382">
        <ele>80</ele>
        <time>2026-05-31T09:20:01.661+00:00</time>
      </trkpt>
      <trkpt lat="48.63318" lon="2.57382">
        <ele>80</ele>
        <time>2026-05-31T09:20:06.181+00:00</time>
      </trkpt>
      <trkpt lat="48.63322" lon="2.57389">
        <ele>81</ele>
        <time>2026-05-31T09:20:10.631+00:00</time>
      </trkpt>
      <trkpt lat="48.63326" lon="2.57393">
        <ele>81</ele>
        <time>2026-05-31T09:20:14.801+00:00</time>
      </trkpt>
      <trkpt lat="48.63332" lon="2.57396">
        <ele>81</ele>
        <time>2026-05-31T09:20:18.802+00:00</time>
      </trkpt>
      <trkpt lat="48.63336" lon="2.57398">
        <ele>81</ele>
        <time>2026-05-31T09:20:23.406+00:00</time>
      </trkpt>
      <trkpt lat="48.63341" lon="2.57402">
        <ele>81</ele>
        <time>2026-05-31T09:20:27.802+00:00</time>
      </trkpt>
      <trkpt lat="48.63345" lon="2.57408">
        <ele>81</ele>
        <time>2026-05-31T09:20:32.778+00:00</time>
      </trkpt>
      <trkpt lat="48.63349" lon="2.57413">
        <ele>83</ele>
        <time>2026-05-31T09:20:36.941+00:00</time>
      </trkpt>
      <trkpt lat="48.63352" lon="2.5742">
        <ele>83</ele>
        <time>2026-05-31T09:20:41.259+00:00</time>
      </trkpt>
      <trkpt lat="48.63355" lon="2.57426">
        <ele>83</ele>
        <time>2026-05-31T09:20:45.256+00:00</time>
      </trkpt>
      <trkpt lat="48.6336" lon="2.57431">
        <ele>83</ele>
        <time>2026-05-31T09:20:49.551+00:00</time>
      </trkpt>
      <trkpt lat="48.63364" lon="2.57434">
        <ele>83</ele>
        <time>2026-05-31T09:20:53.802+00:00</time>
      </trkpt>
      <trkpt lat="48.63368" lon="2.57439">
        <ele>83</ele>
        <time>2026-05-31T09:20:58.161+00:00</time>
      </trkpt>
      <trkpt lat="48.63372" lon="2.57444">
        <ele>83</ele>
        <time>2026-05-31T09:21:02.351+00:00</time>
      </trkpt>
      <trkpt lat="48.63374" lon="2.57452">
        <ele>83</ele>
        <time>2026-05-31T09:21:06.802+00:00</time>
      </trkpt>
      <trkpt lat="48.63377" lon="2.57458">
        <ele>84</ele>
        <time>2026-05-31T09:21:11.439+00:00</time>
      </trkpt>
      <trkpt lat="48.63383" lon="2.57463">
        <ele>83</ele>
        <time>2026-05-31T09:21:16.094+00:00</time>
      </trkpt>
      <trkpt lat="48.63386" lon="2.57469">
        <ele>83</ele>
        <time>2026-05-31T09:21:20.632+00:00</time>
      </trkpt>
      <trkpt lat="48.63388" lon="2.57467">
        <ele>83</ele>
        <time>2026-05-31T09:21:25.054+00:00</time>
      </trkpt>
      <trkpt lat="48.63388" lon="2.57466">
        <ele>83</ele>
        <time>2026-05-31T09:21:29.315+00:00</time>
      </trkpt>
      <trkpt lat="48.63388" lon="2.57466">
        <ele>83</ele>
        <time>2026-05-31T09:21:33.762+00:00</time>
      </trkpt>
      <trkpt lat="48.63393" lon="2.57475">
        <ele>83</ele>
        <time>2026-05-31T09:21:38.715+00:00</time>
      </trkpt>
      <trkpt lat="48.63394" lon="2.57481">
        <ele>83</ele>
        <time>2026-05-31T09:21:43.236+00:00</time>
      </trkpt>
      <trkpt lat="48.63398" lon="2.57488">
        <ele>82</ele>
        <time>2026-05-31T09:21:47.802+00:00</time>
      </trkpt>
      <trkpt lat="48.63402" lon="2.57492">
        <ele>82</ele>
        <time>2026-05-31T09:25:52.801+00:00</time>
      </trkpt>
      <trkpt lat="48.63404" lon="2.57499">
        <ele>83</ele>
        <time>2026-05-31T09:25:58.801+00:00</time>
      </trkpt>
      <trkpt lat="48.63406" lon="2.57505">
        <ele>83</ele>
        <time>2026-05-31T09:26:03.399+00:00</time>
      </trkpt>
      <trkpt lat="48.63409" lon="2.5751">
        <ele>83</ele>
        <time>2026-05-31T09:26:07.697+00:00</time>
      </trkpt>
      <trkpt lat="48.63411" lon="2.57517">
        <ele>83</ele>
        <time>2026-05-31T09:26:11.801+00:00</time>
      </trkpt>
      <trkpt lat="48.63415" lon="2.57525">
        <ele>83</ele>
        <time>2026-05-31T09:26:16.677+00:00</time>
      </trkpt>
      <trkpt lat="48.63419" lon="2.57531">
        <ele>83</ele>
        <time>2026-05-31T09:26:20.801+00:00</time>
      </trkpt>
      <trkpt lat="48.63422" lon="2.57537">
        <ele>83</ele>
        <time>2026-05-31T09:26:25.341+00:00</time>
      </trkpt>
      <trkpt lat="48.63426" lon="2.57545">
        <ele>82</ele>
        <time>2026-05-31T09:26:29.638+00:00</time>
      </trkpt>
      <trkpt lat="48.6343" lon="2.5755">
        <ele>82</ele>
        <time>2026-05-31T09:26:33.800+00:00</time>
      </trkpt>
      <trkpt lat="48.63433" lon="2.57557">
        <ele>82</ele>
        <time>2026-05-31T09:26:37.801+00:00</time>
      </trkpt>
      <trkpt lat="48.63437" lon="2.57562">
        <ele>82</ele>
        <time>2026-05-31T09:26:42.522+00:00</time>
      </trkpt>
      <trkpt lat="48.6344" lon="2.57568">
        <ele>82</ele>
        <time>2026-05-31T09:26:46.782+00:00</time>
      </trkpt>
      <trkpt lat="48.63443" lon="2.57574">
        <ele>82</ele>
        <time>2026-05-31T09:26:50.800+00:00</time>
      </trkpt>
      <trkpt lat="48.63446" lon="2.57582">
        <ele>82</ele>
        <time>2026-05-31T09:26:55.483+00:00</time>
      </trkpt>
      <trkpt lat="48.6345" lon="2.57589">
        <ele>82</ele>
        <time>2026-05-31T09:26:59.675+00:00</time>
      </trkpt>
      <trkpt lat="48.63454" lon="2.57594">
        <ele>82</ele>
        <time>2026-05-31T09:27:04.176+00:00</time>
      </trkpt>
      <trkpt lat="48.63457" lon="2.57601">
        <ele>82</ele>
        <time>2026-05-31T09:27:08.541+00:00</time>
      </trkpt>
      <trkpt lat="48.63458" lon="2.5761">
        <ele>82</ele>
        <time>2026-05-31T09:27:12.762+00:00</time>
      </trkpt>
      <trkpt lat="48.63459" lon="2.57606">
        <ele>82</ele>
        <time>2026-05-31T09:27:16.801+00:00</time>
      </trkpt>
      <trkpt lat="48.63465" lon="2.57603">
        <ele>82</ele>
        <time>2026-05-31T09:27:21.320+00:00</time>
      </trkpt>
      <trkpt lat="48.63469" lon="2.5761">
        <ele>82</ele>
        <time>2026-05-31T09:27:25.722+00:00</time>
      </trkpt>
      <trkpt lat="48.63472" lon="2.57617">
        <ele>82</ele>
        <time>2026-05-31T09:27:30.161+00:00</time>
      </trkpt>
      <trkpt lat="48.63475" lon="2.57624">
        <ele>82</ele>
        <time>2026-05-31T09:27:34.318+00:00</time>
      </trkpt>
      <trkpt lat="48.63479" lon="2.5763">
        <ele>82</ele>
        <time>2026-05-31T09:27:38.722+00:00</time>
      </trkpt>
      <trkpt lat="48.63482" lon="2.57634">
        <ele>82</ele>
        <time>2026-05-31T09:27:43.837+00:00</time>
      </trkpt>
      <trkpt lat="48.63486" lon="2.57639">
        <ele>83</ele>
        <time>2026-05-31T09:27:47.895+00:00</time>
      </trkpt>
      <trkpt lat="48.63489" lon="2.57643">
        <ele>83</ele>
        <time>2026-05-31T09:27:52.058+00:00</time>
      </trkpt>
      <trkpt lat="48.63488" lon="2.5765">
        <ele>83</ele>
        <time>2026-05-31T09:27:56.617+00:00</time>
      </trkpt>
      <trkpt lat="48.63489" lon="2.57657">
        <ele>83</ele>
        <time>2026-05-31T09:28:01.222+00:00</time>
      </trkpt>
      <trkpt lat="48.63492" lon="2.57661">
        <ele>83</ele>
        <time>2026-05-31T09:28:05.741+00:00</time>
      </trkpt>
      <trkpt lat="48.63447" lon="2.57762">
        <ele>83</ele>
        <time>2026-05-31T09:28:10.078+00:00</time>
      </trkpt>
      <trkpt lat="48.63418" lon="2.57874">
        <ele>82</ele>
        <time>2026-05-31T09:28:14.598+00:00</time>
      </trkpt>
      <trkpt lat="48.6337" lon="2.58003">
        <ele>82</ele>
        <time>2026-05-31T09:28:18.800+00:00</time>
      </trkpt>
      <trkpt lat="48.63322" lon="2.58136">
        <ele>83</ele>
        <time>2026-05-31T09:28:23.541+00:00</time>
      </trkpt>
      <trkpt lat="48.63277" lon="2.58222">
        <ele>81</ele>
        <time>2026-05-31T09:28:27.800+00:00</time>
      </trkpt>
      <trkpt lat="48.63231" lon="2.58239">
        <ele>83</ele>
        <time>2026-05-31T09:28:32.501+00:00</time>
      </trkpt>
      <trkpt lat="48.63211" lon="2.58355">
        <ele>83</ele>
        <time>2026-05-31T09:45:26.936+00:00</time>
      </trkpt>
      <trkpt lat="48.63194" lon="2.58445">
        <ele>80</ele>
        <time>2026-05-31T09:45:31.798+00:00</time>
      </trkpt>
      <trkpt lat="48.63167" lon="2.5846">
        <ele>81</ele>
        <time>2026-05-31T09:45:36.797+00:00</time>
      </trkpt>
      <trkpt lat="48.63155" lon="2.58447">
        <ele>80</ele>
        <time>2026-05-31T09:45:41.798+00:00</time>
      </trkpt>
      <trkpt lat="48.63135" lon="2.58453">
        <ele>82</ele>
        <time>2026-05-31T09:45:53.798+00:00</time>
      </trkpt>
      <trkpt lat="48.63128" lon="2.58466">
        <ele>82</ele>
        <time>2026-05-31T09:45:58.412+00:00</time>
      </trkpt>
      <trkpt lat="48.62756" lon="2.5846">
        <ele>86</ele>
        <time>2026-05-31T09:46:02.731+00:00</time>
      </trkpt>
      <trkpt lat="48.62752" lon="2.58454">
        <ele>86</ele>
        <time>2026-05-31T09:46:07.308+00:00</time>
      </trkpt>
      <trkpt lat="48.62747" lon="2.58449">
        <ele>86</ele>
        <time>2026-05-31T09:46:11.802+00:00</time>
      </trkpt>
      <trkpt lat="48.62742" lon="2.58443">
        <ele>86</ele>
        <time>2026-05-31T09:46:16.328+00:00</time>
      </trkpt>
      <trkpt lat="48.62741" lon="2.58443">
        <ele>86</ele>
        <time>2026-05-31T09:46:20.606+00:00</time>
      </trkpt>
      <trkpt lat="48.62741" lon="2.58443">
        <ele>86</ele>
        <time>2026-05-31T09:46:24.797+00:00</time>
      </trkpt>
      <trkpt lat="48.62738" lon="2.58446">
        <ele>86</ele>
        <time>2026-05-31T09:46:28.798+00:00</time>
      </trkpt>
      <trkpt lat="48.62732" lon="2.58447">
        <ele>87</ele>
        <time>2026-05-31T09:46:33.731+00:00</time>
      </trkpt>
      <trkpt lat="48.62732" lon="2.58458">
        <ele>87</ele>
        <time>2026-05-31T09:46:37.933+00:00</time>
      </trkpt>
      <trkpt lat="48.6273" lon="2.58465">
        <ele>87</ele>
        <time>2026-05-31T09:46:42.433+00:00</time>
      </trkpt>
      <trkpt lat="48.62723" lon="2.58464">
        <ele>87</ele>
        <time>2026-05-31T09:46:46.713+00:00</time>
      </trkpt>
      <trkpt lat="48.62715" lon="2.58463">
        <ele>87</ele>
        <time>2026-05-31T09:46:50.798+00:00</time>
      </trkpt>
      <trkpt lat="48.62709" lon="2.58463">
        <ele>87</ele>
        <time>2026-05-31T09:46:54.875+00:00</time>
      </trkpt>
      <trkpt lat="48.62702" lon="2.58462">
        <ele>89</ele>
        <time>2026-05-31T09:46:59.307+00:00</time>
      </trkpt>
      <trkpt lat="48.62697" lon="2.58461">
        <ele>89</ele>
        <time>2026-05-31T09:47:03.489+00:00</time>
      </trkpt>
      <trkpt lat="48.62691" lon="2.58462">
        <ele>89</ele>
        <time>2026-05-31T09:47:07.653+00:00</time>
      </trkpt>
      <trkpt lat="48.62685" lon="2.58462">
        <ele>89</ele>
        <time>2026-05-31T09:47:11.988+00:00</time>
      </trkpt>
      <trkpt lat="48.6268" lon="2.58462">
        <ele>89</ele>
        <time>2026-05-31T09:47:16.507+00:00</time>
      </trkpt>
      <trkpt lat="48.62675" lon="2.58462">
        <ele>89</ele>
        <time>2026-05-31T09:47:20.728+00:00</time>
      </trkpt>
      <trkpt lat="48.62669" lon="2.58461">
        <ele>89</ele>
        <time>2026-05-31T09:47:24.798+00:00</time>
      </trkpt>
      <trkpt lat="48.62664" lon="2.58461">
        <ele>89</ele>
        <time>2026-05-31T09:47:29.710+00:00</time>
      </trkpt>
      <trkpt lat="48.62661" lon="2.58461">
        <ele>89</ele>
        <time>2026-05-31T09:47:34.113+00:00</time>
      </trkpt>
      <trkpt lat="48.62656" lon="2.58461">
        <ele>89</ele>
        <time>2026-05-31T09:47:38.395+00:00</time>
      </trkpt>
      <trkpt lat="48.6265" lon="2.58462">
        <ele>90</ele>
        <time>2026-05-31T09:47:42.805+00:00</time>
      </trkpt>
      <trkpt lat="48.62644" lon="2.58462">
        <ele>90</ele>
        <time>2026-05-31T09:47:47.151+00:00</time>
      </trkpt>
      <trkpt lat="48.6264" lon="2.58462">
        <ele>90</ele>
        <time>2026-05-31T09:47:51.507+00:00</time>
      </trkpt>
      <trkpt lat="48.62634" lon="2.58462">
        <ele>90</ele>
        <time>2026-05-31T09:47:55.796+00:00</time>
      </trkpt>
      <trkpt lat="48.62628" lon="2.58461">
        <ele>90</ele>
        <time>2026-05-31T09:48:00.429+00:00</time>
      </trkpt>
      <trkpt lat="48.62623" lon="2.58463">
        <ele>90</ele>
        <time>2026-05-31T09:48:04.814+00:00</time>
      </trkpt>
      <trkpt lat="48.62617" lon="2.58463">
        <ele>90</ele>
        <time>2026-05-31T09:48:08.796+00:00</time>
      </trkpt>
      <trkpt lat="48.62612" lon="2.58462">
        <ele>90</ele>
        <time>2026-05-31T09:48:13.131+00:00</time>
      </trkpt>
      <trkpt lat="48.62607" lon="2.58462">
        <ele>90</ele>
        <time>2026-05-31T09:48:17.574+00:00</time>
      </trkpt>
      <trkpt lat="48.62601" lon="2.58462">
        <ele>90</ele>
        <time>2026-05-31T09:48:22.487+00:00</time>
      </trkpt>
      <trkpt lat="48.62595" lon="2.58462">
        <ele>89</ele>
        <time>2026-05-31T09:48:26.797+00:00</time>
      </trkpt>
      <trkpt lat="48.62589" lon="2.58462">
        <ele>89</ele>
        <time>2026-05-31T09:48:31.429+00:00</time>
      </trkpt>
      <trkpt lat="48.62583" lon="2.58463">
        <ele>89</ele>
        <time>2026-05-31T09:48:40.797+00:00</time>
      </trkpt>
      <trkpt lat="48.62578" lon="2.58463">
        <ele>89</ele>
        <time>2026-05-31T09:48:45.797+00:00</time>
      </trkpt>
      <trkpt lat="48.62574" lon="2.58464">
        <ele>89</ele>
        <time>2026-05-31T09:48:49.797+00:00</time>
      </trkpt>
      <trkpt lat="48.62568" lon="2.58463">
        <ele>90</ele>
        <time>2026-05-31T09:48:54.527+00:00</time>
      </trkpt>
      <trkpt lat="48.62562" lon="2.58464">
        <ele>90</ele>
        <time>2026-05-31T09:48:58.797+00:00</time>
      </trkpt>
      <trkpt lat="48.62556" lon="2.58463">
        <ele>90</ele>
        <time>2026-05-31T09:49:02.797+00:00</time>
      </trkpt>
      <trkpt lat="48.62551" lon="2.58468">
        <ele>90</ele>
        <time>2026-05-31T09:49:07.796+00:00</time>
      </trkpt>
      <trkpt lat="48.62553" lon="2.58468">
        <ele>90</ele>
        <time>2026-05-31T09:49:12.247+00:00</time>
      </trkpt>
      <trkpt lat="48.62553" lon="2.58471">
        <ele>90</ele>
        <time>2026-05-31T09:49:16.507+00:00</time>
      </trkpt>
      <trkpt lat="48.62549" lon="2.58474">
        <ele>90</ele>
        <time>2026-05-31T09:49:20.797+00:00</time>
      </trkpt>
      <trkpt lat="48.62544" lon="2.58477">
        <ele>90</ele>
        <time>2026-05-31T09:49:25.274+00:00</time>
      </trkpt>
      <trkpt lat="48.6254" lon="2.5848">
        <ele>89</ele>
        <time>2026-05-31T09:49:29.630+00:00</time>
      </trkpt>
      <trkpt lat="48.62537" lon="2.58492">
        <ele>89</ele>
        <time>2026-05-31T09:49:33.797+00:00</time>
      </trkpt>
      <trkpt lat="48.62539" lon="2.58501">
        <ele>89</ele>
        <time>2026-05-31T09:49:37.837+00:00</time>
      </trkpt>
      <trkpt lat="48.62539" lon="2.5851">
        <ele>89</ele>
        <time>2026-05-31T09:49:42.773+00:00</time>
      </trkpt>
      <trkpt lat="48.6254" lon="2.58519">
        <ele>89</ele>
        <time>2026-05-31T09:49:46.796+00:00</time>
      </trkpt>
      <trkpt lat="48.62541" lon="2.58528">
        <ele>89</ele>
        <time>2026-05-31T09:49:51.797+00:00</time>
      </trkpt>
      <trkpt lat="48.62542" lon="2.58535">
        <ele>89</ele>
        <time>2026-05-31T09:49:56.186+00:00</time>
      </trkpt>
      <trkpt lat="48.62544" lon="2.58543">
        <ele>89</ele>
        <time>2026-05-31T09:50:00.532+00:00</time>
      </trkpt>
      <trkpt lat="48.62545" lon="2.5855">
        <ele>89</ele>
        <time>2026-05-31T09:50:04.796+00:00</time>
      </trkpt>
      <trkpt lat="48.62546" lon="2.5856">
        <ele>89</ele>
        <time>2026-05-31T09:50:09.165+00:00</time>
      </trkpt>
      <trkpt lat="48.62544" lon="2.58565">
        <ele>89</ele>
        <time>2026-05-31T09:50:13.550+00:00</time>
      </trkpt>
      <trkpt lat="48.62538" lon="2.58566">
        <ele>89</ele>
        <time>2026-05-31T09:50:17.713+00:00</time>
      </trkpt>
      <trkpt lat="48.62533" lon="2.58565">
        <ele>89</ele>
        <time>2026-05-31T09:50:22.145+00:00</time>
      </trkpt>
      <trkpt lat="48.62529" lon="2.58567">
        <ele>89</ele>
        <time>2026-05-31T09:50:26.568+00:00</time>
      </trkpt>
      <trkpt lat="48.62526" lon="2.58567">
        <ele>89</ele>
        <time>2026-05-31T09:50:30.797+00:00</time>
      </trkpt>
      <trkpt lat="48.62522" lon="2.58566">
        <ele>89</ele>
        <time>2026-05-31T09:50:35.674+00:00</time>
      </trkpt>
      <trkpt lat="48.62517" lon="2.58564">
        <ele>89</ele>
        <time>2026-05-31T09:50:40.193+00:00</time>
      </trkpt>
      <trkpt lat="48.62513" lon="2.58562">
        <ele>90</ele>
        <time>2026-05-31T09:50:44.532+00:00</time>
      </trkpt>
      <trkpt lat="48.62508" lon="2.58561">
        <ele>90</ele>
        <time>2026-05-31T09:50:48.913+00:00</time>
      </trkpt>
      <trkpt lat="48.62503" lon="2.5856">
        <ele>90</ele>
        <time>2026-05-31T09:50:53.230+00:00</time>
      </trkpt>
      <trkpt lat="48.62498" lon="2.5856">
        <ele>90</ele>
        <time>2026-05-31T09:50:57.797+00:00</time>
      </trkpt>
      <trkpt lat="48.62492" lon="2.58558">
        <ele>90</ele>
        <time>2026-05-31T09:51:02.662+00:00</time>
      </trkpt>
      <trkpt lat="48.62486" lon="2.58558">
        <ele>91</ele>
        <time>2026-05-31T09:51:07.088+00:00</time>
      </trkpt>
      <trkpt lat="48.62481" lon="2.58555">
        <ele>91</ele>
        <time>2026-05-31T09:51:11.548+00:00</time>
      </trkpt>
      <trkpt lat="48.62476" lon="2.58552">
        <ele>91</ele>
        <time>2026-05-31T09:51:15.797+00:00</time>
      </trkpt>
      <trkpt lat="48.62471" lon="2.58548">
        <ele>91</ele>
        <time>2026-05-31T09:51:19.797+00:00</time>
      </trkpt>
      <trkpt lat="48.62466" lon="2.58544">
        <ele>91</ele>
        <time>2026-05-31T09:51:24.229+00:00</time>
      </trkpt>
      <trkpt lat="48.62461" lon="2.58542">
        <ele>91</ele>
        <time>2026-05-31T09:51:28.730+00:00</time>
      </trkpt>
      <trkpt lat="48.62456" lon="2.58541">
        <ele>92</ele>
        <time>2026-05-31T09:51:32.797+00:00</time>
      </trkpt>
      <trkpt lat="48.6245" lon="2.58539">
        <ele>92</ele>
        <time>2026-05-31T09:51:37.526+00:00</time>
      </trkpt>
      <trkpt lat="48.62445" lon="2.58538">
        <ele>92</ele>
        <time>2026-05-31T09:51:41.797+00:00</time>
      </trkpt>
      <trkpt lat="48.62441" lon="2.58537">
        <ele>92</ele>
        <time>2026-05-31T09:51:45.983+00:00</time>
      </trkpt>
      <trkpt lat="48.62436" lon="2.58536">
        <ele>92</ele>
        <time>2026-05-31T09:51:50.507+00:00</time>
      </trkpt>
      <trkpt lat="48.62433" lon="2.58531">
        <ele>92</ele>
        <time>2026-05-31T09:51:54.650+00:00</time>
      </trkpt>
      <trkpt lat="48.62431" lon="2.58532">
        <ele>92</ele>
        <time>2026-05-31T09:51:59.313+00:00</time>
      </trkpt>
      <trkpt lat="48.62424" lon="2.58531">
        <ele>95</ele>
        <time>2026-05-31T09:52:03.796+00:00</time>
      </trkpt>
      <trkpt lat="48.62417" lon="2.58531">
        <ele>95</ele>
        <time>2026-05-31T09:52:08.069+00:00</time>
      </trkpt>
      <trkpt lat="48.62411" lon="2.58533">
        <ele>95</ele>
        <time>2026-05-31T09:52:12.494+00:00</time>
      </trkpt>
      <trkpt lat="48.62406" lon="2.58539">
        <ele>95</ele>
        <time>2026-05-31T09:52:16.570+00:00</time>
      </trkpt>
      <trkpt lat="48.62403" lon="2.58545">
        <ele>97</ele>
        <time>2026-05-31T09:52:20.796+00:00</time>
      </trkpt>
      <trkpt lat="48.62399" lon="2.58551">
        <ele>97</ele>
        <time>2026-05-31T09:52:25.454+00:00</time>
      </trkpt>
      <trkpt lat="48.62396" lon="2.58556">
        <ele>97</ele>
        <time>2026-05-31T09:52:29.796+00:00</time>
      </trkpt>
      <trkpt lat="48.62393" lon="2.58561">
        <ele>97</ele>
        <time>2026-05-31T09:52:34.454+00:00</time>
      </trkpt>
      <trkpt lat="48.62389" lon="2.58566">
        <ele>97</ele>
        <time>2026-05-31T09:52:38.797+00:00</time>
      </trkpt>
      <trkpt lat="48.62385" lon="2.58569">
        <ele>97</ele>
        <time>2026-05-31T09:52:43.011+00:00</time>
      </trkpt>
      <trkpt lat="48.6238" lon="2.58573">
        <ele>97</ele>
        <time>2026-05-31T09:52:46.611+00:00</time>
      </trkpt>
      <trkpt lat="48.62374" lon="2.58577">
        <ele>98</ele>
        <time>2026-05-31T09:52:51.408+00:00</time>
      </trkpt>
      <trkpt lat="48.62369" lon="2.58579">
        <ele>98</ele>
        <time>2026-05-31T09:52:55.478+00:00</time>
      </trkpt>
      <trkpt lat="48.62362" lon="2.58581">
        <ele>98</ele>
        <time>2026-05-31T09:52:59.797+00:00</time>
      </trkpt>
      <trkpt lat="48.62356" lon="2.58581">
        <ele>98</ele>
        <time>2026-05-31T09:53:04.671+00:00</time>
      </trkpt>
      <trkpt lat="48.62352" lon="2.58577">
        <ele>98</ele>
        <time>2026-05-31T09:53:09.260+00:00</time>
      </trkpt>
      <trkpt lat="48.62347" lon="2.58579">
        <ele>97</ele>
        <time>2026-05-31T09:53:13.409+00:00</time>
      </trkpt>
      <trkpt lat="48.62342" lon="2.5858">
        <ele>97</ele>
        <time>2026-05-31T09:53:17.418+00:00</time>
      </trkpt>
      <trkpt lat="48.62338" lon="2.58581">
        <ele>97</ele>
        <time>2026-05-31T09:53:21.612+00:00</time>
      </trkpt>
      <trkpt lat="48.62335" lon="2.58583">
        <ele>97</ele>
        <time>2026-05-31T09:53:25.616+00:00</time>
      </trkpt>
      <trkpt lat="48.62331" lon="2.58583">
        <ele>97</ele>
        <time>2026-05-31T09:53:29.796+00:00</time>
      </trkpt>
      <trkpt lat="48.62327" lon="2.58583">
        <ele>97</ele>
        <time>2026-05-31T09:53:34.796+00:00</time>
      </trkpt>
      <trkpt lat="48.62323" lon="2.58586">
        <ele>97</ele>
        <time>2026-05-31T09:53:38.796+00:00</time>
      </trkpt>
      <trkpt lat="48.62321" lon="2.58591">
        <ele>97</ele>
        <time>2026-05-31T09:54:00.796+00:00</time>
      </trkpt>
      <trkpt lat="48.62322" lon="2.58595">
        <ele>97</ele>
        <time>2026-05-31T09:54:05.796+00:00</time>
      </trkpt>
      <trkpt lat="48.62321" lon="2.58601">
        <ele>98</ele>
        <time>2026-05-31T09:54:10.795+00:00</time>
      </trkpt>
      <trkpt lat="48.6232" lon="2.58606">
        <ele>98</ele>
        <time>2026-05-31T09:54:15.796+00:00</time>
      </trkpt>
      <trkpt lat="48.62316" lon="2.58611">
        <ele>98</ele>
        <time>2026-05-31T09:54:19.796+00:00</time>
      </trkpt>
      <trkpt lat="48.62314" lon="2.58612">
        <ele>98</ele>
        <time>2026-05-31T09:56:56.796+00:00</time>
      </trkpt>
      <trkpt lat="48.62304" lon="2.58618">
        <ele>98</ele>
        <time>2026-05-31T09:57:02.796+00:00</time>
      </trkpt>
      <trkpt lat="48.62302" lon="2.58617">
        <ele>98</ele>
        <time>2026-05-31T09:57:09.796+00:00</time>
      </trkpt>
      <trkpt lat="48.623" lon="2.58614">
        <ele>98</ele>
        <time>2026-05-31T09:57:14.655+00:00</time>
      </trkpt>
      <trkpt lat="48.62296" lon="2.58611">
        <ele>98</ele>
        <time>2026-05-31T09:57:18.796+00:00</time>
      </trkpt>
      <trkpt lat="48.62295" lon="2.58612">
        <ele>98</ele>
        <time>2026-05-31T09:57:23.795+00:00</time>
      </trkpt>
      <trkpt lat="48.62294" lon="2.58611">
        <ele>98</ele>
        <time>2026-05-31T09:57:27.796+00:00</time>
      </trkpt>
      <trkpt lat="48.62294" lon="2.58611">
        <ele>98</ele>
        <time>2026-05-31T09:57:32.278+00:00</time>
      </trkpt>
      <trkpt lat="48.62294" lon="2.58611">
        <ele>98</ele>
        <time>2026-05-31T09:57:36.779+00:00</time>
      </trkpt>
      <trkpt lat="48.62293" lon="2.58614">
        <ele>98</ele>
        <time>2026-05-31T09:57:40.796+00:00</time>
      </trkpt>
      <trkpt lat="48.62293" lon="2.58625">
        <ele>98</ele>
        <time>2026-05-31T09:57:45.702+00:00</time>
      </trkpt>
      <trkpt lat="48.62292" lon="2.58636">
        <ele>98</ele>
        <time>2026-05-31T09:57:50.482+00:00</time>
      </trkpt>
      <trkpt lat="48.6229" lon="2.58643">
        <ele>96</ele>
        <time>2026-05-31T09:57:54.574+00:00</time>
      </trkpt>
      <trkpt lat="48.62285" lon="2.58648">
        <ele>96</ele>
        <time>2026-05-31T09:57:59.116+00:00</time>
      </trkpt>
      <trkpt lat="48.62284" lon="2.58655">
        <ele>95</ele>
        <time>2026-05-31T09:58:03.682+00:00</time>
      </trkpt>
      <trkpt lat="48.62285" lon="2.58661">
        <ele>95</ele>
        <time>2026-05-31T09:58:08.597+00:00</time>
      </trkpt>
      <trkpt lat="48.62284" lon="2.58669">
        <ele>95</ele>
        <time>2026-05-31T09:58:12.794+00:00</time>
      </trkpt>
      <trkpt lat="48.62273" lon="2.58672">
        <ele>95</ele>
        <time>2026-05-31T09:59:44.794+00:00</time>
      </trkpt>
      <trkpt lat="48.62269" lon="2.58668">
        <ele>95</ele>
        <time>2026-05-31T09:59:49.281+00:00</time>
      </trkpt>
      <trkpt lat="48.62267" lon="2.5867">
        <ele>95</ele>
        <time>2026-05-31T09:59:53.794+00:00</time>
      </trkpt>
      <trkpt lat="48.62267" lon="2.58672">
        <ele>95</ele>
        <time>2026-05-31T09:59:58.241+00:00</time>
      </trkpt>
      <trkpt lat="48.62267" lon="2.58672">
        <ele>95</ele>
        <time>2026-05-31T10:00:02.344+00:00</time>
      </trkpt>
      <trkpt lat="48.62272" lon="2.58671">
        <ele>95</ele>
        <time>2026-05-31T10:00:06.519+00:00</time>
      </trkpt>
      <trkpt lat="48.62278" lon="2.58672">
        <ele>95</ele>
        <time>2026-05-31T10:00:10.663+00:00</time>
      </trkpt>
      <trkpt lat="48.62282" lon="2.58672">
        <ele>95</ele>
        <time>2026-05-31T10:00:15.039+00:00</time>
      </trkpt>
      <trkpt lat="48.62286" lon="2.58665">
        <ele>95</ele>
        <time>2026-05-31T10:00:19.517+00:00</time>
      </trkpt>
      <trkpt lat="48.62286" lon="2.58657">
        <ele>95</ele>
        <time>2026-05-31T10:00:23.795+00:00</time>
      </trkpt>
      <trkpt lat="48.62286" lon="2.58649">
        <ele>96</ele>
        <time>2026-05-31T10:00:28.758+00:00</time>
      </trkpt>
      <trkpt lat="48.62287" lon="2.5864">
        <ele>96</ele>
        <time>2026-05-31T10:00:33.278+00:00</time>
      </trkpt>
      <trkpt lat="48.62287" lon="2.58633">
        <ele>96</ele>
        <time>2026-05-31T10:00:37.778+00:00</time>
      </trkpt>
      <trkpt lat="48.6229" lon="2.58629">
        <ele>96</ele>
        <time>2026-05-31T10:04:21.794+00:00</time>
      </trkpt>
      <trkpt lat="48.62291" lon="2.58621">
        <ele>97</ele>
        <time>2026-05-31T10:04:28.793+00:00</time>
      </trkpt>
      <trkpt lat="48.62292" lon="2.58616">
        <ele>98</ele>
        <time>2026-05-31T10:04:32.794+00:00</time>
      </trkpt>
      <trkpt lat="48.62292" lon="2.58608">
        <ele>98</ele>
        <time>2026-05-31T10:04:36.794+00:00</time>
      </trkpt>
      <trkpt lat="48.62293" lon="2.58607">
        <ele>98</ele>
        <time>2026-05-31T10:04:41.793+00:00</time>
      </trkpt>
      <trkpt lat="48.62296" lon="2.58608">
        <ele>98</ele>
        <time>2026-05-31T10:04:46.794+00:00</time>
      </trkpt>
      <trkpt lat="48.62299" lon="2.58605">
        <ele>98</ele>
        <time>2026-05-31T10:04:51.794+00:00</time>
      </trkpt>
      <trkpt lat="48.62301" lon="2.58599">
        <ele>98</ele>
        <time>2026-05-31T10:04:55.826+00:00</time>
      </trkpt>
      <trkpt lat="48.62298" lon="2.58605">
        <ele>98</ele>
        <time>2026-05-31T10:05:00.397+00:00</time>
      </trkpt>
      <trkpt lat="48.62295" lon="2.58609">
        <ele>98</ele>
        <time>2026-05-31T10:05:19.794+00:00</time>
      </trkpt>
      <trkpt lat="48.62293" lon="2.58599">
        <ele>98</ele>
        <time>2026-05-31T10:05:23.794+00:00</time>
      </trkpt>
      <trkpt lat="48.62293" lon="2.58599">
        <ele>98</ele>
        <time>2026-05-31T10:05:28.458+00:00</time>
      </trkpt>
      <trkpt lat="48.62293" lon="2.58598">
        <ele>98</ele>
        <time>2026-05-31T10:05:32.794+00:00</time>
      </trkpt>
      <trkpt lat="48.62293" lon="2.58598">
        <ele>98</ele>
        <time>2026-05-31T10:05:37.380+00:00</time>
      </trkpt>
      <trkpt lat="48.6229" lon="2.58595">
        <ele>97</ele>
        <time>2026-05-31T10:05:41.794+00:00</time>
      </trkpt>
      <trkpt lat="48.6229" lon="2.586">
        <ele>97</ele>
        <time>2026-05-31T10:05:46.602+00:00</time>
      </trkpt>
      <trkpt lat="48.6229" lon="2.58606">
        <ele>97</ele>
        <time>2026-05-31T10:05:50.794+00:00</time>
      </trkpt>
      <trkpt lat="48.62293" lon="2.58609">
        <ele>98</ele>
        <time>2026-05-31T10:05:55.794+00:00</time>
      </trkpt>
      <trkpt lat="48.62294" lon="2.58608">
        <ele>98</ele>
        <time>2026-05-31T10:20:09.791+00:00</time>
      </trkpt>
      <trkpt lat="48.62294" lon="2.58608">
        <ele>98</ele>
        <time>2026-05-31T10:20:13.791+00:00</time>
      </trkpt>
      <trkpt lat="48.62295" lon="2.58602">
        <ele>98</ele>
        <time>2026-05-31T10:20:18.790+00:00</time>
      </trkpt>
      <trkpt lat="48.62296" lon="2.58598">
        <ele>98</ele>
        <time>2026-05-31T10:20:22.790+00:00</time>
      </trkpt>
      <trkpt lat="48.62296" lon="2.58598">
        <ele>98</ele>
        <time>2026-05-31T10:20:26.926+00:00</time>
      </trkpt>
      <trkpt lat="48.62296" lon="2.58598">
        <ele>98</ele>
        <time>2026-05-31T10:21:05.791+00:00</time>
      </trkpt>
      <trkpt lat="48.62293" lon="2.58608">
        <ele>98</ele>
        <time>2026-05-31T10:21:10.790+00:00</time>
      </trkpt>
      <trkpt lat="48.62294" lon="2.58608">
        <ele>98</ele>
        <time>2026-05-31T10:21:15.550+00:00</time>
      </trkpt>
      <trkpt lat="48.62294" lon="2.58608">
        <ele>98</ele>
        <time>2026-05-31T10:21:19.638+00:00</time>
      </trkpt>
      <trkpt lat="48.62294" lon="2.58607">
        <ele>98</ele>
        <time>2026-05-31T10:21:24.099+00:00</time>
      </trkpt>
      <trkpt lat="48.62295" lon="2.58604">
        <ele>98</ele>
        <time>2026-05-31T11:50:48.394+00:00</time>
      </trkpt>
      <trkpt lat="48.62301" lon="2.58597">
        <ele>97</ele>
        <time>2026-05-31T11:50:52.773+00:00</time>
      </trkpt>
      <trkpt lat="48.62301" lon="2.58597">
        <ele>97</ele>
        <time>2026-05-31T11:50:56.774+00:00</time>
      </trkpt>
      <trkpt lat="48.623" lon="2.58596">
        <ele>97</ele>
        <time>2026-05-31T11:51:01.094+00:00</time>
      </trkpt>
      <trkpt lat="48.62295" lon="2.58593">
        <ele>97</ele>
        <time>2026-05-31T11:51:05.773+00:00</time>
      </trkpt>
      <trkpt lat="48.6229" lon="2.58594">
        <ele>97</ele>
        <time>2026-05-31T11:51:10.774+00:00</time>
      </trkpt>
      <trkpt lat="48.62297" lon="2.58602">
        <ele>98</ele>
        <time>2026-05-31T11:51:14.970+00:00</time>
      </trkpt>
      <trkpt lat="48.62298" lon="2.58602">
        <ele>98</ele>
        <time>2026-05-31T11:51:19.673+00:00</time>
      </trkpt>
      <trkpt lat="48.62299" lon="2.586">
        <ele>98</ele>
        <time>2026-05-31T11:51:23.774+00:00</time>
      </trkpt>
      <trkpt lat="48.62301" lon="2.58599">
        <ele>98</ele>
        <time>2026-05-31T11:56:38.773+00:00</time>
      </trkpt>
      <trkpt lat="48.62302" lon="2.58597">
        <ele>98</ele>
        <time>2026-05-31T11:56:43.773+00:00</time>
      </trkpt>
      <trkpt lat="48.62304" lon="2.58597">
        <ele>97</ele>
        <time>2026-05-31T11:56:48.773+00:00</time>
      </trkpt>
      <trkpt lat="48.62307" lon="2.58589">
        <ele>97</ele>
        <time>2026-05-31T11:56:52.771+00:00</time>
      </trkpt>
      <trkpt lat="48.6231" lon="2.58581">
        <ele>97</ele>
        <time>2026-05-31T11:56:57.255+00:00</time>
      </trkpt>
      <trkpt lat="48.62313" lon="2.58572">
        <ele>97</ele>
        <time>2026-05-31T11:58:28.772+00:00</time>
      </trkpt>
      <trkpt lat="48.62317" lon="2.58565">
        <ele>96</ele>
        <time>2026-05-31T11:58:35.772+00:00</time>
      </trkpt>
      <trkpt lat="48.6232" lon="2.58559">
        <ele>97</ele>
        <time>2026-05-31T11:58:40.636+00:00</time>
      </trkpt>
      <trkpt lat="48.62323" lon="2.58552">
        <ele>97</ele>
        <time>2026-05-31T11:58:44.772+00:00</time>
      </trkpt>
      <trkpt lat="48.62325" lon="2.58545">
        <ele>97</ele>
        <time>2026-05-31T11:58:48.771+00:00</time>
      </trkpt>
      <trkpt lat="48.62327" lon="2.58538">
        <ele>97</ele>
        <time>2026-05-31T12:00:52.771+00:00</time>
      </trkpt>
      <trkpt lat="48.62331" lon="2.58538">
        <ele>97</ele>
        <time>2026-05-31T12:00:56.772+00:00</time>
      </trkpt>
      <trkpt lat="48.62335" lon="2.58541">
        <ele>97</ele>
        <time>2026-05-31T12:01:01.772+00:00</time>
      </trkpt>
      <trkpt lat="48.62336" lon="2.58541">
        <ele>97</ele>
        <time>2026-05-31T12:01:05.771+00:00</time>
      </trkpt>
      <trkpt lat="48.62336" lon="2.58538">
        <ele>97</ele>
        <time>2026-05-31T12:01:11.771+00:00</time>
      </trkpt>
      <trkpt lat="48.62343" lon="2.58539">
        <ele>97</ele>
        <time>2026-05-31T12:01:36.778+00:00</time>
      </trkpt>
      <trkpt lat="48.62346" lon="2.5854">
        <ele>97</ele>
        <time>2026-05-31T12:01:40.772+00:00</time>
      </trkpt>
      <trkpt lat="48.62349" lon="2.5854">
        <ele>97</ele>
        <time>2026-05-31T12:01:44.919+00:00</time>
      </trkpt>
      <trkpt lat="48.6235" lon="2.58537">
        <ele>97</ele>
        <time>2026-05-31T12:01:49.380+00:00</time>
      </trkpt>
      <trkpt lat="48.62353" lon="2.58537">
        <ele>97</ele>
        <time>2026-05-31T12:01:53.602+00:00</time>
      </trkpt>
      <trkpt lat="48.62358" lon="2.58533">
        <ele>97</ele>
        <time>2026-05-31T12:01:58.092+00:00</time>
      </trkpt>
      <trkpt lat="48.62363" lon="2.58536">
        <ele>97</ele>
        <time>2026-05-31T12:02:02.699+00:00</time>
      </trkpt>
      <trkpt lat="48.62369" lon="2.58539">
        <ele>97</ele>
        <time>2026-05-31T12:02:07.478+00:00</time>
      </trkpt>
      <trkpt lat="48.62374" lon="2.58542">
        <ele>98</ele>
        <time>2026-05-31T12:02:11.771+00:00</time>
      </trkpt>
      <trkpt lat="48.62379" lon="2.58545">
        <ele>97</ele>
        <time>2026-05-31T12:02:16.055+00:00</time>
      </trkpt>
      <trkpt lat="48.62382" lon="2.58545">
        <ele>97</ele>
        <time>2026-05-31T12:02:20.771+00:00</time>
      </trkpt>
      <trkpt lat="48.62387" lon="2.58549">
        <ele>97</ele>
        <time>2026-05-31T12:02:25.771+00:00</time>
      </trkpt>
      <trkpt lat="48.62393" lon="2.58549">
        <ele>97</ele>
        <time>2026-05-31T12:02:29.770+00:00</time>
      </trkpt>
      <trkpt lat="48.62397" lon="2.58552">
        <ele>97</ele>
        <time>2026-05-31T12:04:39.205+00:00</time>
      </trkpt>
      <trkpt lat="48.62401" lon="2.58552">
        <ele>97</ele>
        <time>2026-05-31T12:04:43.770+00:00</time>
      </trkpt>
      <trkpt lat="48.62402" lon="2.58555">
        <ele>97</ele>
        <time>2026-05-31T12:04:47.770+00:00</time>
      </trkpt>
      <trkpt lat="48.62402" lon="2.58554">
        <ele>97</ele>
        <time>2026-05-31T12:04:51.771+00:00</time>
      </trkpt>
      <trkpt lat="48.62402" lon="2.58554">
        <ele>97</ele>
        <time>2026-05-31T12:04:56.771+00:00</time>
      </trkpt>
      <trkpt lat="48.62406" lon="2.58551">
        <ele>95</ele>
        <time>2026-05-31T12:05:01.770+00:00</time>
      </trkpt>
      <trkpt lat="48.6241" lon="2.58546">
        <ele>95</ele>
        <time>2026-05-31T12:05:06.771+00:00</time>
      </trkpt>
      <trkpt lat="48.62414" lon="2.58539">
        <ele>95</ele>
        <time>2026-05-31T12:05:11.230+00:00</time>
      </trkpt>
      <trkpt lat="48.62418" lon="2.58535">
        <ele>95</ele>
        <time>2026-05-31T12:05:15.452+00:00</time>
      </trkpt>
      <trkpt lat="48.62423" lon="2.58537">
        <ele>95</ele>
        <time>2026-05-31T12:05:19.567+00:00</time>
      </trkpt>
      <trkpt lat="48.62428" lon="2.5854">
        <ele>95</ele>
        <time>2026-05-31T12:05:23.771+00:00</time>
      </trkpt>
      <trkpt lat="48.62432" lon="2.5854">
        <ele>92</ele>
        <time>2026-05-31T12:05:28.367+00:00</time>
      </trkpt>
      <trkpt lat="48.62437" lon="2.58541">
        <ele>92</ele>
        <time>2026-05-31T12:05:32.771+00:00</time>
      </trkpt>
      <trkpt lat="48.62442" lon="2.58542">
        <ele>92</ele>
        <time>2026-05-31T12:05:36.991+00:00</time>
      </trkpt>
      <trkpt lat="48.62447" lon="2.58542">
        <ele>92</ele>
        <time>2026-05-31T12:05:41.366+00:00</time>
      </trkpt>
      <trkpt lat="48.62452" lon="2.58544">
        <ele>92</ele>
        <time>2026-05-31T12:05:45.797+00:00</time>
      </trkpt>
      <trkpt lat="48.62457" lon="2.58544">
        <ele>92</ele>
        <time>2026-05-31T12:05:50.770+00:00</time>
      </trkpt>
      <trkpt lat="48.62461" lon="2.58543">
        <ele>91</ele>
        <time>2026-05-31T12:05:54.770+00:00</time>
      </trkpt>
      <trkpt lat="48.62467" lon="2.58544">
        <ele>91</ele>
        <time>2026-05-31T12:05:59.167+00:00</time>
      </trkpt>
      <trkpt lat="48.62473" lon="2.58546">
        <ele>91</ele>
        <time>2026-05-31T12:06:03.703+00:00</time>
      </trkpt>
      <trkpt lat="48.62478" lon="2.58547">
        <ele>91</ele>
        <time>2026-05-31T12:06:07.770+00:00</time>
      </trkpt>
      <trkpt lat="48.62484" lon="2.58549">
        <ele>91</ele>
        <time>2026-05-31T12:06:11.953+00:00</time>
      </trkpt>
      <trkpt lat="48.6249" lon="2.58551">
        <ele>90</ele>
        <time>2026-05-31T12:06:15.991+00:00</time>
      </trkpt>
      <trkpt lat="48.62496" lon="2.58553">
        <ele>90</ele>
        <time>2026-05-31T12:06:20.732+00:00</time>
      </trkpt>
      <trkpt lat="48.62502" lon="2.58556">
        <ele>90</ele>
        <time>2026-05-31T12:06:25.368+00:00</time>
      </trkpt>
      <trkpt lat="48.62508" lon="2.58558">
        <ele>90</ele>
        <time>2026-05-31T12:06:29.470+00:00</time>
      </trkpt>
      <trkpt lat="48.62514" lon="2.5856">
        <ele>90</ele>
        <time>2026-05-31T12:06:33.802+00:00</time>
      </trkpt>
      <trkpt lat="48.6252" lon="2.58561">
        <ele>89</ele>
        <time>2026-05-31T12:06:38.012+00:00</time>
      </trkpt>
      <trkpt lat="48.62526" lon="2.58564">
        <ele>89</ele>
        <time>2026-05-31T12:06:42.233+00:00</time>
      </trkpt>
      <trkpt lat="48.62531" lon="2.58566">
        <ele>89</ele>
        <time>2026-05-31T12:06:46.531+00:00</time>
      </trkpt>
      <trkpt lat="48.62537" lon="2.58567">
        <ele>89</ele>
        <time>2026-05-31T12:06:50.769+00:00</time>
      </trkpt>
      <trkpt lat="48.62542" lon="2.58568">
        <ele>89</ele>
        <time>2026-05-31T12:06:54.770+00:00</time>
      </trkpt>
      <trkpt lat="48.62548" lon="2.5857">
        <ele>90</ele>
        <time>2026-05-31T12:06:59.421+00:00</time>
      </trkpt>
      <trkpt lat="48.62548" lon="2.58573">
        <ele>90</ele>
        <time>2026-05-31T12:07:03.769+00:00</time>
      </trkpt>
      <trkpt lat="48.62547" lon="2.58578">
        <ele>90</ele>
        <time>2026-05-31T12:07:08.328+00:00</time>
      </trkpt>
      <trkpt lat="48.62546" lon="2.58586">
        <ele>90</ele>
        <time>2026-05-31T12:07:13.464+00:00</time>
      </trkpt>
      <trkpt lat="48.62544" lon="2.58593">
        <ele>90</ele>
        <time>2026-05-31T12:07:17.627+00:00</time>
      </trkpt>
      <trkpt lat="48.62546" lon="2.58602">
        <ele>90</ele>
        <time>2026-05-31T12:07:21.771+00:00</time>
      </trkpt>
      <trkpt lat="48.62548" lon="2.58611">
        <ele>90</ele>
        <time>2026-05-31T12:07:26.252+00:00</time>
      </trkpt>
      <trkpt lat="48.6255" lon="2.58619">
        <ele>90</ele>
        <time>2026-05-31T12:07:30.493+00:00</time>
      </trkpt>
      <trkpt lat="48.62551" lon="2.58628">
        <ele>90</ele>
        <time>2026-05-31T12:07:34.569+00:00</time>
      </trkpt>
      <trkpt lat="48.62552" lon="2.58638">
        <ele>90</ele>
        <time>2026-05-31T12:07:39.444+00:00</time>
      </trkpt>
      <trkpt lat="48.62553" lon="2.58646">
        <ele>90</ele>
        <time>2026-05-31T12:07:43.684+00:00</time>
      </trkpt>
      <trkpt lat="48.62553" lon="2.58654">
        <ele>89</ele>
        <time>2026-05-31T12:07:47.770+00:00</time>
      </trkpt>
      <trkpt lat="48.62554" lon="2.58662">
        <ele>89</ele>
        <time>2026-05-31T12:07:52.232+00:00</time>
      </trkpt>
      <trkpt lat="48.62556" lon="2.58669">
        <ele>89</ele>
        <time>2026-05-31T12:07:56.626+00:00</time>
      </trkpt>
      <trkpt lat="48.62556" lon="2.58671">
        <ele>89</ele>
        <time>2026-05-31T12:08:01.770+00:00</time>
      </trkpt>
      <trkpt lat="48.62556" lon="2.58676">
        <ele>89</ele>
        <time>2026-05-31T12:08:06.770+00:00</time>
      </trkpt>
      <trkpt lat="48.62557" lon="2.58684">
        <ele>88</ele>
        <time>2026-05-31T12:08:11.235+00:00</time>
      </trkpt>
      <trkpt lat="48.62559" lon="2.58691">
        <ele>88</ele>
        <time>2026-05-31T12:08:15.399+00:00</time>
      </trkpt>
      <trkpt lat="48.6256" lon="2.58698">
        <ele>88</ele>
        <time>2026-05-31T12:08:19.567+00:00</time>
      </trkpt>
      <trkpt lat="48.62562" lon="2.58708">
        <ele>88</ele>
        <time>2026-05-31T12:08:24.068+00:00</time>
      </trkpt>
      <trkpt lat="48.62562" lon="2.58716">
        <ele>88</ele>
        <time>2026-05-31T12:08:28.607+00:00</time>
      </trkpt>
      <trkpt lat="48.62564" lon="2.58723">
        <ele>88</ele>
        <time>2026-05-31T12:08:33.013+00:00</time>
      </trkpt>
      <trkpt lat="48.62566" lon="2.58731">
        <ele>88</ele>
        <time>2026-05-31T12:08:37.769+00:00</time>
      </trkpt>
      <trkpt lat="48.62569" lon="2.58739">
        <ele>89</ele>
        <time>2026-05-31T12:08:42.770+00:00</time>
      </trkpt>
      <trkpt lat="48.62571" lon="2.58747">
        <ele>87</ele>
        <time>2026-05-31T12:08:47.284+00:00</time>
      </trkpt>
      <trkpt lat="48.62573" lon="2.58756">
        <ele>87</ele>
        <time>2026-05-31T12:08:51.747+00:00</time>
      </trkpt>
      <trkpt lat="48.62574" lon="2.58764">
        <ele>87</ele>
        <time>2026-05-31T12:08:56.188+00:00</time>
      </trkpt>
      <trkpt lat="48.62575" lon="2.58773">
        <ele>88</ele>
        <time>2026-05-31T12:09:00.709+00:00</time>
      </trkpt>
      <trkpt lat="48.62572" lon="2.58771">
        <ele>88</ele>
        <time>2026-05-31T12:09:04.770+00:00</time>
      </trkpt>
      <trkpt lat="48.62572" lon="2.58771">
        <ele>88</ele>
        <time>2026-05-31T12:09:09.058+00:00</time>
      </trkpt>
      <trkpt lat="48.62572" lon="2.58776">
        <ele>88</ele>
        <time>2026-05-31T12:09:13.690+00:00</time>
      </trkpt>
      <trkpt lat="48.62572" lon="2.5879">
        <ele>88</ele>
        <time>2026-05-31T12:09:18.210+00:00</time>
      </trkpt>
      <trkpt lat="48.62574" lon="2.588">
        <ele>88</ele>
        <time>2026-05-31T12:09:22.769+00:00</time>
      </trkpt>
      <trkpt lat="48.62577" lon="2.58807">
        <ele>88</ele>
        <time>2026-05-31T12:09:27.412+00:00</time>
      </trkpt>
      <trkpt lat="48.62576" lon="2.58816">
        <ele>88</ele>
        <time>2026-05-31T12:09:31.387+00:00</time>
      </trkpt>
      <trkpt lat="48.62577" lon="2.58824">
        <ele>88</ele>
        <time>2026-05-31T12:09:35.513+00:00</time>
      </trkpt>
      <trkpt lat="48.62578" lon="2.58832">
        <ele>88</ele>
        <time>2026-05-31T12:09:39.955+00:00</time>
      </trkpt>
      <trkpt lat="48.62578" lon="2.58841">
        <ele>88</ele>
        <time>2026-05-31T12:09:44.272+00:00</time>
      </trkpt>
      <trkpt lat="48.62579" lon="2.58851">
        <ele>88</ele>
        <time>2026-05-31T12:09:48.533+00:00</time>
      </trkpt>
      <trkpt lat="48.62581" lon="2.58859">
        <ele>88</ele>
        <time>2026-05-31T12:09:53.514+00:00</time>
      </trkpt>
      <trkpt lat="48.62582" lon="2.58867">
        <ele>88</ele>
        <time>2026-05-31T12:09:57.629+00:00</time>
      </trkpt>
      <trkpt lat="48.62586" lon="2.58874">
        <ele>88</ele>
        <time>2026-05-31T12:10:01.994+00:00</time>
      </trkpt>
      <trkpt lat="48.6259" lon="2.58883">
        <ele>88</ele>
        <time>2026-05-31T12:10:06.293+00:00</time>
      </trkpt>
      <trkpt lat="48.62595" lon="2.58888">
        <ele>88</ele>
        <time>2026-05-31T12:10:10.755+00:00</time>
      </trkpt>
      <trkpt lat="48.62599" lon="2.58894">
        <ele>88</ele>
        <time>2026-05-31T12:10:14.769+00:00</time>
      </trkpt>
      <trkpt lat="48.62603" lon="2.589">
        <ele>88</ele>
        <time>2026-05-31T12:10:18.768+00:00</time>
      </trkpt>
      <trkpt lat="48.62606" lon="2.58905">
        <ele>88</ele>
        <time>2026-05-31T12:11:14.769+00:00</time>
      </trkpt>
      <trkpt lat="48.62609" lon="2.5891">
        <ele>88</ele>
        <time>2026-05-31T12:11:20.452+00:00</time>
      </trkpt>
      <trkpt lat="48.62612" lon="2.58906">
        <ele>88</ele>
        <time>2026-05-31T12:11:24.768+00:00</time>
      </trkpt>
      <trkpt lat="48.62615" lon="2.58912">
        <ele>88</ele>
        <time>2026-05-31T12:11:29.769+00:00</time>
      </trkpt>
      <trkpt lat="48.62619" lon="2.5892">
        <ele>88</ele>
        <time>2026-05-31T12:11:34.378+00:00</time>
      </trkpt>
      <trkpt lat="48.62623" lon="2.58927">
        <ele>88</ele>
        <time>2026-05-31T12:11:39.474+00:00</time>
      </trkpt>
      <trkpt lat="48.62628" lon="2.58937">
        <ele>89</ele>
        <time>2026-05-31T12:11:43.511+00:00</time>
      </trkpt>
      <trkpt lat="48.62632" lon="2.58944">
        <ele>89</ele>
        <time>2026-05-31T12:11:47.618+00:00</time>
      </trkpt>
      <trkpt lat="48.62635" lon="2.58949">
        <ele>89</ele>
        <time>2026-05-31T12:11:51.769+00:00</time>
      </trkpt>
      <trkpt lat="48.62639" lon="2.58953">
        <ele>89</ele>
        <time>2026-05-31T12:11:56.231+00:00</time>
      </trkpt>
      <trkpt lat="48.62643" lon="2.5896">
        <ele>90</ele>
        <time>2026-05-31T12:12:00.535+00:00</time>
      </trkpt>
      <trkpt lat="48.62648" lon="2.58968">
        <ele>90</ele>
        <time>2026-05-31T12:12:04.769+00:00</time>
      </trkpt>
      <trkpt lat="48.62651" lon="2.58974">
        <ele>90</ele>
        <time>2026-05-31T12:12:09.191+00:00</time>
      </trkpt>
      <trkpt lat="48.62654" lon="2.58981">
        <ele>89</ele>
        <time>2026-05-31T12:12:13.370+00:00</time>
      </trkpt>
      <trkpt lat="48.62657" lon="2.58989">
        <ele>90</ele>
        <time>2026-05-31T12:12:17.769+00:00</time>
      </trkpt>
      <trkpt lat="48.62656" lon="2.58996">
        <ele>90</ele>
        <time>2026-05-31T12:12:22.507+00:00</time>
      </trkpt>
      <trkpt lat="48.6266" lon="2.58998">
        <ele>90</ele>
        <time>2026-05-31T12:12:27.769+00:00</time>
      </trkpt>
      <trkpt lat="48.62663" lon="2.59">
        <ele>90</ele>
        <time>2026-05-31T12:12:32.418+00:00</time>
      </trkpt>
      <trkpt lat="48.6267" lon="2.58997">
        <ele>90</ele>
        <time>2026-05-31T12:12:36.769+00:00</time>
      </trkpt>
      <trkpt lat="48.62676" lon="2.58996">
        <ele>90</ele>
        <time>2026-05-31T12:12:41.053+00:00</time>
      </trkpt>
      <trkpt lat="48.62682" lon="2.58995">
        <ele>90</ele>
        <time>2026-05-31T12:12:45.312+00:00</time>
      </trkpt>
      <trkpt lat="48.62688" lon="2.58994">
        <ele>90</ele>
        <time>2026-05-31T12:12:49.768+00:00</time>
      </trkpt>
      <trkpt lat="48.62694" lon="2.58993">
        <ele>90</ele>
        <time>2026-05-31T12:12:54.769+00:00</time>
      </trkpt>
      <trkpt lat="48.627" lon="2.58991">
        <ele>90</ele>
        <time>2026-05-31T12:12:59.353+00:00</time>
      </trkpt>
      <trkpt lat="48.62705" lon="2.5899">
        <ele>90</ele>
        <time>2026-05-31T12:13:03.769+00:00</time>
      </trkpt>
      <trkpt lat="48.62711" lon="2.58989">
        <ele>91</ele>
        <time>2026-05-31T12:13:08.317+00:00</time>
      </trkpt>
      <trkpt lat="48.62716" lon="2.58989">
        <ele>91</ele>
        <time>2026-05-31T12:13:12.769+00:00</time>
      </trkpt>
      <trkpt lat="48.62723" lon="2.58989">
        <ele>91</ele>
        <time>2026-05-31T12:13:17.359+00:00</time>
      </trkpt>
      <trkpt lat="48.62729" lon="2.58988">
        <ele>91</ele>
        <time>2026-05-31T12:13:21.384+00:00</time>
      </trkpt>
      <trkpt lat="48.62735" lon="2.58986">
        <ele>91</ele>
        <time>2026-05-31T12:13:25.878+00:00</time>
      </trkpt>
      <trkpt lat="48.62735" lon="2.58983">
        <ele>92</ele>
        <time>2026-05-31T12:13:30.787+00:00</time>
      </trkpt>
      <trkpt lat="48.62734" lon="2.58982">
        <ele>92</ele>
        <time>2026-05-31T12:13:35.081+00:00</time>
      </trkpt>
      <trkpt lat="48.6274" lon="2.5898">
        <ele>93</ele>
        <time>2026-05-31T12:13:39.397+00:00</time>
      </trkpt>
      <trkpt lat="48.62746" lon="2.58979">
        <ele>93</ele>
        <time>2026-05-31T12:13:43.781+00:00</time>
      </trkpt>
      <trkpt lat="48.62748" lon="2.58984">
        <ele>93</ele>
        <time>2026-05-31T12:13:48.769+00:00</time>
      </trkpt>
      <trkpt lat="48.62753" lon="2.58986">
        <ele>92</ele>
        <time>2026-05-31T12:13:53.531+00:00</time>
      </trkpt>
      <trkpt lat="48.62758" lon="2.58992">
        <ele>92</ele>
        <time>2026-05-31T12:13:57.769+00:00</time>
      </trkpt>
      <trkpt lat="48.62764" lon="2.58994">
        <ele>92</ele>
        <time>2026-05-31T12:14:02.120+00:00</time>
      </trkpt>
      <trkpt lat="48.62771" lon="2.58992">
        <ele>93</ele>
        <time>2026-05-31T12:14:06.523+00:00</time>
      </trkpt>
      <trkpt lat="48.62776" lon="2.58992">
        <ele>93</ele>
        <time>2026-05-31T12:14:11.601+00:00</time>
      </trkpt>
      <trkpt lat="48.62782" lon="2.58992">
        <ele>93</ele>
        <time>2026-05-31T12:14:15.769+00:00</time>
      </trkpt>
      <trkpt lat="48.62788" lon="2.58992">
        <ele>93</ele>
        <time>2026-05-31T12:14:20.165+00:00</time>
      </trkpt>
      <trkpt lat="48.62794" lon="2.58994">
        <ele>92</ele>
        <time>2026-05-31T12:14:24.418+00:00</time>
      </trkpt>
      <trkpt lat="48.62798" lon="2.58998">
        <ele>92</ele>
        <time>2026-05-31T12:14:28.697+00:00</time>
      </trkpt>
      <trkpt lat="48.62802" lon="2.59004">
        <ele>92</ele>
        <time>2026-05-31T12:14:32.768+00:00</time>
      </trkpt>
      <trkpt lat="48.62808" lon="2.59005">
        <ele>92</ele>
        <time>2026-05-31T12:14:37.282+00:00</time>
      </trkpt>
      <trkpt lat="48.62814" lon="2.59003">
        <ele>92</ele>
        <time>2026-05-31T12:14:41.618+00:00</time>
      </trkpt>
      <trkpt lat="48.6282" lon="2.58995">
        <ele>89</ele>
        <time>2026-05-31T12:14:45.769+00:00</time>
      </trkpt>
      <trkpt lat="48.62825" lon="2.58992">
        <ele>89</ele>
        <time>2026-05-31T12:14:50.117+00:00</time>
      </trkpt>
      <trkpt lat="48.62829" lon="2.58989">
        <ele>89</ele>
        <time>2026-05-31T12:14:58.767+00:00</time>
      </trkpt>
      <trkpt lat="48.62835" lon="2.58985">
        <ele>89</ele>
        <time>2026-05-31T12:15:02.895+00:00</time>
      </trkpt>
      <trkpt lat="48.62841" lon="2.58984">
        <ele>89</ele>
        <time>2026-05-31T12:15:07.767+00:00</time>
      </trkpt>
      <trkpt lat="48.62846" lon="2.58985">
        <ele>89</ele>
        <time>2026-05-31T12:15:12.560+00:00</time>
      </trkpt>
      <trkpt lat="48.62852" lon="2.58984">
        <ele>87</ele>
        <time>2026-05-31T12:15:16.761+00:00</time>
      </trkpt>
      <trkpt lat="48.62857" lon="2.58982">
        <ele>87</ele>
        <time>2026-05-31T12:15:21.156+00:00</time>
      </trkpt>
      <trkpt lat="48.62864" lon="2.58977">
        <ele>87</ele>
        <time>2026-05-31T12:15:25.404+00:00</time>
      </trkpt>
      <trkpt lat="48.6287" lon="2.58976">
        <ele>87</ele>
        <time>2026-05-31T12:15:29.557+00:00</time>
      </trkpt>
      <trkpt lat="48.62874" lon="2.58975">
        <ele>87</ele>
        <time>2026-05-31T12:15:33.768+00:00</time>
      </trkpt>
      <trkpt lat="48.62879" lon="2.58975">
        <ele>86</ele>
        <time>2026-05-31T12:15:38.404+00:00</time>
      </trkpt>
      <trkpt lat="48.62886" lon="2.58973">
        <ele>86</ele>
        <time>2026-05-31T12:15:42.767+00:00</time>
      </trkpt>
      <trkpt lat="48.62891" lon="2.58973">
        <ele>86</ele>
        <time>2026-05-31T12:15:47.313+00:00</time>
      </trkpt>
      <trkpt lat="48.62896" lon="2.58973">
        <ele>86</ele>
        <time>2026-05-31T12:15:51.767+00:00</time>
      </trkpt>
      <trkpt lat="48.62902" lon="2.58974">
        <ele>86</ele>
        <time>2026-05-31T12:15:56.499+00:00</time>
      </trkpt>
      <trkpt lat="48.62906" lon="2.5897">
        <ele>87</ele>
        <time>2026-05-31T12:16:00.768+00:00</time>
      </trkpt>
      <trkpt lat="48.62911" lon="2.58965">
        <ele>87</ele>
        <time>2026-05-31T12:16:05.768+00:00</time>
      </trkpt>
      <trkpt lat="48.62914" lon="2.58966">
        <ele>87</ele>
        <time>2026-05-31T12:16:10.462+00:00</time>
      </trkpt>
      <trkpt lat="48.62918" lon="2.58966">
        <ele>87</ele>
        <time>2026-05-31T12:16:14.684+00:00</time>
      </trkpt>
      <trkpt lat="48.62923" lon="2.58964">
        <ele>87</ele>
        <time>2026-05-31T12:16:19.768+00:00</time>
      </trkpt>
      <trkpt lat="48.62929" lon="2.58964">
        <ele>87</ele>
        <time>2026-05-31T12:16:24.164+00:00</time>
      </trkpt>
      <trkpt lat="48.62934" lon="2.58963">
        <ele>87</ele>
        <time>2026-05-31T12:16:28.569+00:00</time>
      </trkpt>
      <trkpt lat="48.62939" lon="2.58962">
        <ele>87</ele>
        <time>2026-05-31T12:16:32.925+00:00</time>
      </trkpt>
      <trkpt lat="48.62945" lon="2.58963">
        <ele>87</ele>
        <time>2026-05-31T12:16:37.281+00:00</time>
      </trkpt>
      <trkpt lat="48.62951" lon="2.58963">
        <ele>87</ele>
        <time>2026-05-31T12:16:41.569+00:00</time>
      </trkpt>
      <trkpt lat="48.62956" lon="2.58964">
        <ele>87</ele>
        <time>2026-05-31T12:16:45.767+00:00</time>
      </trkpt>
      <trkpt lat="48.62962" lon="2.58964">
        <ele>87</ele>
        <time>2026-05-31T12:16:50.387+00:00</time>
      </trkpt>
      <trkpt lat="48.62968" lon="2.58964">
        <ele>87</ele>
        <time>2026-05-31T12:16:54.767+00:00</time>
      </trkpt>
      <trkpt lat="48.62973" lon="2.58964">
        <ele>87</ele>
        <time>2026-05-31T12:16:59.282+00:00</time>
      </trkpt>
      <trkpt lat="48.62978" lon="2.58964">
        <ele>87</ele>
        <time>2026-05-31T12:17:03.646+00:00</time>
      </trkpt>
      <trkpt lat="48.62985" lon="2.58964">
        <ele>87</ele>
        <time>2026-05-31T12:17:07.768+00:00</time>
      </trkpt>
      <trkpt lat="48.6299" lon="2.58964">
        <ele>86</ele>
        <time>2026-05-31T12:17:12.367+00:00</time>
      </trkpt>
      <trkpt lat="48.62995" lon="2.58964">
        <ele>86</ele>
        <time>2026-05-31T12:17:16.627+00:00</time>
      </trkpt>
      <trkpt lat="48.63" lon="2.58964">
        <ele>86</ele>
        <time>2026-05-31T12:17:20.768+00:00</time>
      </trkpt>
      <trkpt lat="48.63005" lon="2.58965">
        <ele>86</ele>
        <time>2026-05-31T12:17:25.768+00:00</time>
      </trkpt>
      <trkpt lat="48.6301" lon="2.58965">
        <ele>86</ele>
        <time>2026-05-31T12:17:30.041+00:00</time>
      </trkpt>
      <trkpt lat="48.63016" lon="2.58964">
        <ele>86</ele>
        <time>2026-05-31T12:17:34.768+00:00</time>
      </trkpt>
      <trkpt lat="48.63022" lon="2.58964">
        <ele>86</ele>
        <time>2026-05-31T12:17:39.243+00:00</time>
      </trkpt>
      <trkpt lat="48.63028" lon="2.58966">
        <ele>86</ele>
        <time>2026-05-31T12:17:43.744+00:00</time>
      </trkpt>
      <trkpt lat="48.63032" lon="2.58967">
        <ele>86</ele>
        <time>2026-05-31T12:17:47.768+00:00</time>
      </trkpt>
      <trkpt lat="48.63036" lon="2.58965">
        <ele>86</ele>
        <time>2026-05-31T12:17:52.628+00:00</time>
      </trkpt>
      <trkpt lat="48.63043" lon="2.58965">
        <ele>85</ele>
        <time>2026-05-31T12:17:57.523+00:00</time>
      </trkpt>
      <trkpt lat="48.63048" lon="2.58966">
        <ele>85</ele>
        <time>2026-05-31T12:18:02.148+00:00</time>
      </trkpt>
      <trkpt lat="48.63051" lon="2.58966">
        <ele>85</ele>
        <time>2026-05-31T12:18:06.563+00:00</time>
      </trkpt>
      <trkpt lat="48.63051" lon="2.58976">
        <ele>85</ele>
        <time>2026-05-31T12:18:10.768+00:00</time>
      </trkpt>
      <trkpt lat="48.63051" lon="2.58984">
        <ele>85</ele>
        <time>2026-05-31T12:18:15.428+00:00</time>
      </trkpt>
      <trkpt lat="48.63047" lon="2.58992">
        <ele>84</ele>
        <time>2026-05-31T12:18:19.746+00:00</time>
      </trkpt>
      <trkpt lat="48.63046" lon="2.58995">
        <ele>84</ele>
        <time>2026-05-31T12:18:24.120+00:00</time>
      </trkpt>
      <trkpt lat="48.63051" lon="2.59001">
        <ele>84</ele>
        <time>2026-05-31T12:18:28.447+00:00</time>
      </trkpt>
      <trkpt lat="48.63055" lon="2.59008">
        <ele>84</ele>
        <time>2026-05-31T12:18:32.768+00:00</time>
      </trkpt>
      <trkpt lat="48.63064" lon="2.59008">
        <ele>84</ele>
        <time>2026-05-31T12:18:37.669+00:00</time>
      </trkpt>
      <trkpt lat="48.63074" lon="2.59007">
        <ele>83</ele>
        <time>2026-05-31T12:18:41.726+00:00</time>
      </trkpt>
      <trkpt lat="48.63079" lon="2.5901">
        <ele>83</ele>
        <time>2026-05-31T12:18:46.101+00:00</time>
      </trkpt>
      <trkpt lat="48.6308" lon="2.59016">
        <ele>83</ele>
        <time>2026-05-31T12:18:50.428+00:00</time>
      </trkpt>
      <trkpt lat="48.6308" lon="2.59022">
        <ele>83</ele>
        <time>2026-05-31T12:18:54.768+00:00</time>
      </trkpt>
      <trkpt lat="48.63079" lon="2.59029">
        <ele>83</ele>
        <time>2026-05-31T12:18:58.767+00:00</time>
      </trkpt>
      <trkpt lat="48.63079" lon="2.59037">
        <ele>83</ele>
        <time>2026-05-31T12:19:03.726+00:00</time>
      </trkpt>
      <trkpt lat="48.63079" lon="2.59045">
        <ele>83</ele>
        <time>2026-05-31T12:19:08.061+00:00</time>
      </trkpt>
      <trkpt lat="48.63079" lon="2.59053">
        <ele>83</ele>
        <time>2026-05-31T12:19:12.303+00:00</time>
      </trkpt>
      <trkpt lat="48.63078" lon="2.59061">
        <ele>83</ele>
        <time>2026-05-31T12:19:16.767+00:00</time>
      </trkpt>
      <trkpt lat="48.63079" lon="2.59071">
        <ele>83</ele>
        <time>2026-05-31T12:19:20.768+00:00</time>
      </trkpt>
      <trkpt lat="48.63079" lon="2.59078">
        <ele>83</ele>
        <time>2026-05-31T12:19:25.580+00:00</time>
      </trkpt>
      <trkpt lat="48.63078" lon="2.59086">
        <ele>83</ele>
        <time>2026-05-31T12:19:29.768+00:00</time>
      </trkpt>
      <trkpt lat="48.63078" lon="2.59094">
        <ele>83</ele>
        <time>2026-05-31T12:19:34.446+00:00</time>
      </trkpt>
      <trkpt lat="48.63079" lon="2.59101">
        <ele>83</ele>
        <time>2026-05-31T12:19:39.167+00:00</time>
      </trkpt>
      <trkpt lat="48.63082" lon="2.59108">
        <ele>83</ele>
        <time>2026-05-31T12:19:43.303+00:00</time>
      </trkpt>
      <trkpt lat="48.63085" lon="2.59114">
        <ele>83</ele>
        <time>2026-05-31T12:20:06.400+00:00</time>
      </trkpt>
      <trkpt lat="48.63089" lon="2.59121">
        <ele>83</ele>
        <time>2026-05-31T12:20:10.767+00:00</time>
      </trkpt>
      <trkpt lat="48.63093" lon="2.59128">
        <ele>83</ele>
        <time>2026-05-31T12:20:15.238+00:00</time>
      </trkpt>
      <trkpt lat="48.63097" lon="2.59134">
        <ele>81</ele>
        <time>2026-05-31T12:20:19.314+00:00</time>
      </trkpt>
      <trkpt lat="48.63101" lon="2.59141">
        <ele>81</ele>
        <time>2026-05-31T12:20:23.758+00:00</time>
      </trkpt>
      <trkpt lat="48.63106" lon="2.59148">
        <ele>81</ele>
        <time>2026-05-31T12:20:28.729+00:00</time>
      </trkpt>
      <trkpt lat="48.63109" lon="2.59154">
        <ele>83</ele>
        <time>2026-05-31T12:20:33.171+00:00</time>
      </trkpt>
      <trkpt lat="48.63112" lon="2.5916">
        <ele>83</ele>
        <time>2026-05-31T12:20:37.489+00:00</time>
      </trkpt>
      <trkpt lat="48.63117" lon="2.59169">
        <ele>83</ele>
        <time>2026-05-31T12:20:41.766+00:00</time>
      </trkpt>
      <trkpt lat="48.63119" lon="2.59178">
        <ele>83</ele>
        <time>2026-05-31T12:20:46.353+00:00</time>
      </trkpt>
      <trkpt lat="48.63117" lon="2.59188">
        <ele>83</ele>
        <time>2026-05-31T12:20:50.748+00:00</time>
      </trkpt>
      <trkpt lat="48.63116" lon="2.59196">
        <ele>83</ele>
        <time>2026-05-31T12:20:55.132+00:00</time>
      </trkpt>
      <trkpt lat="48.63117" lon="2.59203">
        <ele>83</ele>
        <time>2026-05-31T12:20:59.451+00:00</time>
      </trkpt>
      <trkpt lat="48.63124" lon="2.59206">
        <ele>83</ele>
        <time>2026-05-31T12:21:03.767+00:00</time>
      </trkpt>
      <trkpt lat="48.6313" lon="2.59208">
        <ele>82</ele>
        <time>2026-05-31T12:21:08.093+00:00</time>
      </trkpt>
      <trkpt lat="48.63136" lon="2.59209">
        <ele>83</ele>
        <time>2026-05-31T12:21:12.429+00:00</time>
      </trkpt>
      <trkpt lat="48.63141" lon="2.59211">
        <ele>83</ele>
        <time>2026-05-31T12:21:16.755+00:00</time>
      </trkpt>
      <trkpt lat="48.63146" lon="2.59213">
        <ele>83</ele>
        <time>2026-05-31T12:21:20.767+00:00</time>
      </trkpt>
      <trkpt lat="48.63151" lon="2.59215">
        <ele>83</ele>
        <time>2026-05-31T12:21:25.351+00:00</time>
      </trkpt>
      <trkpt lat="48.63156" lon="2.59218">
        <ele>85</ele>
        <time>2026-05-31T12:21:29.734+00:00</time>
      </trkpt>
      <trkpt lat="48.63162" lon="2.59218">
        <ele>85</ele>
        <time>2026-05-31T12:21:33.767+00:00</time>
      </trkpt>
      <trkpt lat="48.63166" lon="2.59212">
        <ele>85</ele>
        <time>2026-05-31T12:21:38.442+00:00</time>
      </trkpt>
      <trkpt lat="48.63172" lon="2.59211">
        <ele>85</ele>
        <time>2026-05-31T12:21:42.678+00:00</time>
      </trkpt>
      <trkpt lat="48.63175" lon="2.59204">
        <ele>84</ele>
        <time>2026-05-31T12:21:46.992+00:00</time>
      </trkpt>
      <trkpt lat="48.63177" lon="2.59198">
        <ele>84</ele>
        <time>2026-05-31T12:21:51.329+00:00</time>
      </trkpt>
      <trkpt lat="48.63181" lon="2.59195">
        <ele>86</ele>
        <time>2026-05-31T12:21:55.618+00:00</time>
      </trkpt>
      <trkpt lat="48.63184" lon="2.59189">
        <ele>86</ele>
        <time>2026-05-31T12:21:59.766+00:00</time>
      </trkpt>
      <trkpt lat="48.63187" lon="2.59182">
        <ele>86</ele>
        <time>2026-05-31T12:22:04.474+00:00</time>
      </trkpt>
      <trkpt lat="48.63191" lon="2.59176">
        <ele>87</ele>
        <time>2026-05-31T12:22:09.492+00:00</time>
      </trkpt>
      <trkpt lat="48.63194" lon="2.5917">
        <ele>87</ele>
        <time>2026-05-31T12:22:13.770+00:00</time>
      </trkpt>
      <trkpt lat="48.63198" lon="2.59164">
        <ele>87</ele>
        <time>2026-05-31T12:22:18.067+00:00</time>
      </trkpt>
      <trkpt lat="48.632" lon="2.59158">
        <ele>87</ele>
        <time>2026-05-31T12:22:22.433+00:00</time>
      </trkpt>
      <trkpt lat="48.63205" lon="2.5915">
        <ele>87</ele>
        <time>2026-05-31T12:22:26.750+00:00</time>
      </trkpt>
      <trkpt lat="48.63208" lon="2.59145">
        <ele>87</ele>
        <time>2026-05-31T12:22:31.493+00:00</time>
      </trkpt>
      <trkpt lat="48.63211" lon="2.59138">
        <ele>87</ele>
        <time>2026-05-31T12:22:35.634+00:00</time>
      </trkpt>
      <trkpt lat="48.63215" lon="2.59133">
        <ele>87</ele>
        <time>2026-05-31T12:22:39.766+00:00</time>
      </trkpt>
      <trkpt lat="48.63218" lon="2.59126">
        <ele>87</ele>
        <time>2026-05-31T12:22:43.966+00:00</time>
      </trkpt>
      <trkpt lat="48.63222" lon="2.5912">
        <ele>86</ele>
        <time>2026-05-31T12:22:48.315+00:00</time>
      </trkpt>
      <trkpt lat="48.63227" lon="2.59114">
        <ele>86</ele>
        <time>2026-05-31T12:22:52.767+00:00</time>
      </trkpt>
      <trkpt lat="48.63231" lon="2.59108">
        <ele>86</ele>
        <time>2026-05-31T12:22:56.997+00:00</time>
      </trkpt>
      <trkpt lat="48.63235" lon="2.59102">
        <ele>86</ele>
        <time>2026-05-31T12:23:01.334+00:00</time>
      </trkpt>
      <trkpt lat="48.63239" lon="2.59096">
        <ele>87</ele>
        <time>2026-05-31T12:23:05.809+00:00</time>
      </trkpt>
      <trkpt lat="48.63243" lon="2.59089">
        <ele>87</ele>
        <time>2026-05-31T12:23:10.758+00:00</time>
      </trkpt>
      <trkpt lat="48.63246" lon="2.59083">
        <ele>87</ele>
        <time>2026-05-31T12:23:14.775+00:00</time>
      </trkpt>
      <trkpt lat="48.6325" lon="2.59077">
        <ele>87</ele>
        <time>2026-05-31T12:23:18.767+00:00</time>
      </trkpt>
      <trkpt lat="48.63254" lon="2.5907">
        <ele>87</ele>
        <time>2026-05-31T12:23:23.408+00:00</time>
      </trkpt>
      <trkpt lat="48.63257" lon="2.59063">
        <ele>87</ele>
        <time>2026-05-31T12:23:27.754+00:00</time>
      </trkpt>
      <trkpt lat="48.63261" lon="2.59058">
        <ele>87</ele>
        <time>2026-05-31T12:23:31.994+00:00</time>
      </trkpt>
      <trkpt lat="48.63265" lon="2.59051">
        <ele>85</ele>
        <time>2026-05-31T12:23:36.253+00:00</time>
      </trkpt>
      <trkpt lat="48.63267" lon="2.59044">
        <ele>85</ele>
        <time>2026-05-31T12:23:40.513+00:00</time>
      </trkpt>
      <trkpt lat="48.63269" lon="2.59039">
        <ele>84</ele>
        <time>2026-05-31T12:23:44.810+00:00</time>
      </trkpt>
      <trkpt lat="48.6327" lon="2.59032">
        <ele>84</ele>
        <time>2026-05-31T12:23:49.296+00:00</time>
      </trkpt>
      <trkpt lat="48.63269" lon="2.59024">
        <ele>84</ele>
        <time>2026-05-31T12:23:54.589+00:00</time>
      </trkpt>
      <trkpt lat="48.63266" lon="2.59014">
        <ele>83</ele>
        <time>2026-05-31T12:23:58.767+00:00</time>
      </trkpt>
      <trkpt lat="48.63264" lon="2.59006">
        <ele>83</ele>
        <time>2026-05-31T12:24:03.233+00:00</time>
      </trkpt>
      <trkpt lat="48.63267" lon="2.59001">
        <ele>83</ele>
        <time>2026-05-31T12:24:07.511+00:00</time>
      </trkpt>
      <trkpt lat="48.63273" lon="2.59">
        <ele>83</ele>
        <time>2026-05-31T12:24:11.766+00:00</time>
      </trkpt>
      <trkpt lat="48.63278" lon="2.58996">
        <ele>83</ele>
        <time>2026-05-31T12:24:16.136+00:00</time>
      </trkpt>
      <trkpt lat="48.63283" lon="2.58998">
        <ele>83</ele>
        <time>2026-05-31T12:24:20.434+00:00</time>
      </trkpt>
      <trkpt lat="48.63285" lon="2.58991">
        <ele>83</ele>
        <time>2026-05-31T12:24:24.769+00:00</time>
      </trkpt>
      <trkpt lat="48.63283" lon="2.58982">
        <ele>84</ele>
        <time>2026-05-31T12:24:29.374+00:00</time>
      </trkpt>
      <trkpt lat="48.63279" lon="2.58973">
        <ele>84</ele>
        <time>2026-05-31T12:24:33.766+00:00</time>
      </trkpt>
      <trkpt lat="48.63276" lon="2.58965">
        <ele>84</ele>
        <time>2026-05-31T12:24:38.654+00:00</time>
      </trkpt>
      <trkpt lat="48.63272" lon="2.58956">
        <ele>85</ele>
        <time>2026-05-31T12:24:42.767+00:00</time>
      </trkpt>
      <trkpt lat="48.63271" lon="2.58949">
        <ele>85</ele>
        <time>2026-05-31T12:24:47.110+00:00</time>
      </trkpt>
      <trkpt lat="48.63273" lon="2.58946">
        <ele>85</ele>
        <time>2026-05-31T12:24:51.558+00:00</time>
      </trkpt>
      <trkpt lat="48.63272" lon="2.58938">
        <ele>85</ele>
        <time>2026-05-31T12:24:55.767+00:00</time>
      </trkpt>
      <trkpt lat="48.63272" lon="2.58934">
        <ele>85</ele>
        <time>2026-05-31T12:25:00.314+00:00</time>
      </trkpt>
      <trkpt lat="48.6327" lon="2.58928">
        <ele>86</ele>
        <time>2026-05-31T12:25:04.613+00:00</time>
      </trkpt>
      <trkpt lat="48.63268" lon="2.5892">
        <ele>86</ele>
        <time>2026-05-31T12:25:09.133+00:00</time>
      </trkpt>
      <trkpt lat="48.63266" lon="2.58911">
        <ele>86</ele>
        <time>2026-05-31T12:25:13.409+00:00</time>
      </trkpt>
      <trkpt lat="48.63263" lon="2.58903">
        <ele>84</ele>
        <time>2026-05-31T12:25:17.773+00:00</time>
      </trkpt>
      <trkpt lat="48.63261" lon="2.58895">
        <ele>84</ele>
        <time>2026-05-31T12:25:21.766+00:00</time>
      </trkpt>
      <trkpt lat="48.6326" lon="2.58889">
        <ele>84</ele>
        <time>2026-05-31T12:25:26.572+00:00</time>
      </trkpt>
      <trkpt lat="48.63257" lon="2.58881">
        <ele>84</ele>
        <time>2026-05-31T12:25:30.766+00:00</time>
      </trkpt>
      <trkpt lat="48.63255" lon="2.58873">
        <ele>84</ele>
        <time>2026-05-31T12:25:35.494+00:00</time>
      </trkpt>
      <trkpt lat="48.63253" lon="2.58864">
        <ele>84</ele>
        <time>2026-05-31T12:25:39.766+00:00</time>
      </trkpt>
      <trkpt lat="48.63251" lon="2.58856">
        <ele>84</ele>
        <time>2026-05-31T12:25:44.177+00:00</time>
      </trkpt>
      <trkpt lat="48.63249" lon="2.58849">
        <ele>84</ele>
        <time>2026-05-31T12:25:48.766+00:00</time>
      </trkpt>
      <trkpt lat="48.63247" lon="2.58843">
        <ele>84</ele>
        <time>2026-05-31T12:25:53.765+00:00</time>
      </trkpt>
      <trkpt lat="48.63244" lon="2.58834">
        <ele>84</ele>
        <time>2026-05-31T12:25:58.687+00:00</time>
      </trkpt>
      <trkpt lat="48.63242" lon="2.58829">
        <ele>84</ele>
        <time>2026-05-31T12:26:03.766+00:00</time>
      </trkpt>
      <trkpt lat="48.63239" lon="2.58821">
        <ele>84</ele>
        <time>2026-05-31T12:26:08.267+00:00</time>
      </trkpt>
      <trkpt lat="48.63238" lon="2.58813">
        <ele>84</ele>
        <time>2026-05-31T12:26:12.748+00:00</time>
      </trkpt>
      <trkpt lat="48.63237" lon="2.58805">
        <ele>84</ele>
        <time>2026-05-31T12:26:16.766+00:00</time>
      </trkpt>
      <trkpt lat="48.63234" lon="2.58797">
        <ele>83</ele>
        <time>2026-05-31T12:26:21.508+00:00</time>
      </trkpt>
      <trkpt lat="48.63233" lon="2.58788">
        <ele>83</ele>
        <time>2026-05-31T12:26:26.480+00:00</time>
      </trkpt>
      <trkpt lat="48.63234" lon="2.58781">
        <ele>83</ele>
        <time>2026-05-31T12:26:30.720+00:00</time>
      </trkpt>
      <trkpt lat="48.63231" lon="2.58775">
        <ele>83</ele>
        <time>2026-05-31T12:26:34.769+00:00</time>
      </trkpt>
      <trkpt lat="48.63229" lon="2.58767">
        <ele>83</ele>
        <time>2026-05-31T12:26:39.766+00:00</time>
      </trkpt>
      <trkpt lat="48.63228" lon="2.58758">
        <ele>83</ele>
        <time>2026-05-31T12:26:44.761+00:00</time>
      </trkpt>
      <trkpt lat="48.63225" lon="2.58751">
        <ele>83</ele>
        <time>2026-05-31T12:26:49.762+00:00</time>
      </trkpt>
      <trkpt lat="48.63222" lon="2.58745">
        <ele>83</ele>
        <time>2026-05-31T12:26:54.243+00:00</time>
      </trkpt>
      <trkpt lat="48.63222" lon="2.5874">
        <ele>83</ele>
        <time>2026-05-31T12:26:58.685+00:00</time>
      </trkpt>
      <trkpt lat="48.63228" lon="2.58735">
        <ele>83</ele>
        <time>2026-05-31T12:27:03.542+00:00</time>
      </trkpt>
      <trkpt lat="48.63233" lon="2.58732">
        <ele>83</ele>
        <time>2026-05-31T12:27:07.766+00:00</time>
      </trkpt>
      <trkpt lat="48.63239" lon="2.58729">
        <ele>82</ele>
        <time>2026-05-31T12:27:12.245+00:00</time>
      </trkpt>
      <trkpt lat="48.63245" lon="2.58726">
        <ele>82</ele>
        <time>2026-05-31T12:27:16.542+00:00</time>
      </trkpt>
      <trkpt lat="48.63249" lon="2.58722">
        <ele>82</ele>
        <time>2026-05-31T12:27:21.043+00:00</time>
      </trkpt>
      <trkpt lat="48.63251" lon="2.58718">
        <ele>82</ele>
        <time>2026-05-31T12:27:25.533+00:00</time>
      </trkpt>
      <trkpt lat="48.63248" lon="2.58715">
        <ele>82</ele>
        <time>2026-05-31T12:27:30.525+00:00</time>
      </trkpt>
      <trkpt lat="48.63246" lon="2.5871">
        <ele>82</ele>
        <time>2026-05-31T12:27:34.765+00:00</time>
      </trkpt>
      <trkpt lat="48.63246" lon="2.58704">
        <ele>82</ele>
        <time>2026-05-31T12:27:39.063+00:00</time>
      </trkpt>
      <trkpt lat="48.63248" lon="2.58697">
        <ele>82</ele>
        <time>2026-05-31T12:27:43.342+00:00</time>
      </trkpt>
      <trkpt lat="48.63249" lon="2.5869">
        <ele>82</ele>
        <time>2026-05-31T12:27:47.685+00:00</time>
      </trkpt>
      <trkpt lat="48.63247" lon="2.58681">
        <ele>82</ele>
        <time>2026-05-31T12:27:52.564+00:00</time>
      </trkpt>
      <trkpt lat="48.63244" lon="2.58673">
        <ele>82</ele>
        <time>2026-05-31T12:27:57.508+00:00</time>
      </trkpt>
      <trkpt lat="48.63243" lon="2.58665">
        <ele>82</ele>
        <time>2026-05-31T12:28:01.766+00:00</time>
      </trkpt>
      <trkpt lat="48.63241" lon="2.58657">
        <ele>82</ele>
        <time>2026-05-31T12:28:06.123+00:00</time>
      </trkpt>
      <trkpt lat="48.63238" lon="2.58649">
        <ele>82</ele>
        <time>2026-05-31T12:28:10.528+00:00</time>
      </trkpt>
      <trkpt lat="48.63236" lon="2.58642">
        <ele>82</ele>
        <time>2026-05-31T12:28:15.606+00:00</time>
      </trkpt>
      <trkpt lat="48.63233" lon="2.58635">
        <ele>82</ele>
        <time>2026-05-31T12:28:19.961+00:00</time>
      </trkpt>
      <trkpt lat="48.63228" lon="2.5863">
        <ele>82</ele>
        <time>2026-05-31T12:28:24.463+00:00</time>
      </trkpt>
      <trkpt lat="48.63226" lon="2.58621">
        <ele>82</ele>
        <time>2026-05-31T12:28:38.020+00:00</time>
      </trkpt>
      <trkpt lat="48.63226" lon="2.5861">
        <ele>82</ele>
        <time>2026-05-31T12:28:42.766+00:00</time>
      </trkpt>
      <trkpt lat="48.63226" lon="2.58599">
        <ele>82</ele>
        <time>2026-05-31T12:28:46.766+00:00</time>
      </trkpt>
      <trkpt lat="48.63223" lon="2.58591">
        <ele>82</ele>
        <time>2026-05-31T12:28:51.165+00:00</time>
      </trkpt>
      <trkpt lat="48.63221" lon="2.58584">
        <ele>82</ele>
        <time>2026-05-31T12:28:55.423+00:00</time>
      </trkpt>
      <trkpt lat="48.63218" lon="2.58576">
        <ele>82</ele>
        <time>2026-05-31T12:28:59.741+00:00</time>
      </trkpt>
      <trkpt lat="48.63216" lon="2.58568">
        <ele>82</ele>
        <time>2026-05-31T12:29:03.765+00:00</time>
      </trkpt>
      <trkpt lat="48.63213" lon="2.58561">
        <ele>82</ele>
        <time>2026-05-31T12:29:07.826+00:00</time>
      </trkpt>
      <trkpt lat="48.63208" lon="2.58557">
        <ele>83</ele>
        <time>2026-05-31T12:29:12.142+00:00</time>
      </trkpt>
      <trkpt lat="48.63202" lon="2.58556">
        <ele>83</ele>
        <time>2026-05-31T12:29:16.248+00:00</time>
      </trkpt>
      <trkpt lat="48.63197" lon="2.58553">
        <ele>83</ele>
        <time>2026-05-31T12:29:20.323+00:00</time>
      </trkpt>
      <trkpt lat="48.63192" lon="2.5855">
        <ele>83</ele>
        <time>2026-05-31T12:29:24.766+00:00</time>
      </trkpt>
      <trkpt lat="48.63187" lon="2.58548">
        <ele>83</ele>
        <time>2026-05-31T12:29:29.525+00:00</time>
      </trkpt>
      <trkpt lat="48.63182" lon="2.58547">
        <ele>83</ele>
        <time>2026-05-31T12:29:33.766+00:00</time>
      </trkpt>
      <trkpt lat="48.63177" lon="2.58544">
        <ele>84</ele>
        <time>2026-05-31T12:29:37.987+00:00</time>
      </trkpt>
      <trkpt lat="48.63171" lon="2.58541">
        <ele>83</ele>
        <time>2026-05-31T12:29:42.728+00:00</time>
      </trkpt>
      <trkpt lat="48.63166" lon="2.58539">
        <ele>83</ele>
        <time>2026-05-31T12:29:47.121+00:00</time>
      </trkpt>
      <trkpt lat="48.6316" lon="2.58537">
        <ele>83</ele>
        <time>2026-05-31T12:29:51.324+00:00</time>
      </trkpt>
      <trkpt lat="48.63155" lon="2.58534">
        <ele>83</ele>
        <time>2026-05-31T12:29:55.765+00:00</time>
      </trkpt>
      <trkpt lat="48.6315" lon="2.58531">
        <ele>84</ele>
        <time>2026-05-31T12:30:00.207+00:00</time>
      </trkpt>
      <trkpt lat="48.63146" lon="2.58526">
        <ele>84</ele>
        <time>2026-05-31T12:30:04.486+00:00</time>
      </trkpt>
      <trkpt lat="48.63144" lon="2.58519">
        <ele>84</ele>
        <time>2026-05-31T12:30:08.765+00:00</time>
      </trkpt>
      <trkpt lat="48.63143" lon="2.58512">
        <ele>83</ele>
        <time>2026-05-31T12:30:13.506+00:00</time>
      </trkpt>
      <trkpt lat="48.6314" lon="2.58504">
        <ele>83</ele>
        <time>2026-05-31T12:30:17.706+00:00</time>
      </trkpt>
      <trkpt lat="48.6314" lon="2.58495">
        <ele>83</ele>
        <time>2026-05-31T12:30:21.765+00:00</time>
      </trkpt>
      <trkpt lat="48.63145" lon="2.58494">
        <ele>83</ele>
        <time>2026-05-31T12:30:26.303+00:00</time>
      </trkpt>
      <trkpt lat="48.63145" lon="2.58494">
        <ele>83</ele>
        <time>2026-05-31T12:30:30.647+00:00</time>
      </trkpt>
      <trkpt lat="48.63147" lon="2.58494">
        <ele>83</ele>
        <time>2026-05-31T12:30:34.765+00:00</time>
      </trkpt>
      <trkpt lat="48.63153" lon="2.58493">
        <ele>82</ele>
        <time>2026-05-31T12:30:39.299+00:00</time>
      </trkpt>
      <trkpt lat="48.63157" lon="2.58487">
        <ele>82</ele>
        <time>2026-05-31T12:30:43.665+00:00</time>
      </trkpt>
      <trkpt lat="48.63162" lon="2.58482">
        <ele>81</ele>
        <time>2026-05-31T12:30:48.060+00:00</time>
      </trkpt>
      <trkpt lat="48.63164" lon="2.58473">
        <ele>81</ele>
        <time>2026-05-31T12:30:52.386+00:00</time>
      </trkpt>
      <trkpt lat="48.63163" lon="2.58465">
        <ele>81</ele>
        <time>2026-05-31T12:30:56.587+00:00</time>
      </trkpt>
      <trkpt lat="48.63168" lon="2.58461">
        <ele>81</ele>
        <time>2026-05-31T12:31:00.765+00:00</time>
      </trkpt>
      <trkpt lat="48.63173" lon="2.58461">
        <ele>81</ele>
        <time>2026-05-31T12:31:05.201+00:00</time>
      </trkpt>
      <trkpt lat="48.63179" lon="2.58463">
        <ele>81</ele>
        <time>2026-05-31T12:31:09.566+00:00</time>
      </trkpt>
      <trkpt lat="48.63184" lon="2.58459">
        <ele>81</ele>
        <time>2026-05-31T12:31:13.765+00:00</time>
      </trkpt>
      <trkpt lat="48.63186" lon="2.58451">
        <ele>80</ele>
        <time>2026-05-31T12:31:18.248+00:00</time>
      </trkpt>
      <trkpt lat="48.63188" lon="2.58443">
        <ele>80</ele>
        <time>2026-05-31T12:31:22.546+00:00</time>
      </trkpt>
      <trkpt lat="48.63191" lon="2.58436">
        <ele>80</ele>
        <time>2026-05-31T12:31:27.122+00:00</time>
      </trkpt>
      <trkpt lat="48.63194" lon="2.5843">
        <ele>81</ele>
        <time>2026-05-31T12:31:31.488+00:00</time>
      </trkpt>
      <trkpt lat="48.63197" lon="2.58425">
        <ele>81</ele>
        <time>2026-05-31T12:31:35.727+00:00</time>
      </trkpt>
      <trkpt lat="48.63198" lon="2.58416">
        <ele>81</ele>
        <time>2026-05-31T12:31:39.765+00:00</time>
      </trkpt>
      <trkpt lat="48.63199" lon="2.58407">
        <ele>81</ele>
        <time>2026-05-31T12:31:44.525+00:00</time>
      </trkpt>
      <trkpt lat="48.632" lon="2.58399">
        <ele>82</ele>
        <time>2026-05-31T12:31:49.208+00:00</time>
      </trkpt>
      <trkpt lat="48.63201" lon="2.58391">
        <ele>82</ele>
        <time>2026-05-31T12:31:53.764+00:00</time>
      </trkpt>
      <trkpt lat="48.63203" lon="2.58382">
        <ele>82</ele>
        <time>2026-05-31T12:31:57.765+00:00</time>
      </trkpt>
      <trkpt lat="48.63205" lon="2.58375">
        <ele>83</ele>
        <time>2026-05-31T12:32:02.322+00:00</time>
      </trkpt>
      <trkpt lat="48.63206" lon="2.58367">
        <ele>83</ele>
        <time>2026-05-31T12:32:06.407+00:00</time>
      </trkpt>
      <trkpt lat="48.63208" lon="2.58359">
        <ele>83</ele>
        <time>2026-05-31T12:32:10.765+00:00</time>
      </trkpt>
      <trkpt lat="48.6321" lon="2.58352">
        <ele>83</ele>
        <time>2026-05-31T12:32:24.599+00:00</time>
      </trkpt>
      <trkpt lat="48.63211" lon="2.58344">
        <ele>84</ele>
        <time>2026-05-31T12:32:28.764+00:00</time>
      </trkpt>
      <trkpt lat="48.63212" lon="2.58334">
        <ele>84</ele>
        <time>2026-05-31T12:32:32.867+00:00</time>
      </trkpt>
      <trkpt lat="48.63214" lon="2.58326">
        <ele>84</ele>
        <time>2026-05-31T12:32:37.241+00:00</time>
      </trkpt>
      <trkpt lat="48.63215" lon="2.58317">
        <ele>84</ele>
        <time>2026-05-31T12:32:41.327+00:00</time>
      </trkpt>
      <trkpt lat="48.63215" lon="2.58309">
        <ele>84</ele>
        <time>2026-05-31T12:32:45.760+00:00</time>
      </trkpt>
      <trkpt lat="48.63217" lon="2.58302">
        <ele>84</ele>
        <time>2026-05-31T12:32:50.144+00:00</time>
      </trkpt>
      <trkpt lat="48.63219" lon="2.58293">
        <ele>84</ele>
        <time>2026-05-31T12:32:54.625+00:00</time>
      </trkpt>
      <trkpt lat="48.63221" lon="2.58284">
        <ele>83</ele>
        <time>2026-05-31T12:32:59.106+00:00</time>
      </trkpt>
      <trkpt lat="48.63222" lon="2.58275">
        <ele>83</ele>
        <time>2026-05-31T12:33:03.643+00:00</time>
      </trkpt>
      <trkpt lat="48.63223" lon="2.58267">
        <ele>83</ele>
        <time>2026-05-31T12:33:07.765+00:00</time>
      </trkpt>
      <trkpt lat="48.63225" lon="2.58259">
        <ele>83</ele>
        <time>2026-05-31T12:33:12.288+00:00</time>
      </trkpt>
      <trkpt lat="48.63227" lon="2.5825">
        <ele>83</ele>
        <time>2026-05-31T12:33:16.765+00:00</time>
      </trkpt>
      <trkpt lat="48.63229" lon="2.58243">
        <ele>83</ele>
        <time>2026-05-31T12:33:21.765+00:00</time>
      </trkpt>
      <trkpt lat="48.63233" lon="2.58237">
        <ele>83</ele>
        <time>2026-05-31T12:33:26.182+00:00</time>
      </trkpt>
      <trkpt lat="48.63236" lon="2.58232">
        <ele>82</ele>
        <time>2026-05-31T12:33:30.624+00:00</time>
      </trkpt>
      <trkpt lat="48.63241" lon="2.5823">
        <ele>82</ele>
        <time>2026-05-31T12:33:34.765+00:00</time>
      </trkpt>
      <trkpt lat="48.63245" lon="2.58229">
        <ele>82</ele>
        <time>2026-05-31T12:33:39.383+00:00</time>
      </trkpt>
      <trkpt lat="48.63251" lon="2.58228">
        <ele>82</ele>
        <time>2026-05-31T12:33:43.786+00:00</time>
      </trkpt>
      <trkpt lat="48.63256" lon="2.58228">
        <ele>82</ele>
        <time>2026-05-31T12:33:48.219+00:00</time>
      </trkpt>
      <trkpt lat="48.6326" lon="2.58226">
        <ele>82</ele>
        <time>2026-05-31T12:33:52.528+00:00</time>
      </trkpt>
      <trkpt lat="48.63265" lon="2.58225">
        <ele>81</ele>
        <time>2026-05-31T12:33:56.765+00:00</time>
      </trkpt>
      <trkpt lat="48.63271" lon="2.58222">
        <ele>81</ele>
        <time>2026-05-31T12:34:01.662+00:00</time>
      </trkpt>
      <trkpt lat="48.63276" lon="2.58217">
        <ele>81</ele>
        <time>2026-05-31T12:34:06.046+00:00</time>
      </trkpt>
      <trkpt lat="48.63281" lon="2.58212">
        <ele>81</ele>
        <time>2026-05-31T12:34:10.382+00:00</time>
      </trkpt>
      <trkpt lat="48.63285" lon="2.58207">
        <ele>81</ele>
        <time>2026-05-31T12:34:14.787+00:00</time>
      </trkpt>
      <trkpt lat="48.63288" lon="2.58202">
        <ele>81</ele>
        <time>2026-05-31T12:34:19.497+00:00</time>
      </trkpt>
      <trkpt lat="48.63291" lon="2.58196">
        <ele>81</ele>
        <time>2026-05-31T12:34:23.765+00:00</time>
      </trkpt>
      <trkpt lat="48.63294" lon="2.58189">
        <ele>83</ele>
        <time>2026-05-31T12:34:28.764+00:00</time>
      </trkpt>
      <trkpt lat="48.63298" lon="2.58183">
        <ele>83</ele>
        <time>2026-05-31T12:34:33.248+00:00</time>
      </trkpt>
      <trkpt lat="48.63301" lon="2.58176">
        <ele>83</ele>
        <time>2026-05-31T12:34:37.680+00:00</time>
      </trkpt>
      <trkpt lat="48.63305" lon="2.58169">
        <ele>83</ele>
        <time>2026-05-31T12:34:42.162+00:00</time>
      </trkpt>
      <trkpt lat="48.63308" lon="2.58163">
        <ele>83</ele>
        <time>2026-05-31T12:34:46.622+00:00</time>
      </trkpt>
      <trkpt lat="48.63311" lon="2.58156">
        <ele>83</ele>
        <time>2026-05-31T12:34:50.940+00:00</time>
      </trkpt>
      <trkpt lat="48.63314" lon="2.5815">
        <ele>83</ele>
        <time>2026-05-31T12:34:55.527+00:00</time>
      </trkpt>
      <trkpt lat="48.63316" lon="2.58145">
        <ele>83</ele>
        <time>2026-05-31T12:35:00.065+00:00</time>
      </trkpt>
      <trkpt lat="48.63319" lon="2.58138">
        <ele>83</ele>
        <time>2026-05-31T12:35:04.584+00:00</time>
      </trkpt>
      <trkpt lat="48.63319" lon="2.58136">
        <ele>83</ele>
        <time>2026-05-31T12:35:08.901+00:00</time>
      </trkpt>
      <trkpt lat="48.63323" lon="2.5813">
        <ele>83</ele>
        <time>2026-05-31T12:35:13.363+00:00</time>
      </trkpt>
      <trkpt lat="48.63327" lon="2.58124">
        <ele>82</ele>
        <time>2026-05-31T12:35:17.400+00:00</time>
      </trkpt>
      <trkpt lat="48.63329" lon="2.58116">
        <ele>82</ele>
        <time>2026-05-31T12:35:21.448+00:00</time>
      </trkpt>
      <trkpt lat="48.63332" lon="2.58107">
        <ele>82</ele>
        <time>2026-05-31T12:35:25.764+00:00</time>
      </trkpt>
      <trkpt lat="48.63335" lon="2.58101">
        <ele>82</ele>
        <time>2026-05-31T12:35:30.660+00:00</time>
      </trkpt>
      <trkpt lat="48.63337" lon="2.58093">
        <ele>83</ele>
        <time>2026-05-31T12:35:35.140+00:00</time>
      </trkpt>
      <trkpt lat="48.6334" lon="2.58085">
        <ele>83</ele>
        <time>2026-05-31T12:35:39.765+00:00</time>
      </trkpt>
      <trkpt lat="48.63343" lon="2.58079">
        <ele>83</ele>
        <time>2026-05-31T12:35:44.381+00:00</time>
      </trkpt>
      <trkpt lat="48.63346" lon="2.58072">
        <ele>83</ele>
        <time>2026-05-31T12:35:48.785+00:00</time>
      </trkpt>
      <trkpt lat="48.63349" lon="2.58065">
        <ele>82</ele>
        <time>2026-05-31T12:35:52.764+00:00</time>
      </trkpt>
      <trkpt lat="48.63352" lon="2.58059">
        <ele>82</ele>
        <time>2026-05-31T12:35:57.062+00:00</time>
      </trkpt>
      <trkpt lat="48.63355" lon="2.5805">
        <ele>82</ele>
        <time>2026-05-31T12:36:01.080+00:00</time>
      </trkpt>
      <trkpt lat="48.63357" lon="2.58042">
        <ele>82</ele>
        <time>2026-05-31T12:36:05.618+00:00</time>
      </trkpt>
      <trkpt lat="48.6336" lon="2.58035">
        <ele>82</ele>
        <time>2026-05-31T12:36:10.061+00:00</time>
      </trkpt>
      <trkpt lat="48.63363" lon="2.58027">
        <ele>82</ele>
        <time>2026-05-31T12:36:14.427+00:00</time>
      </trkpt>
      <trkpt lat="48.63366" lon="2.58019">
        <ele>82</ele>
        <time>2026-05-31T12:36:18.764+00:00</time>
      </trkpt>
      <trkpt lat="48.63368" lon="2.58011">
        <ele>82</ele>
        <time>2026-05-31T12:36:23.466+00:00</time>
      </trkpt>
      <trkpt lat="48.6337" lon="2.58005">
        <ele>82</ele>
        <time>2026-05-31T12:36:27.764+00:00</time>
      </trkpt>
      <trkpt lat="48.63374" lon="2.57998">
        <ele>82</ele>
        <time>2026-05-31T12:36:31.927+00:00</time>
      </trkpt>
      <trkpt lat="48.63376" lon="2.5799">
        <ele>81</ele>
        <time>2026-05-31T12:36:36.764+00:00</time>
      </trkpt>
      <trkpt lat="48.63379" lon="2.57983">
        <ele>81</ele>
        <time>2026-05-31T12:36:40.966+00:00</time>
      </trkpt>
      <trkpt lat="48.63381" lon="2.57975">
        <ele>81</ele>
        <time>2026-05-31T12:36:45.284+00:00</time>
      </trkpt>
      <trkpt lat="48.63383" lon="2.57968">
        <ele>81</ele>
        <time>2026-05-31T12:36:49.764+00:00</time>
      </trkpt>
      <trkpt lat="48.63386" lon="2.5796">
        <ele>81</ele>
        <time>2026-05-31T12:36:54.680+00:00</time>
      </trkpt>
      <trkpt lat="48.63388" lon="2.57954">
        <ele>80</ele>
        <time>2026-05-31T12:36:59.084+00:00</time>
      </trkpt>
      <trkpt lat="48.6339" lon="2.57947">
        <ele>80</ele>
        <time>2026-05-31T12:37:03.382+00:00</time>
      </trkpt>
      <trkpt lat="48.63392" lon="2.57939">
        <ele>80</ele>
        <time>2026-05-31T12:37:07.708+00:00</time>
      </trkpt>
      <trkpt lat="48.63395" lon="2.57932">
        <ele>80</ele>
        <time>2026-05-31T12:37:12.140+00:00</time>
      </trkpt>
      <trkpt lat="48.63398" lon="2.57924">
        <ele>80</ele>
        <time>2026-05-31T12:37:16.584+00:00</time>
      </trkpt>
      <trkpt lat="48.634" lon="2.57914">
        <ele>80</ele>
        <time>2026-05-31T12:37:20.766+00:00</time>
      </trkpt>
      <trkpt lat="48.63403" lon="2.57905">
        <ele>80</ele>
        <time>2026-05-31T12:37:24.764+00:00</time>
      </trkpt>
      <trkpt lat="48.63405" lon="2.57899">
        <ele>81</ele>
        <time>2026-05-31T12:37:29.544+00:00</time>
      </trkpt>
      <trkpt lat="48.63408" lon="2.57891">
        <ele>81</ele>
        <time>2026-05-31T12:37:33.764+00:00</time>
      </trkpt>
      <trkpt lat="48.63411" lon="2.57884">
        <ele>81</ele>
        <time>2026-05-31T12:37:38.121+00:00</time>
      </trkpt>
      <trkpt lat="48.63414" lon="2.57877">
        <ele>81</ele>
        <time>2026-05-31T12:37:42.602+00:00</time>
      </trkpt>
      <trkpt lat="48.63418" lon="2.57869">
        <ele>82</ele>
        <time>2026-05-31T12:37:46.764+00:00</time>
      </trkpt>
      <trkpt lat="48.6342" lon="2.57862">
        <ele>82</ele>
        <time>2026-05-31T12:37:51.430+00:00</time>
      </trkpt>
      <trkpt lat="48.63423" lon="2.57855">
        <ele>82</ele>
        <time>2026-05-31T12:37:55.764+00:00</time>
      </trkpt>
      <trkpt lat="48.63426" lon="2.57848">
        <ele>82</ele>
        <time>2026-05-31T12:38:00.245+00:00</time>
      </trkpt>
      <trkpt lat="48.63428" lon="2.57842">
        <ele>83</ele>
        <time>2026-05-31T12:38:04.543+00:00</time>
      </trkpt>
      <trkpt lat="48.63431" lon="2.57836">
        <ele>83</ele>
        <time>2026-05-31T12:38:08.764+00:00</time>
      </trkpt>
      <trkpt lat="48.63433" lon="2.57829">
        <ele>83</ele>
        <time>2026-05-31T12:38:13.466+00:00</time>
      </trkpt>
      <trkpt lat="48.63435" lon="2.57821">
        <ele>83</ele>
        <time>2026-05-31T12:38:17.764+00:00</time>
      </trkpt>
      <trkpt lat="48.63438" lon="2.57813">
        <ele>83</ele>
        <time>2026-05-31T12:38:22.321+00:00</time>
      </trkpt>
      <trkpt lat="48.6344" lon="2.57806">
        <ele>83</ele>
        <time>2026-05-31T12:38:26.620+00:00</time>
      </trkpt>
      <trkpt lat="48.63442" lon="2.57799">
        <ele>83</ele>
        <time>2026-05-31T12:38:30.764+00:00</time>
      </trkpt>
      <trkpt lat="48.63445" lon="2.57792">
        <ele>83</ele>
        <time>2026-05-31T12:38:35.447+00:00</time>
      </trkpt>
      <trkpt lat="48.63447" lon="2.57784">
        <ele>83</ele>
        <time>2026-05-31T12:38:39.764+00:00</time>
      </trkpt>
      <trkpt lat="48.63448" lon="2.57776">
        <ele>83</ele>
        <time>2026-05-31T12:38:43.764+00:00</time>
      </trkpt>
      <trkpt lat="48.6345" lon="2.57769">
        <ele>83</ele>
        <time>2026-05-31T12:38:48.764+00:00</time>
      </trkpt>
      <trkpt lat="48.63452" lon="2.57762">
        <ele>83</ele>
        <time>2026-05-31T12:38:53.543+00:00</time>
      </trkpt>
      <trkpt lat="48.63454" lon="2.57754">
        <ele>83</ele>
        <time>2026-05-31T12:38:57.985+00:00</time>
      </trkpt>
      <trkpt lat="48.63457" lon="2.57747">
        <ele>83</ele>
        <time>2026-05-31T12:39:02.360+00:00</time>
      </trkpt>
      <trkpt lat="48.63459" lon="2.57739">
        <ele>83</ele>
        <time>2026-05-31T12:39:06.727+00:00</time>
      </trkpt>
      <trkpt lat="48.6346" lon="2.57732">
        <ele>83</ele>
        <time>2026-05-31T12:39:11.764+00:00</time>
      </trkpt>
      <trkpt lat="48.63462" lon="2.57724">
        <ele>83</ele>
        <time>2026-05-31T12:39:16.246+00:00</time>
      </trkpt>
      <trkpt lat="48.63464" lon="2.57717">
        <ele>83</ele>
        <time>2026-05-31T12:39:20.679+00:00</time>
      </trkpt>
      <trkpt lat="48.63467" lon="2.57709">
        <ele>83</ele>
        <time>2026-05-31T12:39:25.083+00:00</time>
      </trkpt>
      <trkpt lat="48.63471" lon="2.57703">
        <ele>82</ele>
        <time>2026-05-31T12:39:29.525+00:00</time>
      </trkpt>
      <trkpt lat="48.63475" lon="2.57698">
        <ele>82</ele>
        <time>2026-05-31T12:39:33.764+00:00</time>
      </trkpt>
      <trkpt lat="48.63479" lon="2.57692">
        <ele>82</ele>
        <time>2026-05-31T12:39:38.303+00:00</time>
      </trkpt>
      <trkpt lat="48.63482" lon="2.57686">
        <ele>82</ele>
        <time>2026-05-31T12:39:42.726+00:00</time>
      </trkpt>
      <trkpt lat="48.63486" lon="2.5768">
        <ele>82</ele>
        <time>2026-05-31T12:39:47.207+00:00</time>
      </trkpt>
      <trkpt lat="48.6349" lon="2.57674">
        <ele>83</ele>
        <time>2026-05-31T12:39:51.708+00:00</time>
      </trkpt>
      <trkpt lat="48.63492" lon="2.57667">
        <ele>83</ele>
        <time>2026-05-31T12:39:56.063+00:00</time>
      </trkpt>
      <trkpt lat="48.63493" lon="2.5766">
        <ele>83</ele>
        <time>2026-05-31T12:40:00.400+00:00</time>
      </trkpt>
      <trkpt lat="48.63493" lon="2.57653">
        <ele>83</ele>
        <time>2026-05-31T12:40:04.764+00:00</time>
      </trkpt>
      <trkpt lat="48.63483" lon="2.57636">
        <ele>82</ele>
        <time>2026-05-31T12:40:09.246+00:00</time>
      </trkpt>
      <trkpt lat="48.6348" lon="2.57632">
        <ele>82</ele>
        <time>2026-05-31T12:40:13.765+00:00</time>
      </trkpt>
      <trkpt lat="48.63471" lon="2.57624">
        <ele>82</ele>
        <time>2026-05-31T12:40:18.381+00:00</time>
      </trkpt>
      <trkpt lat="48.63465" lon="2.57617">
        <ele>82</ele>
        <time>2026-05-31T12:40:22.763+00:00</time>
      </trkpt>
      <trkpt lat="48.63461" lon="2.5761">
        <ele>82</ele>
        <time>2026-05-31T12:40:27.343+00:00</time>
      </trkpt>
      <trkpt lat="48.63457" lon="2.57604">
        <ele>82</ele>
        <time>2026-05-31T12:40:31.763+00:00</time>
      </trkpt>
      <trkpt lat="48.63454" lon="2.57597">
        <ele>82</ele>
        <time>2026-05-31T12:40:36.343+00:00</time>
      </trkpt>
      <trkpt lat="48.6345" lon="2.57591">
        <ele>82</ele>
        <time>2026-05-31T12:40:40.762+00:00</time>
      </trkpt>
      <trkpt lat="48.63447" lon="2.57585">
        <ele>82</ele>
        <time>2026-05-31T12:40:45.440+00:00</time>
      </trkpt>
      <trkpt lat="48.63444" lon="2.5758">
        <ele>82</ele>
        <time>2026-05-31T12:40:49.763+00:00</time>
      </trkpt>
      <trkpt lat="48.63441" lon="2.57573">
        <ele>82</ele>
        <time>2026-05-31T12:40:54.266+00:00</time>
      </trkpt>
      <trkpt lat="48.63438" lon="2.57567">
        <ele>82</ele>
        <time>2026-05-31T12:40:58.787+00:00</time>
      </trkpt>
      <trkpt lat="48.63434" lon="2.57561">
        <ele>82</ele>
        <time>2026-05-31T12:41:03.247+00:00</time>
      </trkpt>
      <trkpt lat="48.63431" lon="2.57555">
        <ele>82</ele>
        <time>2026-05-31T12:41:07.680+00:00</time>
      </trkpt>
      <trkpt lat="48.63427" lon="2.57548">
        <ele>82</ele>
        <time>2026-05-31T12:41:12.102+00:00</time>
      </trkpt>
      <trkpt lat="48.63424" lon="2.57542">
        <ele>82</ele>
        <time>2026-05-31T12:41:16.488+00:00</time>
      </trkpt>
      <trkpt lat="48.6342" lon="2.57536">
        <ele>83</ele>
        <time>2026-05-31T12:41:20.763+00:00</time>
      </trkpt>
      <trkpt lat="48.63416" lon="2.57528">
        <ele>83</ele>
        <time>2026-05-31T12:41:25.382+00:00</time>
      </trkpt>
      <trkpt lat="48.63413" lon="2.57522">
        <ele>83</ele>
        <time>2026-05-31T12:41:29.419+00:00</time>
      </trkpt>
      <trkpt lat="48.6341" lon="2.57516">
        <ele>83</ele>
        <time>2026-05-31T12:41:33.543+00:00</time>
      </trkpt>
      <trkpt lat="48.63406" lon="2.57509">
        <ele>83</ele>
        <time>2026-05-31T12:41:51.763+00:00</time>
      </trkpt>
      <trkpt lat="48.63404" lon="2.57503">
        <ele>83</ele>
        <time>2026-05-31T12:41:56.546+00:00</time>
      </trkpt>
      <trkpt lat="48.634" lon="2.57495">
        <ele>82</ele>
        <time>2026-05-31T12:42:00.602+00:00</time>
      </trkpt>
      <trkpt lat="48.63396" lon="2.57488">
        <ele>82</ele>
        <time>2026-05-31T12:42:04.763+00:00</time>
      </trkpt>
      <trkpt lat="48.63393" lon="2.57482">
        <ele>83</ele>
        <time>2026-05-31T12:42:09.399+00:00</time>
      </trkpt>
      <trkpt lat="48.6339" lon="2.57476">
        <ele>83</ele>
        <time>2026-05-31T12:42:13.763+00:00</time>
      </trkpt>
      <trkpt lat="48.63386" lon="2.57469">
        <ele>83</ele>
        <time>2026-05-31T12:42:18.159+00:00</time>
      </trkpt>
      <trkpt lat="48.63383" lon="2.57463">
        <ele>83</ele>
        <time>2026-05-31T12:42:22.273+00:00</time>
      </trkpt>
      <trkpt lat="48.63379" lon="2.57456">
        <ele>84</ele>
        <time>2026-05-31T12:42:26.763+00:00</time>
      </trkpt>
      <trkpt lat="48.63375" lon="2.5745">
        <ele>84</ele>
        <time>2026-05-31T12:42:30.763+00:00</time>
      </trkpt>
      <trkpt lat="48.63371" lon="2.57444">
        <ele>83</ele>
        <time>2026-05-31T12:42:35.004+00:00</time>
      </trkpt>
      <trkpt lat="48.63366" lon="2.57438">
        <ele>83</ele>
        <time>2026-05-31T12:42:39.042+00:00</time>
      </trkpt>
      <trkpt lat="48.63363" lon="2.57433">
        <ele>83</ele>
        <time>2026-05-31T12:42:43.445+00:00</time>
      </trkpt>
      <trkpt lat="48.63358" lon="2.57427">
        <ele>83</ele>
        <time>2026-05-31T12:42:47.763+00:00</time>
      </trkpt>
      <trkpt lat="48.63354" lon="2.57421">
        <ele>83</ele>
        <time>2026-05-31T12:42:52.504+00:00</time>
      </trkpt>
      <trkpt lat="48.6335" lon="2.57417">
        <ele>83</ele>
        <time>2026-05-31T12:42:56.540+00:00</time>
      </trkpt>
      <trkpt lat="48.63345" lon="2.57412">
        <ele>81</ele>
        <time>2026-05-31T12:43:00.762+00:00</time>
      </trkpt>
      <trkpt lat="48.63341" lon="2.57407">
        <ele>81</ele>
        <time>2026-05-31T12:43:05.320+00:00</time>
      </trkpt>
      <trkpt lat="48.63336" lon="2.57403">
        <ele>81</ele>
        <time>2026-05-31T12:43:09.684+00:00</time>
      </trkpt>
      <trkpt lat="48.63332" lon="2.57398">
        <ele>81</ele>
        <time>2026-05-31T12:43:13.763+00:00</time>
      </trkpt>
      <trkpt lat="48.63327" lon="2.57393">
        <ele>81</ele>
        <time>2026-05-31T12:43:18.406+00:00</time>
      </trkpt>
      <trkpt lat="48.63322" lon="2.57389">
        <ele>81</ele>
        <time>2026-05-31T12:43:22.404+00:00</time>
      </trkpt>
      <trkpt lat="48.63317" lon="2.57384">
        <ele>80</ele>
        <time>2026-05-31T12:43:26.763+00:00</time>
      </trkpt>
      <trkpt lat="48.63312" lon="2.57381">
        <ele>80</ele>
        <time>2026-05-31T12:43:31.520+00:00</time>
      </trkpt>
      <trkpt lat="48.63306" lon="2.57379">
        <ele>80</ele>
        <time>2026-05-31T12:43:35.763+00:00</time>
      </trkpt>
      <trkpt lat="48.63301" lon="2.57381">
        <ele>80</ele>
        <time>2026-05-31T12:43:40.096+00:00</time>
      </trkpt>
      <trkpt lat="48.63297" lon="2.5738">
        <ele>80</ele>
        <time>2026-05-31T12:43:44.626+00:00</time>
      </trkpt>
      <trkpt lat="48.63294" lon="2.57375">
        <ele>81</ele>
        <time>2026-05-31T12:43:48.763+00:00</time>
      </trkpt>
      <trkpt lat="48.63294" lon="2.57368">
        <ele>81</ele>
        <time>2026-05-31T12:43:53.279+00:00</time>
      </trkpt>
      <trkpt lat="48.63299" lon="2.57364">
        <ele>81</ele>
        <time>2026-05-31T12:43:57.743+00:00</time>
      </trkpt>
      <trkpt lat="48.63299" lon="2.57364">
        <ele>81</ele>
        <time>2026-05-31T12:44:01.763+00:00</time>
      </trkpt>
      <trkpt lat="48.63298" lon="2.57361">
        <ele>81</ele>
        <time>2026-05-31T12:44:06.403+00:00</time>
      </trkpt>
      <trkpt lat="48.63298" lon="2.57357">
        <ele>81</ele>
        <time>2026-05-31T12:44:10.763+00:00</time>
      </trkpt>
      <trkpt lat="48.633" lon="2.57353">
        <ele>81</ele>
        <time>2026-05-31T12:44:15.530+00:00</time>
      </trkpt>
      <trkpt lat="48.63298" lon="2.57358">
        <ele>81</ele>
        <time>2026-05-31T12:44:19.763+00:00</time>
      </trkpt>
      <trkpt lat="48.63297" lon="2.57359">
        <ele>81</ele>
        <time>2026-05-31T12:44:23.763+00:00</time>
      </trkpt>
      <trkpt lat="48.63297" lon="2.57359">
        <ele>81</ele>
        <time>2026-05-31T12:44:28.347+00:00</time>
      </trkpt>
      <trkpt lat="48.63295" lon="2.57359">
        <ele>81</ele>
        <time>2026-05-31T12:44:32.692+00:00</time>
      </trkpt>
      <trkpt lat="48.63288" lon="2.57356">
        <ele>80</ele>
        <time>2026-05-31T12:44:36.971+00:00</time>
      </trkpt>
      <trkpt lat="48.63284" lon="2.57352">
        <ele>80</ele>
        <time>2026-05-31T12:44:41.433+00:00</time>
      </trkpt>
      <trkpt lat="48.63282" lon="2.57344">
        <ele>81</ele>
        <time>2026-05-31T12:44:45.763+00:00</time>
      </trkpt>
      <trkpt lat="48.63281" lon="2.57338">
        <ele>81</ele>
        <time>2026-05-31T12:44:50.327+00:00</time>
      </trkpt>
      <trkpt lat="48.63279" lon="2.57333">
        <ele>81</ele>
        <time>2026-05-31T12:44:54.750+00:00</time>
      </trkpt>
      <trkpt lat="48.63275" lon="2.57329">
        <ele>81</ele>
        <time>2026-05-31T12:44:59.009+00:00</time>
      </trkpt>
      <trkpt lat="48.6327" lon="2.57326">
        <ele>81</ele>
        <time>2026-05-31T12:45:03.433+00:00</time>
      </trkpt>
      <trkpt lat="48.63266" lon="2.57326">
        <ele>81</ele>
        <time>2026-05-31T12:45:07.529+00:00</time>
      </trkpt>
      <trkpt lat="48.63266" lon="2.57328">
        <ele>81</ele>
        <time>2026-05-31T12:45:11.564+00:00</time>
      </trkpt>
      <trkpt lat="48.63261" lon="2.57321">
        <ele>82</ele>
        <time>2026-05-31T12:45:15.762+00:00</time>
      </trkpt>
      <trkpt lat="48.63264" lon="2.57314">
        <ele>82</ele>
        <time>2026-05-31T12:45:20.748+00:00</time>
      </trkpt>
      <trkpt lat="48.63265" lon="2.57306">
        <ele>83</ele>
        <time>2026-05-31T12:45:59.762+00:00</time>
      </trkpt>
      <trkpt lat="48.63267" lon="2.57299">
        <ele>83</ele>
        <time>2026-05-31T12:46:08.457+00:00</time>
      </trkpt>
      <trkpt lat="48.63269" lon="2.5729">
        <ele>83</ele>
        <time>2026-05-31T12:46:13.152+00:00</time>
      </trkpt>
      <trkpt lat="48.63271" lon="2.57281">
        <ele>83</ele>
        <time>2026-05-31T12:46:17.227+00:00</time>
      </trkpt>
      <trkpt lat="48.63272" lon="2.57274">
        <ele>83</ele>
        <time>2026-05-31T12:46:21.762+00:00</time>
      </trkpt>
      <trkpt lat="48.63276" lon="2.57268">
        <ele>83</ele>
        <time>2026-05-31T12:46:50.761+00:00</time>
      </trkpt>
      <trkpt lat="48.63281" lon="2.57262">
        <ele>83</ele>
        <time>2026-05-31T12:46:54.762+00:00</time>
      </trkpt>
      <trkpt lat="48.63285" lon="2.57257">
        <ele>83</ele>
        <time>2026-05-31T12:46:59.762+00:00</time>
      </trkpt>
      <trkpt lat="48.63288" lon="2.57251">
        <ele>83</ele>
        <time>2026-05-31T12:47:04.072+00:00</time>
      </trkpt>
      <trkpt lat="48.63292" lon="2.57246">
        <ele>84</ele>
        <time>2026-05-31T12:47:08.506+00:00</time>
      </trkpt>
      <trkpt lat="48.63293" lon="2.57237">
        <ele>84</ele>
        <time>2026-05-31T12:47:12.514+00:00</time>
      </trkpt>
      <trkpt lat="48.63297" lon="2.57233">
        <ele>83</ele>
        <time>2026-05-31T12:47:16.762+00:00</time>
      </trkpt>
      <trkpt lat="48.63301" lon="2.57237">
        <ele>84</ele>
        <time>2026-05-31T12:47:21.350+00:00</time>
      </trkpt>
      <trkpt lat="48.63301" lon="2.57239">
        <ele>84</ele>
        <time>2026-05-31T12:47:25.762+00:00</time>
      </trkpt>
      <trkpt lat="48.63304" lon="2.57239">
        <ele>84</ele>
        <time>2026-05-31T12:47:29.908+00:00</time>
      </trkpt>
      <trkpt lat="48.63311" lon="2.57238">
        <ele>84</ele>
        <time>2026-05-31T12:47:34.389+00:00</time>
      </trkpt>
      <trkpt lat="48.63312" lon="2.57246">
        <ele>84</ele>
        <time>2026-05-31T12:47:39.002+00:00</time>
      </trkpt>
      <trkpt lat="48.63312" lon="2.57253">
        <ele>84</ele>
        <time>2026-05-31T12:47:43.447+00:00</time>
      </trkpt>
      <trkpt lat="48.63314" lon="2.57259">
        <ele>84</ele>
        <time>2026-05-31T12:47:47.947+00:00</time>
      </trkpt>
      <trkpt lat="48.63319" lon="2.57263">
        <ele>84</ele>
        <time>2026-05-31T12:47:52.553+00:00</time>
      </trkpt>
      <trkpt lat="48.63323" lon="2.57267">
        <ele>84</ele>
        <time>2026-05-31T12:47:56.762+00:00</time>
      </trkpt>
      <trkpt lat="48.63327" lon="2.57272">
        <ele>84</ele>
        <time>2026-05-31T12:48:01.390+00:00</time>
      </trkpt>
      <trkpt lat="48.63331" lon="2.57277">
        <ele>84</ele>
        <time>2026-05-31T12:48:05.762+00:00</time>
      </trkpt>
      <trkpt lat="48.63343" lon="2.57279">
        <ele>84</ele>
        <time>2026-05-31T12:48:10.247+00:00</time>
      </trkpt>
      <trkpt lat="48.63352" lon="2.57288">
        <ele>83</ele>
        <time>2026-05-31T12:48:14.594+00:00</time>
      </trkpt>
      <trkpt lat="48.63359" lon="2.57295">
        <ele>82</ele>
        <time>2026-05-31T12:48:18.761+00:00</time>
      </trkpt>
      <trkpt lat="48.63364" lon="2.57298">
        <ele>82</ele>
        <time>2026-05-31T12:48:23.006+00:00</time>
      </trkpt>
      <trkpt lat="48.63369" lon="2.57301">
        <ele>82</ele>
        <time>2026-05-31T12:48:27.371+00:00</time>
      </trkpt>
      <trkpt lat="48.63374" lon="2.57303">
        <ele>82</ele>
        <time>2026-05-31T12:48:31.467+00:00</time>
      </trkpt>
      <trkpt lat="48.6338" lon="2.57304">
        <ele>83</ele>
        <time>2026-05-31T12:48:35.762+00:00</time>
      </trkpt>
      <trkpt lat="48.63386" lon="2.57305">
        <ele>83</ele>
        <time>2026-05-31T12:48:40.428+00:00</time>
      </trkpt>
      <trkpt lat="48.63391" lon="2.57307">
        <ele>83</ele>
        <time>2026-05-31T12:48:44.761+00:00</time>
      </trkpt>
      <trkpt lat="48.63396" lon="2.5731">
        <ele>83</ele>
        <time>2026-05-31T12:48:49.593+00:00</time>
      </trkpt>
      <trkpt lat="48.634" lon="2.57314">
        <ele>83</ele>
        <time>2026-05-31T12:48:53.761+00:00</time>
      </trkpt>
      <trkpt lat="48.63405" lon="2.57317">
        <ele>84</ele>
        <time>2026-05-31T12:48:58.149+00:00</time>
      </trkpt>
      <trkpt lat="48.6341" lon="2.57318">
        <ele>84</ele>
        <time>2026-05-31T12:49:02.534+00:00</time>
      </trkpt>
      <trkpt lat="48.63416" lon="2.57319">
        <ele>84</ele>
        <time>2026-05-31T12:49:07.034+00:00</time>
      </trkpt>
      <trkpt lat="48.6342" lon="2.57318">
        <ele>84</ele>
        <time>2026-05-31T12:49:11.486+00:00</time>
      </trkpt>
      <trkpt lat="48.63426" lon="2.57317">
        <ele>84</ele>
        <time>2026-05-31T12:49:16.035+00:00</time>
      </trkpt>
      <trkpt lat="48.6343" lon="2.57317">
        <ele>84</ele>
        <time>2026-05-31T12:49:20.534+00:00</time>
      </trkpt>
      <trkpt lat="48.63433" lon="2.57313">
        <ele>86</ele>
        <time>2026-05-31T12:49:25.333+00:00</time>
      </trkpt>
      <trkpt lat="48.63437" lon="2.57307">
        <ele>86</ele>
        <time>2026-05-31T12:49:29.448+00:00</time>
      </trkpt>
      <trkpt lat="48.63439" lon="2.57301">
        <ele>86</ele>
        <time>2026-05-31T12:49:33.748+00:00</time>
      </trkpt>
      <trkpt lat="48.63439" lon="2.57293">
        <ele>86</ele>
        <time>2026-05-31T12:49:52.131+00:00</time>
      </trkpt>
      <trkpt lat="48.63439" lon="2.57285">
        <ele>86</ele>
        <time>2026-05-31T12:49:56.226+00:00</time>
      </trkpt>
      <trkpt lat="48.63441" lon="2.57278">
        <ele>86</ele>
        <time>2026-05-31T12:50:00.671+00:00</time>
      </trkpt>
      <trkpt lat="48.63442" lon="2.57271">
        <ele>86</ele>
        <time>2026-05-31T12:50:05.111+00:00</time>
      </trkpt>
      <trkpt lat="48.63443" lon="2.57262">
        <ele>86</ele>
        <time>2026-05-31T12:50:09.408+00:00</time>
      </trkpt>
      <trkpt lat="48.63445" lon="2.57254">
        <ele>86</ele>
        <time>2026-05-31T12:50:13.760+00:00</time>
      </trkpt>
      <trkpt lat="48.63447" lon="2.57246">
        <ele>86</ele>
        <time>2026-05-31T12:50:17.761+00:00</time>
      </trkpt>
      <trkpt lat="48.6345" lon="2.57238">
        <ele>86</ele>
        <time>2026-05-31T12:50:22.649+00:00</time>
      </trkpt>
      <trkpt lat="48.63452" lon="2.5723">
        <ele>84</ele>
        <time>2026-05-31T12:50:26.761+00:00</time>
      </trkpt>
      <trkpt lat="48.63454" lon="2.57223">
        <ele>84</ele>
        <time>2026-05-31T12:50:31.389+00:00</time>
      </trkpt>
      <trkpt lat="48.63457" lon="2.57217">
        <ele>84</ele>
        <time>2026-05-31T12:50:35.727+00:00</time>
      </trkpt>
      <trkpt lat="48.63459" lon="2.57211">
        <ele>83</ele>
        <time>2026-05-31T12:50:39.761+00:00</time>
      </trkpt>
      <trkpt lat="48.63459" lon="2.5721">
        <ele>83</ele>
        <time>2026-05-31T12:50:44.127+00:00</time>
      </trkpt>
      <trkpt lat="48.63456" lon="2.57217">
        <ele>84</ele>
        <time>2026-05-31T12:50:48.685+00:00</time>
      </trkpt>
      <trkpt lat="48.63457" lon="2.57217">
        <ele>84</ele>
        <time>2026-05-31T12:50:52.694+00:00</time>
      </trkpt>
      <trkpt lat="48.63456" lon="2.57219">
        <ele>84</ele>
        <time>2026-05-31T12:50:57.272+00:00</time>
      </trkpt>
      <trkpt lat="48.63456" lon="2.57225">
        <ele>84</ele>
        <time>2026-05-31T12:51:01.385+00:00</time>
      </trkpt>
      <trkpt lat="48.63456" lon="2.57227">
        <ele>84</ele>
        <time>2026-05-31T12:51:05.414+00:00</time>
      </trkpt>
      <trkpt lat="48.63455" lon="2.5723">
        <ele>84</ele>
        <time>2026-05-31T12:51:09.489+00:00</time>
      </trkpt>
      <trkpt lat="48.63453" lon="2.57235">
        <ele>84</ele>
        <time>2026-05-31T12:51:13.526+00:00</time>
      </trkpt>
      <trkpt lat="48.6345" lon="2.57241">
        <ele>86</ele>
        <time>2026-05-31T12:51:18.113+00:00</time>
      </trkpt>
      <trkpt lat="48.63448" lon="2.57246">
        <ele>86</ele>
        <time>2026-05-31T12:51:22.633+00:00</time>
      </trkpt>
      <trkpt lat="48.63446" lon="2.57252">
        <ele>86</ele>
        <time>2026-05-31T12:51:27.046+00:00</time>
      </trkpt>
      <trkpt lat="48.63444" lon="2.57259">
        <ele>86</ele>
        <time>2026-05-31T12:51:31.543+00:00</time>
      </trkpt>
      <trkpt lat="48.63443" lon="2.57265">
        <ele>86</ele>
        <time>2026-05-31T12:51:36.132+00:00</time>
      </trkpt>
      <trkpt lat="48.63443" lon="2.57271">
        <ele>86</ele>
        <time>2026-05-31T12:51:40.546+00:00</time>
      </trkpt>
      <trkpt lat="48.63442" lon="2.57268">
        <ele>86</ele>
        <time>2026-05-31T12:51:44.988+00:00</time>
      </trkpt>
      <trkpt lat="48.63441" lon="2.57275">
        <ele>86</ele>
        <time>2026-05-31T12:51:49.392+00:00</time>
      </trkpt>
      <trkpt lat="48.63441" lon="2.57277">
        <ele>86</ele>
        <time>2026-05-31T12:51:53.761+00:00</time>
      </trkpt>
      <trkpt lat="48.63443" lon="2.57282">
        <ele>86</ele>
        <time>2026-05-31T12:51:58.393+00:00</time>
      </trkpt>
      <trkpt lat="48.63444" lon="2.57281">
        <ele>86</ele>
        <time>2026-05-31T12:52:02.761+00:00</time>
      </trkpt>
      <trkpt lat="48.63445" lon="2.57279">
        <ele>86</ele>
        <time>2026-05-31T12:52:06.927+00:00</time>
      </trkpt>
      <trkpt lat="48.63445" lon="2.57279">
        <ele>86</ele>
        <time>2026-05-31T12:52:11.761+00:00</time>
      </trkpt>
      <trkpt lat="48.6345" lon="2.57281">
        <ele>86</ele>
        <time>2026-05-31T12:52:33.761+00:00</time>
      </trkpt>
      <trkpt lat="48.63455" lon="2.57283">
        <ele>86</ele>
        <time>2026-05-31T12:52:37.761+00:00</time>
      </trkpt>
      <trkpt lat="48.63462" lon="2.57289">
        <ele>87</ele>
        <time>2026-05-31T12:52:42.072+00:00</time>
      </trkpt>
      <trkpt lat="48.63462" lon="2.57289">
        <ele>87</ele>
        <time>2026-05-31T12:52:46.389+00:00</time>
      </trkpt>
      <trkpt lat="48.63464" lon="2.57289">
        <ele>87</ele>
        <time>2026-05-31T12:52:50.761+00:00</time>
      </trkpt>
      <trkpt lat="48.63467" lon="2.57289">
        <ele>87</ele>
        <time>2026-05-31T12:53:34.667+00:00</time>
      </trkpt>
      <trkpt lat="48.63468" lon="2.57292">
        <ele>88</ele>
        <time>2026-05-31T12:53:39.513+00:00</time>
      </trkpt>
      <trkpt lat="48.63465" lon="2.57294">
        <ele>88</ele>
        <time>2026-05-31T12:53:43.589+00:00</time>
      </trkpt>
      <trkpt lat="48.6347" lon="2.57296">
        <ele>88</ele>
        <time>2026-05-31T12:53:47.761+00:00</time>
      </trkpt>
      <trkpt lat="48.63473" lon="2.57294">
        <ele>88</ele>
        <time>2026-05-31T12:53:51.761+00:00</time>
      </trkpt>
      <trkpt lat="48.63475" lon="2.57297">
        <ele>88</ele>
        <time>2026-05-31T12:53:56.106+00:00</time>
      </trkpt>
      <trkpt lat="48.6348" lon="2.57297">
        <ele>88</ele>
        <time>2026-05-31T12:54:00.152+00:00</time>
      </trkpt>
      <trkpt lat="48.63485" lon="2.57298">
        <ele>88</ele>
        <time>2026-05-31T12:54:04.229+00:00</time>
      </trkpt>
      <trkpt lat="48.63489" lon="2.57299">
        <ele>88</ele>
        <time>2026-05-31T12:54:08.354+00:00</time>
      </trkpt>
      <trkpt lat="48.63494" lon="2.57302">
        <ele>88</ele>
        <time>2026-05-31T12:54:12.761+00:00</time>
      </trkpt>
      <trkpt lat="48.63499" lon="2.57304">
        <ele>88</ele>
        <time>2026-05-31T12:55:00.759+00:00</time>
      </trkpt>
      <trkpt lat="48.63503" lon="2.57308">
        <ele>88</ele>
        <time>2026-05-31T12:55:05.578+00:00</time>
      </trkpt>
      <trkpt lat="48.63509" lon="2.5731">
        <ele>88</ele>
        <time>2026-05-31T12:55:09.759+00:00</time>
      </trkpt>
      <trkpt lat="48.63514" lon="2.57311">
        <ele>88</ele>
        <time>2026-05-31T12:55:13.760+00:00</time>
      </trkpt>
      <trkpt lat="48.6352" lon="2.5731">
        <ele>88</ele>
        <time>2026-05-31T12:55:18.031+00:00</time>
      </trkpt>
      <trkpt lat="48.63525" lon="2.57307">
        <ele>88</ele>
        <time>2026-05-31T12:55:22.759+00:00</time>
      </trkpt>
      <trkpt lat="48.63528" lon="2.57301">
        <ele>88</ele>
        <time>2026-05-31T12:55:27.760+00:00</time>
      </trkpt>
      <trkpt lat="48.63531" lon="2.57296">
        <ele>88</ele>
        <time>2026-05-31T12:55:32.725+00:00</time>
      </trkpt>
      <trkpt lat="48.63537" lon="2.57293">
        <ele>88</ele>
        <time>2026-05-31T12:55:36.945+00:00</time>
      </trkpt>
      <trkpt lat="48.63542" lon="2.57291">
        <ele>87</ele>
        <time>2026-05-31T12:55:41.760+00:00</time>
      </trkpt>
      <trkpt lat="48.63548" lon="2.5729">
        <ele>87</ele>
        <time>2026-05-31T12:56:49.530+00:00</time>
      </trkpt>
      <trkpt lat="48.63553" lon="2.57289">
        <ele>87</ele>
        <time>2026-05-31T12:56:54.312+00:00</time>
      </trkpt>
      <trkpt lat="48.63559" lon="2.57287">
        <ele>87</ele>
        <time>2026-05-31T12:56:58.760+00:00</time>
      </trkpt>
      <trkpt lat="48.63565" lon="2.57289">
        <ele>87</ele>
        <time>2026-05-31T12:57:03.636+00:00</time>
      </trkpt>
      <trkpt lat="48.6357" lon="2.5729">
        <ele>85</ele>
        <time>2026-05-31T12:57:08.760+00:00</time>
      </trkpt>
      <trkpt lat="48.63575" lon="2.57292">
        <ele>85</ele>
        <time>2026-05-31T12:58:20.762+00:00</time>
      </trkpt>
      <trkpt lat="48.6358" lon="2.57293">
        <ele>86</ele>
        <time>2026-05-31T12:58:25.632+00:00</time>
      </trkpt>
      <trkpt lat="48.63585" lon="2.57294">
        <ele>86</ele>
        <time>2026-05-31T12:58:29.649+00:00</time>
      </trkpt>
      <trkpt lat="48.63587" lon="2.57295">
        <ele>86</ele>
        <time>2026-05-31T12:58:33.760+00:00</time>
      </trkpt>
      <trkpt lat="48.6359" lon="2.57294">
        <ele>86</ele>
        <time>2026-05-31T12:58:38.205+00:00</time>
      </trkpt>
      <trkpt lat="48.63595" lon="2.57291">
        <ele>85</ele>
        <time>2026-05-31T12:58:42.760+00:00</time>
      </trkpt>
      <trkpt lat="48.636" lon="2.57285">
        <ele>87</ele>
        <time>2026-05-31T12:58:46.773+00:00</time>
      </trkpt>
      <trkpt lat="48.63601" lon="2.57279">
        <ele>87</ele>
        <time>2026-05-31T12:58:51.760+00:00</time>
      </trkpt>
      <trkpt lat="48.63601" lon="2.57272">
        <ele>87</ele>
        <time>2026-05-31T12:58:56.147+00:00</time>
      </trkpt>
      <trkpt lat="48.63598" lon="2.57264">
        <ele>87</ele>
        <time>2026-05-31T12:59:00.628+00:00</time>
      </trkpt>
      <trkpt lat="48.63596" lon="2.57258">
        <ele>85</ele>
        <time>2026-05-31T12:59:05.109+00:00</time>
      </trkpt>
      <trkpt lat="48.63593" lon="2.57252">
        <ele>85</ele>
        <time>2026-05-31T12:59:09.589+00:00</time>
      </trkpt>
      <trkpt lat="48.6359" lon="2.57245">
        <ele>85</ele>
        <time>2026-05-31T12:59:13.993+00:00</time>
      </trkpt>
      <trkpt lat="48.63587" lon="2.57239">
        <ele>85</ele>
        <time>2026-05-31T12:59:18.367+00:00</time>
      </trkpt>
      <trkpt lat="48.63583" lon="2.57232">
        <ele>85</ele>
        <time>2026-05-31T12:59:22.760+00:00</time>
      </trkpt>
      <trkpt lat="48.6358" lon="2.57223">
        <ele>85</ele>
        <time>2026-05-31T12:59:27.272+00:00</time>
      </trkpt>
      <trkpt lat="48.63577" lon="2.57215">
        <ele>85</ele>
        <time>2026-05-31T12:59:31.647+00:00</time>
      </trkpt>
      <trkpt lat="48.63574" lon="2.57208">
        <ele>84</ele>
        <time>2026-05-31T12:59:35.760+00:00</time>
      </trkpt>
      <trkpt lat="48.63573" lon="2.572">
        <ele>84</ele>
        <time>2026-05-31T12:59:40.270+00:00</time>
      </trkpt>
      <trkpt lat="48.63571" lon="2.57193">
        <ele>84</ele>
        <time>2026-05-31T12:59:44.759+00:00</time>
      </trkpt>
      <trkpt lat="48.6357" lon="2.57185">
        <ele>84</ele>
        <time>2026-05-31T12:59:49.213+00:00</time>
      </trkpt>
      <trkpt lat="48.63571" lon="2.57176">
        <ele>83</ele>
        <time>2026-05-31T12:59:53.760+00:00</time>
      </trkpt>
      <trkpt lat="48.63571" lon="2.57166">
        <ele>83</ele>
        <time>2026-05-31T12:59:57.846+00:00</time>
      </trkpt>
      <trkpt lat="48.63571" lon="2.57158">
        <ele>83</ele>
        <time>2026-05-31T13:00:02.452+00:00</time>
      </trkpt>
      <trkpt lat="48.63569" lon="2.5715">
        <ele>83</ele>
        <time>2026-05-31T13:00:06.508+00:00</time>
      </trkpt>
      <trkpt lat="48.63566" lon="2.57143">
        <ele>83</ele>
        <time>2026-05-31T13:00:11.759+00:00</time>
      </trkpt>
      <trkpt lat="48.63564" lon="2.57137">
        <ele>83</ele>
        <time>2026-05-31T13:00:16.759+00:00</time>
      </trkpt>
      <trkpt lat="48.63562" lon="2.57129">
        <ele>83</ele>
        <time>2026-05-31T13:00:20.759+00:00</time>
      </trkpt>
      <trkpt lat="48.63561" lon="2.57122">
        <ele>82</ele>
        <time>2026-05-31T13:00:25.530+00:00</time>
      </trkpt>
      <trkpt lat="48.63559" lon="2.57114">
        <ele>82</ele>
        <time>2026-05-31T13:00:29.674+00:00</time>
      </trkpt>
      <trkpt lat="48.63557" lon="2.57109">
        <ele>82</ele>
        <time>2026-05-31T13:00:33.758+00:00</time>
      </trkpt>
      <trkpt lat="48.63556" lon="2.57105">
        <ele>82</ele>
        <time>2026-05-31T13:00:37.759+00:00</time>
      </trkpt>
      <trkpt lat="48.63556" lon="2.57097">
        <ele>82</ele>
        <time>2026-05-31T13:00:42.489+00:00</time>
      </trkpt>
      <trkpt lat="48.63556" lon="2.57089">
        <ele>82</ele>
        <time>2026-05-31T13:00:46.759+00:00</time>
      </trkpt>
      <trkpt lat="48.63558" lon="2.57082">
        <ele>82</ele>
        <time>2026-05-31T13:00:51.114+00:00</time>
      </trkpt>
      <trkpt lat="48.63561" lon="2.57075">
        <ele>82</ele>
        <time>2026-05-31T13:00:55.431+00:00</time>
      </trkpt>
      <trkpt lat="48.63564" lon="2.57068">
        <ele>81</ele>
        <time>2026-05-31T13:00:59.652+00:00</time>
      </trkpt>
      <trkpt lat="48.63568" lon="2.57063">
        <ele>81</ele>
        <time>2026-05-31T13:01:03.759+00:00</time>
      </trkpt>
      <trkpt lat="48.63571" lon="2.57057">
        <ele>81</ele>
        <time>2026-05-31T13:01:08.545+00:00</time>
      </trkpt>
      <trkpt lat="48.63573" lon="2.57051">
        <ele>81</ele>
        <time>2026-05-31T13:01:13.450+00:00</time>
      </trkpt>
      <trkpt lat="48.63576" lon="2.57044">
        <ele>81</ele>
        <time>2026-05-31T13:01:17.759+00:00</time>
      </trkpt>
      <trkpt lat="48.63579" lon="2.57038">
        <ele>79</ele>
        <time>2026-05-31T13:01:22.354+00:00</time>
      </trkpt>
      <trkpt lat="48.63582" lon="2.57032">
        <ele>79</ele>
        <time>2026-05-31T13:01:26.758+00:00</time>
      </trkpt>
      <trkpt lat="48.63585" lon="2.57025">
        <ele>79</ele>
        <time>2026-05-31T13:01:31.469+00:00</time>
      </trkpt>
      <trkpt lat="48.63588" lon="2.5702">
        <ele>79</ele>
        <time>2026-05-31T13:01:36.451+00:00</time>
      </trkpt>
      <trkpt lat="48.63591" lon="2.57013">
        <ele>77</ele>
        <time>2026-05-31T13:01:40.729+00:00</time>
      </trkpt>
      <trkpt lat="48.63593" lon="2.57006">
        <ele>77</ele>
        <time>2026-05-31T13:01:45.065+00:00</time>
      </trkpt>
      <trkpt lat="48.63597" lon="2.57001">
        <ele>84</ele>
        <time>2026-05-31T13:01:49.324+00:00</time>
      </trkpt>
      <trkpt lat="48.636" lon="2.56993">
        <ele>84</ele>
        <time>2026-05-31T13:01:53.709+00:00</time>
      </trkpt>
      <trkpt lat="48.63602" lon="2.56987">
        <ele>84</ele>
        <time>2026-05-31T13:01:57.759+00:00</time>
      </trkpt>
      <trkpt lat="48.63604" lon="2.56981">
        <ele>85</ele>
        <time>2026-05-31T13:02:02.759+00:00</time>
      </trkpt>
      <trkpt lat="48.63607" lon="2.56975">
        <ele>85</ele>
        <time>2026-05-31T13:02:06.833+00:00</time>
      </trkpt>
      <trkpt lat="48.63611" lon="2.56968">
        <ele>85</ele>
        <time>2026-05-31T13:02:11.526+00:00</time>
      </trkpt>
      <trkpt lat="48.63615" lon="2.56962">
        <ele>85</ele>
        <time>2026-05-31T13:02:15.759+00:00</time>
      </trkpt>
      <trkpt lat="48.63619" lon="2.56957">
        <ele>86</ele>
        <time>2026-05-31T13:02:20.247+00:00</time>
      </trkpt>
      <trkpt lat="48.63624" lon="2.56952">
        <ele>86</ele>
        <time>2026-05-31T13:02:24.759+00:00</time>
      </trkpt>
      <trkpt lat="48.63629" lon="2.56949">
        <ele>87</ele>
        <time>2026-05-31T13:02:29.484+00:00</time>
      </trkpt>
      <trkpt lat="48.63633" lon="2.56945">
        <ele>87</ele>
        <time>2026-05-31T13:02:34.305+00:00</time>
      </trkpt>
      <trkpt lat="48.63638" lon="2.56941">
        <ele>87</ele>
        <time>2026-05-31T13:02:38.786+00:00</time>
      </trkpt>
      <trkpt lat="48.63642" lon="2.56935">
        <ele>87</ele>
        <time>2026-05-31T13:02:43.469+00:00</time>
      </trkpt>
      <trkpt lat="48.63645" lon="2.5693">
        <ele>87</ele>
        <time>2026-05-31T13:02:47.759+00:00</time>
      </trkpt>
      <trkpt lat="48.63647" lon="2.56922">
        <ele>87</ele>
        <time>2026-05-31T13:02:52.393+00:00</time>
      </trkpt>
      <trkpt lat="48.63649" lon="2.56915">
        <ele>87</ele>
        <time>2026-05-31T13:02:56.758+00:00</time>
      </trkpt>
      <trkpt lat="48.63649" lon="2.56908">
        <ele>87</ele>
        <time>2026-05-31T13:03:01.489+00:00</time>
      </trkpt>
      <trkpt lat="48.63651" lon="2.56901">
        <ele>85</ele>
        <time>2026-05-31T13:03:05.759+00:00</time>
      </trkpt>
      <trkpt lat="48.63654" lon="2.569">
        <ele>85</ele>
        <time>2026-05-31T13:03:09.883+00:00</time>
      </trkpt>
      <trkpt lat="48.63655" lon="2.56905">
        <ele>84</ele>
        <time>2026-05-31T13:03:14.448+00:00</time>
      </trkpt>
      <trkpt lat="48.63656" lon="2.56892">
        <ele>85</ele>
        <time>2026-05-31T13:03:18.572+00:00</time>
      </trkpt>
      <trkpt lat="48.63657" lon="2.56873">
        <ele>86</ele>
        <time>2026-05-31T13:03:23.156+00:00</time>
      </trkpt>
      <trkpt lat="48.63658" lon="2.56863">
        <ele>86</ele>
        <time>2026-05-31T13:03:27.649+00:00</time>
      </trkpt>
      <trkpt lat="48.63658" lon="2.56856">
        <ele>86</ele>
        <time>2026-05-31T13:03:32.758+00:00</time>
      </trkpt>
      <trkpt lat="48.63658" lon="2.56848">
        <ele>86</ele>
        <time>2026-05-31T13:03:37.594+00:00</time>
      </trkpt>
      <trkpt lat="48.63659" lon="2.56839">
        <ele>86</ele>
        <time>2026-05-31T13:03:41.631+00:00</time>
      </trkpt>
      <trkpt lat="48.6366" lon="2.5683">
        <ele>86</ele>
        <time>2026-05-31T13:03:46.024+00:00</time>
      </trkpt>
      <trkpt lat="48.63661" lon="2.56821">
        <ele>86</ele>
        <time>2026-05-31T13:03:50.527+00:00</time>
      </trkpt>
      <trkpt lat="48.63661" lon="2.56812">
        <ele>87</ele>
        <time>2026-05-31T13:03:54.759+00:00</time>
      </trkpt>
      <trkpt lat="48.63661" lon="2.56804">
        <ele>87</ele>
        <time>2026-05-31T13:03:59.447+00:00</time>
      </trkpt>
      <trkpt lat="48.63663" lon="2.56796">
        <ele>87</ele>
        <time>2026-05-31T13:04:03.759+00:00</time>
      </trkpt>
      <trkpt lat="48.63664" lon="2.56787">
        <ele>87</ele>
        <time>2026-05-31T13:04:08.244+00:00</time>
      </trkpt>
      <trkpt lat="48.63664" lon="2.56779">
        <ele>87</ele>
        <time>2026-05-31T13:04:12.726+00:00</time>
      </trkpt>
      <trkpt lat="48.63664" lon="2.56772">
        <ele>87</ele>
        <time>2026-05-31T13:04:16.759+00:00</time>
      </trkpt>
      <trkpt lat="48.63665" lon="2.56764">
        <ele>87</ele>
        <time>2026-05-31T13:04:21.167+00:00</time>
      </trkpt>
      <trkpt lat="48.63665" lon="2.56756">
        <ele>86</ele>
        <time>2026-05-31T13:04:25.628+00:00</time>
      </trkpt>
      <trkpt lat="48.63666" lon="2.56746">
        <ele>86</ele>
        <time>2026-05-31T13:04:29.665+00:00</time>
      </trkpt>
      <trkpt lat="48.63667" lon="2.56737">
        <ele>86</ele>
        <time>2026-05-31T13:04:34.320+00:00</time>
      </trkpt>
      <trkpt lat="48.63668" lon="2.56729">
        <ele>86</ele>
        <time>2026-05-31T13:04:38.742+00:00</time>
      </trkpt>
      <trkpt lat="48.63669" lon="2.56721">
        <ele>86</ele>
        <time>2026-05-31T13:04:42.759+00:00</time>
      </trkpt>
      <trkpt lat="48.63669" lon="2.56712">
        <ele>86</ele>
        <time>2026-05-31T13:04:47.260+00:00</time>
      </trkpt>
      <trkpt lat="48.6367" lon="2.56705">
        <ele>85</ele>
        <time>2026-05-31T13:04:51.759+00:00</time>
      </trkpt>
      <trkpt lat="48.63671" lon="2.56697">
        <ele>85</ele>
        <time>2026-05-31T13:05:05.009+00:00</time>
      </trkpt>
      <trkpt lat="48.63671" lon="2.56688">
        <ele>85</ele>
        <time>2026-05-31T13:05:09.666+00:00</time>
      </trkpt>
      <trkpt lat="48.63672" lon="2.5668">
        <ele>84</ele>
        <time>2026-05-31T13:05:13.759+00:00</time>
      </trkpt>
      <trkpt lat="48.63673" lon="2.56672">
        <ele>84</ele>
        <time>2026-05-31T13:05:18.724+00:00</time>
      </trkpt>
      <trkpt lat="48.63675" lon="2.56664">
        <ele>84</ele>
        <time>2026-05-31T13:05:23.138+00:00</time>
      </trkpt>
      <trkpt lat="48.63676" lon="2.56655">
        <ele>84</ele>
        <time>2026-05-31T13:05:27.522+00:00</time>
      </trkpt>
      <trkpt lat="48.63678" lon="2.56648">
        <ele>84</ele>
        <time>2026-05-31T13:05:32.042+00:00</time>
      </trkpt>
      <trkpt lat="48.63681" lon="2.56642">
        <ele>85</ele>
        <time>2026-05-31T13:05:36.580+00:00</time>
      </trkpt>
      <trkpt lat="48.63684" lon="2.56633">
        <ele>85</ele>
        <time>2026-05-31T13:05:40.758+00:00</time>
      </trkpt>
      <trkpt lat="48.63684" lon="2.56626">
        <ele>85</ele>
        <time>2026-05-31T13:05:45.340+00:00</time>
      </trkpt>
      <trkpt lat="48.63683" lon="2.56617">
        <ele>85</ele>
        <time>2026-05-31T13:05:49.666+00:00</time>
      </trkpt>
      <trkpt lat="48.63683" lon="2.5661">
        <ele>85</ele>
        <time>2026-05-31T13:05:53.963+00:00</time>
      </trkpt>
      <trkpt lat="48.63685" lon="2.56603">
        <ele>85</ele>
        <time>2026-05-31T13:05:58.337+00:00</time>
      </trkpt>
      <trkpt lat="48.63686" lon="2.56596">
        <ele>84</ele>
        <time>2026-05-31T13:06:02.664+00:00</time>
      </trkpt>
      <trkpt lat="48.63687" lon="2.56589">
        <ele>84</ele>
        <time>2026-05-31T13:06:06.758+00:00</time>
      </trkpt>
      <trkpt lat="48.63686" lon="2.56581">
        <ele>84</ele>
        <time>2026-05-31T13:06:10.891+00:00</time>
      </trkpt>
      <trkpt lat="48.63685" lon="2.56572">
        <ele>84</ele>
        <time>2026-05-31T13:06:15.545+00:00</time>
      </trkpt>
      <trkpt lat="48.63686" lon="2.56563">
        <ele>84</ele>
        <time>2026-05-31T13:06:19.758+00:00</time>
      </trkpt>
      <trkpt lat="48.63684" lon="2.56556">
        <ele>84</ele>
        <time>2026-05-31T13:06:24.663+00:00</time>
      </trkpt>
      <trkpt lat="48.63681" lon="2.56549">
        <ele>84</ele>
        <time>2026-05-31T13:06:28.758+00:00</time>
      </trkpt>
      <trkpt lat="48.6368" lon="2.5654">
        <ele>85</ele>
        <time>2026-05-31T13:06:33.405+00:00</time>
      </trkpt>
      <trkpt lat="48.63678" lon="2.56531">
        <ele>85</ele>
        <time>2026-05-31T13:06:37.738+00:00</time>
      </trkpt>
      <trkpt lat="48.63677" lon="2.56524">
        <ele>85</ele>
        <time>2026-05-31T13:06:42.019+00:00</time>
      </trkpt>
      <trkpt lat="48.63673" lon="2.56517">
        <ele>85</ele>
        <time>2026-05-31T13:06:46.362+00:00</time>
      </trkpt>
      <trkpt lat="48.63672" lon="2.56511">
        <ele>85</ele>
        <time>2026-05-31T13:06:50.757+00:00</time>
      </trkpt>
      <trkpt lat="48.63674" lon="2.56506">
        <ele>85</ele>
        <time>2026-05-31T13:06:55.141+00:00</time>
      </trkpt>
      <trkpt lat="48.63678" lon="2.56502">
        <ele>85</ele>
        <time>2026-05-31T13:06:59.478+00:00</time>
      </trkpt>
      <trkpt lat="48.63682" lon="2.56501">
        <ele>85</ele>
        <time>2026-05-31T13:07:03.758+00:00</time>
      </trkpt>
      <trkpt lat="48.63686" lon="2.56498">
        <ele>85</ele>
        <time>2026-05-31T13:07:08.718+00:00</time>
      </trkpt>
      <trkpt lat="48.6369" lon="2.56496">
        <ele>85</ele>
        <time>2026-05-31T13:07:12.758+00:00</time>
      </trkpt>
      <trkpt lat="48.63694" lon="2.56494">
        <ele>85</ele>
        <time>2026-05-31T13:07:17.044+00:00</time>
      </trkpt>
      <trkpt lat="48.63698" lon="2.5649">
        <ele>85</ele>
        <time>2026-05-31T13:07:21.544+00:00</time>
      </trkpt>
      <trkpt lat="48.63701" lon="2.56486">
        <ele>84</ele>
        <time>2026-05-31T13:07:25.757+00:00</time>
      </trkpt>
      <trkpt lat="48.63704" lon="2.56481">
        <ele>84</ele>
        <time>2026-05-31T13:07:30.418+00:00</time>
      </trkpt>
      <trkpt lat="48.63711" lon="2.56469">
        <ele>85</ele>
        <time>2026-05-31T13:07:34.446+00:00</time>
      </trkpt>
      <trkpt lat="48.63712" lon="2.5646">
        <ele>85</ele>
        <time>2026-05-31T13:07:38.757+00:00</time>
      </trkpt>
      <trkpt lat="48.63715" lon="2.5645">
        <ele>85</ele>
        <time>2026-05-31T13:07:42.758+00:00</time>
      </trkpt>
      <trkpt lat="48.63716" lon="2.56443">
        <ele>85</ele>
        <time>2026-05-31T13:07:47.471+00:00</time>
      </trkpt>
      <trkpt lat="48.63715" lon="2.56437">
        <ele>85</ele>
        <time>2026-05-31T13:07:51.758+00:00</time>
      </trkpt>
      <trkpt lat="48.63713" lon="2.56429">
        <ele>85</ele>
        <time>2026-05-31T13:07:56.502+00:00</time>
      </trkpt>
      <trkpt lat="48.63716" lon="2.56424">
        <ele>85</ele>
        <time>2026-05-31T13:08:01.638+00:00</time>
      </trkpt>
      <trkpt lat="48.63719" lon="2.56416">
        <ele>85</ele>
        <time>2026-05-31T13:08:05.704+00:00</time>
      </trkpt>
      <trkpt lat="48.63721" lon="2.56409">
        <ele>85</ele>
        <time>2026-05-31T13:08:09.757+00:00</time>
      </trkpt>
      <trkpt lat="48.63722" lon="2.56401">
        <ele>85</ele>
        <time>2026-05-31T13:08:14.758+00:00</time>
      </trkpt>
      <trkpt lat="48.63722" lon="2.56393">
        <ele>85</ele>
        <time>2026-05-31T13:08:19.321+00:00</time>
      </trkpt>
      <trkpt lat="48.63722" lon="2.56385">
        <ele>85</ele>
        <time>2026-05-31T13:08:23.757+00:00</time>
      </trkpt>
      <trkpt lat="48.63723" lon="2.56377">
        <ele>85</ele>
        <time>2026-05-31T13:08:28.542+00:00</time>
      </trkpt>
      <trkpt lat="48.63724" lon="2.5637">
        <ele>85</ele>
        <time>2026-05-31T13:08:32.907+00:00</time>
      </trkpt>
      <trkpt lat="48.63726" lon="2.56361">
        <ele>85</ele>
        <time>2026-05-31T13:08:37.758+00:00</time>
      </trkpt>
      <trkpt lat="48.63728" lon="2.56355">
        <ele>85</ele>
        <time>2026-05-31T13:08:42.138+00:00</time>
      </trkpt>
      <trkpt lat="48.63728" lon="2.56347">
        <ele>84</ele>
        <time>2026-05-31T13:08:46.245+00:00</time>
      </trkpt>
      <trkpt lat="48.6373" lon="2.56339">
        <ele>84</ele>
        <time>2026-05-31T13:08:50.743+00:00</time>
      </trkpt>
      <trkpt lat="48.63733" lon="2.56331">
        <ele>84</ele>
        <time>2026-05-31T13:08:54.758+00:00</time>
      </trkpt>
      <trkpt lat="48.63733" lon="2.56323">
        <ele>84</ele>
        <time>2026-05-31T13:08:59.161+00:00</time>
      </trkpt>
      <trkpt lat="48.63734" lon="2.56315">
        <ele>84</ele>
        <time>2026-05-31T13:09:03.645+00:00</time>
      </trkpt>
      <trkpt lat="48.63737" lon="2.56309">
        <ele>84</ele>
        <time>2026-05-31T13:09:08.058+00:00</time>
      </trkpt>
      <trkpt lat="48.63739" lon="2.56302">
        <ele>84</ele>
        <time>2026-05-31T13:09:12.461+00:00</time>
      </trkpt>
      <trkpt lat="48.63739" lon="2.56294">
        <ele>84</ele>
        <time>2026-05-31T13:09:30.702+00:00</time>
      </trkpt>
      <trkpt lat="48.63736" lon="2.56291">
        <ele>84</ele>
        <time>2026-05-31T13:09:35.163+00:00</time>
      </trkpt>
      <trkpt lat="48.63732" lon="2.56288">
        <ele>84</ele>
        <time>2026-05-31T13:09:39.442+00:00</time>
      </trkpt>
      <trkpt lat="48.63728" lon="2.56288">
        <ele>84</ele>
        <time>2026-05-31T13:09:43.758+00:00</time>
      </trkpt>
      <trkpt lat="48.63725" lon="2.56285">
        <ele>84</ele>
        <time>2026-05-31T13:09:47.824+00:00</time>
      </trkpt>
      <trkpt lat="48.63724" lon="2.56277">
        <ele>84</ele>
        <time>2026-05-31T13:09:52.758+00:00</time>
      </trkpt>
      <trkpt lat="48.63729" lon="2.56271">
        <ele>84</ele>
        <time>2026-05-31T13:09:57.214+00:00</time>
      </trkpt>
      <trkpt lat="48.63734" lon="2.56264">
        <ele>84</ele>
        <time>2026-05-31T13:10:01.696+00:00</time>
      </trkpt>
      <trkpt lat="48.63737" lon="2.5626">
        <ele>84</ele>
        <time>2026-05-31T13:10:05.758+00:00</time>
      </trkpt>
      <trkpt lat="48.63738" lon="2.56254">
        <ele>84</ele>
        <time>2026-05-31T13:10:09.758+00:00</time>
      </trkpt>
      <trkpt lat="48.63742" lon="2.56247">
        <ele>84</ele>
        <time>2026-05-31T13:10:14.418+00:00</time>
      </trkpt>
      <trkpt lat="48.63745" lon="2.56241">
        <ele>84</ele>
        <time>2026-05-31T13:10:19.071+00:00</time>
      </trkpt>
      <trkpt lat="48.63748" lon="2.56235">
        <ele>83</ele>
        <time>2026-05-31T13:10:23.553+00:00</time>
      </trkpt>
      <trkpt lat="48.63751" lon="2.56229">
        <ele>83</ele>
        <time>2026-05-31T13:10:27.668+00:00</time>
      </trkpt>
      <trkpt lat="48.63754" lon="2.5622">
        <ele>83</ele>
        <time>2026-05-31T13:10:32.758+00:00</time>
      </trkpt>
      <trkpt lat="48.63756" lon="2.56213">
        <ele>83</ele>
        <time>2026-05-31T13:10:36.757+00:00</time>
      </trkpt>
      <trkpt lat="48.63758" lon="2.56204">
        <ele>83</ele>
        <time>2026-05-31T13:10:41.246+00:00</time>
      </trkpt>
      <trkpt lat="48.63758" lon="2.56197">
        <ele>83</ele>
        <time>2026-05-31T13:10:45.756+00:00</time>
      </trkpt>
      <trkpt lat="48.63758" lon="2.56188">
        <ele>83</ele>
        <time>2026-05-31T13:10:50.253+00:00</time>
      </trkpt>
      <trkpt lat="48.6376" lon="2.56181">
        <ele>83</ele>
        <time>2026-05-31T13:10:54.695+00:00</time>
      </trkpt>
      <trkpt lat="48.63762" lon="2.56173">
        <ele>83</ele>
        <time>2026-05-31T13:10:59.178+00:00</time>
      </trkpt>
      <trkpt lat="48.63763" lon="2.56166">
        <ele>83</ele>
        <time>2026-05-31T13:11:03.679+00:00</time>
      </trkpt>
      <trkpt lat="48.63766" lon="2.56159">
        <ele>83</ele>
        <time>2026-05-31T13:11:08.254+00:00</time>
      </trkpt>
      <trkpt lat="48.6377" lon="2.56153">
        <ele>83</ele>
        <time>2026-05-31T13:11:12.755+00:00</time>
      </trkpt>
      <trkpt lat="48.63772" lon="2.56146">
        <ele>83</ele>
        <time>2026-05-31T13:11:16.756+00:00</time>
      </trkpt>
      <trkpt lat="48.63775" lon="2.56139">
        <ele>83</ele>
        <time>2026-05-31T13:11:21.757+00:00</time>
      </trkpt>
      <trkpt lat="48.63779" lon="2.56133">
        <ele>83</ele>
        <time>2026-05-31T13:11:26.757+00:00</time>
      </trkpt>
      <trkpt lat="48.63782" lon="2.56126">
        <ele>83</ele>
        <time>2026-05-31T13:11:31.364+00:00</time>
      </trkpt>
      <trkpt lat="48.63786" lon="2.56119">
        <ele>83</ele>
        <time>2026-05-31T13:11:35.739+00:00</time>
      </trkpt>
      <trkpt lat="48.63789" lon="2.56113">
        <ele>83</ele>
        <time>2026-05-31T13:11:39.757+00:00</time>
      </trkpt>
      <trkpt lat="48.63791" lon="2.56105">
        <ele>83</ele>
        <time>2026-05-31T13:11:44.702+00:00</time>
      </trkpt>
      <trkpt lat="48.63792" lon="2.56098">
        <ele>81</ele>
        <time>2026-05-31T13:11:48.757+00:00</time>
      </trkpt>
      <trkpt lat="48.63795" lon="2.56093">
        <ele>81</ele>
        <time>2026-05-31T13:11:53.125+00:00</time>
      </trkpt>
      <trkpt lat="48.63795" lon="2.56083">
        <ele>81</ele>
        <time>2026-05-31T13:11:57.644+00:00</time>
      </trkpt>
      <trkpt lat="48.63795" lon="2.56076">
        <ele>81</ele>
        <time>2026-05-31T13:12:01.740+00:00</time>
      </trkpt>
      <trkpt lat="48.63798" lon="2.56069">
        <ele>81</ele>
        <time>2026-05-31T13:12:05.757+00:00</time>
      </trkpt>
      <trkpt lat="48.63801" lon="2.56063">
        <ele>81</ele>
        <time>2026-05-31T13:12:09.793+00:00</time>
      </trkpt>
      <trkpt lat="48.63804" lon="2.56058">
        <ele>81</ele>
        <time>2026-05-31T13:12:14.305+00:00</time>
      </trkpt>
      <trkpt lat="48.63808" lon="2.56051">
        <ele>81</ele>
        <time>2026-05-31T13:12:18.756+00:00</time>
      </trkpt>
      <trkpt lat="48.6381" lon="2.56044">
        <ele>81</ele>
        <time>2026-05-31T13:12:23.286+00:00</time>
      </trkpt>
      <trkpt lat="48.63814" lon="2.56037">
        <ele>81</ele>
        <time>2026-05-31T13:12:27.757+00:00</time>
      </trkpt>
      <trkpt lat="48.63817" lon="2.56032">
        <ele>81</ele>
        <time>2026-05-31T13:12:32.480+00:00</time>
      </trkpt>
      <trkpt lat="48.63821" lon="2.56028">
        <ele>81</ele>
        <time>2026-05-31T13:12:36.756+00:00</time>
      </trkpt>
      <trkpt lat="48.63824" lon="2.56023">
        <ele>81</ele>
        <time>2026-05-31T13:12:41.326+00:00</time>
      </trkpt>
      <trkpt lat="48.63828" lon="2.56017">
        <ele>81</ele>
        <time>2026-05-31T13:12:45.757+00:00</time>
      </trkpt>
      <trkpt lat="48.6383" lon="2.5601">
        <ele>82</ele>
        <time>2026-05-31T13:12:50.288+00:00</time>
      </trkpt>
      <trkpt lat="48.63833" lon="2.56002">
        <ele>82</ele>
        <time>2026-05-31T13:12:54.757+00:00</time>
      </trkpt>
      <trkpt lat="48.63835" lon="2.55996">
        <ele>82</ele>
        <time>2026-05-31T13:12:59.365+00:00</time>
      </trkpt>
      <trkpt lat="48.63838" lon="2.55988">
        <ele>82</ele>
        <time>2026-05-31T13:13:03.756+00:00</time>
      </trkpt>
      <trkpt lat="48.6384" lon="2.5598">
        <ele>83</ele>
        <time>2026-05-31T13:13:08.221+00:00</time>
      </trkpt>
      <trkpt lat="48.63841" lon="2.55972">
        <ele>83</ele>
        <time>2026-05-31T13:13:12.664+00:00</time>
      </trkpt>
      <trkpt lat="48.63843" lon="2.55964">
        <ele>83</ele>
        <time>2026-05-31T13:13:17.164+00:00</time>
      </trkpt>
      <trkpt lat="48.63844" lon="2.55956">
        <ele>83</ele>
        <time>2026-05-31T13:13:21.757+00:00</time>
      </trkpt>
      <trkpt lat="48.63845" lon="2.55948">
        <ele>83</ele>
        <time>2026-05-31T13:13:26.278+00:00</time>
      </trkpt>
      <trkpt lat="48.63847" lon="2.5594">
        <ele>83</ele>
        <time>2026-05-31T13:13:30.366+00:00</time>
      </trkpt>
      <trkpt lat="48.63848" lon="2.55931">
        <ele>82</ele>
        <time>2026-05-31T13:13:34.702+00:00</time>
      </trkpt>
      <trkpt lat="48.63849" lon="2.55923">
        <ele>82</ele>
        <time>2026-05-31T13:13:39.384+00:00</time>
      </trkpt>
      <trkpt lat="48.63851" lon="2.55915">
        <ele>82</ele>
        <time>2026-05-31T13:13:43.757+00:00</time>
      </trkpt>
      <trkpt lat="48.63852" lon="2.55907">
        <ele>82</ele>
        <time>2026-05-31T13:13:48.259+00:00</time>
      </trkpt>
      <trkpt lat="48.63854" lon="2.55899">
        <ele>82</ele>
        <time>2026-05-31T13:13:52.500+00:00</time>
      </trkpt>
      <trkpt lat="48.63855" lon="2.5589">
        <ele>82</ele>
        <time>2026-05-31T13:13:56.757+00:00</time>
      </trkpt>
      <trkpt lat="48.63855" lon="2.55883">
        <ele>82</ele>
        <time>2026-05-31T13:14:01.364+00:00</time>
      </trkpt>
      <trkpt lat="48.63851" lon="2.55876">
        <ele>82</ele>
        <time>2026-05-31T13:14:05.770+00:00</time>
      </trkpt>
      <trkpt lat="48.63847" lon="2.5587">
        <ele>81</ele>
        <time>2026-05-31T13:14:10.548+00:00</time>
      </trkpt>
      <trkpt lat="48.63846" lon="2.55864">
        <ele>81</ele>
        <time>2026-05-31T13:14:15+00:00</time>
      </trkpt>
      <trkpt lat="48.63846" lon="2.55857">
        <ele>81</ele>
        <time>2026-05-31T13:14:19.087+00:00</time>
      </trkpt>
      <trkpt lat="48.63846" lon="2.55852">
        <ele>81</ele>
        <time>2026-05-31T13:14:23.408+00:00</time>
      </trkpt>
      <trkpt lat="48.63843" lon="2.55849">
        <ele>81</ele>
        <time>2026-05-31T13:14:27.757+00:00</time>
      </trkpt>
      <trkpt lat="48.63837" lon="2.55848">
        <ele>81</ele>
        <time>2026-05-31T13:14:32.344+00:00</time>
      </trkpt>
      <trkpt lat="48.63832" lon="2.55847">
        <ele>80</ele>
        <time>2026-05-31T13:14:36.757+00:00</time>
      </trkpt>
      <trkpt lat="48.63831" lon="2.5584">
        <ele>80</ele>
        <time>2026-05-31T13:14:40.757+00:00</time>
      </trkpt>
      <trkpt lat="48.63833" lon="2.55833">
        <ele>80</ele>
        <time>2026-05-31T13:14:45.757+00:00</time>
      </trkpt>
      <trkpt lat="48.63835" lon="2.55827">
        <ele>80</ele>
        <time>2026-05-31T13:14:50.286+00:00</time>
      </trkpt>
      <trkpt lat="48.63836" lon="2.5582">
        <ele>80</ele>
        <time>2026-05-31T13:14:54.680+00:00</time>
      </trkpt>
      <trkpt lat="48.63838" lon="2.55813">
        <ele>80</ele>
        <time>2026-05-31T13:14:59.122+00:00</time>
      </trkpt>
      <trkpt lat="48.63841" lon="2.55807">
        <ele>80</ele>
        <time>2026-05-31T13:15:03.525+00:00</time>
      </trkpt>
      <trkpt lat="48.63841" lon="2.55799">
        <ele>80</ele>
        <time>2026-05-31T13:15:07.757+00:00</time>
      </trkpt>
      <trkpt lat="48.63839" lon="2.55793">
        <ele>80</ele>
        <time>2026-05-31T13:15:12.284+00:00</time>
      </trkpt>
      <trkpt lat="48.63838" lon="2.55787">
        <ele>80</ele>
        <time>2026-05-31T13:15:16.678+00:00</time>
      </trkpt>
      <trkpt lat="48.63837" lon="2.5578">
        <ele>80</ele>
        <time>2026-05-31T13:15:20.756+00:00</time>
      </trkpt>
      <trkpt lat="48.63836" lon="2.55771">
        <ele>80</ele>
        <time>2026-05-31T13:15:25.486+00:00</time>
      </trkpt>
      <trkpt lat="48.63835" lon="2.55762">
        <ele>80</ele>
        <time>2026-05-31T13:15:29.756+00:00</time>
      </trkpt>
      <trkpt lat="48.63836" lon="2.55755">
        <ele>80</ele>
        <time>2026-05-31T13:15:34.505+00:00</time>
      </trkpt>
      <trkpt lat="48.63837" lon="2.55749">
        <ele>80</ele>
        <time>2026-05-31T13:15:38.756+00:00</time>
      </trkpt>
      <trkpt lat="48.63838" lon="2.55741">
        <ele>80</ele>
        <time>2026-05-31T13:15:42.756+00:00</time>
      </trkpt>
      <trkpt lat="48.63837" lon="2.55733">
        <ele>81</ele>
        <time>2026-05-31T13:15:47.756+00:00</time>
      </trkpt>
      <trkpt lat="48.63838" lon="2.55726">
        <ele>81</ele>
        <time>2026-05-31T13:15:51.859+00:00</time>
      </trkpt>
      <trkpt lat="48.63839" lon="2.55724">
        <ele>81</ele>
        <time>2026-05-31T13:15:56.003+00:00</time>
      </trkpt>
      <trkpt lat="48.63839" lon="2.55724">
        <ele>81</ele>
        <time>2026-05-31T13:16:00.300+00:00</time>
      </trkpt>
      <trkpt lat="48.63838" lon="2.55718">
        <ele>81</ele>
        <time>2026-05-31T13:16:04.756+00:00</time>
      </trkpt>
      <trkpt lat="48.63839" lon="2.5571">
        <ele>81</ele>
        <time>2026-05-31T13:16:09.627+00:00</time>
      </trkpt>
      <trkpt lat="48.63838" lon="2.55703">
        <ele>82</ele>
        <time>2026-05-31T13:16:13.756+00:00</time>
      </trkpt>
      <trkpt lat="48.63836" lon="2.55696">
        <ele>82</ele>
        <time>2026-05-31T13:16:18.706+00:00</time>
      </trkpt>
      <trkpt lat="48.63837" lon="2.55687">
        <ele>82</ele>
        <time>2026-05-31T13:16:31.386+00:00</time>
      </trkpt>
      <trkpt lat="48.63838" lon="2.55677">
        <ele>81</ele>
        <time>2026-05-31T13:16:35.756+00:00</time>
      </trkpt>
      <trkpt lat="48.6384" lon="2.55669">
        <ele>81</ele>
        <time>2026-05-31T13:16:39.759+00:00</time>
      </trkpt>
      <trkpt lat="48.63841" lon="2.5566">
        <ele>81</ele>
        <time>2026-05-31T13:16:44.480+00:00</time>
      </trkpt>
      <trkpt lat="48.63844" lon="2.55653">
        <ele>81</ele>
        <time>2026-05-31T13:16:49.221+00:00</time>
      </trkpt>
      <trkpt lat="48.63845" lon="2.55647">
        <ele>81</ele>
        <time>2026-05-31T13:16:53.756+00:00</time>
      </trkpt>
      <trkpt lat="48.63847" lon="2.55639">
        <ele>81</ele>
        <time>2026-05-31T13:16:58.519+00:00</time>
      </trkpt>
      <trkpt lat="48.63851" lon="2.55632">
        <ele>82</ele>
        <time>2026-05-31T13:17:02.567+00:00</time>
      </trkpt>
      <trkpt lat="48.63855" lon="2.55626">
        <ele>82</ele>
        <time>2026-05-31T13:17:06.719+00:00</time>
      </trkpt>
      <trkpt lat="48.63858" lon="2.5562">
        <ele>82</ele>
        <time>2026-05-31T13:17:10.756+00:00</time>
      </trkpt>
      <trkpt lat="48.63861" lon="2.55613">
        <ele>82</ele>
        <time>2026-05-31T13:17:15.662+00:00</time>
      </trkpt>
      <trkpt lat="48.63863" lon="2.55606">
        <ele>82</ele>
        <time>2026-05-31T13:17:20.460+00:00</time>
      </trkpt>
      <trkpt lat="48.63865" lon="2.55599">
        <ele>82</ele>
        <time>2026-05-31T13:17:24.756+00:00</time>
      </trkpt>
      <trkpt lat="48.63867" lon="2.5559">
        <ele>81</ele>
        <time>2026-05-31T13:17:28.824+00:00</time>
      </trkpt>
      <trkpt lat="48.63868" lon="2.55584">
        <ele>81</ele>
        <time>2026-05-31T13:17:33.161+00:00</time>
      </trkpt>
      <trkpt lat="48.63869" lon="2.55576">
        <ele>81</ele>
        <time>2026-05-31T13:17:37.766+00:00</time>
      </trkpt>
      <trkpt lat="48.63871" lon="2.55569">
        <ele>81</ele>
        <time>2026-05-31T13:17:42.343+00:00</time>
      </trkpt>
      <trkpt lat="48.63873" lon="2.55562">
        <ele>81</ele>
        <time>2026-05-31T13:17:56.756+00:00</time>
      </trkpt>
      <trkpt lat="48.63875" lon="2.55554">
        <ele>80</ele>
        <time>2026-05-31T13:18:02.756+00:00</time>
      </trkpt>
      <trkpt lat="48.63877" lon="2.55546">
        <ele>80</ele>
        <time>2026-05-31T13:18:07.693+00:00</time>
      </trkpt>
      <trkpt lat="48.63878" lon="2.55538">
        <ele>79</ele>
        <time>2026-05-31T13:18:11.729+00:00</time>
      </trkpt>
      <trkpt lat="48.6388" lon="2.5553">
        <ele>79</ele>
        <time>2026-05-31T13:18:15.750+00:00</time>
      </trkpt>
      <trkpt lat="48.63883" lon="2.55524">
        <ele>79</ele>
        <time>2026-05-31T13:18:19.756+00:00</time>
      </trkpt>
      <trkpt lat="48.63885" lon="2.55517">
        <ele>79</ele>
        <time>2026-05-31T13:18:24.267+00:00</time>
      </trkpt>
      <trkpt lat="48.63887" lon="2.5551">
        <ele>79</ele>
        <time>2026-05-31T13:18:28.593+00:00</time>
      </trkpt>
      <trkpt lat="48.63888" lon="2.55502">
        <ele>79</ele>
        <time>2026-05-31T13:18:32.756+00:00</time>
      </trkpt>
      <trkpt lat="48.6389" lon="2.55495">
        <ele>79</ele>
        <time>2026-05-31T13:18:37.353+00:00</time>
      </trkpt>
      <trkpt lat="48.63892" lon="2.55488">
        <ele>79</ele>
        <time>2026-05-31T13:18:41.756+00:00</time>
      </trkpt>
      <trkpt lat="48.63896" lon="2.55484">
        <ele>80</ele>
        <time>2026-05-31T13:18:45.834+00:00</time>
      </trkpt>
      <trkpt lat="48.639" lon="2.55483">
        <ele>80</ele>
        <time>2026-05-31T13:18:50.756+00:00</time>
      </trkpt>
      <trkpt lat="48.63906" lon="2.55483">
        <ele>80</ele>
        <time>2026-05-31T13:18:55.249+00:00</time>
      </trkpt>
      <trkpt lat="48.63912" lon="2.55487">
        <ele>79</ele>
        <time>2026-05-31T13:18:59.712+00:00</time>
      </trkpt>
      <trkpt lat="48.63917" lon="2.55489">
        <ele>79</ele>
        <time>2026-05-31T13:19:04.105+00:00</time>
      </trkpt>
      <trkpt lat="48.63922" lon="2.55493">
        <ele>79</ele>
        <time>2026-05-31T13:19:08.547+00:00</time>
      </trkpt>
      <trkpt lat="48.63925" lon="2.55498">
        <ele>79</ele>
        <time>2026-05-31T13:19:12.756+00:00</time>
      </trkpt>
      <trkpt lat="48.63926" lon="2.55505">
        <ele>79</ele>
        <time>2026-05-31T13:19:17.249+00:00</time>
      </trkpt>
      <trkpt lat="48.63929" lon="2.55511">
        <ele>79</ele>
        <time>2026-05-31T13:19:21.672+00:00</time>
      </trkpt>
      <trkpt lat="48.63933" lon="2.55515">
        <ele>79</ele>
        <time>2026-05-31T13:19:25.756+00:00</time>
      </trkpt>
      <trkpt lat="48.63938" lon="2.55517">
        <ele>79</ele>
        <time>2026-05-31T13:19:29.892+00:00</time>
      </trkpt>
      <trkpt lat="48.63943" lon="2.55519">
        <ele>79</ele>
        <time>2026-05-31T13:19:34.248+00:00</time>
      </trkpt>
      <trkpt lat="48.63944" lon="2.55527">
        <ele>79</ele>
        <time>2026-05-31T13:19:38.285+00:00</time>
      </trkpt>
      <trkpt lat="48.63941" lon="2.55535">
        <ele>79</ele>
        <time>2026-05-31T13:19:42.728+00:00</time>
      </trkpt>
      <trkpt lat="48.63939" lon="2.55543">
        <ele>79</ele>
        <time>2026-05-31T13:19:46.756+00:00</time>
      </trkpt>
      <trkpt lat="48.63938" lon="2.55551">
        <ele>79</ele>
        <time>2026-05-31T13:19:51.546+00:00</time>
      </trkpt>
      <trkpt lat="48.63938" lon="2.55558">
        <ele>79</ele>
        <time>2026-05-31T13:19:56.007+00:00</time>
      </trkpt>
      <trkpt lat="48.63935" lon="2.55565">
        <ele>79</ele>
        <time>2026-05-31T13:20:00.507+00:00</time>
      </trkpt>
      <trkpt lat="48.63933" lon="2.55571">
        <ele>80</ele>
        <time>2026-05-31T13:20:04.755+00:00</time>
      </trkpt>
      <trkpt lat="48.6393" lon="2.55579">
        <ele>81</ele>
        <time>2026-05-31T13:20:08.755+00:00</time>
      </trkpt>
      <trkpt lat="48.63928" lon="2.55587">
        <ele>81</ele>
        <time>2026-05-31T13:20:13.246+00:00</time>
      </trkpt>
      <trkpt lat="48.63927" lon="2.55593">
        <ele>81</ele>
        <time>2026-05-31T13:20:17.275+00:00</time>
      </trkpt>
      <trkpt lat="48.63926" lon="2.55601">
        <ele>82</ele>
        <time>2026-05-31T13:20:21.668+00:00</time>
      </trkpt>
      <trkpt lat="48.63925" lon="2.55608">
        <ele>82</ele>
        <time>2026-05-31T13:20:25.755+00:00</time>
      </trkpt>
      <trkpt lat="48.63925" lon="2.55614">
        <ele>82</ele>
        <time>2026-05-31T13:20:30.548+00:00</time>
      </trkpt>
      <trkpt lat="48.63925" lon="2.55621">
        <ele>82</ele>
        <time>2026-05-31T13:20:35.035+00:00</time>
      </trkpt>
      <trkpt lat="48.63928" lon="2.55628">
        <ele>82</ele>
        <time>2026-05-31T13:20:39.468+00:00</time>
      </trkpt>
      <trkpt lat="48.63931" lon="2.55634">
        <ele>82</ele>
        <time>2026-05-31T13:20:43.755+00:00</time>
      </trkpt>
      <trkpt lat="48.63933" lon="2.5564">
        <ele>82</ele>
        <time>2026-05-31T13:20:48.265+00:00</time>
      </trkpt>
      <trkpt lat="48.63936" lon="2.55648">
        <ele>82</ele>
        <time>2026-05-31T13:20:52.350+00:00</time>
      </trkpt>
      <trkpt lat="48.63939" lon="2.55654">
        <ele>81</ele>
        <time>2026-05-31T13:20:56.755+00:00</time>
      </trkpt>
      <trkpt lat="48.63946" lon="2.55656">
        <ele>81</ele>
        <time>2026-05-31T13:21:01.274+00:00</time>
      </trkpt>
      <trkpt lat="48.63952" lon="2.55657">
        <ele>81</ele>
        <time>2026-05-31T13:21:05.755+00:00</time>
      </trkpt>
      <trkpt lat="48.63956" lon="2.55659">
        <ele>81</ele>
        <time>2026-05-31T13:21:09.985+00:00</time>
      </trkpt>
      <trkpt lat="48.63961" lon="2.55662">
        <ele>83</ele>
        <time>2026-05-31T13:21:14.533+00:00</time>
      </trkpt>
      <trkpt lat="48.63965" lon="2.55666">
        <ele>83</ele>
        <time>2026-05-31T13:21:19.110+00:00</time>
      </trkpt>
      <trkpt lat="48.6397" lon="2.55669">
        <ele>83</ele>
        <time>2026-05-31T13:21:23.466+00:00</time>
      </trkpt>
      <trkpt lat="48.63975" lon="2.55672">
        <ele>83</ele>
        <time>2026-05-31T13:21:27.754+00:00</time>
      </trkpt>
      <trkpt lat="48.6398" lon="2.55676">
        <ele>83</ele>
        <time>2026-05-31T13:21:32.427+00:00</time>
      </trkpt>
      <trkpt lat="48.63985" lon="2.5568">
        <ele>83</ele>
        <time>2026-05-31T13:21:36.533+00:00</time>
      </trkpt>
      <trkpt lat="48.6399" lon="2.55684">
        <ele>82</ele>
        <time>2026-05-31T13:21:41.090+00:00</time>
      </trkpt>
      <trkpt lat="48.63994" lon="2.55687">
        <ele>82</ele>
        <time>2026-05-31T13:21:45.631+00:00</time>
      </trkpt>
      <trkpt lat="48.64" lon="2.55691">
        <ele>82</ele>
        <time>2026-05-31T13:21:50.168+00:00</time>
      </trkpt>
      <trkpt lat="48.64006" lon="2.55694">
        <ele>82</ele>
        <time>2026-05-31T13:21:54.772+00:00</time>
      </trkpt>
      <trkpt lat="48.64009" lon="2.55698">
        <ele>82</ele>
        <time>2026-05-31T13:21:58.755+00:00</time>
      </trkpt>
      <trkpt lat="48.64014" lon="2.55704">
        <ele>82</ele>
        <time>2026-05-31T13:22:03.034+00:00</time>
      </trkpt>
      <trkpt lat="48.64017" lon="2.55709">
        <ele>83</ele>
        <time>2026-05-31T13:22:07.071+00:00</time>
      </trkpt>
      <trkpt lat="48.6402" lon="2.55715">
        <ele>83</ele>
        <time>2026-05-31T13:22:11.186+00:00</time>
      </trkpt>
      <trkpt lat="48.64024" lon="2.55719">
        <ele>83</ele>
        <time>2026-05-31T13:22:15.493+00:00</time>
      </trkpt>
      <trkpt lat="48.64027" lon="2.55723">
        <ele>83</ele>
        <time>2026-05-31T13:22:20.206+00:00</time>
      </trkpt>
      <trkpt lat="48.64031" lon="2.55727">
        <ele>83</ele>
        <time>2026-05-31T13:22:24.705+00:00</time>
      </trkpt>
      <trkpt lat="48.64034" lon="2.55731">
        <ele>83</ele>
        <time>2026-05-31T13:22:28.755+00:00</time>
      </trkpt>
      <trkpt lat="48.64038" lon="2.55735">
        <ele>83</ele>
        <time>2026-05-31T13:22:33.514+00:00</time>
      </trkpt>
      <trkpt lat="48.64043" lon="2.55737">
        <ele>83</ele>
        <time>2026-05-31T13:22:37.571+00:00</time>
      </trkpt>
      <trkpt lat="48.64049" lon="2.55736">
        <ele>83</ele>
        <time>2026-05-31T13:22:42.234+00:00</time>
      </trkpt>
      <trkpt lat="48.64054" lon="2.55731">
        <ele>83</ele>
        <time>2026-05-31T13:22:46.772+00:00</time>
      </trkpt>
      <trkpt lat="48.64058" lon="2.55726">
        <ele>83</ele>
        <time>2026-05-31T13:22:50.755+00:00</time>
      </trkpt>
      <trkpt lat="48.64063" lon="2.55722">
        <ele>83</ele>
        <time>2026-05-31T13:22:55.668+00:00</time>
      </trkpt>
      <trkpt lat="48.64068" lon="2.55718">
        <ele>83</ele>
        <time>2026-05-31T13:22:59.993+00:00</time>
      </trkpt>
      <trkpt lat="48.64072" lon="2.55715">
        <ele>82</ele>
        <time>2026-05-31T13:23:04.484+00:00</time>
      </trkpt>
      <trkpt lat="48.64078" lon="2.55713">
        <ele>82</ele>
        <time>2026-05-31T13:23:08.755+00:00</time>
      </trkpt>
      <trkpt lat="48.64083" lon="2.55711">
        <ele>82</ele>
        <time>2026-05-31T13:23:13.206+00:00</time>
      </trkpt>
      <trkpt lat="48.64088" lon="2.55708">
        <ele>83</ele>
        <time>2026-05-31T13:23:17.629+00:00</time>
      </trkpt>
      <trkpt lat="48.64093" lon="2.55705">
        <ele>83</ele>
        <time>2026-05-31T13:23:22.091+00:00</time>
      </trkpt>
      <trkpt lat="48.64099" lon="2.55703">
        <ele>83</ele>
        <time>2026-05-31T13:23:26.431+00:00</time>
      </trkpt>
      <trkpt lat="48.64104" lon="2.55699">
        <ele>83</ele>
        <time>2026-05-31T13:23:31.016+00:00</time>
      </trkpt>
      <trkpt lat="48.64107" lon="2.55694">
        <ele>83</ele>
        <time>2026-05-31T13:23:35.649+00:00</time>
      </trkpt>
      <trkpt lat="48.64107" lon="2.55685">
        <ele>83</ele>
        <time>2026-05-31T13:23:40.131+00:00</time>
      </trkpt>
      <trkpt lat="48.64105" lon="2.55677">
        <ele>83</ele>
        <time>2026-05-31T13:23:44.650+00:00</time>
      </trkpt>
      <trkpt lat="48.64103" lon="2.5567">
        <ele>83</ele>
        <time>2026-05-31T13:23:48.755+00:00</time>
      </trkpt>
      <trkpt lat="48.64102" lon="2.55663">
        <ele>83</ele>
        <time>2026-05-31T13:23:53.313+00:00</time>
      </trkpt>
      <trkpt lat="48.64102" lon="2.55656">
        <ele>83</ele>
        <time>2026-05-31T13:23:57.505+00:00</time>
      </trkpt>
      <trkpt lat="48.64101" lon="2.5565">
        <ele>82</ele>
        <time>2026-05-31T13:24:01.534+00:00</time>
      </trkpt>
      <trkpt lat="48.64098" lon="2.55643">
        <ele>82</ele>
        <time>2026-05-31T13:24:05.572+00:00</time>
      </trkpt>
      <trkpt lat="48.64095" lon="2.55637">
        <ele>83</ele>
        <time>2026-05-31T13:24:09.755+00:00</time>
      </trkpt>
      <trkpt lat="48.64093" lon="2.55631">
        <ele>83</ele>
        <time>2026-05-31T13:24:14.427+00:00</time>
      </trkpt>
      <trkpt lat="48.64091" lon="2.55626">
        <ele>83</ele>
        <time>2026-05-31T13:24:18.570+00:00</time>
      </trkpt>
      <trkpt lat="48.64088" lon="2.55621">
        <ele>82</ele>
        <time>2026-05-31T13:24:23.350+00:00</time>
      </trkpt>
      <trkpt lat="48.64085" lon="2.55616">
        <ele>82</ele>
        <time>2026-05-31T13:24:27.755+00:00</time>
      </trkpt>
      <trkpt lat="48.64082" lon="2.55611">
        <ele>82</ele>
        <time>2026-05-31T13:24:32.293+00:00</time>
      </trkpt>
      <trkpt lat="48.64078" lon="2.55605">
        <ele>82</ele>
        <time>2026-05-31T13:24:36.754+00:00</time>
      </trkpt>
      <trkpt lat="48.64075" lon="2.556">
        <ele>82</ele>
        <time>2026-05-31T13:24:41.574+00:00</time>
      </trkpt>
      <trkpt lat="48.6407" lon="2.55596">
        <ele>82</ele>
        <time>2026-05-31T13:24:46.092+00:00</time>
      </trkpt>
      <trkpt lat="48.64064" lon="2.55593">
        <ele>88</ele>
        <time>2026-05-31T13:24:50.467+00:00</time>
      </trkpt>
      <trkpt lat="48.64059" lon="2.55592">
        <ele>88</ele>
        <time>2026-05-31T13:24:55.151+00:00</time>
      </trkpt>
      <trkpt lat="48.64054" lon="2.5559">
        <ele>88</ele>
        <time>2026-05-31T13:24:59.652+00:00</time>
      </trkpt>
      <trkpt lat="48.6405" lon="2.55585">
        <ele>88</ele>
        <time>2026-05-31T13:25:03.754+00:00</time>
      </trkpt>
      <trkpt lat="48.64047" lon="2.55578">
        <ele>88</ele>
        <time>2026-05-31T13:25:08.691+00:00</time>
      </trkpt>
      <trkpt lat="48.64045" lon="2.55571">
        <ele>88</ele>
        <time>2026-05-31T13:25:13.365+00:00</time>
      </trkpt>
      <trkpt lat="48.64045" lon="2.55563">
        <ele>91</ele>
        <time>2026-05-31T13:25:17.753+00:00</time>
      </trkpt>
      <trkpt lat="48.64046" lon="2.55557">
        <ele>91</ele>
        <time>2026-05-31T13:25:22.694+00:00</time>
      </trkpt>
      <trkpt lat="48.64049" lon="2.55551">
        <ele>91</ele>
        <time>2026-05-31T13:25:27.368+00:00</time>
      </trkpt>
      <trkpt lat="48.6405" lon="2.55545">
        <ele>91</ele>
        <time>2026-05-31T13:25:31.754+00:00</time>
      </trkpt>
      <trkpt lat="48.64053" lon="2.55539">
        <ele>90</ele>
        <time>2026-05-31T13:25:36.725+00:00</time>
      </trkpt>
      <trkpt lat="48.64055" lon="2.55533">
        <ele>90</ele>
        <time>2026-05-31T13:25:41.612+00:00</time>
      </trkpt>
      <trkpt lat="48.64057" lon="2.55527">
        <ele>90</ele>
        <time>2026-05-31T13:25:45.753+00:00</time>
      </trkpt>
      <trkpt lat="48.6406" lon="2.55522">
        <ele>90</ele>
        <time>2026-05-31T13:25:50.778+00:00</time>
      </trkpt>
      <trkpt lat="48.64063" lon="2.55518">
        <ele>90</ele>
        <time>2026-05-31T13:25:54.754+00:00</time>
      </trkpt>
      <trkpt lat="48.64068" lon="2.55513">
        <ele>90</ele>
        <time>2026-05-31T13:25:59.372+00:00</time>
      </trkpt>
      <trkpt lat="48.6407" lon="2.55508">
        <ele>84</ele>
        <time>2026-05-31T13:26:03.632+00:00</time>
      </trkpt>
      <trkpt lat="48.6407" lon="2.55499">
        <ele>84</ele>
        <time>2026-05-31T13:26:07.754+00:00</time>
      </trkpt>
      <trkpt lat="48.64068" lon="2.55491">
        <ele>90</ele>
        <time>2026-05-31T13:26:12.305+00:00</time>
      </trkpt>
      <trkpt lat="48.64067" lon="2.55484">
        <ele>90</ele>
        <time>2026-05-31T13:26:16.430+00:00</time>
      </trkpt>
      <trkpt lat="48.64065" lon="2.55475">
        <ele>90</ele>
        <time>2026-05-31T13:26:20.754+00:00</time>
      </trkpt>
      <trkpt lat="48.64064" lon="2.55467">
        <ele>90</ele>
        <time>2026-05-31T13:26:24.754+00:00</time>
      </trkpt>
      <trkpt lat="48.64063" lon="2.55458">
        <ele>89</ele>
        <time>2026-05-31T13:26:29.608+00:00</time>
      </trkpt>
      <trkpt lat="48.64063" lon="2.55451">
        <ele>89</ele>
        <time>2026-05-31T13:26:34.345+00:00</time>
      </trkpt>
      <trkpt lat="48.64062" lon="2.55442">
        <ele>89</ele>
        <time>2026-05-31T13:26:38.754+00:00</time>
      </trkpt>
      <trkpt lat="48.64061" lon="2.55436">
        <ele>89</ele>
        <time>2026-05-31T13:26:43.754+00:00</time>
      </trkpt>
      <trkpt lat="48.6406" lon="2.55429">
        <ele>83</ele>
        <time>2026-05-31T13:26:48.453+00:00</time>
      </trkpt>
      <trkpt lat="48.6406" lon="2.55422">
        <ele>83</ele>
        <time>2026-05-31T13:26:53.185+00:00</time>
      </trkpt>
      <trkpt lat="48.64059" lon="2.55414">
        <ele>83</ele>
        <time>2026-05-31T13:26:57.754+00:00</time>
      </trkpt>
      <trkpt lat="48.64059" lon="2.55406">
        <ele>83</ele>
        <time>2026-05-31T13:27:02.407+00:00</time>
      </trkpt>
      <trkpt lat="48.64058" lon="2.55398">
        <ele>86</ele>
        <time>2026-05-31T13:27:06.513+00:00</time>
      </trkpt>
      <trkpt lat="48.64057" lon="2.5539">
        <ele>86</ele>
        <time>2026-05-31T13:27:11.592+00:00</time>
      </trkpt>
      <trkpt lat="48.64056" lon="2.55383">
        <ele>86</ele>
        <time>2026-05-31T13:27:16.150+00:00</time>
      </trkpt>
      <trkpt lat="48.64055" lon="2.55374">
        <ele>89</ele>
        <time>2026-05-31T13:27:20.467+00:00</time>
      </trkpt>
      <trkpt lat="48.64054" lon="2.55366">
        <ele>89</ele>
        <time>2026-05-31T13:27:24.754+00:00</time>
      </trkpt>
      <trkpt lat="48.64054" lon="2.55358">
        <ele>89</ele>
        <time>2026-05-31T13:27:29.227+00:00</time>
      </trkpt>
      <trkpt lat="48.64054" lon="2.5535">
        <ele>89</ele>
        <time>2026-05-31T13:27:33.630+00:00</time>
      </trkpt>
      <trkpt lat="48.64054" lon="2.55343">
        <ele>92</ele>
        <time>2026-05-31T13:27:37.754+00:00</time>
      </trkpt>
      <trkpt lat="48.64054" lon="2.55337">
        <ele>92</ele>
        <time>2026-05-31T13:27:42.487+00:00</time>
      </trkpt>
      <trkpt lat="48.64053" lon="2.55329">
        <ele>92</ele>
        <time>2026-05-31T13:27:46.611+00:00</time>
      </trkpt>
      <trkpt lat="48.64052" lon="2.55323">
        <ele>92</ele>
        <time>2026-05-31T13:27:51.228+00:00</time>
      </trkpt>
      <trkpt lat="48.6405" lon="2.55317">
        <ele>90</ele>
        <time>2026-05-31T13:27:55.650+00:00</time>
      </trkpt>
      <trkpt lat="48.64048" lon="2.55311">
        <ele>90</ele>
        <time>2026-05-31T13:27:59.753+00:00</time>
      </trkpt>
      <trkpt lat="48.64045" lon="2.55305">
        <ele>90</ele>
        <time>2026-05-31T13:28:04.728+00:00</time>
      </trkpt>
      <trkpt lat="48.64044" lon="2.55298">
        <ele>90</ele>
        <time>2026-05-31T13:28:08.754+00:00</time>
      </trkpt>
      <trkpt lat="48.64043" lon="2.5529">
        <ele>87</ele>
        <time>2026-05-31T13:28:13.652+00:00</time>
      </trkpt>
      <trkpt lat="48.64042" lon="2.55282">
        <ele>87</ele>
        <time>2026-05-31T13:28:17.754+00:00</time>
      </trkpt>
      <trkpt lat="48.64041" lon="2.55274">
        <ele>87</ele>
        <time>2026-05-31T13:28:22.691+00:00</time>
      </trkpt>
      <trkpt lat="48.64039" lon="2.55267">
        <ele>87</ele>
        <time>2026-05-31T13:28:26.754+00:00</time>
      </trkpt>
      <trkpt lat="48.64038" lon="2.55258">
        <ele>85</ele>
        <time>2026-05-31T13:28:31.134+00:00</time>
      </trkpt>
      <trkpt lat="48.64038" lon="2.55251">
        <ele>85</ele>
        <time>2026-05-31T13:28:35.268+00:00</time>
      </trkpt>
      <trkpt lat="48.64037" lon="2.55243">
        <ele>85</ele>
        <time>2026-05-31T13:28:39.754+00:00</time>
      </trkpt>
      <trkpt lat="48.64037" lon="2.55234">
        <ele>82</ele>
        <time>2026-05-31T13:28:44.326+00:00</time>
      </trkpt>
      <trkpt lat="48.64037" lon="2.55226">
        <ele>82</ele>
        <time>2026-05-31T13:28:48.754+00:00</time>
      </trkpt>
      <trkpt lat="48.64037" lon="2.55219">
        <ele>82</ele>
        <time>2026-05-31T13:28:53.327+00:00</time>
      </trkpt>
      <trkpt lat="48.64037" lon="2.55212">
        <ele>82</ele>
        <time>2026-05-31T13:28:57.754+00:00</time>
      </trkpt>
      <trkpt lat="48.64037" lon="2.55204">
        <ele>80</ele>
        <time>2026-05-31T13:29:02.193+00:00</time>
      </trkpt>
      <trkpt lat="48.64037" lon="2.55197">
        <ele>80</ele>
        <time>2026-05-31T13:29:06.731+00:00</time>
      </trkpt>
      <trkpt lat="48.64038" lon="2.55189">
        <ele>80</ele>
        <time>2026-05-31T13:29:11.145+00:00</time>
      </trkpt>
      <trkpt lat="48.64039" lon="2.55183">
        <ele>80</ele>
        <time>2026-05-31T13:29:15.327+00:00</time>
      </trkpt>
      <trkpt lat="48.64039" lon="2.55174">
        <ele>80</ele>
        <time>2026-05-31T13:29:19.732+00:00</time>
      </trkpt>
      <trkpt lat="48.64039" lon="2.55165">
        <ele>80</ele>
        <time>2026-05-31T13:29:23.753+00:00</time>
      </trkpt>
      <trkpt lat="48.64039" lon="2.55157">
        <ele>80</ele>
        <time>2026-05-31T13:29:28.289+00:00</time>
      </trkpt>
      <trkpt lat="48.6404" lon="2.55149">
        <ele>81</ele>
        <time>2026-05-31T13:29:32.414+00:00</time>
      </trkpt>
      <trkpt lat="48.64042" lon="2.55143">
        <ele>80</ele>
        <time>2026-05-31T13:29:36.694+00:00</time>
      </trkpt>
      <trkpt lat="48.64044" lon="2.55136">
        <ele>80</ele>
        <time>2026-05-31T13:29:40.753+00:00</time>
      </trkpt>
      <trkpt lat="48.64046" lon="2.55131">
        <ele>80</ele>
        <time>2026-05-31T13:29:44.931+00:00</time>
      </trkpt>
      <trkpt lat="48.64048" lon="2.55126">
        <ele>80</ele>
        <time>2026-05-31T13:29:49.047+00:00</time>
      </trkpt>
      <trkpt lat="48.64052" lon="2.55123">
        <ele>81</ele>
        <time>2026-05-31T13:29:53.585+00:00</time>
      </trkpt>
      <trkpt lat="48.64056" lon="2.55123">
        <ele>81</ele>
        <time>2026-05-31T13:29:58.086+00:00</time>
      </trkpt>
      <trkpt lat="48.64057" lon="2.55117">
        <ele>81</ele>
        <time>2026-05-31T13:30:02.528+00:00</time>
      </trkpt>
      <trkpt lat="48.64056" lon="2.55108">
        <ele>81</ele>
        <time>2026-05-31T13:30:06.991+00:00</time>
      </trkpt>
      <trkpt lat="48.64053" lon="2.55101">
        <ele>81</ele>
        <time>2026-05-31T13:30:11.548+00:00</time>
      </trkpt>
      <trkpt lat="48.64056" lon="2.55094">
        <ele>82</ele>
        <time>2026-05-31T13:30:15.752+00:00</time>
      </trkpt>
      <trkpt lat="48.64058" lon="2.55087">
        <ele>82</ele>
        <time>2026-05-31T13:30:20.472+00:00</time>
      </trkpt>
      <trkpt lat="48.64058" lon="2.5508">
        <ele>82</ele>
        <time>2026-05-31T13:30:24.752+00:00</time>
      </trkpt>
      <trkpt lat="48.64058" lon="2.55073">
        <ele>82</ele>
        <time>2026-05-31T13:30:29.512+00:00</time>
      </trkpt>
      <trkpt lat="48.64059" lon="2.55066">
        <ele>83</ele>
        <time>2026-05-31T13:30:33.753+00:00</time>
      </trkpt>
      <trkpt lat="48.64058" lon="2.55057">
        <ele>83</ele>
        <time>2026-05-31T13:30:38.006+00:00</time>
      </trkpt>
      <trkpt lat="48.64059" lon="2.5505">
        <ele>83</ele>
        <time>2026-05-31T13:30:42.424+00:00</time>
      </trkpt>
      <trkpt lat="48.64058" lon="2.55041">
        <ele>83</ele>
        <time>2026-05-31T13:30:46.607+00:00</time>
      </trkpt>
      <trkpt lat="48.64057" lon="2.55034">
        <ele>83</ele>
        <time>2026-05-31T13:30:50.673+00:00</time>
      </trkpt>
      <trkpt lat="48.64057" lon="2.55026">
        <ele>83</ele>
        <time>2026-05-31T13:30:54.752+00:00</time>
      </trkpt>
      <trkpt lat="48.64057" lon="2.55017">
        <ele>83</ele>
        <time>2026-05-31T13:30:59.308+00:00</time>
      </trkpt>
      <trkpt lat="48.64057" lon="2.5501">
        <ele>84</ele>
        <time>2026-05-31T13:31:04.108+00:00</time>
      </trkpt>
      <trkpt lat="48.64058" lon="2.55002">
        <ele>84</ele>
        <time>2026-05-31T13:31:08.752+00:00</time>
      </trkpt>
      <trkpt lat="48.64058" lon="2.54992">
        <ele>84</ele>
        <time>2026-05-31T13:31:13.590+00:00</time>
      </trkpt>
      <trkpt lat="48.64059" lon="2.54984">
        <ele>84</ele>
        <time>2026-05-31T13:31:18.364+00:00</time>
      </trkpt>
      <trkpt lat="48.64059" lon="2.54977">
        <ele>84</ele>
        <time>2026-05-31T13:31:22.986+00:00</time>
      </trkpt>
      <trkpt lat="48.64058" lon="2.54964">
        <ele>84</ele>
        <time>2026-05-31T13:31:27.293+00:00</time>
      </trkpt>
      <trkpt lat="48.64064" lon="2.54935">
        <ele>83</ele>
        <time>2026-05-31T13:31:31.726+00:00</time>
      </trkpt>
      <trkpt lat="48.64064" lon="2.54927">
        <ele>83</ele>
        <time>2026-05-31T13:31:46.753+00:00</time>
      </trkpt>
      <trkpt lat="48.64064" lon="2.54919">
        <ele>83</ele>
        <time>2026-05-31T13:31:51.753+00:00</time>
      </trkpt>
      <trkpt lat="48.64065" lon="2.54911">
        <ele>83</ele>
        <time>2026-05-31T13:31:55.753+00:00</time>
      </trkpt>
      <trkpt lat="48.64064" lon="2.54903">
        <ele>83</ele>
        <time>2026-05-31T13:32:00.518+00:00</time>
      </trkpt>
      <trkpt lat="48.64063" lon="2.54895">
        <ele>82</ele>
        <time>2026-05-31T13:32:04.753+00:00</time>
      </trkpt>
      <trkpt lat="48.64062" lon="2.54888">
        <ele>82</ele>
        <time>2026-05-31T13:32:08.812+00:00</time>
      </trkpt>
      <trkpt lat="48.64062" lon="2.54879">
        <ele>82</ele>
        <time>2026-05-31T13:32:13.180+00:00</time>
      </trkpt>
      <trkpt lat="48.64064" lon="2.54871">
        <ele>83</ele>
        <time>2026-05-31T13:32:17.574+00:00</time>
      </trkpt>
      <trkpt lat="48.64066" lon="2.54863">
        <ele>83</ele>
        <time>2026-05-31T13:32:21.738+00:00</time>
      </trkpt>
      <trkpt lat="48.64067" lon="2.54855">
        <ele>83</ele>
        <time>2026-05-31T13:32:25.798+00:00</time>
      </trkpt>
      <trkpt lat="48.64067" lon="2.54847">
        <ele>84</ele>
        <time>2026-05-31T13:32:30.441+00:00</time>
      </trkpt>
      <trkpt lat="48.64068" lon="2.5484">
        <ele>84</ele>
        <time>2026-05-31T13:32:34.753+00:00</time>
      </trkpt>
      <trkpt lat="48.64068" lon="2.5483">
        <ele>84</ele>
        <time>2026-05-31T13:32:39.439+00:00</time>
      </trkpt>
      <trkpt lat="48.6407" lon="2.54821">
        <ele>86</ele>
        <time>2026-05-31T13:32:43.776+00:00</time>
      </trkpt>
      <trkpt lat="48.64072" lon="2.54813">
        <ele>88</ele>
        <time>2026-05-31T13:32:48.238+00:00</time>
      </trkpt>
      <trkpt lat="48.64073" lon="2.54804">
        <ele>88</ele>
        <time>2026-05-31T13:32:52.718+00:00</time>
      </trkpt>
      <trkpt lat="48.64073" lon="2.54795">
        <ele>88</ele>
        <time>2026-05-31T13:32:56.752+00:00</time>
      </trkpt>
      <trkpt lat="48.64074" lon="2.54787">
        <ele>87</ele>
        <time>2026-05-31T13:33:01.513+00:00</time>
      </trkpt>
      <trkpt lat="48.64074" lon="2.54779">
        <ele>87</ele>
        <time>2026-05-31T13:33:06.113+00:00</time>
      </trkpt>
      <trkpt lat="48.64073" lon="2.54771">
        <ele>87</ele>
        <time>2026-05-31T13:33:10.698+00:00</time>
      </trkpt>
      <trkpt lat="48.64073" lon="2.54763">
        <ele>86</ele>
        <time>2026-05-31T13:33:14.753+00:00</time>
      </trkpt>
      <trkpt lat="48.64072" lon="2.54754">
        <ele>86</ele>
        <time>2026-05-31T13:34:27.221+00:00</time>
      </trkpt>
      <trkpt lat="48.64071" lon="2.54747">
        <ele>86</ele>
        <time>2026-05-31T13:34:31.480+00:00</time>
      </trkpt>
      <trkpt lat="48.64071" lon="2.54738">
        <ele>86</ele>
        <time>2026-05-31T13:34:35.409+00:00</time>
      </trkpt>
      <trkpt lat="48.64072" lon="2.5473">
        <ele>84</ele>
        <time>2026-05-31T13:34:39.555+00:00</time>
      </trkpt>
      <trkpt lat="48.64073" lon="2.54721">
        <ele>84</ele>
        <time>2026-05-31T13:34:43.718+00:00</time>
      </trkpt>
      <trkpt lat="48.64074" lon="2.54714">
        <ele>84</ele>
        <time>2026-05-31T13:34:48.013+00:00</time>
      </trkpt>
      <trkpt lat="48.64073" lon="2.54706">
        <ele>82</ele>
        <time>2026-05-31T13:34:52.526+00:00</time>
      </trkpt>
      <trkpt lat="48.64073" lon="2.54697">
        <ele>82</ele>
        <time>2026-05-31T13:34:56.751+00:00</time>
      </trkpt>
      <trkpt lat="48.64074" lon="2.54689">
        <ele>82</ele>
        <time>2026-05-31T13:35:01.309+00:00</time>
      </trkpt>
      <trkpt lat="48.64074" lon="2.5468">
        <ele>81</ele>
        <time>2026-05-31T13:35:05.772+00:00</time>
      </trkpt>
      <trkpt lat="48.64075" lon="2.54671">
        <ele>81</ele>
        <time>2026-05-31T13:35:10.179+00:00</time>
      </trkpt>
      <trkpt lat="48.64075" lon="2.54663">
        <ele>81</ele>
        <time>2026-05-31T13:35:14.660+00:00</time>
      </trkpt>
      <trkpt lat="48.64075" lon="2.54655">
        <ele>81</ele>
        <time>2026-05-31T13:35:19.026+00:00</time>
      </trkpt>
      <trkpt lat="48.64074" lon="2.54645">
        <ele>82</ele>
        <time>2026-05-31T13:35:23.281+00:00</time>
      </trkpt>
      <trkpt lat="48.64074" lon="2.54637">
        <ele>82</ele>
        <time>2026-05-31T13:35:28.007+00:00</time>
      </trkpt>
      <trkpt lat="48.64074" lon="2.5463">
        <ele>82</ele>
        <time>2026-05-31T13:35:32.641+00:00</time>
      </trkpt>
      <trkpt lat="48.64076" lon="2.54621">
        <ele>81</ele>
        <time>2026-05-31T13:35:37.504+00:00</time>
      </trkpt>
      <trkpt lat="48.64076" lon="2.54612">
        <ele>81</ele>
        <time>2026-05-31T13:35:41.752+00:00</time>
      </trkpt>
      <trkpt lat="48.64076" lon="2.54605">
        <ele>81</ele>
        <time>2026-05-31T13:35:46.362+00:00</time>
      </trkpt>
      <trkpt lat="48.64076" lon="2.54598">
        <ele>81</ele>
        <time>2026-05-31T13:35:50.751+00:00</time>
      </trkpt>
      <trkpt lat="48.64076" lon="2.54591">
        <ele>81</ele>
        <time>2026-05-31T13:35:55.305+00:00</time>
      </trkpt>
      <trkpt lat="48.64077" lon="2.54584">
        <ele>81</ele>
        <time>2026-05-31T13:35:59.642+00:00</time>
      </trkpt>
      <trkpt lat="48.64077" lon="2.54576">
        <ele>81</ele>
        <time>2026-05-31T13:36:04.160+00:00</time>
      </trkpt>
      <trkpt lat="48.64077" lon="2.54567">
        <ele>80</ele>
        <time>2026-05-31T13:36:08.506+00:00</time>
      </trkpt>
      <trkpt lat="48.64077" lon="2.54559">
        <ele>80</ele>
        <time>2026-05-31T13:36:12.751+00:00</time>
      </trkpt>
      <trkpt lat="48.64078" lon="2.54551">
        <ele>80</ele>
        <time>2026-05-31T13:36:17.400+00:00</time>
      </trkpt>
      <trkpt lat="48.64079" lon="2.54543">
        <ele>80</ele>
        <time>2026-05-31T13:36:21.771+00:00</time>
      </trkpt>
      <trkpt lat="48.64078" lon="2.54535">
        <ele>79</ele>
        <time>2026-05-31T13:36:26.525+00:00</time>
      </trkpt>
      <trkpt lat="48.64078" lon="2.54527">
        <ele>79</ele>
        <time>2026-05-31T13:36:30.601+00:00</time>
      </trkpt>
      <trkpt lat="48.64078" lon="2.5452">
        <ele>79</ele>
        <time>2026-05-31T13:36:34.752+00:00</time>
      </trkpt>
      <trkpt lat="48.6408" lon="2.54511">
        <ele>79</ele>
        <time>2026-05-31T13:36:39.458+00:00</time>
      </trkpt>
      <trkpt lat="48.64081" lon="2.54503">
        <ele>79</ele>
        <time>2026-05-31T13:36:43.751+00:00</time>
      </trkpt>
      <trkpt lat="48.64083" lon="2.54495">
        <ele>79</ele>
        <time>2026-05-31T13:36:48.506+00:00</time>
      </trkpt>
      <trkpt lat="48.64084" lon="2.54488">
        <ele>79</ele>
        <time>2026-05-31T13:36:52.524+00:00</time>
      </trkpt>
      <trkpt lat="48.64085" lon="2.5448">
        <ele>80</ele>
        <time>2026-05-31T13:36:56.752+00:00</time>
      </trkpt>
      <trkpt lat="48.64086" lon="2.54472">
        <ele>80</ele>
        <time>2026-05-31T13:37:00.752+00:00</time>
      </trkpt>
      <trkpt lat="48.64087" lon="2.54465">
        <ele>80</ele>
        <time>2026-05-31T13:37:05.638+00:00</time>
      </trkpt>
      <trkpt lat="48.64087" lon="2.54457">
        <ele>80</ele>
        <time>2026-05-31T13:37:09.752+00:00</time>
      </trkpt>
      <trkpt lat="48.64087" lon="2.54449">
        <ele>80</ele>
        <time>2026-05-31T13:37:13.752+00:00</time>
      </trkpt>
      <trkpt lat="48.64086" lon="2.5444">
        <ele>80</ele>
        <time>2026-05-31T13:37:18.752+00:00</time>
      </trkpt>
      <trkpt lat="48.64086" lon="2.54432">
        <ele>80</ele>
        <time>2026-05-31T13:37:23.561+00:00</time>
      </trkpt>
      <trkpt lat="48.64086" lon="2.54424">
        <ele>79</ele>
        <time>2026-05-31T13:37:27.686+00:00</time>
      </trkpt>
      <trkpt lat="48.64086" lon="2.54415">
        <ele>79</ele>
        <time>2026-05-31T13:37:31.752+00:00</time>
      </trkpt>
      <trkpt lat="48.64085" lon="2.54407">
        <ele>79</ele>
        <time>2026-05-31T13:37:35.905+00:00</time>
      </trkpt>
      <trkpt lat="48.64084" lon="2.54398">
        <ele>78</ele>
        <time>2026-05-31T13:37:40.279+00:00</time>
      </trkpt>
      <trkpt lat="48.64084" lon="2.5439">
        <ele>78</ele>
        <time>2026-05-31T13:37:44.752+00:00</time>
      </trkpt>
      <trkpt lat="48.64084" lon="2.54382">
        <ele>78</ele>
        <time>2026-05-31T13:37:49.665+00:00</time>
      </trkpt>
      <trkpt lat="48.64085" lon="2.54374">
        <ele>79</ele>
        <time>2026-05-31T13:37:53.752+00:00</time>
      </trkpt>
      <trkpt lat="48.64085" lon="2.54366">
        <ele>79</ele>
        <time>2026-05-31T13:37:58.501+00:00</time>
      </trkpt>
      <trkpt lat="48.64085" lon="2.54359">
        <ele>79</ele>
        <time>2026-05-31T13:38:02.751+00:00</time>
      </trkpt>
      <trkpt lat="48.64086" lon="2.54351">
        <ele>79</ele>
        <time>2026-05-31T13:38:07.385+00:00</time>
      </trkpt>
      <trkpt lat="48.64086" lon="2.54344">
        <ele>80</ele>
        <time>2026-05-31T13:38:11.752+00:00</time>
      </trkpt>
      <trkpt lat="48.64087" lon="2.54337">
        <ele>80</ele>
        <time>2026-05-31T13:38:15.751+00:00</time>
      </trkpt>
      <trkpt lat="48.64089" lon="2.54329">
        <ele>80</ele>
        <time>2026-05-31T13:38:20.644+00:00</time>
      </trkpt>
      <trkpt lat="48.6409" lon="2.54322">
        <ele>80</ele>
        <time>2026-05-31T13:38:25.105+00:00</time>
      </trkpt>
      <trkpt lat="48.64089" lon="2.54315">
        <ele>80</ele>
        <time>2026-05-31T13:38:29.605+00:00</time>
      </trkpt>
      <trkpt lat="48.64087" lon="2.54307">
        <ele>80</ele>
        <time>2026-05-31T13:38:33.752+00:00</time>
      </trkpt>
      <trkpt lat="48.64083" lon="2.54302">
        <ele>80</ele>
        <time>2026-05-31T13:38:38.402+00:00</time>
      </trkpt>
      <trkpt lat="48.64082" lon="2.54295">
        <ele>80</ele>
        <time>2026-05-31T13:38:42.738+00:00</time>
      </trkpt>
      <trkpt lat="48.64079" lon="2.54289">
        <ele>80</ele>
        <time>2026-05-31T13:38:46.751+00:00</time>
      </trkpt>
      <trkpt lat="48.64074" lon="2.54284">
        <ele>80</ele>
        <time>2026-05-31T13:38:51.497+00:00</time>
      </trkpt>
      <trkpt lat="48.64069" lon="2.54281">
        <ele>79</ele>
        <time>2026-05-31T13:38:55.751+00:00</time>
      </trkpt>
      <trkpt lat="48.64065" lon="2.54276">
        <ele>79</ele>
        <time>2026-05-31T13:39:00.180+00:00</time>
      </trkpt>
      <trkpt lat="48.64062" lon="2.54269">
        <ele>79</ele>
        <time>2026-05-31T13:39:04.660+00:00</time>
      </trkpt>
      <trkpt lat="48.64063" lon="2.54261">
        <ele>79</ele>
        <time>2026-05-31T13:39:08.751+00:00</time>
      </trkpt>
      <trkpt lat="48.64065" lon="2.54254">
        <ele>79</ele>
        <time>2026-05-31T13:39:13.642+00:00</time>
      </trkpt>
      <trkpt lat="48.6407" lon="2.54247">
        <ele>80</ele>
        <time>2026-05-31T13:39:18.104+00:00</time>
      </trkpt>
      <trkpt lat="48.64071" lon="2.54245">
        <ele>80</ele>
        <time>2026-05-31T13:39:22.498+00:00</time>
      </trkpt>
      <trkpt lat="48.64074" lon="2.54233">
        <ele>79</ele>
        <time>2026-05-31T13:39:26.751+00:00</time>
      </trkpt>
      <trkpt lat="48.64078" lon="2.54219">
        <ele>79</ele>
        <time>2026-05-31T13:39:31.304+00:00</time>
      </trkpt>
      <trkpt lat="48.64081" lon="2.54208">
        <ele>78</ele>
        <time>2026-05-31T13:39:35.660+00:00</time>
      </trkpt>
      <trkpt lat="48.64082" lon="2.54198">
        <ele>78</ele>
        <time>2026-05-31T13:39:39.751+00:00</time>
      </trkpt>
      <trkpt lat="48.64083" lon="2.54188">
        <ele>78</ele>
        <time>2026-05-31T13:39:44.066+00:00</time>
      </trkpt>
      <trkpt lat="48.64083" lon="2.5418">
        <ele>79</ele>
        <time>2026-05-31T13:39:48.582+00:00</time>
      </trkpt>
      <trkpt lat="48.64084" lon="2.54171">
        <ele>79</ele>
        <time>2026-05-31T13:39:52.619+00:00</time>
      </trkpt>
      <trkpt lat="48.64077" lon="2.54157">
        <ele>79</ele>
        <time>2026-05-31T13:39:56.750+00:00</time>
      </trkpt>
      <trkpt lat="48.64075" lon="2.54159">
        <ele>79</ele>
        <time>2026-05-31T13:40:01.137+00:00</time>
      </trkpt>
      <trkpt lat="48.64074" lon="2.54158">
        <ele>79</ele>
        <time>2026-05-31T13:40:05.358+00:00</time>
      </trkpt>
      <trkpt lat="48.6407" lon="2.54162">
        <ele>79</ele>
        <time>2026-05-31T13:40:09.751+00:00</time>
      </trkpt>
      <trkpt lat="48.64067" lon="2.5417">
        <ele>79</ele>
        <time>2026-05-31T13:40:14.707+00:00</time>
      </trkpt>
      <trkpt lat="48.64062" lon="2.54175">
        <ele>79</ele>
        <time>2026-05-31T13:40:18.751+00:00</time>
      </trkpt>
      <trkpt lat="48.64057" lon="2.5418">
        <ele>79</ele>
        <time>2026-05-31T13:40:23.127+00:00</time>
      </trkpt>
      <trkpt lat="48.64053" lon="2.54178">
        <ele>79</ele>
        <time>2026-05-31T13:40:27.540+00:00</time>
      </trkpt>
      <trkpt lat="48.6405" lon="2.54172">
        <ele>79</ele>
        <time>2026-05-31T13:40:31.703+00:00</time>
      </trkpt>
      <trkpt lat="48.64048" lon="2.54166">
        <ele>79</ele>
        <time>2026-05-31T13:40:35.751+00:00</time>
      </trkpt>
      <trkpt lat="48.64044" lon="2.54161">
        <ele>79</ele>
        <time>2026-05-31T13:40:40.702+00:00</time>
      </trkpt>
      <trkpt lat="48.64038" lon="2.54161">
        <ele>79</ele>
        <time>2026-05-31T13:40:44.751+00:00</time>
      </trkpt>
      <trkpt lat="48.64032" lon="2.54162">
        <ele>79</ele>
        <time>2026-05-31T13:40:49.086+00:00</time>
      </trkpt>
      <trkpt lat="48.64028" lon="2.54157">
        <ele>79</ele>
        <time>2026-05-31T13:40:53.305+00:00</time>
      </trkpt>
      <trkpt lat="48.64029" lon="2.54149">
        <ele>79</ele>
        <time>2026-05-31T13:41:16.751+00:00</time>
      </trkpt>
      <trkpt lat="48.64034" lon="2.54143">
        <ele>79</ele>
        <time>2026-05-31T13:41:21.299+00:00</time>
      </trkpt>
      <trkpt lat="48.64038" lon="2.54148">
        <ele>79</ele>
        <time>2026-05-31T13:41:25.665+00:00</time>
      </trkpt>
      <trkpt lat="48.64045" lon="2.54132">
        <ele>79</ele>
        <time>2026-05-31T13:41:29.751+00:00</time>
      </trkpt>
      <trkpt lat="48.64045" lon="2.54132">
        <ele>79</ele>
        <time>2026-05-31T13:41:34.364+00:00</time>
      </trkpt>
      <trkpt lat="48.64045" lon="2.54131">
        <ele>79</ele>
        <time>2026-05-31T13:41:38.641+00:00</time>
      </trkpt>
      <trkpt lat="48.64046" lon="2.54131">
        <ele>79</ele>
        <time>2026-05-31T13:41:42.978+00:00</time>
      </trkpt>
      <trkpt lat="48.64046" lon="2.54131">
        <ele>79</ele>
        <time>2026-05-31T13:41:47.247+00:00</time>
      </trkpt>
      <trkpt lat="48.64044" lon="2.54127">
        <ele>79</ele>
        <time>2026-05-31T13:41:51.563+00:00</time>
      </trkpt>
      <trkpt lat="48.64043" lon="2.54135">
        <ele>79</ele>
        <time>2026-05-31T13:42:23.751+00:00</time>
      </trkpt>
      <trkpt lat="48.64039" lon="2.54141">
        <ele>79</ele>
        <time>2026-05-31T13:42:28.074+00:00</time>
      </trkpt>
      <trkpt lat="48.64034" lon="2.54144">
        <ele>79</ele>
        <time>2026-05-31T13:42:32.044+00:00</time>
      </trkpt>
      <trkpt lat="48.64033" lon="2.54143">
        <ele>79</ele>
        <time>2026-05-31T13:42:36.238+00:00</time>
      </trkpt>
      <trkpt lat="48.64034" lon="2.54142">
        <ele>79</ele>
        <time>2026-05-31T13:42:40.460+00:00</time>
      </trkpt>
      <trkpt lat="48.64039" lon="2.54146">
        <ele>79</ele>
        <time>2026-05-31T13:42:44.751+00:00</time>
      </trkpt>
      <trkpt lat="48.6404" lon="2.54132">
        <ele>79</ele>
        <time>2026-05-31T13:42:49.669+00:00</time>
      </trkpt>
      <trkpt lat="48.64039" lon="2.54127">
        <ele>79</ele>
        <time>2026-05-31T13:42:53.776+00:00</time>
      </trkpt>
      <trkpt lat="48.6404" lon="2.54123">
        <ele>78</ele>
        <time>2026-05-31T13:42:58.535+00:00</time>
      </trkpt>
      <trkpt lat="48.64046" lon="2.54128">
        <ele>79</ele>
        <time>2026-05-31T13:43:02.592+00:00</time>
      </trkpt>
      <trkpt lat="48.64046" lon="2.54127">
        <ele>79</ele>
        <time>2026-05-31T13:43:06.750+00:00</time>
      </trkpt>
      <trkpt lat="48.64047" lon="2.54123">
        <ele>79</ele>
        <time>2026-05-31T13:43:11.782+00:00</time>
      </trkpt>
      <trkpt lat="48.64047" lon="2.54115">
        <ele>79</ele>
        <time>2026-05-31T13:43:16.352+00:00</time>
      </trkpt>
      <trkpt lat="48.64045" lon="2.54109">
        <ele>79</ele>
        <time>2026-05-31T13:43:20.751+00:00</time>
      </trkpt>
      <trkpt lat="48.64045" lon="2.54104">
        <ele>79</ele>
        <time>2026-05-31T13:43:25.498+00:00</time>
      </trkpt>
      <trkpt lat="48.64049" lon="2.54103">
        <ele>79</ele>
        <time>2026-05-31T13:43:29.751+00:00</time>
      </trkpt>
      <trkpt lat="48.64052" lon="2.54099">
        <ele>79</ele>
        <time>2026-05-31T13:43:34.751+00:00</time>
      </trkpt>
      <trkpt lat="48.64054" lon="2.54094">
        <ele>78</ele>
        <time>2026-05-31T13:45:30.750+00:00</time>
      </trkpt>
      <trkpt lat="48.64057" lon="2.54088">
        <ele>78</ele>
        <time>2026-05-31T13:45:35.750+00:00</time>
      </trkpt>
      <trkpt lat="48.64059" lon="2.54081">
        <ele>78</ele>
        <time>2026-05-31T13:45:41.750+00:00</time>
      </trkpt>
      <trkpt lat="48.64061" lon="2.54075">
        <ele>78</ele>
        <time>2026-05-31T13:45:47.750+00:00</time>
      </trkpt>
      <trkpt lat="48.64063" lon="2.54067">
        <ele>78</ele>
        <time>2026-05-31T13:45:51.749+00:00</time>
      </trkpt>
      <trkpt lat="48.64065" lon="2.54058">
        <ele>78</ele>
        <time>2026-05-31T13:47:48.383+00:00</time>
      </trkpt>
      <trkpt lat="48.64067" lon="2.54051">
        <ele>78</ele>
        <time>2026-05-31T13:47:52.518+00:00</time>
      </trkpt>
      <trkpt lat="48.64069" lon="2.54043">
        <ele>78</ele>
        <time>2026-05-31T13:47:56.602+00:00</time>
      </trkpt>
      <trkpt lat="48.6407" lon="2.54036">
        <ele>79</ele>
        <time>2026-05-31T13:48:00.750+00:00</time>
      </trkpt>
      <trkpt lat="48.64073" lon="2.54028">
        <ele>79</ele>
        <time>2026-05-31T13:48:05.750+00:00</time>
      </trkpt>
      <trkpt lat="48.64074" lon="2.54021">
        <ele>79</ele>
        <time>2026-05-31T13:48:30.749+00:00</time>
      </trkpt>
      <trkpt lat="48.64077" lon="2.54013">
        <ele>78</ele>
        <time>2026-05-31T13:48:35.075+00:00</time>
      </trkpt>
      <trkpt lat="48.64078" lon="2.54004">
        <ele>78</ele>
        <time>2026-05-31T13:48:39.383+00:00</time>
      </trkpt>
      <trkpt lat="48.6408" lon="2.53995">
        <ele>78</ele>
        <time>2026-05-31T13:48:43.622+00:00</time>
      </trkpt>
      <trkpt lat="48.64082" lon="2.53988">
        <ele>78</ele>
        <time>2026-05-31T13:48:47.998+00:00</time>
      </trkpt>
      <trkpt lat="48.64086" lon="2.53982">
        <ele>78</ele>
        <time>2026-05-31T13:50:01.750+00:00</time>
      </trkpt>
      <trkpt lat="48.64089" lon="2.53974">
        <ele>78</ele>
        <time>2026-05-31T13:50:05.749+00:00</time>
      </trkpt>
      <trkpt lat="48.64091" lon="2.53967">
        <ele>78</ele>
        <time>2026-05-31T13:50:09.750+00:00</time>
      </trkpt>
      <trkpt lat="48.64092" lon="2.53959">
        <ele>78</ele>
        <time>2026-05-31T13:50:14.278+00:00</time>
      </trkpt>
      <trkpt lat="48.64095" lon="2.53951">
        <ele>78</ele>
        <time>2026-05-31T13:50:18.749+00:00</time>
      </trkpt>
      <trkpt lat="48.64097" lon="2.53944">
        <ele>78</ele>
        <time>2026-05-31T13:50:22.749+00:00</time>
      </trkpt>
      <trkpt lat="48.64098" lon="2.53937">
        <ele>79</ele>
        <time>2026-05-31T13:50:27.159+00:00</time>
      </trkpt>
      <trkpt lat="48.64099" lon="2.53931">
        <ele>79</ele>
        <time>2026-05-31T13:50:31.748+00:00</time>
      </trkpt>
      <trkpt lat="48.64101" lon="2.53924">
        <ele>78</ele>
        <time>2026-05-31T13:50:35.958+00:00</time>
      </trkpt>
      <trkpt lat="48.64103" lon="2.53917">
        <ele>78</ele>
        <time>2026-05-31T13:50:40.199+00:00</time>
      </trkpt>
      <trkpt lat="48.64105" lon="2.53909">
        <ele>78</ele>
        <time>2026-05-31T13:50:44.244+00:00</time>
      </trkpt>
      <trkpt lat="48.64105" lon="2.53902">
        <ele>78</ele>
        <time>2026-05-31T13:50:48.397+00:00</time>
      </trkpt>
      <trkpt lat="48.64108" lon="2.53895">
        <ele>78</ele>
        <time>2026-05-31T13:50:52.748+00:00</time>
      </trkpt>
      <trkpt lat="48.6411" lon="2.53888">
        <ele>78</ele>
        <time>2026-05-31T13:50:57.416+00:00</time>
      </trkpt>
      <trkpt lat="48.64111" lon="2.5388">
        <ele>78</ele>
        <time>2026-05-31T13:51:01.982+00:00</time>
      </trkpt>
      <trkpt lat="48.64113" lon="2.53873">
        <ele>78</ele>
        <time>2026-05-31T13:51:06.500+00:00</time>
      </trkpt>
      <trkpt lat="48.64114" lon="2.53864">
        <ele>78</ele>
        <time>2026-05-31T13:51:10.749+00:00</time>
      </trkpt>
      <trkpt lat="48.64116" lon="2.53857">
        <ele>78</ele>
        <time>2026-05-31T13:51:15.578+00:00</time>
      </trkpt>
      <trkpt lat="48.64117" lon="2.53849">
        <ele>78</ele>
        <time>2026-05-31T13:51:19.595+00:00</time>
      </trkpt>
      <trkpt lat="48.6412" lon="2.53841">
        <ele>78</ele>
        <time>2026-05-31T13:51:24.018+00:00</time>
      </trkpt>
      <trkpt lat="48.64121" lon="2.53834">
        <ele>78</ele>
        <time>2026-05-31T13:51:28.749+00:00</time>
      </trkpt>
      <trkpt lat="48.64122" lon="2.53827">
        <ele>78</ele>
        <time>2026-05-31T13:51:33.643+00:00</time>
      </trkpt>
      <trkpt lat="48.64123" lon="2.53819">
        <ele>78</ele>
        <time>2026-05-31T13:51:38.058+00:00</time>
      </trkpt>
      <trkpt lat="48.64123" lon="2.53812">
        <ele>78</ele>
        <time>2026-05-31T13:51:42.586+00:00</time>
      </trkpt>
      <trkpt lat="48.64125" lon="2.53804">
        <ele>79</ele>
        <time>2026-05-31T13:51:47.180+00:00</time>
      </trkpt>
      <trkpt lat="48.64126" lon="2.53796">
        <ele>79</ele>
        <time>2026-05-31T13:51:51.205+00:00</time>
      </trkpt>
      <trkpt lat="48.64127" lon="2.53788">
        <ele>78</ele>
        <time>2026-05-31T13:51:55.749+00:00</time>
      </trkpt>
      <trkpt lat="48.64128" lon="2.53782">
        <ele>78</ele>
        <time>2026-05-31T13:52:00.749+00:00</time>
      </trkpt>
      <trkpt lat="48.64129" lon="2.53775">
        <ele>78</ele>
        <time>2026-05-31T13:52:05.362+00:00</time>
      </trkpt>
      <trkpt lat="48.64129" lon="2.53767">
        <ele>78</ele>
        <time>2026-05-31T13:52:09.698+00:00</time>
      </trkpt>
      <trkpt lat="48.6413" lon="2.53759">
        <ele>78</ele>
        <time>2026-05-31T13:52:13.749+00:00</time>
      </trkpt>
      <trkpt lat="48.64131" lon="2.53751">
        <ele>78</ele>
        <time>2026-05-31T13:52:17.898+00:00</time>
      </trkpt>
      <trkpt lat="48.64131" lon="2.53743">
        <ele>78</ele>
        <time>2026-05-31T13:52:22.301+00:00</time>
      </trkpt>
      <trkpt lat="48.64131" lon="2.53735">
        <ele>78</ele>
        <time>2026-05-31T13:52:26.338+00:00</time>
      </trkpt>
      <trkpt lat="48.64131" lon="2.53728">
        <ele>78</ele>
        <time>2026-05-31T13:52:30.749+00:00</time>
      </trkpt>
      <trkpt lat="48.6413" lon="2.5372">
        <ele>78</ele>
        <time>2026-05-31T13:52:35.357+00:00</time>
      </trkpt>
      <trkpt lat="48.64129" lon="2.53713">
        <ele>78</ele>
        <time>2026-05-31T13:52:39.749+00:00</time>
      </trkpt>
      <trkpt lat="48.6413" lon="2.53704">
        <ele>79</ele>
        <time>2026-05-31T13:52:44.385+00:00</time>
      </trkpt>
      <trkpt lat="48.6413" lon="2.53695">
        <ele>79</ele>
        <time>2026-05-31T13:52:48.922+00:00</time>
      </trkpt>
      <trkpt lat="48.64132" lon="2.5369">
        <ele>79</ele>
        <time>2026-05-31T13:52:53.518+00:00</time>
      </trkpt>
      <trkpt lat="48.64132" lon="2.53682">
        <ele>79</ele>
        <time>2026-05-31T13:52:58.124+00:00</time>
      </trkpt>
      <trkpt lat="48.64132" lon="2.53673">
        <ele>79</ele>
        <time>2026-05-31T13:53:02.558+00:00</time>
      </trkpt>
      <trkpt lat="48.64132" lon="2.53664">
        <ele>79</ele>
        <time>2026-05-31T13:53:07.200+00:00</time>
      </trkpt>
      <trkpt lat="48.64132" lon="2.53657">
        <ele>79</ele>
        <time>2026-05-31T13:53:11.603+00:00</time>
      </trkpt>
      <trkpt lat="48.64132" lon="2.53647">
        <ele>79</ele>
        <time>2026-05-31T13:53:15.749+00:00</time>
      </trkpt>
      <trkpt lat="48.64132" lon="2.53639">
        <ele>79</ele>
        <time>2026-05-31T13:53:20.082+00:00</time>
      </trkpt>
      <trkpt lat="48.64132" lon="2.5363">
        <ele>79</ele>
        <time>2026-05-31T13:53:24.157+00:00</time>
      </trkpt>
      <trkpt lat="48.64132" lon="2.53622">
        <ele>79</ele>
        <time>2026-05-31T13:53:28.618+00:00</time>
      </trkpt>
      <trkpt lat="48.64133" lon="2.53613">
        <ele>79</ele>
        <time>2026-05-31T13:53:33.079+00:00</time>
      </trkpt>
      <trkpt lat="48.64133" lon="2.53604">
        <ele>79</ele>
        <time>2026-05-31T13:53:37.763+00:00</time>
      </trkpt>
      <trkpt lat="48.64131" lon="2.53596">
        <ele>79</ele>
        <time>2026-05-31T13:53:41.749+00:00</time>
      </trkpt>
      <trkpt lat="48.64131" lon="2.5359">
        <ele>79</ele>
        <time>2026-05-31T13:53:46.080+00:00</time>
      </trkpt>
      <trkpt lat="48.64135" lon="2.53583">
        <ele>79</ele>
        <time>2026-05-31T13:53:50.221+00:00</time>
      </trkpt>
      <trkpt lat="48.64139" lon="2.53579">
        <ele>79</ele>
        <time>2026-05-31T13:53:54.720+00:00</time>
      </trkpt>
      <trkpt lat="48.64145" lon="2.53581">
        <ele>79</ele>
        <time>2026-05-31T13:53:58.749+00:00</time>
      </trkpt>
      <trkpt lat="48.6415" lon="2.53583">
        <ele>79</ele>
        <time>2026-05-31T13:54:03.475+00:00</time>
      </trkpt>
      <trkpt lat="48.64155" lon="2.53583">
        <ele>78</ele>
        <time>2026-05-31T13:54:07.641+00:00</time>
      </trkpt>
      <trkpt lat="48.64158" lon="2.53584">
        <ele>78</ele>
        <time>2026-05-31T13:54:11.749+00:00</time>
      </trkpt>
      <trkpt lat="48.64158" lon="2.53577">
        <ele>78</ele>
        <time>2026-05-31T13:54:16.322+00:00</time>
      </trkpt>
      <trkpt lat="48.64156" lon="2.53575">
        <ele>78</ele>
        <time>2026-05-31T13:54:20.749+00:00</time>
      </trkpt>
      <trkpt lat="48.6415" lon="2.53569">
        <ele>80</ele>
        <time>2026-05-31T13:54:25.197+00:00</time>
      </trkpt>
      <trkpt lat="48.64146" lon="2.53563">
        <ele>80</ele>
        <time>2026-05-31T13:54:29.697+00:00</time>
      </trkpt>
      <trkpt lat="48.64146" lon="2.53554">
        <ele>80</ele>
        <time>2026-05-31T13:54:33.748+00:00</time>
      </trkpt>
      <trkpt lat="48.64146" lon="2.53547">
        <ele>80</ele>
        <time>2026-05-31T13:54:38.618+00:00</time>
      </trkpt>
      <trkpt lat="48.64145" lon="2.53539">
        <ele>81</ele>
        <time>2026-05-31T13:54:42.749+00:00</time>
      </trkpt>
      <trkpt lat="48.64144" lon="2.53531">
        <ele>81</ele>
        <time>2026-05-31T13:54:47.562+00:00</time>
      </trkpt>
      <trkpt lat="48.64144" lon="2.53523">
        <ele>81</ele>
        <time>2026-05-31T13:54:52.059+00:00</time>
      </trkpt>
      <trkpt lat="48.64144" lon="2.53515">
        <ele>81</ele>
        <time>2026-05-31T13:54:56.481+00:00</time>
      </trkpt>
      <trkpt lat="48.64144" lon="2.53506">
        <ele>81</ele>
        <time>2026-05-31T13:55:01+00:00</time>
      </trkpt>
      <trkpt lat="48.64147" lon="2.53495">
        <ele>81</ele>
        <time>2026-05-31T13:55:05.540+00:00</time>
      </trkpt>
      <trkpt lat="48.64151" lon="2.53487">
        <ele>81</ele>
        <time>2026-05-31T13:55:10.058+00:00</time>
      </trkpt>
      <trkpt lat="48.6415" lon="2.53477">
        <ele>80</ele>
        <time>2026-05-31T13:55:14.749+00:00</time>
      </trkpt>
      <trkpt lat="48.64149" lon="2.53471">
        <ele>80</ele>
        <time>2026-05-31T13:55:19.518+00:00</time>
      </trkpt>
      <trkpt lat="48.64149" lon="2.53462">
        <ele>80</ele>
        <time>2026-05-31T13:55:23.538+00:00</time>
      </trkpt>
      <trkpt lat="48.64148" lon="2.53454">
        <ele>79</ele>
        <time>2026-05-31T13:55:27.749+00:00</time>
      </trkpt>
      <trkpt lat="48.64146" lon="2.53447">
        <ele>79</ele>
        <time>2026-05-31T13:55:32.739+00:00</time>
      </trkpt>
      <trkpt lat="48.64147" lon="2.53442">
        <ele>79</ele>
        <time>2026-05-31T13:55:37.344+00:00</time>
      </trkpt>
      <trkpt lat="48.64147" lon="2.53417">
        <ele>78</ele>
        <time>2026-05-31T13:55:42.021+00:00</time>
      </trkpt>
      <trkpt lat="48.64145" lon="2.53405">
        <ele>78</ele>
        <time>2026-05-31T13:55:46.718+00:00</time>
      </trkpt>
      <trkpt lat="48.64145" lon="2.53394">
        <ele>78</ele>
        <time>2026-05-31T13:55:50.738+00:00</time>
      </trkpt>
      <trkpt lat="48.64144" lon="2.53386">
        <ele>78</ele>
        <time>2026-05-31T13:55:54.776+00:00</time>
      </trkpt>
      <trkpt lat="48.64142" lon="2.53378">
        <ele>78</ele>
        <time>2026-05-31T13:56:19.749+00:00</time>
      </trkpt>
      <trkpt lat="48.64143" lon="2.53373">
        <ele>77</ele>
        <time>2026-05-31T13:56:24.738+00:00</time>
      </trkpt>
      <trkpt lat="48.6414" lon="2.53367">
        <ele>77</ele>
        <time>2026-05-31T13:56:29.241+00:00</time>
      </trkpt>
      <trkpt lat="48.64136" lon="2.53365">
        <ele>77</ele>
        <time>2026-05-31T13:56:33.749+00:00</time>
      </trkpt>
      <trkpt lat="48.64135" lon="2.53359">
        <ele>77</ele>
        <time>2026-05-31T13:56:38.498+00:00</time>
      </trkpt>
      <trkpt lat="48.64136" lon="2.5335">
        <ele>77</ele>
        <time>2026-05-31T13:56:42.748+00:00</time>
      </trkpt>
      <trkpt lat="48.64139" lon="2.53344">
        <ele>77</ele>
        <time>2026-05-31T13:56:47.322+00:00</time>
      </trkpt>
      <trkpt lat="48.64143" lon="2.53337">
        <ele>77</ele>
        <time>2026-05-31T13:56:51.658+00:00</time>
      </trkpt>
      <trkpt lat="48.64148" lon="2.53334">
        <ele>77</ele>
        <time>2026-05-31T13:56:56.080+00:00</time>
      </trkpt>
      <trkpt lat="48.64152" lon="2.5333">
        <ele>77</ele>
        <time>2026-05-31T13:57:00.438+00:00</time>
      </trkpt>
      <trkpt lat="48.64154" lon="2.53325">
        <ele>80</ele>
        <time>2026-05-31T13:57:04.748+00:00</time>
      </trkpt>
      <trkpt lat="48.64154" lon="2.53317">
        <ele>81</ele>
        <time>2026-05-31T13:57:09.281+00:00</time>
      </trkpt>
      <trkpt lat="48.64152" lon="2.53311">
        <ele>78</ele>
        <time>2026-05-31T13:57:13.598+00:00</time>
      </trkpt>
      <trkpt lat="48.64151" lon="2.53305">
        <ele>78</ele>
        <time>2026-05-31T13:57:18.541+00:00</time>
      </trkpt>
      <trkpt lat="48.64153" lon="2.53299">
        <ele>81</ele>
        <time>2026-05-31T13:57:22.748+00:00</time>
      </trkpt>
      <trkpt lat="48.64155" lon="2.53293">
        <ele>81</ele>
        <time>2026-05-31T13:57:27.748+00:00</time>
      </trkpt>
      <trkpt lat="48.64156" lon="2.53286">
        <ele>80</ele>
        <time>2026-05-31T13:57:32.463+00:00</time>
      </trkpt>
      <trkpt lat="48.64155" lon="2.53278">
        <ele>80</ele>
        <time>2026-05-31T13:57:36.748+00:00</time>
      </trkpt>
      <trkpt lat="48.64155" lon="2.53271">
        <ele>80</ele>
        <time>2026-05-31T13:57:41.747+00:00</time>
      </trkpt>
      <trkpt lat="48.64154" lon="2.53263">
        <ele>79</ele>
        <time>2026-05-31T13:57:46.378+00:00</time>
      </trkpt>
      <trkpt lat="48.64152" lon="2.53256">
        <ele>79</ele>
        <time>2026-05-31T13:57:50.403+00:00</time>
      </trkpt>
      <trkpt lat="48.64149" lon="2.53249">
        <ele>79</ele>
        <time>2026-05-31T13:57:54.748+00:00</time>
      </trkpt>
      <trkpt lat="48.64148" lon="2.53242">
        <ele>79</ele>
        <time>2026-05-31T13:57:59.748+00:00</time>
      </trkpt>
      <trkpt lat="48.64146" lon="2.53233">
        <ele>80</ele>
        <time>2026-05-31T13:58:04.058+00:00</time>
      </trkpt>
      <trkpt lat="48.64145" lon="2.53225">
        <ele>80</ele>
        <time>2026-05-31T13:58:08.363+00:00</time>
      </trkpt>
      <trkpt lat="48.64145" lon="2.53216">
        <ele>80</ele>
        <time>2026-05-31T13:58:12.699+00:00</time>
      </trkpt>
      <trkpt lat="48.64146" lon="2.53207">
        <ele>81</ele>
        <time>2026-05-31T13:58:16.748+00:00</time>
      </trkpt>
      <trkpt lat="48.64148" lon="2.53199">
        <ele>81</ele>
        <time>2026-05-31T13:58:21.748+00:00</time>
      </trkpt>
      <trkpt lat="48.64151" lon="2.53193">
        <ele>81</ele>
        <time>2026-05-31T13:58:25.747+00:00</time>
      </trkpt>
      <trkpt lat="48.64155" lon="2.53187">
        <ele>81</ele>
        <time>2026-05-31T13:58:30.748+00:00</time>
      </trkpt>
      <trkpt lat="48.64159" lon="2.53182">
        <ele>81</ele>
        <time>2026-05-31T13:58:35.748+00:00</time>
      </trkpt>
      <trkpt lat="48.64164" lon="2.53177">
        <ele>84</ele>
        <time>2026-05-31T13:58:40.152+00:00</time>
      </trkpt>
      <trkpt lat="48.64168" lon="2.53172">
        <ele>84</ele>
        <time>2026-05-31T13:58:44.297+00:00</time>
      </trkpt>
      <trkpt lat="48.64173" lon="2.53168">
        <ele>84</ele>
        <time>2026-05-31T13:58:48.333+00:00</time>
      </trkpt>
      <trkpt lat="48.64177" lon="2.53162">
        <ele>84</ele>
        <time>2026-05-31T13:58:52.612+00:00</time>
      </trkpt>
      <trkpt lat="48.6418" lon="2.53157">
        <ele>84</ele>
        <time>2026-05-31T13:58:56.748+00:00</time>
      </trkpt>
      <trkpt lat="48.64184" lon="2.53151">
        <ele>86</ele>
        <time>2026-05-31T13:59:01.054+00:00</time>
      </trkpt>
      <trkpt lat="48.64188" lon="2.53145">
        <ele>86</ele>
        <time>2026-05-31T13:59:05.092+00:00</time>
      </trkpt>
      <trkpt lat="48.64192" lon="2.53139">
        <ele>86</ele>
        <time>2026-05-31T13:59:09.748+00:00</time>
      </trkpt>
      <trkpt lat="48.64196" lon="2.53134">
        <ele>86</ele>
        <time>2026-05-31T13:59:14.073+00:00</time>
      </trkpt>
      <trkpt lat="48.642" lon="2.53128">
        <ele>86</ele>
        <time>2026-05-31T13:59:18.457+00:00</time>
      </trkpt>
      <trkpt lat="48.64201" lon="2.53123">
        <ele>87</ele>
        <time>2026-05-31T13:59:22.591+00:00</time>
      </trkpt>
      <trkpt lat="48.64198" lon="2.53116">
        <ele>87</ele>
        <time>2026-05-31T13:59:26.619+00:00</time>
      </trkpt>
      <trkpt lat="48.64195" lon="2.53108">
        <ele>87</ele>
        <time>2026-05-31T13:59:31.090+00:00</time>
      </trkpt>
      <trkpt lat="48.64189" lon="2.53102">
        <ele>87</ele>
        <time>2026-05-31T13:59:35.747+00:00</time>
      </trkpt>
      <trkpt lat="48.64184" lon="2.53092">
        <ele>87</ele>
        <time>2026-05-31T13:59:40.092+00:00</time>
      </trkpt>
      <trkpt lat="48.64179" lon="2.53085">
        <ele>86</ele>
        <time>2026-05-31T13:59:44.514+00:00</time>
      </trkpt>
      <trkpt lat="48.64179" lon="2.53076">
        <ele>86</ele>
        <time>2026-05-31T13:59:49.053+00:00</time>
      </trkpt>
      <trkpt lat="48.64183" lon="2.5307">
        <ele>87</ele>
        <time>2026-05-31T13:59:53.458+00:00</time>
      </trkpt>
      <trkpt lat="48.64182" lon="2.53063">
        <ele>87</ele>
        <time>2026-05-31T13:59:57.698+00:00</time>
      </trkpt>
      <trkpt lat="48.64178" lon="2.53059">
        <ele>85</ele>
        <time>2026-05-31T14:00:02.629+00:00</time>
      </trkpt>
      <trkpt lat="48.64174" lon="2.53054">
        <ele>85</ele>
        <time>2026-05-31T14:00:06.638+00:00</time>
      </trkpt>
      <trkpt lat="48.64171" lon="2.53049">
        <ele>85</ele>
        <time>2026-05-31T14:00:10.748+00:00</time>
      </trkpt>
      <trkpt lat="48.64168" lon="2.53044">
        <ele>85</ele>
        <time>2026-05-31T14:00:15.235+00:00</time>
      </trkpt>
      <trkpt lat="48.64163" lon="2.53041">
        <ele>86</ele>
        <time>2026-05-31T14:00:19.755+00:00</time>
      </trkpt>
      <trkpt lat="48.64157" lon="2.53046">
        <ele>85</ele>
        <time>2026-05-31T14:00:24.119+00:00</time>
      </trkpt>
      <trkpt lat="48.64153" lon="2.53044">
        <ele>82</ele>
        <time>2026-05-31T14:00:28.455+00:00</time>
      </trkpt>
      <trkpt lat="48.6415" lon="2.53034">
        <ele>82</ele>
        <time>2026-05-31T14:00:32.748+00:00</time>
      </trkpt>
      <trkpt lat="48.64149" lon="2.53025">
        <ele>82</ele>
        <time>2026-05-31T14:00:37.398+00:00</time>
      </trkpt>
      <trkpt lat="48.64154" lon="2.53018">
        <ele>86</ele>
        <time>2026-05-31T14:00:41.748+00:00</time>
      </trkpt>
      <trkpt lat="48.64157" lon="2.53016">
        <ele>86</ele>
        <time>2026-05-31T14:00:45.747+00:00</time>
      </trkpt>
      <trkpt lat="48.64157" lon="2.53015">
        <ele>86</ele>
        <time>2026-05-31T14:00:50.748+00:00</time>
      </trkpt>
      <trkpt lat="48.64156" lon="2.53015">
        <ele>86</ele>
        <time>2026-05-31T14:00:54.748+00:00</time>
      </trkpt>
      <trkpt lat="48.64156" lon="2.53012">
        <ele>86</ele>
        <time>2026-05-31T14:00:59.032+00:00</time>
      </trkpt>
      <trkpt lat="48.64157" lon="2.53004">
        <ele>86</ele>
        <time>2026-05-31T14:01:03.494+00:00</time>
      </trkpt>
      <trkpt lat="48.64156" lon="2.52995">
        <ele>86</ele>
        <time>2026-05-31T14:01:07.747+00:00</time>
      </trkpt>
      <trkpt lat="48.64154" lon="2.52986">
        <ele>87</ele>
        <time>2026-05-31T14:01:12.254+00:00</time>
      </trkpt>
      <trkpt lat="48.64154" lon="2.52977">
        <ele>87</ele>
        <time>2026-05-31T14:01:16.748+00:00</time>
      </trkpt>
      <trkpt lat="48.64154" lon="2.52969">
        <ele>87</ele>
        <time>2026-05-31T14:01:20.748+00:00</time>
      </trkpt>
      <trkpt lat="48.64151" lon="2.5296">
        <ele>84</ele>
        <time>2026-05-31T14:01:25.457+00:00</time>
      </trkpt>
      <trkpt lat="48.6415" lon="2.5295">
        <ele>84</ele>
        <time>2026-05-31T14:01:29.748+00:00</time>
      </trkpt>
      <trkpt lat="48.6415" lon="2.5294">
        <ele>84</ele>
        <time>2026-05-31T14:01:34.748+00:00</time>
      </trkpt>
      <trkpt lat="48.64149" lon="2.52931">
        <ele>84</ele>
        <time>2026-05-31T14:01:39.748+00:00</time>
      </trkpt>
      <trkpt lat="48.6415" lon="2.52922">
        <ele>84</ele>
        <time>2026-05-31T14:01:44.640+00:00</time>
      </trkpt>
      <trkpt lat="48.64152" lon="2.52915">
        <ele>84</ele>
        <time>2026-05-31T14:01:48.748+00:00</time>
      </trkpt>
      <trkpt lat="48.64153" lon="2.52906">
        <ele>87</ele>
        <time>2026-05-31T14:01:52.748+00:00</time>
      </trkpt>
      <trkpt lat="48.64151" lon="2.52899">
        <ele>83</ele>
        <time>2026-05-31T14:01:57.380+00:00</time>
      </trkpt>
      <trkpt lat="48.6415" lon="2.52891">
        <ele>83</ele>
        <time>2026-05-31T14:02:02.044+00:00</time>
      </trkpt>
      <trkpt lat="48.64149" lon="2.52886">
        <ele>83</ele>
        <time>2026-05-31T14:02:06.524+00:00</time>
      </trkpt>
      <trkpt lat="48.6415" lon="2.52879">
        <ele>83</ele>
        <time>2026-05-31T14:02:11.101+00:00</time>
      </trkpt>
      <trkpt lat="48.64155" lon="2.52873">
        <ele>85</ele>
        <time>2026-05-31T14:02:15.245+00:00</time>
      </trkpt>
      <trkpt lat="48.6416" lon="2.52873">
        <ele>85</ele>
        <time>2026-05-31T14:02:19.378+00:00</time>
      </trkpt>
      <trkpt lat="48.64165" lon="2.52875">
        <ele>85</ele>
        <time>2026-05-31T14:02:23.417+00:00</time>
      </trkpt>
      <trkpt lat="48.64169" lon="2.52871">
        <ele>85</ele>
        <time>2026-05-31T14:02:27.747+00:00</time>
      </trkpt>
      <trkpt lat="48.64169" lon="2.52864">
        <ele>85</ele>
        <time>2026-05-31T14:02:32.358+00:00</time>
      </trkpt>
      <trkpt lat="48.64167" lon="2.52857">
        <ele>85</ele>
        <time>2026-05-31T14:02:36.747+00:00</time>
      </trkpt>
      <trkpt lat="48.64169" lon="2.52852">
        <ele>85</ele>
        <time>2026-05-31T14:02:41.398+00:00</time>
      </trkpt>
      <trkpt lat="48.64171" lon="2.52845">
        <ele>84</ele>
        <time>2026-05-31T14:02:45.747+00:00</time>
      </trkpt>
      <trkpt lat="48.64171" lon="2.52839">
        <ele>84</ele>
        <time>2026-05-31T14:02:50.747+00:00</time>
      </trkpt>
      <trkpt lat="48.6417" lon="2.52831">
        <ele>84</ele>
        <time>2026-05-31T14:02:54.746+00:00</time>
      </trkpt>
      <trkpt lat="48.64175" lon="2.52828">
        <ele>84</ele>
        <time>2026-05-31T14:02:59.261+00:00</time>
      </trkpt>
      <trkpt lat="48.64181" lon="2.52826">
        <ele>85</ele>
        <time>2026-05-31T14:03:03.375+00:00</time>
      </trkpt>
      <trkpt lat="48.64182" lon="2.52818">
        <ele>86</ele>
        <time>2026-05-31T14:03:07.746+00:00</time>
      </trkpt>
      <trkpt lat="48.64182" lon="2.5281">
        <ele>86</ele>
        <time>2026-05-31T14:03:12.220+00:00</time>
      </trkpt>
      <trkpt lat="48.64186" lon="2.52803">
        <ele>86</ele>
        <time>2026-05-31T14:03:16.642+00:00</time>
      </trkpt>
      <trkpt lat="48.64187" lon="2.52796">
        <ele>86</ele>
        <time>2026-05-31T14:03:20.747+00:00</time>
      </trkpt>
      <trkpt lat="48.64189" lon="2.52789">
        <ele>86</ele>
        <time>2026-05-31T14:03:25.384+00:00</time>
      </trkpt>
      <trkpt lat="48.64189" lon="2.52783">
        <ele>86</ele>
        <time>2026-05-31T14:03:29.747+00:00</time>
      </trkpt>
      <trkpt lat="48.64187" lon="2.52778">
        <ele>86</ele>
        <time>2026-05-31T14:03:34.558+00:00</time>
      </trkpt>
      <trkpt lat="48.64186" lon="2.52771">
        <ele>86</ele>
        <time>2026-05-31T14:03:38.747+00:00</time>
      </trkpt>
      <trkpt lat="48.64187" lon="2.52766">
        <ele>86</ele>
        <time>2026-05-31T14:03:43.420+00:00</time>
      </trkpt>
      <trkpt lat="48.64188" lon="2.52759">
        <ele>84</ele>
        <time>2026-05-31T14:03:47.586+00:00</time>
      </trkpt>
      <trkpt lat="48.64191" lon="2.52755">
        <ele>84</ele>
        <time>2026-05-31T14:03:52.179+00:00</time>
      </trkpt>
      <trkpt lat="48.64193" lon="2.5275">
        <ele>84</ele>
        <time>2026-05-31T14:03:56.601+00:00</time>
      </trkpt>
      <trkpt lat="48.64193" lon="2.52745">
        <ele>84</ele>
        <time>2026-05-31T14:04:01.140+00:00</time>
      </trkpt>
      <trkpt lat="48.64194" lon="2.52736">
        <ele>84</ele>
        <time>2026-05-31T14:04:05.178+00:00</time>
      </trkpt>
      <trkpt lat="48.64197" lon="2.52729">
        <ele>81</ele>
        <time>2026-05-31T14:04:09.341+00:00</time>
      </trkpt>
      <trkpt lat="48.64199" lon="2.52722">
        <ele>81</ele>
        <time>2026-05-31T14:04:13.747+00:00</time>
      </trkpt>
      <trkpt lat="48.64203" lon="2.52716">
        <ele>81</ele>
        <time>2026-05-31T14:04:17.747+00:00</time>
      </trkpt>
      <trkpt lat="48.64204" lon="2.52709">
        <ele>81</ele>
        <time>2026-05-31T14:04:22.417+00:00</time>
      </trkpt>
      <trkpt lat="48.64203" lon="2.52701">
        <ele>80</ele>
        <time>2026-05-31T14:04:26.748+00:00</time>
      </trkpt>
      <trkpt lat="48.64204" lon="2.52694">
        <ele>80</ele>
        <time>2026-05-31T14:04:31.222+00:00</time>
      </trkpt>
      <trkpt lat="48.64204" lon="2.52687">
        <ele>80</ele>
        <time>2026-05-31T14:04:35.664+00:00</time>
      </trkpt>
      <trkpt lat="48.64205" lon="2.5268">
        <ele>79</ele>
        <time>2026-05-31T14:04:40.058+00:00</time>
      </trkpt>
      <trkpt lat="48.64208" lon="2.52683">
        <ele>80</ele>
        <time>2026-05-31T14:04:44.357+00:00</time>
      </trkpt>
      <trkpt lat="48.64205" lon="2.52688">
        <ele>80</ele>
        <time>2026-05-31T14:04:48.746+00:00</time>
      </trkpt>
      <trkpt lat="48.64205" lon="2.52691">
        <ele>80</ele>
        <time>2026-05-31T14:04:53.747+00:00</time>
      </trkpt>
      <trkpt lat="48.64209" lon="2.52693">
        <ele>84</ele>
        <time>2026-05-31T14:04:57.960+00:00</time>
      </trkpt>
      <trkpt lat="48.64216" lon="2.52687">
        <ele>84</ele>
        <time>2026-05-31T14:05:02.740+00:00</time>
      </trkpt>
      <trkpt lat="48.64219" lon="2.52682">
        <ele>84</ele>
        <time>2026-05-31T14:05:07.105+00:00</time>
      </trkpt>
      <trkpt lat="48.64224" lon="2.52681">
        <ele>84</ele>
        <time>2026-05-31T14:05:11.747+00:00</time>
      </trkpt>
      <trkpt lat="48.64229" lon="2.5268">
        <ele>83</ele>
        <time>2026-05-31T14:05:16.701+00:00</time>
      </trkpt>
      <trkpt lat="48.64236" lon="2.52681">
        <ele>83</ele>
        <time>2026-05-31T14:05:20.747+00:00</time>
      </trkpt>
      <trkpt lat="48.64241" lon="2.52682">
        <ele>87</ele>
        <time>2026-05-31T14:05:25.364+00:00</time>
      </trkpt>
      <trkpt lat="48.64247" lon="2.52682">
        <ele>87</ele>
        <time>2026-05-31T14:05:29.778+00:00</time>
      </trkpt>
      <trkpt lat="48.64253" lon="2.52683">
        <ele>87</ele>
        <time>2026-05-31T14:05:33.736+00:00</time>
      </trkpt>
      <trkpt lat="48.6426" lon="2.52684">
        <ele>87</ele>
        <time>2026-05-31T14:05:38.689+00:00</time>
      </trkpt>
      <trkpt lat="48.64267" lon="2.52682">
        <ele>89</ele>
        <time>2026-05-31T14:05:42.747+00:00</time>
      </trkpt>
      <trkpt lat="48.64274" lon="2.52675">
        <ele>89</ele>
        <time>2026-05-31T14:05:47.642+00:00</time>
      </trkpt>
      <trkpt lat="48.64276" lon="2.52667">
        <ele>89</ele>
        <time>2026-05-31T14:05:51.690+00:00</time>
      </trkpt>
      <trkpt lat="48.64273" lon="2.52664">
        <ele>89</ele>
        <time>2026-05-31T14:05:55.823+00:00</time>
      </trkpt>
      <trkpt lat="48.64273" lon="2.52664">
        <ele>89</ele>
        <time>2026-05-31T14:06:00.470+00:00</time>
      </trkpt>
      <trkpt lat="48.6427" lon="2.52657">
        <ele>89</ele>
        <time>2026-05-31T14:06:04.612+00:00</time>
      </trkpt>
      <trkpt lat="48.64267" lon="2.52658">
        <ele>89</ele>
        <time>2026-05-31T14:06:08.747+00:00</time>
      </trkpt>
      <trkpt lat="48.64269" lon="2.52649">
        <ele>89</ele>
        <time>2026-05-31T14:06:13.149+00:00</time>
      </trkpt>
      <trkpt lat="48.64272" lon="2.5264">
        <ele>89</ele>
        <time>2026-05-31T14:06:17.611+00:00</time>
      </trkpt>
      <trkpt lat="48.64275" lon="2.52633">
        <ele>89</ele>
        <time>2026-05-31T14:06:21.744+00:00</time>
      </trkpt>
      <trkpt lat="48.64282" lon="2.52624">
        <ele>87</ele>
        <time>2026-05-31T14:06:26.033+00:00</time>
      </trkpt>
      <trkpt lat="48.64289" lon="2.52616">
        <ele>87</ele>
        <time>2026-05-31T14:06:30.356+00:00</time>
      </trkpt>
      <trkpt lat="48.64294" lon="2.52609">
        <ele>89</ele>
        <time>2026-05-31T14:06:34.747+00:00</time>
      </trkpt>
      <trkpt lat="48.64295" lon="2.52603">
        <ele>89</ele>
        <time>2026-05-31T14:06:39.348+00:00</time>
      </trkpt>
      <trkpt lat="48.64291" lon="2.52596">
        <ele>85</ele>
        <time>2026-05-31T14:06:43.646+00:00</time>
      </trkpt>
      <trkpt lat="48.6429" lon="2.52587">
        <ele>85</ele>
        <time>2026-05-31T14:06:47.747+00:00</time>
      </trkpt>
      <trkpt lat="48.64293" lon="2.52579">
        <ele>86</ele>
        <time>2026-05-31T14:06:52.145+00:00</time>
      </trkpt>
      <trkpt lat="48.64297" lon="2.52575">
        <ele>86</ele>
        <time>2026-05-31T14:06:56.587+00:00</time>
      </trkpt>
      <trkpt lat="48.64301" lon="2.52571">
        <ele>86</ele>
        <time>2026-05-31T14:07:01.232+00:00</time>
      </trkpt>
      <trkpt lat="48.64304" lon="2.52566">
        <ele>82</ele>
        <time>2026-05-31T14:07:05.747+00:00</time>
      </trkpt>
      <trkpt lat="48.64307" lon="2.52562">
        <ele>82</ele>
        <time>2026-05-31T14:07:09.888+00:00</time>
      </trkpt>
      <trkpt lat="48.64311" lon="2.52559">
        <ele>82</ele>
        <time>2026-05-31T14:07:14.348+00:00</time>
      </trkpt>
      <trkpt lat="48.64314" lon="2.52557">
        <ele>82</ele>
        <time>2026-05-31T14:07:18.451+00:00</time>
      </trkpt>
      <trkpt lat="48.64318" lon="2.52556">
        <ele>82</ele>
        <time>2026-05-31T14:07:22.747+00:00</time>
      </trkpt>
      <trkpt lat="48.64321" lon="2.52556">
        <ele>84</ele>
        <time>2026-05-31T14:07:27.324+00:00</time>
      </trkpt>
      <trkpt lat="48.64326" lon="2.52557">
        <ele>84</ele>
        <time>2026-05-31T14:07:31.747+00:00</time>
      </trkpt>
      <trkpt lat="48.64326" lon="2.52557">
        <ele>84</ele>
        <time>2026-05-31T14:07:36.392+00:00</time>
      </trkpt>
      <trkpt lat="48.64328" lon="2.52558">
        <ele>84</ele>
        <time>2026-05-31T14:07:40.746+00:00</time>
      </trkpt>
      <trkpt lat="48.64334" lon="2.52557">
        <ele>84</ele>
        <time>2026-05-31T14:07:45.746+00:00</time>
      </trkpt>
      <trkpt lat="48.64339" lon="2.52557">
        <ele>84</ele>
        <time>2026-05-31T14:07:50.266+00:00</time>
      </trkpt>
      <trkpt lat="48.64343" lon="2.52559">
        <ele>84</ele>
        <time>2026-05-31T14:07:54.747+00:00</time>
      </trkpt>
      <trkpt lat="48.64348" lon="2.52561">
        <ele>83</ele>
        <time>2026-05-31T14:10:05.768+00:00</time>
      </trkpt>
      <trkpt lat="48.64352" lon="2.52562">
        <ele>83</ele>
        <time>2026-05-31T14:10:09.746+00:00</time>
      </trkpt>
      <trkpt lat="48.64356" lon="2.52563">
        <ele>83</ele>
        <time>2026-05-31T14:10:13.948+00:00</time>
      </trkpt>
      <trkpt lat="48.64361" lon="2.52564">
        <ele>83</ele>
        <time>2026-05-31T14:10:18.091+00:00</time>
      </trkpt>
      <trkpt lat="48.64366" lon="2.52565">
        <ele>83</ele>
        <time>2026-05-31T14:10:22.725+00:00</time>
      </trkpt>
      <trkpt lat="48.6437" lon="2.52564">
        <ele>83</ele>
        <time>2026-05-31T14:10:26.791+00:00</time>
      </trkpt>
      <trkpt lat="48.64376" lon="2.52561">
        <ele>82</ele>
        <time>2026-05-31T14:10:31.548+00:00</time>
      </trkpt>
      <trkpt lat="48.64381" lon="2.52559">
        <ele>82</ele>
        <time>2026-05-31T14:10:35.809+00:00</time>
      </trkpt>
      <trkpt lat="48.64387" lon="2.52556">
        <ele>82</ele>
        <time>2026-05-31T14:10:40.329+00:00</time>
      </trkpt>
      <trkpt lat="48.64392" lon="2.52554">
        <ele>82</ele>
        <time>2026-05-31T14:10:44.569+00:00</time>
      </trkpt>
      <trkpt lat="48.64396" lon="2.52551">
        <ele>82</ele>
        <time>2026-05-31T14:10:49.214+00:00</time>
      </trkpt>
      <trkpt lat="48.64401" lon="2.52547">
        <ele>82</ele>
        <time>2026-05-31T14:10:53.746+00:00</time>
      </trkpt>
      <trkpt lat="48.64405" lon="2.52544">
        <ele>82</ele>
        <time>2026-05-31T14:10:58.510+00:00</time>
      </trkpt>
      <trkpt lat="48.64411" lon="2.52541">
        <ele>81</ele>
        <time>2026-05-31T14:11:02.746+00:00</time>
      </trkpt>
      <trkpt lat="48.64416" lon="2.5254">
        <ele>81</ele>
        <time>2026-05-31T14:11:07.327+00:00</time>
      </trkpt>
      <trkpt lat="48.64421" lon="2.52542">
        <ele>82</ele>
        <time>2026-05-31T14:11:11.691+00:00</time>
      </trkpt>
      <trkpt lat="48.64425" lon="2.52537">
        <ele>81</ele>
        <time>2026-05-31T14:11:15.746+00:00</time>
      </trkpt>
      <trkpt lat="48.64428" lon="2.5253">
        <ele>81</ele>
        <time>2026-05-31T14:11:20.671+00:00</time>
      </trkpt>
      <trkpt lat="48.6443" lon="2.52523">
        <ele>81</ele>
        <time>2026-05-31T14:11:24.746+00:00</time>
      </trkpt>
      <trkpt lat="48.64431" lon="2.52517">
        <ele>83</ele>
        <time>2026-05-31T14:11:29.243+00:00</time>
      </trkpt>
      <trkpt lat="48.64429" lon="2.52511">
        <ele>80</ele>
        <time>2026-05-31T14:11:33.670+00:00</time>
      </trkpt>
      <trkpt lat="48.64426" lon="2.52504">
        <ele>80</ele>
        <time>2026-05-31T14:11:47.746+00:00</time>
      </trkpt>
      <trkpt lat="48.64423" lon="2.52499">
        <ele>80</ele>
        <time>2026-05-31T14:11:51.745+00:00</time>
      </trkpt>
      <trkpt lat="48.64422" lon="2.52493">
        <ele>80</ele>
        <time>2026-05-31T14:11:56.244+00:00</time>
      </trkpt>
      <trkpt lat="48.64425" lon="2.52486">
        <ele>79</ele>
        <time>2026-05-31T14:12:00.648+00:00</time>
      </trkpt>
      <trkpt lat="48.64429" lon="2.52481">
        <ele>79</ele>
        <time>2026-05-31T14:12:04.892+00:00</time>
      </trkpt>
      <trkpt lat="48.64434" lon="2.52478">
        <ele>77</ele>
        <time>2026-05-31T14:12:09.204+00:00</time>
      </trkpt>
      <trkpt lat="48.64439" lon="2.52476">
        <ele>77</ele>
        <time>2026-05-31T14:12:13.215+00:00</time>
      </trkpt>
      <trkpt lat="48.64444" lon="2.52474">
        <ele>77</ele>
        <time>2026-05-31T14:12:17.586+00:00</time>
      </trkpt>
      <trkpt lat="48.64448" lon="2.52471">
        <ele>77</ele>
        <time>2026-05-31T14:12:21.779+00:00</time>
      </trkpt>
      <trkpt lat="48.64453" lon="2.52468">
        <ele>77</ele>
        <time>2026-05-31T14:12:26.451+00:00</time>
      </trkpt>
      <trkpt lat="48.64458" lon="2.52468">
        <ele>77</ele>
        <time>2026-05-31T14:12:30.613+00:00</time>
      </trkpt>
      <trkpt lat="48.64463" lon="2.52469">
        <ele>79</ele>
        <time>2026-05-31T14:12:34.745+00:00</time>
      </trkpt>
      <trkpt lat="48.64468" lon="2.52469">
        <ele>79</ele>
        <time>2026-05-31T14:12:39.746+00:00</time>
      </trkpt>
      <trkpt lat="48.64473" lon="2.52468">
        <ele>79</ele>
        <time>2026-05-31T14:12:44.411+00:00</time>
      </trkpt>
      <trkpt lat="48.64478" lon="2.52467">
        <ele>79</ele>
        <time>2026-05-31T14:12:49.063+00:00</time>
      </trkpt>
      <trkpt lat="48.64482" lon="2.52464">
        <ele>79</ele>
        <time>2026-05-31T14:12:53.564+00:00</time>
      </trkpt>
      <trkpt lat="48.64487" lon="2.52461">
        <ele>82</ele>
        <time>2026-05-31T14:12:58.111+00:00</time>
      </trkpt>
      <trkpt lat="48.64491" lon="2.52458">
        <ele>81</ele>
        <time>2026-05-31T14:13:02.611+00:00</time>
      </trkpt>
      <trkpt lat="48.64497" lon="2.52456">
        <ele>81</ele>
        <time>2026-05-31T14:13:06.745+00:00</time>
      </trkpt>
      <trkpt lat="48.64502" lon="2.52453">
        <ele>81</ele>
        <time>2026-05-31T14:13:11.090+00:00</time>
      </trkpt>
      <trkpt lat="48.64506" lon="2.52448">
        <ele>81</ele>
        <time>2026-05-31T14:13:15.310+00:00</time>
      </trkpt>
      <trkpt lat="48.6451" lon="2.52443">
        <ele>81</ele>
        <time>2026-05-31T14:13:19.746+00:00</time>
      </trkpt>
      <trkpt lat="48.64513" lon="2.52438">
        <ele>81</ele>
        <time>2026-05-31T14:13:24.746+00:00</time>
      </trkpt>
      <trkpt lat="48.64517" lon="2.52434">
        <ele>83</ele>
        <time>2026-05-31T14:13:29.310+00:00</time>
      </trkpt>
      <trkpt lat="48.6452" lon="2.52431">
        <ele>83</ele>
        <time>2026-05-31T14:13:33.746+00:00</time>
      </trkpt>
      <trkpt lat="48.64521" lon="2.52424">
        <ele>82</ele>
        <time>2026-05-31T14:13:38.010+00:00</time>
      </trkpt>
      <trkpt lat="48.6452" lon="2.52417">
        <ele>82</ele>
        <time>2026-05-31T14:13:42.131+00:00</time>
      </trkpt>
      <trkpt lat="48.64519" lon="2.52411">
        <ele>82</ele>
        <time>2026-05-31T14:13:46.547+00:00</time>
      </trkpt>
      <trkpt lat="48.64522" lon="2.52404">
        <ele>82</ele>
        <time>2026-05-31T14:13:51.028+00:00</time>
      </trkpt>
      <trkpt lat="48.64526" lon="2.524">
        <ele>81</ele>
        <time>2026-05-31T14:13:55.083+00:00</time>
      </trkpt>
      <trkpt lat="48.64529" lon="2.52394">
        <ele>81</ele>
        <time>2026-05-31T14:13:59.266+00:00</time>
      </trkpt>
      <trkpt lat="48.64529" lon="2.52387">
        <ele>81</ele>
        <time>2026-05-31T14:14:03.746+00:00</time>
      </trkpt>
      <trkpt lat="48.6453" lon="2.52379">
        <ele>81</ele>
        <time>2026-05-31T14:14:07.851+00:00</time>
      </trkpt>
      <trkpt lat="48.6453" lon="2.52372">
        <ele>80</ele>
        <time>2026-05-31T14:14:12.110+00:00</time>
      </trkpt>
      <trkpt lat="48.64532" lon="2.52364">
        <ele>80</ele>
        <time>2026-05-31T14:14:16.570+00:00</time>
      </trkpt>
      <trkpt lat="48.64533" lon="2.52356">
        <ele>80</ele>
        <time>2026-05-31T14:14:20.746+00:00</time>
      </trkpt>
      <trkpt lat="48.64534" lon="2.52349">
        <ele>80</ele>
        <time>2026-05-31T14:14:25.746+00:00</time>
      </trkpt>
      <trkpt lat="48.64533" lon="2.52339">
        <ele>79</ele>
        <time>2026-05-31T14:14:29.828+00:00</time>
      </trkpt>
      <trkpt lat="48.64532" lon="2.5233">
        <ele>79</ele>
        <time>2026-05-31T14:14:34.007+00:00</time>
      </trkpt>
      <trkpt lat="48.64532" lon="2.52321">
        <ele>79</ele>
        <time>2026-05-31T14:14:38.385+00:00</time>
      </trkpt>
      <trkpt lat="48.64532" lon="2.52313">
        <ele>79</ele>
        <time>2026-05-31T14:14:42.750+00:00</time>
      </trkpt>
      <trkpt lat="48.64531" lon="2.52305">
        <ele>79</ele>
        <time>2026-05-31T14:14:46.932+00:00</time>
      </trkpt>
      <trkpt lat="48.64531" lon="2.52297">
        <ele>79</ele>
        <time>2026-05-31T14:14:51.045+00:00</time>
      </trkpt>
      <trkpt lat="48.64533" lon="2.52289">
        <ele>78</ele>
        <time>2026-05-31T14:14:55.131+00:00</time>
      </trkpt>
      <trkpt lat="48.64533" lon="2.52281">
        <ele>78</ele>
        <time>2026-05-31T14:14:59.745+00:00</time>
      </trkpt>
      <trkpt lat="48.64533" lon="2.52273">
        <ele>78</ele>
        <time>2026-05-31T14:15:04.745+00:00</time>
      </trkpt>
      <trkpt lat="48.64531" lon="2.52265">
        <ele>78</ele>
        <time>2026-05-31T14:15:09.072+00:00</time>
      </trkpt>
      <trkpt lat="48.6453" lon="2.52258">
        <ele>78</ele>
        <time>2026-05-31T14:15:13.688+00:00</time>
      </trkpt>
      <trkpt lat="48.64532" lon="2.52249">
        <ele>78</ele>
        <time>2026-05-31T14:15:18.448+00:00</time>
      </trkpt>
      <trkpt lat="48.64533" lon="2.52242">
        <ele>78</ele>
        <time>2026-05-31T14:15:22.745+00:00</time>
      </trkpt>
      <trkpt lat="48.64533" lon="2.52234">
        <ele>78</ele>
        <time>2026-05-31T14:15:27.312+00:00</time>
      </trkpt>
      <trkpt lat="48.64534" lon="2.52227">
        <ele>78</ele>
        <time>2026-05-31T14:15:31.667+00:00</time>
      </trkpt>
      <trkpt lat="48.64537" lon="2.52222">
        <ele>78</ele>
        <time>2026-05-31T14:15:35.745+00:00</time>
      </trkpt>
      <trkpt lat="48.64541" lon="2.5222">
        <ele>78</ele>
        <time>2026-05-31T14:15:40.272+00:00</time>
      </trkpt>
      <trkpt lat="48.64543" lon="2.52215">
        <ele>81</ele>
        <time>2026-05-31T14:15:44.472+00:00</time>
      </trkpt>
      <trkpt lat="48.64544" lon="2.52208">
        <ele>80</ele>
        <time>2026-05-31T14:15:49.029+00:00</time>
      </trkpt>
      <trkpt lat="48.64544" lon="2.52202">
        <ele>80</ele>
        <time>2026-05-31T14:15:53.769+00:00</time>
      </trkpt>
      <trkpt lat="48.64543" lon="2.52196">
        <ele>80</ele>
        <time>2026-05-31T14:15:58.405+00:00</time>
      </trkpt>
      <trkpt lat="48.64537" lon="2.52194">
        <ele>78</ele>
        <time>2026-05-31T14:16:02.453+00:00</time>
      </trkpt>
      <trkpt lat="48.64534" lon="2.52189">
        <ele>78</ele>
        <time>2026-05-31T14:16:06.507+00:00</time>
      </trkpt>
      <trkpt lat="48.64534" lon="2.52181">
        <ele>78</ele>
        <time>2026-05-31T14:16:10.508+00:00</time>
      </trkpt>
      <trkpt lat="48.64535" lon="2.52173">
        <ele>77</ele>
        <time>2026-05-31T14:16:14.650+00:00</time>
      </trkpt>
      <trkpt lat="48.64534" lon="2.52165">
        <ele>77</ele>
        <time>2026-05-31T14:16:19.409+00:00</time>
      </trkpt>
      <trkpt lat="48.64533" lon="2.52159">
        <ele>77</ele>
        <time>2026-05-31T14:16:23.745+00:00</time>
      </trkpt>
      <trkpt lat="48.64537" lon="2.52154">
        <ele>77</ele>
        <time>2026-05-31T14:16:28.485+00:00</time>
      </trkpt>
      <trkpt lat="48.64537" lon="2.52147">
        <ele>77</ele>
        <time>2026-05-31T14:16:33.004+00:00</time>
      </trkpt>
      <trkpt lat="48.6453" lon="2.52151">
        <ele>77</ele>
        <time>2026-05-31T14:16:37.553+00:00</time>
      </trkpt>
      <trkpt lat="48.64526" lon="2.52151">
        <ele>77</ele>
        <time>2026-05-31T14:16:41.745+00:00</time>
      </trkpt>
      <trkpt lat="48.64523" lon="2.52145">
        <ele>77</ele>
        <time>2026-05-31T14:16:46.426+00:00</time>
      </trkpt>
      <trkpt lat="48.64522" lon="2.52138">
        <ele>77</ele>
        <time>2026-05-31T14:16:51.071+00:00</time>
      </trkpt>
      <trkpt lat="48.64523" lon="2.52129">
        <ele>77</ele>
        <time>2026-05-31T14:16:55.666+00:00</time>
      </trkpt>
      <trkpt lat="48.64523" lon="2.52122">
        <ele>77</ele>
        <time>2026-05-31T14:17:00.253+00:00</time>
      </trkpt>
      <trkpt lat="48.6452" lon="2.52117">
        <ele>77</ele>
        <time>2026-05-31T14:17:04.745+00:00</time>
      </trkpt>
      <trkpt lat="48.64521" lon="2.52109">
        <ele>77</ele>
        <time>2026-05-31T14:17:09.386+00:00</time>
      </trkpt>
      <trkpt lat="48.64521" lon="2.52102">
        <ele>77</ele>
        <time>2026-05-31T14:17:13.744+00:00</time>
      </trkpt>
      <trkpt lat="48.64521" lon="2.52095">
        <ele>79</ele>
        <time>2026-05-31T14:17:18.550+00:00</time>
      </trkpt>
      <trkpt lat="48.64522" lon="2.52089">
        <ele>79</ele>
        <time>2026-05-31T14:17:23.126+00:00</time>
      </trkpt>
      <trkpt lat="48.64524" lon="2.52083">
        <ele>79</ele>
        <time>2026-05-31T14:17:27.645+00:00</time>
      </trkpt>
      <trkpt lat="48.64524" lon="2.52075">
        <ele>79</ele>
        <time>2026-05-31T14:17:32.213+00:00</time>
      </trkpt>
      <trkpt lat="48.64524" lon="2.52067">
        <ele>79</ele>
        <time>2026-05-31T14:17:36.365+00:00</time>
      </trkpt>
      <trkpt lat="48.64521" lon="2.52062">
        <ele>79</ele>
        <time>2026-05-31T14:17:40.745+00:00</time>
      </trkpt>
      <trkpt lat="48.64516" lon="2.52057">
        <ele>79</ele>
        <time>2026-05-31T14:17:44.812+00:00</time>
      </trkpt>
      <trkpt lat="48.64514" lon="2.52049">
        <ele>76</ele>
        <time>2026-05-31T14:17:49.229+00:00</time>
      </trkpt>
      <trkpt lat="48.64513" lon="2.52042">
        <ele>76</ele>
        <time>2026-05-31T14:17:53.468+00:00</time>
      </trkpt>
      <trkpt lat="48.64513" lon="2.52035">
        <ele>77</ele>
        <time>2026-05-31T14:17:58.005+00:00</time>
      </trkpt>
      <trkpt lat="48.64513" lon="2.52027">
        <ele>77</ele>
        <time>2026-05-31T14:18:02.631+00:00</time>
      </trkpt>
      <trkpt lat="48.64512" lon="2.52021">
        <ele>77</ele>
        <time>2026-05-31T14:18:06.745+00:00</time>
      </trkpt>
      <trkpt lat="48.64513" lon="2.52013">
        <ele>76</ele>
        <time>2026-05-31T14:18:10.745+00:00</time>
      </trkpt>
      <trkpt lat="48.64514" lon="2.52005">
        <ele>76</ele>
        <time>2026-05-31T14:18:15.554+00:00</time>
      </trkpt>
      <trkpt lat="48.64513" lon="2.51999">
        <ele>76</ele>
        <time>2026-05-31T14:18:20.292+00:00</time>
      </trkpt>
      <trkpt lat="48.64512" lon="2.51991">
        <ele>76</ele>
        <time>2026-05-31T14:18:24.745+00:00</time>
      </trkpt>
      <trkpt lat="48.64513" lon="2.51982">
        <ele>78</ele>
        <time>2026-05-31T14:18:29.311+00:00</time>
      </trkpt>
      <trkpt lat="48.64515" lon="2.51974">
        <ele>78</ele>
        <time>2026-05-31T14:18:33.753+00:00</time>
      </trkpt>
      <trkpt lat="48.64516" lon="2.51966">
        <ele>78</ele>
        <time>2026-05-31T14:18:38.678+00:00</time>
      </trkpt>
      <trkpt lat="48.64514" lon="2.51959">
        <ele>78</ele>
        <time>2026-05-31T14:18:43.533+00:00</time>
      </trkpt>
      <trkpt lat="48.64515" lon="2.51952">
        <ele>78</ele>
        <time>2026-05-31T14:18:48.198+00:00</time>
      </trkpt>
      <trkpt lat="48.64517" lon="2.51944">
        <ele>78</ele>
        <time>2026-05-31T14:18:52.253+00:00</time>
      </trkpt>
      <trkpt lat="48.64519" lon="2.51938">
        <ele>78</ele>
        <time>2026-05-31T14:18:56.531+00:00</time>
      </trkpt>
      <trkpt lat="48.64516" lon="2.51927">
        <ele>79</ele>
        <time>2026-05-31T14:19:00.655+00:00</time>
      </trkpt>
      <trkpt lat="48.64519" lon="2.5192">
        <ele>79</ele>
        <time>2026-05-31T14:19:04.745+00:00</time>
      </trkpt>
      <trkpt lat="48.64518" lon="2.51913">
        <ele>79</ele>
        <time>2026-05-31T14:19:08.893+00:00</time>
      </trkpt>
      <trkpt lat="48.64519" lon="2.51907">
        <ele>79</ele>
        <time>2026-05-31T14:19:13.488+00:00</time>
      </trkpt>
      <trkpt lat="48.64519" lon="2.51899">
        <ele>78</ele>
        <time>2026-05-31T14:19:17.652+00:00</time>
      </trkpt>
      <trkpt lat="48.64518" lon="2.51892">
        <ele>78</ele>
        <time>2026-05-31T14:19:21.670+00:00</time>
      </trkpt>
      <trkpt lat="48.64513" lon="2.51888">
        <ele>78</ele>
        <time>2026-05-31T14:19:26.072+00:00</time>
      </trkpt>
      <trkpt lat="48.64512" lon="2.51881">
        <ele>78</ele>
        <time>2026-05-31T14:19:30.744+00:00</time>
      </trkpt>
      <trkpt lat="48.64515" lon="2.51872">
        <ele>78</ele>
        <time>2026-05-31T14:19:35.351+00:00</time>
      </trkpt>
      <trkpt lat="48.64518" lon="2.51865">
        <ele>78</ele>
        <time>2026-05-31T14:19:39.745+00:00</time>
      </trkpt>
      <trkpt lat="48.64518" lon="2.51859">
        <ele>78</ele>
        <time>2026-05-31T14:19:44.649+00:00</time>
      </trkpt>
      <trkpt lat="48.64517" lon="2.51852">
        <ele>78</ele>
        <time>2026-05-31T14:19:49.034+00:00</time>
      </trkpt>
      <trkpt lat="48.64517" lon="2.51844">
        <ele>77</ele>
        <time>2026-05-31T14:19:53.071+00:00</time>
      </trkpt>
      <trkpt lat="48.64518" lon="2.51837">
        <ele>77</ele>
        <time>2026-05-31T14:19:57.437+00:00</time>
      </trkpt>
      <trkpt lat="48.64519" lon="2.5183">
        <ele>77</ele>
        <time>2026-05-31T14:20:01.994+00:00</time>
      </trkpt>
      <trkpt lat="48.64517" lon="2.51824">
        <ele>77</ele>
        <time>2026-05-31T14:20:06.075+00:00</time>
      </trkpt>
      <trkpt lat="48.64517" lon="2.51818">
        <ele>78</ele>
        <time>2026-05-31T14:20:10.398+00:00</time>
      </trkpt>
      <trkpt lat="48.64519" lon="2.5181">
        <ele>78</ele>
        <time>2026-05-31T14:20:14.673+00:00</time>
      </trkpt>
      <trkpt lat="48.64521" lon="2.518">
        <ele>78</ele>
        <time>2026-05-31T14:20:18.745+00:00</time>
      </trkpt>
      <trkpt lat="48.6452" lon="2.51791">
        <ele>78</ele>
        <time>2026-05-31T14:20:23.576+00:00</time>
      </trkpt>
      <trkpt lat="48.64519" lon="2.51784">
        <ele>78</ele>
        <time>2026-05-31T14:20:28.133+00:00</time>
      </trkpt>
      <trkpt lat="48.64519" lon="2.51778">
        <ele>78</ele>
        <time>2026-05-31T14:20:32.728+00:00</time>
      </trkpt>
      <trkpt lat="48.6452" lon="2.51771">
        <ele>78</ele>
        <time>2026-05-31T14:20:37.488+00:00</time>
      </trkpt>
      <trkpt lat="48.6452" lon="2.51763">
        <ele>78</ele>
        <time>2026-05-31T14:20:41.651+00:00</time>
      </trkpt>
      <trkpt lat="48.6452" lon="2.51758">
        <ele>78</ele>
        <time>2026-05-31T14:20:45.718+00:00</time>
      </trkpt>
      <trkpt lat="48.64523" lon="2.51752">
        <ele>78</ele>
        <time>2026-05-31T14:20:50.478+00:00</time>
      </trkpt>
      <trkpt lat="48.64526" lon="2.51746">
        <ele>78</ele>
        <time>2026-05-31T14:20:54.495+00:00</time>
      </trkpt>
      <trkpt lat="48.64528" lon="2.51739">
        <ele>78</ele>
        <time>2026-05-31T14:21:08.237+00:00</time>
      </trkpt>
      <trkpt lat="48.64528" lon="2.51733">
        <ele>78</ele>
        <time>2026-05-31T14:21:12.290+00:00</time>
      </trkpt>
      <trkpt lat="48.64528" lon="2.51725">
        <ele>78</ele>
        <time>2026-05-31T14:21:16.693+00:00</time>
      </trkpt>
      <trkpt lat="48.64529" lon="2.51717">
        <ele>78</ele>
        <time>2026-05-31T14:21:20.744+00:00</time>
      </trkpt>
      <trkpt lat="48.6453" lon="2.51709">
        <ele>78</ele>
        <time>2026-05-31T14:21:25.269+00:00</time>
      </trkpt>
      <trkpt lat="48.64529" lon="2.51701">
        <ele>78</ele>
        <time>2026-05-31T14:21:29.335+00:00</time>
      </trkpt>
      <trkpt lat="48.64528" lon="2.51694">
        <ele>78</ele>
        <time>2026-05-31T14:21:33.744+00:00</time>
      </trkpt>
      <trkpt lat="48.64527" lon="2.51686">
        <ele>78</ele>
        <time>2026-05-31T14:21:38.743+00:00</time>
      </trkpt>
      <trkpt lat="48.64528" lon="2.5168">
        <ele>77</ele>
        <time>2026-05-31T14:21:43.528+00:00</time>
      </trkpt>
      <trkpt lat="48.64529" lon="2.51671">
        <ele>77</ele>
        <time>2026-05-31T14:21:47.594+00:00</time>
      </trkpt>
      <trkpt lat="48.64529" lon="2.51662">
        <ele>77</ele>
        <time>2026-05-31T14:21:51.743+00:00</time>
      </trkpt>
      <trkpt lat="48.64527" lon="2.51653">
        <ele>75</ele>
        <time>2026-05-31T14:21:56.015+00:00</time>
      </trkpt>
      <trkpt lat="48.64527" lon="2.51645">
        <ele>75</ele>
        <time>2026-05-31T14:22:00.744+00:00</time>
      </trkpt>
      <trkpt lat="48.64527" lon="2.51637">
        <ele>75</ele>
        <time>2026-05-31T14:22:05.273+00:00</time>
      </trkpt>
      <trkpt lat="48.64528" lon="2.51629">
        <ele>75</ele>
        <time>2026-05-31T14:22:09.744+00:00</time>
      </trkpt>
      <trkpt lat="48.64529" lon="2.51623">
        <ele>73</ele>
        <time>2026-05-31T14:22:14.216+00:00</time>
      </trkpt>
      <trkpt lat="48.6453" lon="2.51616">
        <ele>73</ele>
        <time>2026-05-31T14:22:18.532+00:00</time>
      </trkpt>
      <trkpt lat="48.64531" lon="2.51609">
        <ele>73</ele>
        <time>2026-05-31T14:22:22.744+00:00</time>
      </trkpt>
      <trkpt lat="48.64533" lon="2.516">
        <ele>73</ele>
        <time>2026-05-31T14:22:27.348+00:00</time>
      </trkpt>
      <trkpt lat="48.64536" lon="2.51592">
        <ele>71</ele>
        <time>2026-05-31T14:22:31.744+00:00</time>
      </trkpt>
      <trkpt lat="48.64542" lon="2.51588">
        <ele>74</ele>
        <time>2026-05-31T14:22:36.173+00:00</time>
      </trkpt>
      <trkpt lat="48.64547" lon="2.51585">
        <ele>74</ele>
        <time>2026-05-31T14:22:40.269+00:00</time>
      </trkpt>
      <trkpt lat="48.64551" lon="2.51581">
        <ele>74</ele>
        <time>2026-05-31T14:22:44.744+00:00</time>
      </trkpt>
      <trkpt lat="48.64554" lon="2.51576">
        <ele>74</ele>
        <time>2026-05-31T14:22:49.578+00:00</time>
      </trkpt>
      <trkpt lat="48.64555" lon="2.51568">
        <ele>72</ele>
        <time>2026-05-31T14:22:53.744+00:00</time>
      </trkpt>
      <trkpt lat="48.64558" lon="2.51562">
        <ele>72</ele>
        <time>2026-05-31T14:22:58.170+00:00</time>
      </trkpt>
      <trkpt lat="48.64563" lon="2.51562">
        <ele>72</ele>
        <time>2026-05-31T14:23:03.438+00:00</time>
      </trkpt>
      <trkpt lat="48.64568" lon="2.51561">
        <ele>72</ele>
        <time>2026-05-31T14:23:07.633+00:00</time>
      </trkpt>
      <trkpt lat="48.64574" lon="2.51558">
        <ele>75</ele>
        <time>2026-05-31T14:23:11.744+00:00</time>
      </trkpt>
      <trkpt lat="48.64579" lon="2.51552">
        <ele>75</ele>
        <time>2026-05-31T14:23:16.497+00:00</time>
      </trkpt>
      <trkpt lat="48.64584" lon="2.51547">
        <ele>75</ele>
        <time>2026-05-31T14:23:21.169+00:00</time>
      </trkpt>
      <trkpt lat="48.64589" lon="2.51542">
        <ele>75</ele>
        <time>2026-05-31T14:23:25.744+00:00</time>
      </trkpt>
      <trkpt lat="48.64595" lon="2.51539">
        <ele>72</ele>
        <time>2026-05-31T14:23:30.744+00:00</time>
      </trkpt>
      <trkpt lat="48.64601" lon="2.51538">
        <ele>73</ele>
        <time>2026-05-31T14:23:35.074+00:00</time>
      </trkpt>
      <trkpt lat="48.64606" lon="2.51539">
        <ele>73</ele>
        <time>2026-05-31T14:23:39.709+00:00</time>
      </trkpt>
      <trkpt lat="48.64611" lon="2.51543">
        <ele>77</ele>
        <time>2026-05-31T14:23:43.744+00:00</time>
      </trkpt>
      <trkpt lat="48.64615" lon="2.51549">
        <ele>77</ele>
        <time>2026-05-31T14:23:48.669+00:00</time>
      </trkpt>
      <trkpt lat="48.64619" lon="2.5155">
        <ele>77</ele>
        <time>2026-05-31T14:23:53.236+00:00</time>
      </trkpt>
      <trkpt lat="48.64624" lon="2.51549">
        <ele>77</ele>
        <time>2026-05-31T14:23:57.744+00:00</time>
      </trkpt>
      <trkpt lat="48.6463" lon="2.5155">
        <ele>78</ele>
        <time>2026-05-31T14:24:02.148+00:00</time>
      </trkpt>
      <trkpt lat="48.64634" lon="2.51547">
        <ele>78</ele>
        <time>2026-05-31T14:24:06.744+00:00</time>
      </trkpt>
      <trkpt lat="48.64639" lon="2.51543">
        <ele>78</ele>
        <time>2026-05-31T14:24:11.388+00:00</time>
      </trkpt>
      <trkpt lat="48.64644" lon="2.51537">
        <ele>74</ele>
        <time>2026-05-31T14:24:15.744+00:00</time>
      </trkpt>
      <trkpt lat="48.64647" lon="2.51531">
        <ele>74</ele>
        <time>2026-05-31T14:24:19.849+00:00</time>
      </trkpt>
      <trkpt lat="48.64652" lon="2.51526">
        <ele>74</ele>
        <time>2026-05-31T14:24:23.971+00:00</time>
      </trkpt>
      <trkpt lat="48.64657" lon="2.51523">
        <ele>75</ele>
        <time>2026-05-31T14:24:28.618+00:00</time>
      </trkpt>
      <trkpt lat="48.64662" lon="2.51517">
        <ele>75</ele>
        <time>2026-05-31T14:24:33.009+00:00</time>
      </trkpt>
      <trkpt lat="48.64667" lon="2.51512">
        <ele>70</ele>
        <time>2026-05-31T14:24:37.452+00:00</time>
      </trkpt>
      <trkpt lat="48.64672" lon="2.51508">
        <ele>70</ele>
        <time>2026-05-31T14:24:41.518+00:00</time>
      </trkpt>
      <trkpt lat="48.64677" lon="2.51503">
        <ele>70</ele>
        <time>2026-05-31T14:24:45.738+00:00</time>
      </trkpt>
      <trkpt lat="48.64682" lon="2.51497">
        <ele>72</ele>
        <time>2026-05-31T14:24:50.410+00:00</time>
      </trkpt>
      <trkpt lat="48.64689" lon="2.5149">
        <ele>72</ele>
        <time>2026-05-31T14:24:54.743+00:00</time>
      </trkpt>
      <trkpt lat="48.64694" lon="2.51487">
        <ele>72</ele>
        <time>2026-05-31T14:24:59.331+00:00</time>
      </trkpt>
      <trkpt lat="48.64698" lon="2.51483">
        <ele>69</ele>
        <time>2026-05-31T14:25:03.744+00:00</time>
      </trkpt>
      <trkpt lat="48.647" lon="2.51483">
        <ele>69</ele>
        <time>2026-05-31T14:25:08.292+00:00</time>
      </trkpt>
      <trkpt lat="48.64705" lon="2.51481">
        <ele>69</ele>
        <time>2026-05-31T14:25:12.744+00:00</time>
      </trkpt>
      <trkpt lat="48.64711" lon="2.51477">
        <ele>72</ele>
        <time>2026-05-31T14:25:17.252+00:00</time>
      </trkpt>
      <trkpt lat="48.64715" lon="2.51474">
        <ele>72</ele>
        <time>2026-05-31T14:25:21.638+00:00</time>
      </trkpt>
      <trkpt lat="48.6472" lon="2.51469">
        <ele>72</ele>
        <time>2026-05-31T14:25:25.743+00:00</time>
      </trkpt>
      <trkpt lat="48.64725" lon="2.51469">
        <ele>72</ele>
        <time>2026-05-31T14:25:30.471+00:00</time>
      </trkpt>
      <trkpt lat="48.64729" lon="2.51468">
        <ele>72</ele>
        <time>2026-05-31T14:25:35.010+00:00</time>
      </trkpt>
      <trkpt lat="48.64734" lon="2.51464">
        <ele>72</ele>
        <time>2026-05-31T14:25:39.394+00:00</time>
      </trkpt>
      <trkpt lat="48.64735" lon="2.51458">
        <ele>69</ele>
        <time>2026-05-31T14:25:43.970+00:00</time>
      </trkpt>
      <trkpt lat="48.64733" lon="2.51457">
        <ele>69</ele>
        <time>2026-05-31T14:25:48.744+00:00</time>
      </trkpt>
      <trkpt lat="48.64737" lon="2.51451">
        <ele>72</ele>
        <time>2026-05-31T14:25:53.009+00:00</time>
      </trkpt>
      <trkpt lat="48.64743" lon="2.5145">
        <ele>72</ele>
        <time>2026-05-31T14:25:57.100+00:00</time>
      </trkpt>
      <trkpt lat="48.6475" lon="2.5145">
        <ele>72</ele>
        <time>2026-05-31T14:26:01.708+00:00</time>
      </trkpt>
      <trkpt lat="48.64754" lon="2.51444">
        <ele>72</ele>
        <time>2026-05-31T14:26:05.743+00:00</time>
      </trkpt>
      <trkpt lat="48.64754" lon="2.51436">
        <ele>72</ele>
        <time>2026-05-31T14:26:10.294+00:00</time>
      </trkpt>
      <trkpt lat="48.64757" lon="2.51428">
        <ele>70</ele>
        <time>2026-05-31T14:26:14.744+00:00</time>
      </trkpt>
      <trkpt lat="48.64761" lon="2.51423">
        <ele>70</ele>
        <time>2026-05-31T14:26:19.350+00:00</time>
      </trkpt>
      <trkpt lat="48.64766" lon="2.51418">
        <ele>74</ele>
        <time>2026-05-31T14:26:23.743+00:00</time>
      </trkpt>
      <trkpt lat="48.64769" lon="2.51412">
        <ele>74</ele>
        <time>2026-05-31T14:26:28.196+00:00</time>
      </trkpt>
      <trkpt lat="48.64773" lon="2.51406">
        <ele>74</ele>
        <time>2026-05-31T14:26:32.569+00:00</time>
      </trkpt>
      <trkpt lat="48.64774" lon="2.51397">
        <ele>72</ele>
        <time>2026-05-31T14:26:36.743+00:00</time>
      </trkpt>
      <trkpt lat="48.64777" lon="2.5139">
        <ele>72</ele>
        <time>2026-05-31T14:26:40.744+00:00</time>
      </trkpt>
      <trkpt lat="48.6478" lon="2.51384">
        <ele>72</ele>
        <time>2026-05-31T14:26:45.428+00:00</time>
      </trkpt>
      <trkpt lat="48.64782" lon="2.51378">
        <ele>72</ele>
        <time>2026-05-31T14:26:49.743+00:00</time>
      </trkpt>
      <trkpt lat="48.64783" lon="2.51369">
        <ele>71</ele>
        <time>2026-05-31T14:26:54.538+00:00</time>
      </trkpt>
      <trkpt lat="48.64782" lon="2.51362">
        <ele>71</ele>
        <time>2026-05-31T14:26:59.054+00:00</time>
      </trkpt>
      <trkpt lat="48.64782" lon="2.51354">
        <ele>71</ele>
        <time>2026-05-31T14:27:03.188+00:00</time>
      </trkpt>
      <trkpt lat="48.64783" lon="2.51346">
        <ele>71</ele>
        <time>2026-05-31T14:27:07.234+00:00</time>
      </trkpt>
      <trkpt lat="48.64784" lon="2.51338">
        <ele>71</ele>
        <time>2026-05-31T14:27:11.744+00:00</time>
      </trkpt>
      <trkpt lat="48.64784" lon="2.51329">
        <ele>71</ele>
        <time>2026-05-31T14:27:16.418+00:00</time>
      </trkpt>
      <trkpt lat="48.64782" lon="2.51322">
        <ele>71</ele>
        <time>2026-05-31T14:27:20.744+00:00</time>
      </trkpt>
      <trkpt lat="48.64781" lon="2.51316">
        <ele>70</ele>
        <time>2026-05-31T14:27:25.309+00:00</time>
      </trkpt>
      <trkpt lat="48.64779" lon="2.51308">
        <ele>70</ele>
        <time>2026-05-31T14:27:29.744+00:00</time>
      </trkpt>
      <trkpt lat="48.64779" lon="2.513">
        <ele>70</ele>
        <time>2026-05-31T14:27:34.308+00:00</time>
      </trkpt>
      <trkpt lat="48.64778" lon="2.51291">
        <ele>69</ele>
        <time>2026-05-31T14:27:38.744+00:00</time>
      </trkpt>
      <trkpt lat="48.64778" lon="2.51282">
        <ele>69</ele>
        <time>2026-05-31T14:27:43.744+00:00</time>
      </trkpt>
      <trkpt lat="48.64779" lon="2.51275">
        <ele>69</ele>
        <time>2026-05-31T14:27:48.154+00:00</time>
      </trkpt>
      <trkpt lat="48.6478" lon="2.51268">
        <ele>69</ele>
        <time>2026-05-31T14:27:52.654+00:00</time>
      </trkpt>
      <trkpt lat="48.64781" lon="2.51262">
        <ele>68</ele>
        <time>2026-05-31T14:27:57.111+00:00</time>
      </trkpt>
      <trkpt lat="48.64781" lon="2.51254">
        <ele>68</ele>
        <time>2026-05-31T14:28:01.777+00:00</time>
      </trkpt>
      <trkpt lat="48.64782" lon="2.51246">
        <ele>68</ele>
        <time>2026-05-31T14:28:06.337+00:00</time>
      </trkpt>
      <trkpt lat="48.64783" lon="2.51238">
        <ele>68</ele>
        <time>2026-05-31T14:28:10.743+00:00</time>
      </trkpt>
      <trkpt lat="48.64782" lon="2.51229">
        <ele>68</ele>
        <time>2026-05-31T14:28:15.538+00:00</time>
      </trkpt>
      <trkpt lat="48.64783" lon="2.5122">
        <ele>68</ele>
        <time>2026-05-31T14:28:19.743+00:00</time>
      </trkpt>
      <trkpt lat="48.64785" lon="2.51212">
        <ele>68</ele>
        <time>2026-05-31T14:28:24.188+00:00</time>
      </trkpt>
      <trkpt lat="48.64789" lon="2.51208">
        <ele>68</ele>
        <time>2026-05-31T14:28:28.292+00:00</time>
      </trkpt>
      <trkpt lat="48.64794" lon="2.51206">
        <ele>70</ele>
        <time>2026-05-31T14:28:32.743+00:00</time>
      </trkpt>
      <trkpt lat="48.64797" lon="2.51202">
        <ele>70</ele>
        <time>2026-05-31T14:28:37+00:00</time>
      </trkpt>
      <trkpt lat="48.64801" lon="2.51198">
        <ele>70</ele>
        <time>2026-05-31T14:28:41.435+00:00</time>
      </trkpt>
      <trkpt lat="48.64805" lon="2.51193">
        <ele>70</ele>
        <time>2026-05-31T14:28:45.743+00:00</time>
      </trkpt>
      <trkpt lat="48.64807" lon="2.51188">
        <ele>70</ele>
        <time>2026-05-31T14:28:49.883+00:00</time>
      </trkpt>
      <trkpt lat="48.64808" lon="2.5118">
        <ele>69</ele>
        <time>2026-05-31T14:28:54.453+00:00</time>
      </trkpt>
      <trkpt lat="48.64807" lon="2.51173">
        <ele>69</ele>
        <time>2026-05-31T14:28:58.743+00:00</time>
      </trkpt>
      <trkpt lat="48.64804" lon="2.51169">
        <ele>69</ele>
        <time>2026-05-31T14:29:03.509+00:00</time>
      </trkpt>
      <trkpt lat="48.64803" lon="2.51163">
        <ele>69</ele>
        <time>2026-05-31T14:29:08.057+00:00</time>
      </trkpt>
      <trkpt lat="48.64807" lon="2.51155">
        <ele>69</ele>
        <time>2026-05-31T14:29:12.743+00:00</time>
      </trkpt>
      <trkpt lat="48.64807" lon="2.51154">
        <ele>69</ele>
        <time>2026-05-31T14:29:17.450+00:00</time>
      </trkpt>
      <trkpt lat="48.64805" lon="2.51148">
        <ele>68</ele>
        <time>2026-05-31T14:29:22.113+00:00</time>
      </trkpt>
      <trkpt lat="48.64801" lon="2.51143">
        <ele>68</ele>
        <time>2026-05-31T14:29:26.151+00:00</time>
      </trkpt>
      <trkpt lat="48.64801" lon="2.51145">
        <ele>68</ele>
        <time>2026-05-31T14:29:30.332+00:00</time>
      </trkpt>
      <trkpt lat="48.64796" lon="2.51135">
        <ele>68</ele>
        <time>2026-05-31T14:29:34.743+00:00</time>
      </trkpt>
      <trkpt lat="48.64794" lon="2.51125">
        <ele>66</ele>
        <time>2026-05-31T14:29:39.514+00:00</time>
      </trkpt>
      <trkpt lat="48.64794" lon="2.51118">
        <ele>66</ele>
        <time>2026-05-31T14:29:44.217+00:00</time>
      </trkpt>
      <trkpt lat="48.64793" lon="2.5111">
        <ele>66</ele>
        <time>2026-05-31T14:29:48.743+00:00</time>
      </trkpt>
      <trkpt lat="48.64789" lon="2.51103">
        <ele>68</ele>
        <time>2026-05-31T14:29:53.369+00:00</time>
      </trkpt>
      <trkpt lat="48.64787" lon="2.51096">
        <ele>68</ele>
        <time>2026-05-31T14:29:57.415+00:00</time>
      </trkpt>
      <trkpt lat="48.64784" lon="2.51088">
        <ele>68</ele>
        <time>2026-05-31T14:30:01.471+00:00</time>
      </trkpt>
      <trkpt lat="48.64782" lon="2.5108">
        <ele>68</ele>
        <time>2026-05-31T14:30:06.048+00:00</time>
      </trkpt>
      <trkpt lat="48.64779" lon="2.51072">
        <ele>68</ele>
        <time>2026-05-31T14:30:10.710+00:00</time>
      </trkpt>
      <trkpt lat="48.64777" lon="2.51064">
        <ele>66</ele>
        <time>2026-05-31T14:30:14.743+00:00</time>
      </trkpt>
      <trkpt lat="48.64773" lon="2.51058">
        <ele>66</ele>
        <time>2026-05-31T14:30:19.210+00:00</time>
      </trkpt>
      <trkpt lat="48.6477" lon="2.51051">
        <ele>66</ele>
        <time>2026-05-31T14:30:23.468+00:00</time>
      </trkpt>
      <trkpt lat="48.64767" lon="2.51044">
        <ele>66</ele>
        <time>2026-05-31T14:30:27.495+00:00</time>
      </trkpt>
      <trkpt lat="48.64764" lon="2.51038">
        <ele>64</ele>
        <time>2026-05-31T14:30:31.629+00:00</time>
      </trkpt>
      <trkpt lat="48.64762" lon="2.5103">
        <ele>67</ele>
        <time>2026-05-31T14:30:35.743+00:00</time>
      </trkpt>
      <trkpt lat="48.64759" lon="2.51022">
        <ele>67</ele>
        <time>2026-05-31T14:30:40.138+00:00</time>
      </trkpt>
      <trkpt lat="48.64756" lon="2.51016">
        <ele>67</ele>
        <time>2026-05-31T14:30:44.308+00:00</time>
      </trkpt>
      <trkpt lat="48.64753" lon="2.51009">
        <ele>64</ele>
        <time>2026-05-31T14:30:48.743+00:00</time>
      </trkpt>
      <trkpt lat="48.64749" lon="2.51002">
        <ele>64</ele>
        <time>2026-05-31T14:30:53.743+00:00</time>
      </trkpt>
      <trkpt lat="48.64746" lon="2.50996">
        <ele>64</ele>
        <time>2026-05-31T14:31:24.368+00:00</time>
      </trkpt>
      <trkpt lat="48.64743" lon="2.50989">
        <ele>64</ele>
        <time>2026-05-31T14:31:28.658+00:00</time>
      </trkpt>
      <trkpt lat="48.64739" lon="2.50981">
        <ele>64</ele>
        <time>2026-05-31T14:31:32.743+00:00</time>
      </trkpt>
      <trkpt lat="48.64735" lon="2.50975">
        <ele>68</ele>
        <time>2026-05-31T14:31:37.742+00:00</time>
      </trkpt>
      <trkpt lat="48.64732" lon="2.50969">
        <ele>68</ele>
        <time>2026-05-31T14:31:42.742+00:00</time>
      </trkpt>
      <trkpt lat="48.6473" lon="2.50961">
        <ele>68</ele>
        <time>2026-05-31T14:31:47.658+00:00</time>
      </trkpt>
      <trkpt lat="48.64729" lon="2.50951">
        <ele>67</ele>
        <time>2026-05-31T14:31:51.743+00:00</time>
      </trkpt>
      <trkpt lat="48.6473" lon="2.50943">
        <ele>67</ele>
        <time>2026-05-31T14:31:56.743+00:00</time>
      </trkpt>
      <trkpt lat="48.6473" lon="2.50934">
        <ele>67</ele>
        <time>2026-05-31T14:32:00.808+00:00</time>
      </trkpt>
      <trkpt lat="48.64728" lon="2.50927">
        <ele>66</ele>
        <time>2026-05-31T14:32:05.337+00:00</time>
      </trkpt>
      <trkpt lat="48.64726" lon="2.50923">
        <ele>66</ele>
        <time>2026-05-31T14:32:09.490+00:00</time>
      </trkpt>
      <trkpt lat="48.64729" lon="2.50916">
        <ele>66</ele>
        <time>2026-05-31T14:32:13.970+00:00</time>
      </trkpt>
      <trkpt lat="48.64731" lon="2.50905">
        <ele>66</ele>
        <time>2026-05-31T14:32:18.392+00:00</time>
      </trkpt>
      <trkpt lat="48.6473" lon="2.50898">
        <ele>67</ele>
        <time>2026-05-31T14:32:23.017+00:00</time>
      </trkpt>
      <trkpt lat="48.6473" lon="2.50888">
        <ele>67</ele>
        <time>2026-05-31T14:32:27.274+00:00</time>
      </trkpt>
      <trkpt lat="48.64731" lon="2.50881">
        <ele>67</ele>
        <time>2026-05-31T14:32:31.743+00:00</time>
      </trkpt>
      <trkpt lat="48.64736" lon="2.50882">
        <ele>67</ele>
        <time>2026-05-31T14:32:36.217+00:00</time>
      </trkpt>
      <trkpt lat="48.64741" lon="2.50882">
        <ele>67</ele>
        <time>2026-05-31T14:32:40.590+00:00</time>
      </trkpt>
      <trkpt lat="48.64748" lon="2.50879">
        <ele>67</ele>
        <time>2026-05-31T14:32:45.090+00:00</time>
      </trkpt>
      <trkpt lat="48.64751" lon="2.5087">
        <ele>67</ele>
        <time>2026-05-31T14:32:49.474+00:00</time>
      </trkpt>
      <trkpt lat="48.64752" lon="2.50862">
        <ele>67</ele>
        <time>2026-05-31T14:32:53.743+00:00</time>
      </trkpt>
      <trkpt lat="48.64752" lon="2.50853">
        <ele>67</ele>
        <time>2026-05-31T14:32:58.193+00:00</time>
      </trkpt>
      <trkpt lat="48.64753" lon="2.50845">
        <ele>66</ele>
        <time>2026-05-31T14:33:02.578+00:00</time>
      </trkpt>
      <trkpt lat="48.64754" lon="2.50837">
        <ele>66</ele>
        <time>2026-05-31T14:33:06.970+00:00</time>
      </trkpt>
      <trkpt lat="48.64754" lon="2.50829">
        <ele>66</ele>
        <time>2026-05-31T14:33:11.249+00:00</time>
      </trkpt>
      <trkpt lat="48.64753" lon="2.50821">
        <ele>66</ele>
        <time>2026-05-31T14:33:15.614+00:00</time>
      </trkpt>
      <trkpt lat="48.64751" lon="2.50813">
        <ele>65</ele>
        <time>2026-05-31T14:33:19.742+00:00</time>
      </trkpt>
      <trkpt lat="48.64749" lon="2.50804">
        <ele>65</ele>
        <time>2026-05-31T14:33:23.743+00:00</time>
      </trkpt>
      <trkpt lat="48.64749" lon="2.50796">
        <ele>65</ele>
        <time>2026-05-31T14:33:27.789+00:00</time>
      </trkpt>
      <trkpt lat="48.64751" lon="2.50787">
        <ele>64</ele>
        <time>2026-05-31T14:33:32.743+00:00</time>
      </trkpt>
      <trkpt lat="48.64752" lon="2.50779">
        <ele>64</ele>
        <time>2026-05-31T14:33:37.158+00:00</time>
      </trkpt>
      <trkpt lat="48.64753" lon="2.5077">
        <ele>64</ele>
        <time>2026-05-31T14:33:41.190+00:00</time>
      </trkpt>
      <trkpt lat="48.64753" lon="2.50761">
        <ele>64</ele>
        <time>2026-05-31T14:33:45.336+00:00</time>
      </trkpt>
      <trkpt lat="48.64753" lon="2.50751">
        <ele>64</ele>
        <time>2026-05-31T14:33:50.395+00:00</time>
      </trkpt>
      <trkpt lat="48.64751" lon="2.50743">
        <ele>64</ele>
        <time>2026-05-31T14:33:54.743+00:00</time>
      </trkpt>
      <trkpt lat="48.64749" lon="2.50733">
        <ele>64</ele>
        <time>2026-05-31T14:33:58.994+00:00</time>
      </trkpt>
      <trkpt lat="48.64748" lon="2.50725">
        <ele>64</ele>
        <time>2026-05-31T14:34:03.450+00:00</time>
      </trkpt>
      <trkpt lat="48.64746" lon="2.50717">
        <ele>64</ele>
        <time>2026-05-31T14:34:07.743+00:00</time>
      </trkpt>
      <trkpt lat="48.64745" lon="2.50709">
        <ele>64</ele>
        <time>2026-05-31T14:34:12.743+00:00</time>
      </trkpt>
      <trkpt lat="48.64742" lon="2.50701">
        <ele>64</ele>
        <time>2026-05-31T14:34:18.742+00:00</time>
      </trkpt>
      <trkpt lat="48.6474" lon="2.50693">
        <ele>64</ele>
        <time>2026-05-31T14:34:22.743+00:00</time>
      </trkpt>
      <trkpt lat="48.64737" lon="2.50686">
        <ele>64</ele>
        <time>2026-05-31T14:34:27.534+00:00</time>
      </trkpt>
      <trkpt lat="48.64735" lon="2.50676">
        <ele>63</ele>
        <time>2026-05-31T14:34:31.610+00:00</time>
      </trkpt>
      <trkpt lat="48.64735" lon="2.50668">
        <ele>63</ele>
        <time>2026-05-31T14:34:36.130+00:00</time>
      </trkpt>
      <trkpt lat="48.64735" lon="2.5066">
        <ele>63</ele>
        <time>2026-05-31T14:34:40.351+00:00</time>
      </trkpt>
      <trkpt lat="48.64734" lon="2.50651">
        <ele>63</ele>
        <time>2026-05-31T14:34:44.579+00:00</time>
      </trkpt>
      <trkpt lat="48.64734" lon="2.50642">
        <ele>63</ele>
        <time>2026-05-31T14:34:48.952+00:00</time>
      </trkpt>
      <trkpt lat="48.64734" lon="2.50634">
        <ele>63</ele>
        <time>2026-05-31T14:34:53.297+00:00</time>
      </trkpt>
      <trkpt lat="48.64732" lon="2.50625">
        <ele>63</ele>
        <time>2026-05-31T14:34:57.653+00:00</time>
      </trkpt>
      <trkpt lat="48.64732" lon="2.50617">
        <ele>63</ele>
        <time>2026-05-31T14:35:02.018+00:00</time>
      </trkpt>
      <trkpt lat="48.64731" lon="2.50608">
        <ele>63</ele>
        <time>2026-05-31T14:35:06.354+00:00</time>
      </trkpt>
      <trkpt lat="48.64729" lon="2.506">
        <ele>63</ele>
        <time>2026-05-31T14:35:10.742+00:00</time>
      </trkpt>
      <trkpt lat="48.64725" lon="2.50595">
        <ele>64</ele>
        <time>2026-05-31T14:35:15.741+00:00</time>
      </trkpt>
      <trkpt lat="48.6472" lon="2.5059">
        <ele>64</ele>
        <time>2026-05-31T14:35:20.741+00:00</time>
      </trkpt>
      <trkpt lat="48.64715" lon="2.50585">
        <ele>64</ele>
        <time>2026-05-31T14:35:25.751+00:00</time>
      </trkpt>
      <trkpt lat="48.6471" lon="2.5058">
        <ele>64</ele>
        <time>2026-05-31T14:35:29.884+00:00</time>
      </trkpt>
      <trkpt lat="48.64705" lon="2.50577">
        <ele>66</ele>
        <time>2026-05-31T14:35:34.684+00:00</time>
      </trkpt>
      <trkpt lat="48.64699" lon="2.50573">
        <ele>66</ele>
        <time>2026-05-31T14:35:39.328+00:00</time>
      </trkpt>
      <trkpt lat="48.64693" lon="2.50571">
        <ele>66</ele>
        <time>2026-05-31T14:35:43.645+00:00</time>
      </trkpt>
      <trkpt lat="48.64688" lon="2.50568">
        <ele>67</ele>
        <time>2026-05-31T14:35:47.742+00:00</time>
      </trkpt>
      <trkpt lat="48.64681" lon="2.50565">
        <ele>67</ele>
        <time>2026-05-31T14:35:52.048+00:00</time>
      </trkpt>
      <trkpt lat="48.64676" lon="2.50563">
        <ele>66</ele>
        <time>2026-05-31T14:35:56.249+00:00</time>
      </trkpt>
      <trkpt lat="48.6467" lon="2.5056">
        <ele>66</ele>
        <time>2026-05-31T14:36:00.324+00:00</time>
      </trkpt>
      <trkpt lat="48.64664" lon="2.50558">
        <ele>66</ele>
        <time>2026-05-31T14:36:04.566+00:00</time>
      </trkpt>
      <trkpt lat="48.64659" lon="2.50555">
        <ele>66</ele>
        <time>2026-05-31T14:36:08.742+00:00</time>
      </trkpt>
      <trkpt lat="48.64653" lon="2.50552">
        <ele>66</ele>
        <time>2026-05-31T14:36:13.082+00:00</time>
      </trkpt>
      <trkpt lat="48.64649" lon="2.50548">
        <ele>66</ele>
        <time>2026-05-31T14:36:17.427+00:00</time>
      </trkpt>
      <trkpt lat="48.64645" lon="2.50541">
        <ele>68</ele>
        <time>2026-05-31T14:36:21.580+00:00</time>
      </trkpt>
      <trkpt lat="48.64643" lon="2.50533">
        <ele>68</ele>
        <time>2026-05-31T14:36:25.742+00:00</time>
      </trkpt>
      <trkpt lat="48.6464" lon="2.50525">
        <ele>68</ele>
        <time>2026-05-31T14:36:30.445+00:00</time>
      </trkpt>
      <trkpt lat="48.64636" lon="2.50519">
        <ele>68</ele>
        <time>2026-05-31T14:36:34.481+00:00</time>
      </trkpt>
      <trkpt lat="48.64631" lon="2.50513">
        <ele>69</ele>
        <time>2026-05-31T14:36:38.742+00:00</time>
      </trkpt>
      <trkpt lat="48.64626" lon="2.50513">
        <ele>69</ele>
        <time>2026-05-31T14:36:43.106+00:00</time>
      </trkpt>
      <trkpt lat="48.6462" lon="2.50517">
        <ele>68</ele>
        <time>2026-05-31T14:36:47.479+00:00</time>
      </trkpt>
      <trkpt lat="48.64615" lon="2.50522">
        <ele>68</ele>
        <time>2026-05-31T14:36:51.729+00:00</time>
      </trkpt>
      <trkpt lat="48.6461" lon="2.50529">
        <ele>68</ele>
        <time>2026-05-31T14:36:56.123+00:00</time>
      </trkpt>
      <trkpt lat="48.64606" lon="2.50535">
        <ele>68</ele>
        <time>2026-05-31T14:37:00.487+00:00</time>
      </trkpt>
      <trkpt lat="48.64602" lon="2.50541">
        <ele>68</ele>
        <time>2026-05-31T14:37:04.741+00:00</time>
      </trkpt>
      <trkpt lat="48.64597" lon="2.50548">
        <ele>67</ele>
        <time>2026-05-31T14:37:09.283+00:00</time>
      </trkpt>
      <trkpt lat="48.64598" lon="2.50557">
        <ele>67</ele>
        <time>2026-05-31T14:37:13.619+00:00</time>
      </trkpt>
      <trkpt lat="48.64595" lon="2.50565">
        <ele>66</ele>
        <time>2026-05-31T14:37:17.742+00:00</time>
      </trkpt>
      <trkpt lat="48.64591" lon="2.50571">
        <ele>65</ele>
        <time>2026-05-31T14:37:22.059+00:00</time>
      </trkpt>
      <trkpt lat="48.64588" lon="2.50576">
        <ele>65</ele>
        <time>2026-05-31T14:37:26.299+00:00</time>
      </trkpt>
      <trkpt lat="48.64584" lon="2.50579">
        <ele>65</ele>
        <time>2026-05-31T14:37:30.568+00:00</time>
      </trkpt>
      <trkpt lat="48.64581" lon="2.50585">
        <ele>65</ele>
        <time>2026-05-31T14:37:34.742+00:00</time>
      </trkpt>
      <trkpt lat="48.64579" lon="2.50593">
        <ele>65</ele>
        <time>2026-05-31T14:37:39.066+00:00</time>
      </trkpt>
      <trkpt lat="48.64575" lon="2.50598">
        <ele>64</ele>
        <time>2026-05-31T14:37:43.287+00:00</time>
      </trkpt>
      <trkpt lat="48.64572" lon="2.50604">
        <ele>64</ele>
        <time>2026-05-31T14:37:47.467+00:00</time>
      </trkpt>
      <trkpt lat="48.6457" lon="2.50608">
        <ele>64</ele>
        <time>2026-05-31T14:37:51.741+00:00</time>
      </trkpt>
      <trkpt lat="48.64564" lon="2.50611">
        <ele>64</ele>
        <time>2026-05-31T14:37:56.583+00:00</time>
      </trkpt>
      <trkpt lat="48.64558" lon="2.50615">
        <ele>64</ele>
        <time>2026-05-31T14:38:01.005+00:00</time>
      </trkpt>
      <trkpt lat="48.64554" lon="2.50618">
        <ele>64</ele>
        <time>2026-05-31T14:38:05.301+00:00</time>
      </trkpt>
      <trkpt lat="48.64548" lon="2.50619">
        <ele>64</ele>
        <time>2026-05-31T14:38:09.742+00:00</time>
      </trkpt>
      <trkpt lat="48.64543" lon="2.50617">
        <ele>64</ele>
        <time>2026-05-31T14:38:14.041+00:00</time>
      </trkpt>
      <trkpt lat="48.64537" lon="2.50615">
        <ele>63</ele>
        <time>2026-05-31T14:38:18.447+00:00</time>
      </trkpt>
      <trkpt lat="48.64532" lon="2.50612">
        <ele>63</ele>
        <time>2026-05-31T14:38:22.885+00:00</time>
      </trkpt>
      <trkpt lat="48.64526" lon="2.50611">
        <ele>63</ele>
        <time>2026-05-31T14:38:27.723+00:00</time>
      </trkpt>
      <trkpt lat="48.6452" lon="2.50609">
        <ele>63</ele>
        <time>2026-05-31T14:38:32.088+00:00</time>
      </trkpt>
      <trkpt lat="48.64515" lon="2.50608">
        <ele>63</ele>
        <time>2026-05-31T14:38:36.462+00:00</time>
      </trkpt>
      <trkpt lat="48.64508" lon="2.50605">
        <ele>63</ele>
        <time>2026-05-31T14:38:40.741+00:00</time>
      </trkpt>
      <trkpt lat="48.64502" lon="2.50602">
        <ele>63</ele>
        <time>2026-05-31T14:38:45.383+00:00</time>
      </trkpt>
      <trkpt lat="48.64497" lon="2.50599">
        <ele>63</ele>
        <time>2026-05-31T14:38:49.742+00:00</time>
      </trkpt>
      <trkpt lat="48.64492" lon="2.50597">
        <ele>63</ele>
        <time>2026-05-31T14:38:54.286+00:00</time>
      </trkpt>
      <trkpt lat="48.64486" lon="2.50595">
        <ele>64</ele>
        <time>2026-05-31T14:38:58.680+00:00</time>
      </trkpt>
      <trkpt lat="48.6448" lon="2.50592">
        <ele>64</ele>
        <time>2026-05-31T14:39:02.742+00:00</time>
      </trkpt>
      <trkpt lat="48.64473" lon="2.5059">
        <ele>64</ele>
        <time>2026-05-31T14:39:16.742+00:00</time>
      </trkpt>
      <trkpt lat="48.64468" lon="2.5059">
        <ele>64</ele>
        <time>2026-05-31T14:39:20.947+00:00</time>
      </trkpt>
      <trkpt lat="48.64463" lon="2.50589">
        <ele>64</ele>
        <time>2026-05-31T14:39:25.484+00:00</time>
      </trkpt>
      <trkpt lat="48.64457" lon="2.50588">
        <ele>65</ele>
        <time>2026-05-31T14:39:29.503+00:00</time>
      </trkpt>
      <trkpt lat="48.64452" lon="2.50586">
        <ele>65</ele>
        <time>2026-05-31T14:39:33.964+00:00</time>
      </trkpt>
      <trkpt lat="48.64446" lon="2.50583">
        <ele>65</ele>
        <time>2026-05-31T14:39:37.986+00:00</time>
      </trkpt>
      <trkpt lat="48.64441" lon="2.50582">
        <ele>65</ele>
        <time>2026-05-31T14:39:42.634+00:00</time>
      </trkpt>
      <trkpt lat="48.64436" lon="2.5058">
        <ele>65</ele>
        <time>2026-05-31T14:39:46.706+00:00</time>
      </trkpt>
      <trkpt lat="48.6443" lon="2.50581">
        <ele>68</ele>
        <time>2026-05-31T14:39:51.742+00:00</time>
      </trkpt>
      <trkpt lat="48.64424" lon="2.50581">
        <ele>68</ele>
        <time>2026-05-31T14:39:56.222+00:00</time>
      </trkpt>
      <trkpt lat="48.6442" lon="2.50581">
        <ele>68</ele>
        <time>2026-05-31T14:40:00.240+00:00</time>
      </trkpt>
      <trkpt lat="48.64414" lon="2.50582">
        <ele>68</ele>
        <time>2026-05-31T14:40:04.441+00:00</time>
      </trkpt>
      <trkpt lat="48.64409" lon="2.50583">
        <ele>68</ele>
        <time>2026-05-31T14:40:08.742+00:00</time>
      </trkpt>
      <trkpt lat="48.64404" lon="2.50582">
        <ele>68</ele>
        <time>2026-05-31T14:40:12.742+00:00</time>
      </trkpt>
      <trkpt lat="48.64399" lon="2.50583">
        <ele>70</ele>
        <time>2026-05-31T14:40:17.759+00:00</time>
      </trkpt>
      <trkpt lat="48.64394" lon="2.50583">
        <ele>70</ele>
        <time>2026-05-31T14:40:22.018+00:00</time>
      </trkpt>
      <trkpt lat="48.64389" lon="2.50581">
        <ele>70</ele>
        <time>2026-05-31T14:40:26.363+00:00</time>
      </trkpt>
      <trkpt lat="48.64383" lon="2.50578">
        <ele>70</ele>
        <time>2026-05-31T14:40:30.742+00:00</time>
      </trkpt>
      <trkpt lat="48.64379" lon="2.50575">
        <ele>70</ele>
        <time>2026-05-31T14:40:35.140+00:00</time>
      </trkpt>
      <trkpt lat="48.64373" lon="2.50573">
        <ele>73</ele>
        <time>2026-05-31T14:40:39.543+00:00</time>
      </trkpt>
      <trkpt lat="48.6437" lon="2.50571">
        <ele>73</ele>
        <time>2026-05-31T14:40:43.742+00:00</time>
      </trkpt>
      <trkpt lat="48.64364" lon="2.50571">
        <ele>73</ele>
        <time>2026-05-31T14:40:48.542+00:00</time>
      </trkpt>
      <trkpt lat="48.64359" lon="2.50575">
        <ele>73</ele>
        <time>2026-05-31T14:40:53.458+00:00</time>
      </trkpt>
      <trkpt lat="48.64356" lon="2.50576">
        <ele>73</ele>
        <time>2026-05-31T14:40:57.715+00:00</time>
      </trkpt>
      <trkpt lat="48.64352" lon="2.50573">
        <ele>73</ele>
        <time>2026-05-31T14:41:01.742+00:00</time>
      </trkpt>
      <trkpt lat="48.64348" lon="2.50568">
        <ele>71</ele>
        <time>2026-05-31T14:41:05.982+00:00</time>
      </trkpt>
      <trkpt lat="48.64347" lon="2.50574">
        <ele>74</ele>
        <time>2026-05-31T14:41:10.558+00:00</time>
      </trkpt>
      <trkpt lat="48.64342" lon="2.50576">
        <ele>74</ele>
        <time>2026-05-31T14:41:15.442+00:00</time>
      </trkpt>
      <trkpt lat="48.64338" lon="2.50575">
        <ele>74</ele>
        <time>2026-05-31T14:41:19.665+00:00</time>
      </trkpt>
      <trkpt lat="48.64334" lon="2.50569">
        <ele>72</ele>
        <time>2026-05-31T14:41:23.742+00:00</time>
      </trkpt>
      <trkpt lat="48.64334" lon="2.50563">
        <ele>72</ele>
        <time>2026-05-31T14:41:28.055+00:00</time>
      </trkpt>
      <trkpt lat="48.64332" lon="2.50557">
        <ele>72</ele>
        <time>2026-05-31T14:41:32.382+00:00</time>
      </trkpt>
      <trkpt lat="48.6433" lon="2.50552">
        <ele>72</ele>
        <time>2026-05-31T14:41:36.737+00:00</time>
      </trkpt>
      <trkpt lat="48.64328" lon="2.50547">
        <ele>72</ele>
        <time>2026-05-31T14:41:41.140+00:00</time>
      </trkpt>
    </trkseg>
  </trk>
</gpx>